<?xml version="1.0" encoding="UTF-8" standalone="no" ?>
<gpx xmlns="http://www.topografix.com/GPX/1/1" xmlns:xsi="http://www.w3.org/2001/XMLSchema-instance" xsi:schemaLocation="http://www.topografix.com/GPX/1/1 http://www.topografix.com/GPX/1/1/gpx.xsd" version="1.1" creator="VisuGPX - https://www.visugpx.com">
  <metadata>
    <name>HRP J10</name>
  </metadata>
  <trk>
    <name><![CDATA[Route from 42.813080N, 0.225921W to Rue du Lapacca]]></name>
    <extensions>
      <line xmlns="http://www.topografix.com/GPX/gpx_style/0/2">
        <color>0000FF</color>
        <width>4</width>
      </line>
    </extensions>
    <trkseg>
      <trkpt lat="42.81309" lon="-0.22593">
        <ele>2455</ele>
        <time>2024-08-01T05:00:51.000Z</time>
      </trkpt>
      <trkpt lat="42.81309" lon="-0.22593">
        <ele>2454</ele>
        <time>2024-08-01T05:00:51.000Z</time>
      </trkpt>
      <trkpt lat="42.81322" lon="-0.22582">
        <ele>2453</ele>
        <time>2024-08-01T05:01:03.081Z</time>
      </trkpt>
      <trkpt lat="42.81327" lon="-0.22577">
        <ele>2453</ele>
        <time>2024-08-01T05:01:08.678Z</time>
      </trkpt>
      <trkpt lat="42.81336" lon="-0.22575">
        <ele>2453</ele>
        <time>2024-08-01T05:01:16.637Z</time>
      </trkpt>
      <trkpt lat="42.81356" lon="-0.22545">
        <ele>2451</ele>
        <time>2024-08-01T05:01:39.816Z</time>
      </trkpt>
      <trkpt lat="42.8136" lon="-0.22534">
        <ele>2449</ele>
        <time>2024-08-01T05:01:46.819Z</time>
      </trkpt>
      <trkpt lat="42.81365" lon="-0.22526">
        <ele>2448</ele>
        <time>2024-08-01T05:01:53.427Z</time>
      </trkpt>
      <trkpt lat="42.81372" lon="-0.22514">
        <ele>2447</ele>
        <time>2024-08-01T05:02:02.390Z</time>
      </trkpt>
      <trkpt lat="42.81375" lon="-0.22504">
        <ele>2445</ele>
        <time>2024-08-01T05:02:08.422Z</time>
      </trkpt>
      <trkpt lat="42.81381" lon="-0.22467">
        <ele>2440</ele>
        <time>2024-08-01T05:02:30.245Z</time>
      </trkpt>
      <trkpt lat="42.81385" lon="-0.22454">
        <ele>2439</ele>
        <time>2024-08-01T05:02:38.444Z</time>
      </trkpt>
      <trkpt lat="42.81387" lon="-0.22445">
        <ele>2439</ele>
        <time>2024-08-01T05:02:44.602Z</time>
      </trkpt>
      <trkpt lat="42.81387" lon="-0.22438">
        <ele>2439</ele>
        <time>2024-08-01T05:02:49.299Z</time>
      </trkpt>
      <trkpt lat="42.8139" lon="-0.22436">
        <ele>2438</ele>
        <time>2024-08-01T05:02:52.054Z</time>
      </trkpt>
      <trkpt lat="42.81393" lon="-0.22431">
        <ele>2438</ele>
        <time>2024-08-01T05:02:56.377Z</time>
      </trkpt>
      <trkpt lat="42.81396" lon="-0.22427">
        <ele>2438</ele>
        <time>2024-08-01T05:03:00.540Z</time>
      </trkpt>
      <trkpt lat="42.81404" lon="-0.22427">
        <ele>2437</ele>
        <time>2024-08-01T05:03:06.319Z</time>
      </trkpt>
      <trkpt lat="42.81413" lon="-0.22427">
        <ele>2436</ele>
        <time>2024-08-01T05:03:13.515Z</time>
      </trkpt>
      <trkpt lat="42.81417" lon="-0.22423">
        <ele>2436</ele>
        <time>2024-08-01T05:03:17.838Z</time>
      </trkpt>
      <trkpt lat="42.8142" lon="-0.22414">
        <ele>2436</ele>
        <time>2024-08-01T05:03:24.271Z</time>
      </trkpt>
      <trkpt lat="42.81431" lon="-0.22391">
        <ele>2436</ele>
        <time>2024-08-01T05:03:42.315Z</time>
      </trkpt>
      <trkpt lat="42.81437" lon="-0.2238">
        <ele>2436</ele>
        <time>2024-08-01T05:03:51.653Z</time>
      </trkpt>
      <trkpt lat="42.81445" lon="-0.22366">
        <ele>2436</ele>
        <time>2024-08-01T05:04:03.432Z</time>
      </trkpt>
      <trkpt lat="42.81455" lon="-0.22359">
        <ele>2435</ele>
        <time>2024-08-01T05:04:12.245Z</time>
      </trkpt>
      <trkpt lat="42.81458" lon="-0.22353">
        <ele>2433</ele>
        <time>2024-08-01T05:04:16.773Z</time>
      </trkpt>
      <trkpt lat="42.81463" lon="-0.22329">
        <ele>2432</ele>
        <time>2024-08-01T05:04:31.168Z</time>
      </trkpt>
      <trkpt lat="42.81464" lon="-0.22311">
        <ele>2429</ele>
        <time>2024-08-01T05:04:41.646Z</time>
      </trkpt>
      <trkpt lat="42.81464" lon="-0.22279">
        <ele>2422</ele>
        <time>2024-08-01T05:04:59.881Z</time>
      </trkpt>
      <trkpt lat="42.81467" lon="-0.22275">
        <ele>2421</ele>
        <time>2024-08-01T05:05:03.151Z</time>
      </trkpt>
      <trkpt lat="42.81472" lon="-0.22273">
        <ele>2420</ele>
        <time>2024-08-01T05:05:06.944Z</time>
      </trkpt>
      <trkpt lat="42.81481" lon="-0.22269">
        <ele>2417</ele>
        <time>2024-08-01T05:05:14.573Z</time>
      </trkpt>
      <trkpt lat="42.81485" lon="-0.22264">
        <ele>2415</ele>
        <time>2024-08-01T05:05:18.960Z</time>
      </trkpt>
      <trkpt lat="42.81486" lon="-0.22255">
        <ele>2413</ele>
        <time>2024-08-01T05:05:24.270Z</time>
      </trkpt>
      <trkpt lat="42.81489" lon="-0.22239">
        <ele>2410</ele>
        <time>2024-08-01T05:05:33.947Z</time>
      </trkpt>
      <trkpt lat="42.8149" lon="-0.22213">
        <ele>2403</ele>
        <time>2024-08-01T05:05:49.065Z</time>
      </trkpt>
      <trkpt lat="42.81495" lon="-0.22178">
        <ele>2394</ele>
        <time>2024-08-01T05:06:09.753Z</time>
      </trkpt>
      <trkpt lat="42.81508" lon="-0.22096">
        <ele>2371</ele>
        <time>2024-08-01T05:06:58.163Z</time>
      </trkpt>
      <trkpt lat="42.81507" lon="-0.22082">
        <ele>2368</ele>
        <time>2024-08-01T05:07:06.045Z</time>
      </trkpt>
      <trkpt lat="42.81512" lon="-0.22056">
        <ele>2361</ele>
        <time>2024-08-01T05:07:21.583Z</time>
      </trkpt>
      <trkpt lat="42.81515" lon="-0.22036">
        <ele>2355</ele>
        <time>2024-08-01T05:07:33.789Z</time>
      </trkpt>
      <trkpt lat="42.81518" lon="-0.22021">
        <ele>2351</ele>
        <time>2024-08-01T05:07:42.374Z</time>
      </trkpt>
      <trkpt lat="42.81517" lon="-0.22003">
        <ele>2347</ele>
        <time>2024-08-01T05:07:52.746Z</time>
      </trkpt>
      <trkpt lat="42.81519" lon="-0.21998">
        <ele>2346</ele>
        <time>2024-08-01T05:07:56.248Z</time>
      </trkpt>
      <trkpt lat="42.81523" lon="-0.2197">
        <ele>2340</ele>
        <time>2024-08-01T05:08:12.689Z</time>
      </trkpt>
      <trkpt lat="42.81527" lon="-0.21953">
        <ele>2336</ele>
        <time>2024-08-01T05:08:23.023Z</time>
      </trkpt>
      <trkpt lat="42.81529" lon="-0.21949">
        <ele>2335</ele>
        <time>2024-08-01T05:08:26.079Z</time>
      </trkpt>
      <trkpt lat="42.81529" lon="-0.21946">
        <ele>2334</ele>
        <time>2024-08-01T05:08:27.642Z</time>
      </trkpt>
      <trkpt lat="42.81524" lon="-0.21939">
        <ele>2333</ele>
        <time>2024-08-01T05:08:33.169Z</time>
      </trkpt>
      <trkpt lat="42.81524" lon="-0.21935">
        <ele>2333</ele>
        <time>2024-08-01T05:08:35.569Z</time>
      </trkpt>
      <trkpt lat="42.81521" lon="-0.21931">
        <ele>2332</ele>
        <time>2024-08-01T05:08:38.931Z</time>
      </trkpt>
      <trkpt lat="42.81517" lon="-0.21919">
        <ele>2330</ele>
        <time>2024-08-01T05:08:46.317Z</time>
      </trkpt>
      <trkpt lat="42.81515" lon="-0.21915">
        <ele>2330</ele>
        <time>2024-08-01T05:08:49.742Z</time>
      </trkpt>
      <trkpt lat="42.81514" lon="-0.21908">
        <ele>2329</ele>
        <time>2024-08-01T05:08:53.586Z</time>
      </trkpt>
      <trkpt lat="42.81514" lon="-0.21904">
        <ele>2328</ele>
        <time>2024-08-01T05:08:56.249Z</time>
      </trkpt>
      <trkpt lat="42.81516" lon="-0.21884">
        <ele>2324</ele>
        <time>2024-08-01T05:09:07.751Z</time>
      </trkpt>
      <trkpt lat="42.81516" lon="-0.2187">
        <ele>2322</ele>
        <time>2024-08-01T05:09:16.100Z</time>
      </trkpt>
      <trkpt lat="42.81518" lon="-0.2185">
        <ele>2318</ele>
        <time>2024-08-01T05:09:27.743Z</time>
      </trkpt>
      <trkpt lat="42.81522" lon="-0.21834">
        <ele>2315</ele>
        <time>2024-08-01T05:09:37.146Z</time>
      </trkpt>
      <trkpt lat="42.81527" lon="-0.21826">
        <ele>2312</ele>
        <time>2024-08-01T05:09:43.076Z</time>
      </trkpt>
      <trkpt lat="42.8153" lon="-0.21813">
        <ele>2310</ele>
        <time>2024-08-01T05:09:51.099Z</time>
      </trkpt>
      <trkpt lat="42.81533" lon="-0.21778">
        <ele>2306</ele>
        <time>2024-08-01T05:10:11.583Z</time>
      </trkpt>
      <trkpt lat="42.81537" lon="-0.21764">
        <ele>2302</ele>
        <time>2024-08-01T05:10:20.148Z</time>
      </trkpt>
      <trkpt lat="42.81536" lon="-0.21755">
        <ele>2301</ele>
        <time>2024-08-01T05:10:25.970Z</time>
      </trkpt>
      <trkpt lat="42.81539" lon="-0.21748">
        <ele>2299</ele>
        <time>2024-08-01T05:10:30.154Z</time>
      </trkpt>
      <trkpt lat="42.81539" lon="-0.21737">
        <ele>2297</ele>
        <time>2024-08-01T05:10:36.406Z</time>
      </trkpt>
      <trkpt lat="42.8154" lon="-0.2173">
        <ele>2295</ele>
        <time>2024-08-01T05:10:40.698Z</time>
      </trkpt>
      <trkpt lat="42.81539" lon="-0.21714">
        <ele>2292</ele>
        <time>2024-08-01T05:10:50.030Z</time>
      </trkpt>
      <trkpt lat="42.81551" lon="-0.2173">
        <ele>2292</ele>
        <time>2024-08-01T05:11:04.709Z</time>
      </trkpt>
      <trkpt lat="42.81553" lon="-0.21728">
        <ele>2291</ele>
        <time>2024-08-01T05:11:07.351Z</time>
      </trkpt>
      <trkpt lat="42.81551" lon="-0.21709">
        <ele>2290</ele>
        <time>2024-08-01T05:11:18.359Z</time>
      </trkpt>
      <trkpt lat="42.81549" lon="-0.21687">
        <ele>2290</ele>
        <time>2024-08-01T05:11:32.751Z</time>
      </trkpt>
      <trkpt lat="42.81547" lon="-0.21673">
        <ele>2289</ele>
        <time>2024-08-01T05:11:41.299Z</time>
      </trkpt>
      <trkpt lat="42.81537" lon="-0.21657">
        <ele>2288</ele>
        <time>2024-08-01T05:11:53.454Z</time>
      </trkpt>
      <trkpt lat="42.81537" lon="-0.21649">
        <ele>2288</ele>
        <time>2024-08-01T05:11:58.813Z</time>
      </trkpt>
      <trkpt lat="42.81537" lon="-0.21645">
        <ele>2288</ele>
        <time>2024-08-01T05:12:01.255Z</time>
      </trkpt>
      <trkpt lat="42.81534" lon="-0.21624">
        <ele>2288</ele>
        <time>2024-08-01T05:12:15.269Z</time>
      </trkpt>
      <trkpt lat="42.81522" lon="-0.21573">
        <ele>2278</ele>
        <time>2024-08-01T05:12:46.505Z</time>
      </trkpt>
      <trkpt lat="42.81527" lon="-0.21544">
        <ele>2274</ele>
        <time>2024-08-01T05:13:03.637Z</time>
      </trkpt>
      <trkpt lat="42.81532" lon="-0.21524">
        <ele>2272</ele>
        <time>2024-08-01T05:13:16.248Z</time>
      </trkpt>
      <trkpt lat="42.81543" lon="-0.21509">
        <ele>2269</ele>
        <time>2024-08-01T05:13:28.397Z</time>
      </trkpt>
      <trkpt lat="42.81547" lon="-0.21497">
        <ele>2265</ele>
        <time>2024-08-01T05:13:36.142Z</time>
      </trkpt>
      <trkpt lat="42.81552" lon="-0.21495">
        <ele>2264</ele>
        <time>2024-08-01T05:13:40.438Z</time>
      </trkpt>
      <trkpt lat="42.8158" lon="-0.21489">
        <ele>2257</ele>
        <time>2024-08-01T05:14:02.599Z</time>
      </trkpt>
      <trkpt lat="42.81595" lon="-0.21481">
        <ele>2254</ele>
        <time>2024-08-01T05:14:15.940Z</time>
      </trkpt>
      <trkpt lat="42.81599" lon="-0.21472">
        <ele>2251</ele>
        <time>2024-08-01T05:14:21.304Z</time>
      </trkpt>
      <trkpt lat="42.81599" lon="-0.21467">
        <ele>2249</ele>
        <time>2024-08-01T05:14:24.421Z</time>
      </trkpt>
      <trkpt lat="42.81595" lon="-0.21461">
        <ele>2247</ele>
        <time>2024-08-01T05:14:29.244Z</time>
      </trkpt>
      <trkpt lat="42.81592" lon="-0.21453">
        <ele>2244</ele>
        <time>2024-08-01T05:14:34.853Z</time>
      </trkpt>
      <trkpt lat="42.81594" lon="-0.21446">
        <ele>2242</ele>
        <time>2024-08-01T05:14:39.037Z</time>
      </trkpt>
      <trkpt lat="42.81619" lon="-0.21446">
        <ele>2242</ele>
        <time>2024-08-01T05:15:01.043Z</time>
      </trkpt>
      <trkpt lat="42.81627" lon="-0.21435">
        <ele>2239</ele>
        <time>2024-08-01T05:15:10.575Z</time>
      </trkpt>
      <trkpt lat="42.81645" lon="-0.21418">
        <ele>2236</ele>
        <time>2024-08-01T05:15:27.823Z</time>
      </trkpt>
      <trkpt lat="42.81651" lon="-0.21395">
        <ele>2231</ele>
        <time>2024-08-01T05:15:41.600Z</time>
      </trkpt>
      <trkpt lat="42.81632" lon="-0.21409">
        <ele>2230</ele>
        <time>2024-08-01T05:15:58.132Z</time>
      </trkpt>
      <trkpt lat="42.81626" lon="-0.21407">
        <ele>2229</ele>
        <time>2024-08-01T05:16:03.443Z</time>
      </trkpt>
      <trkpt lat="42.8162" lon="-0.21401">
        <ele>2227</ele>
        <time>2024-08-01T05:16:09.357Z</time>
      </trkpt>
      <trkpt lat="42.81609" lon="-0.21382">
        <ele>2221</ele>
        <time>2024-08-01T05:16:23.332Z</time>
      </trkpt>
      <trkpt lat="42.81603" lon="-0.21367">
        <ele>2218</ele>
        <time>2024-08-01T05:16:32.930Z</time>
      </trkpt>
      <trkpt lat="42.81597" lon="-0.21353">
        <ele>2217</ele>
        <time>2024-08-01T05:16:42.517Z</time>
      </trkpt>
      <trkpt lat="42.81594" lon="-0.2134">
        <ele>2215</ele>
        <time>2024-08-01T05:16:50.093Z</time>
      </trkpt>
      <trkpt lat="42.81599" lon="-0.2134">
        <ele>2214</ele>
        <time>2024-08-01T05:16:53.723Z</time>
      </trkpt>
      <trkpt lat="42.81604" lon="-0.21343">
        <ele>2213</ele>
        <time>2024-08-01T05:16:58.114Z</time>
      </trkpt>
      <trkpt lat="42.81611" lon="-0.21343">
        <ele>2212</ele>
        <time>2024-08-01T05:17:03.875Z</time>
      </trkpt>
      <trkpt lat="42.81617" lon="-0.21338">
        <ele>2211</ele>
        <time>2024-08-01T05:17:09.549Z</time>
      </trkpt>
      <trkpt lat="42.81623" lon="-0.21326">
        <ele>2209</ele>
        <time>2024-08-01T05:17:17.720Z</time>
      </trkpt>
      <trkpt lat="42.81627" lon="-0.21295">
        <ele>2204</ele>
        <time>2024-08-01T05:17:36.154Z</time>
      </trkpt>
      <trkpt lat="42.81644" lon="-0.21273">
        <ele>2200</ele>
        <time>2024-08-01T05:17:54.609Z</time>
      </trkpt>
      <trkpt lat="42.81657" lon="-0.21253">
        <ele>2195</ele>
        <time>2024-08-01T05:18:10.000Z</time>
      </trkpt>
      <trkpt lat="42.81673" lon="-0.21253">
        <ele>2196</ele>
        <time>2024-08-01T05:18:26.930Z</time>
      </trkpt>
      <trkpt lat="42.81685" lon="-0.21248">
        <ele>2195</ele>
        <time>2024-08-01T05:18:37.295Z</time>
      </trkpt>
      <trkpt lat="42.8169" lon="-0.21245">
        <ele>2196</ele>
        <time>2024-08-01T05:18:46.671Z</time>
      </trkpt>
      <trkpt lat="42.817" lon="-0.21165">
        <ele>2185</ele>
        <time>2024-08-01T05:19:33.576Z</time>
      </trkpt>
      <trkpt lat="42.817" lon="-0.21136">
        <ele>2177</ele>
        <time>2024-08-01T05:19:50.777Z</time>
      </trkpt>
      <trkpt lat="42.81702" lon="-0.21099">
        <ele>2169</ele>
        <time>2024-08-01T05:20:12.079Z</time>
      </trkpt>
      <trkpt lat="42.81709" lon="-0.21083">
        <ele>2170</ele>
        <time>2024-08-01T05:20:28.203Z</time>
      </trkpt>
      <trkpt lat="42.81715" lon="-0.21013">
        <ele>2156</ele>
        <time>2024-08-01T05:21:08.529Z</time>
      </trkpt>
      <trkpt lat="42.81663" lon="-0.21066">
        <ele>2139</ele>
        <time>2024-08-01T05:21:59.900Z</time>
      </trkpt>
      <trkpt lat="42.81693" lon="-0.20945">
        <ele>2116</ele>
        <time>2024-08-01T05:23:13.582Z</time>
      </trkpt>
      <trkpt lat="42.81657" lon="-0.20973">
        <ele>2104</ele>
        <time>2024-08-01T05:23:46.397Z</time>
      </trkpt>
      <trkpt lat="42.81689" lon="-0.20844">
        <ele>2078</ele>
        <time>2024-08-01T05:25:05.519Z</time>
      </trkpt>
      <trkpt lat="42.81709" lon="-0.20795">
        <ele>2068</ele>
        <time>2024-08-01T05:25:37.598Z</time>
      </trkpt>
      <trkpt lat="42.81619" lon="-0.20846">
        <ele>2051</ele>
        <time>2024-08-01T05:26:54.137Z</time>
      </trkpt>
      <trkpt lat="42.81641" lon="-0.20753">
        <ele>2032</ele>
        <time>2024-08-01T05:27:50.432Z</time>
      </trkpt>
      <trkpt lat="42.8166" lon="-0.20734">
        <ele>2028</ele>
        <time>2024-08-01T05:28:09.057Z</time>
      </trkpt>
      <trkpt lat="42.81676" lon="-0.20731">
        <ele>2029</ele>
        <time>2024-08-01T05:28:26.616Z</time>
      </trkpt>
      <trkpt lat="42.81704" lon="-0.20694">
        <ele>2020</ele>
        <time>2024-08-01T05:28:57.504Z</time>
      </trkpt>
      <trkpt lat="42.81776" lon="-0.20583">
        <ele>1997</ele>
        <time>2024-08-01T05:30:23.267Z</time>
      </trkpt>
      <trkpt lat="42.81803" lon="-0.20522">
        <ele>1982</ele>
        <time>2024-08-01T05:31:04.598Z</time>
      </trkpt>
      <trkpt lat="42.81755" lon="-0.20554">
        <ele>1976</ele>
        <time>2024-08-01T05:31:46.707Z</time>
      </trkpt>
      <trkpt lat="42.81775" lon="-0.20506">
        <ele>1962</ele>
        <time>2024-08-01T05:32:18.343Z</time>
      </trkpt>
      <trkpt lat="42.81731" lon="-0.20505">
        <ele>1952</ele>
        <time>2024-08-01T05:32:52.595Z</time>
      </trkpt>
      <trkpt lat="42.817" lon="-0.205">
        <ele>1949</ele>
        <time>2024-08-01T05:33:17.752Z</time>
      </trkpt>
      <trkpt lat="42.81681" lon="-0.20502">
        <ele>1948</ele>
        <time>2024-08-01T05:33:32.314Z</time>
      </trkpt>
      <trkpt lat="42.81678" lon="-0.2049">
        <ele>1946</ele>
        <time>2024-08-01T05:33:40.058Z</time>
      </trkpt>
      <trkpt lat="42.8168" lon="-0.20478">
        <ele>1945</ele>
        <time>2024-08-01T05:33:47.135Z</time>
      </trkpt>
      <trkpt lat="42.81686" lon="-0.20459">
        <ele>1942</ele>
        <time>2024-08-01T05:33:58.847Z</time>
      </trkpt>
      <trkpt lat="42.81687" lon="-0.20453">
        <ele>1941</ele>
        <time>2024-08-01T05:34:02.636Z</time>
      </trkpt>
      <trkpt lat="42.81678" lon="-0.2044">
        <ele>1939</ele>
        <time>2024-08-01T05:34:12.886Z</time>
      </trkpt>
      <trkpt lat="42.81667" lon="-0.20432">
        <ele>1936</ele>
        <time>2024-08-01T05:34:22.918Z</time>
      </trkpt>
      <trkpt lat="42.81664" lon="-0.20422">
        <ele>1934</ele>
        <time>2024-08-01T05:34:28.950Z</time>
      </trkpt>
      <trkpt lat="42.81651" lon="-0.20414">
        <ele>1932</ele>
        <time>2024-08-01T05:34:40.373Z</time>
      </trkpt>
      <trkpt lat="42.81617" lon="-0.20429">
        <ele>1933</ele>
        <time>2024-08-01T05:35:15.255Z</time>
      </trkpt>
      <trkpt lat="42.81617" lon="-0.20426">
        <ele>1932</ele>
        <time>2024-08-01T05:35:17.339Z</time>
      </trkpt>
      <trkpt lat="42.81617" lon="-0.2042">
        <ele>1932</ele>
        <time>2024-08-01T05:35:21.375Z</time>
      </trkpt>
      <trkpt lat="42.81618" lon="-0.20394">
        <ele>1931</ele>
        <time>2024-08-01T05:35:36.548Z</time>
      </trkpt>
      <trkpt lat="42.81622" lon="-0.20376">
        <ele>1930</ele>
        <time>2024-08-01T05:35:47.435Z</time>
      </trkpt>
      <trkpt lat="42.81624" lon="-0.20334">
        <ele>1928</ele>
        <time>2024-08-01T05:36:11.430Z</time>
      </trkpt>
      <trkpt lat="42.81628" lon="-0.2032">
        <ele>1927</ele>
        <time>2024-08-01T05:36:20.107Z</time>
      </trkpt>
      <trkpt lat="42.81631" lon="-0.20307">
        <ele>1927</ele>
        <time>2024-08-01T05:36:29.458Z</time>
      </trkpt>
      <trkpt lat="42.8163" lon="-0.203">
        <ele>1927</ele>
        <time>2024-08-01T05:36:33.674Z</time>
      </trkpt>
      <trkpt lat="42.81628" lon="-0.20295">
        <ele>1929</ele>
        <time>2024-08-01T05:36:54.475Z</time>
      </trkpt>
      <trkpt lat="42.81628" lon="-0.20282">
        <ele>1930</ele>
        <time>2024-08-01T05:37:06.382Z</time>
      </trkpt>
      <trkpt lat="42.81632" lon="-0.20271">
        <ele>1931</ele>
        <time>2024-08-01T05:37:18.015Z</time>
      </trkpt>
      <trkpt lat="42.81666" lon="-0.20253">
        <ele>1925</ele>
        <time>2024-08-01T05:37:46.482Z</time>
      </trkpt>
      <trkpt lat="42.8168" lon="-0.2024">
        <ele>1924</ele>
        <time>2024-08-01T05:38:00.338Z</time>
      </trkpt>
      <trkpt lat="42.81694" lon="-0.20226">
        <ele>1923</ele>
        <time>2024-08-01T05:38:13.643Z</time>
      </trkpt>
      <trkpt lat="42.81734" lon="-0.20189">
        <ele>1914</ele>
        <time>2024-08-01T05:38:51.887Z</time>
      </trkpt>
      <trkpt lat="42.81763" lon="-0.20149">
        <ele>1906</ele>
        <time>2024-08-01T05:39:24.236Z</time>
      </trkpt>
      <trkpt lat="42.81774" lon="-0.20114">
        <ele>1901</ele>
        <time>2024-08-01T05:39:46.340Z</time>
      </trkpt>
      <trkpt lat="42.81777" lon="-0.201">
        <ele>1899</ele>
        <time>2024-08-01T05:39:54.924Z</time>
      </trkpt>
      <trkpt lat="42.81781" lon="-0.20098">
        <ele>1897</ele>
        <time>2024-08-01T05:39:58.230Z</time>
      </trkpt>
      <trkpt lat="42.8179" lon="-0.20101">
        <ele>1894</ele>
        <time>2024-08-01T05:40:06.109Z</time>
      </trkpt>
      <trkpt lat="42.81797" lon="-0.20095">
        <ele>1891</ele>
        <time>2024-08-01T05:40:12.222Z</time>
      </trkpt>
      <trkpt lat="42.81801" lon="-0.20039">
        <ele>1884</ele>
        <time>2024-08-01T05:40:45.128Z</time>
      </trkpt>
      <trkpt lat="42.81794" lon="-0.20018">
        <ele>1886</ele>
        <time>2024-08-01T05:41:07.709Z</time>
      </trkpt>
      <trkpt lat="42.81798" lon="-0.19984">
        <ele>1884</ele>
        <time>2024-08-01T05:41:27.778Z</time>
      </trkpt>
      <trkpt lat="42.81806" lon="-0.19972">
        <ele>1881</ele>
        <time>2024-08-01T05:41:36.995Z</time>
      </trkpt>
      <trkpt lat="42.8181" lon="-0.19959">
        <ele>1880</ele>
        <time>2024-08-01T05:41:45.262Z</time>
      </trkpt>
      <trkpt lat="42.8182" lon="-0.19932">
        <ele>1876</ele>
        <time>2024-08-01T05:42:02.937Z</time>
      </trkpt>
      <trkpt lat="42.81826" lon="-0.19893">
        <ele>1873</ele>
        <time>2024-08-01T05:42:25.817Z</time>
      </trkpt>
      <trkpt lat="42.81838" lon="-0.19845">
        <ele>1869</ele>
        <time>2024-08-01T05:42:55.365Z</time>
      </trkpt>
      <trkpt lat="42.81842" lon="-0.19836">
        <ele>1868</ele>
        <time>2024-08-01T05:43:01.456Z</time>
      </trkpt>
      <trkpt lat="42.81843" lon="-0.19831">
        <ele>1868</ele>
        <time>2024-08-01T05:43:04.482Z</time>
      </trkpt>
      <trkpt lat="42.81842" lon="-0.19819">
        <ele>1869</ele>
        <time>2024-08-01T05:43:16.404Z</time>
      </trkpt>
      <trkpt lat="42.81843" lon="-0.19809">
        <ele>1868</ele>
        <time>2024-08-01T05:43:22.155Z</time>
      </trkpt>
      <trkpt lat="42.81845" lon="-0.19799">
        <ele>1868</ele>
        <time>2024-08-01T05:43:28.825Z</time>
      </trkpt>
      <trkpt lat="42.81852" lon="-0.1978">
        <ele>1866</ele>
        <time>2024-08-01T05:43:41.152Z</time>
      </trkpt>
      <trkpt lat="42.81855" lon="-0.19766">
        <ele>1864</ele>
        <time>2024-08-01T05:43:49.885Z</time>
      </trkpt>
      <trkpt lat="42.81859" lon="-0.19758">
        <ele>1863</ele>
        <time>2024-08-01T05:43:55.489Z</time>
      </trkpt>
      <trkpt lat="42.81862" lon="-0.19747">
        <ele>1862</ele>
        <time>2024-08-01T05:44:02.231Z</time>
      </trkpt>
      <trkpt lat="42.81863" lon="-0.1974">
        <ele>1861</ele>
        <time>2024-08-01T05:44:06.435Z</time>
      </trkpt>
      <trkpt lat="42.81864" lon="-0.19728">
        <ele>1861</ele>
        <time>2024-08-01T05:44:14.201Z</time>
      </trkpt>
      <trkpt lat="42.8186" lon="-0.19714">
        <ele>1860</ele>
        <time>2024-08-01T05:44:22.878Z</time>
      </trkpt>
      <trkpt lat="42.81856" lon="-0.19699">
        <ele>1861</ele>
        <time>2024-08-01T05:44:36.467Z</time>
      </trkpt>
      <trkpt lat="42.81856" lon="-0.19685">
        <ele>1861</ele>
        <time>2024-08-01T05:44:46.059Z</time>
      </trkpt>
      <trkpt lat="42.81856" lon="-0.19674">
        <ele>1861</ele>
        <time>2024-08-01T05:44:53.158Z</time>
      </trkpt>
      <trkpt lat="42.81858" lon="-0.19665">
        <ele>1860</ele>
        <time>2024-08-01T05:44:58.757Z</time>
      </trkpt>
      <trkpt lat="42.81869" lon="-0.19651">
        <ele>1859</ele>
        <time>2024-08-01T05:45:10.525Z</time>
      </trkpt>
      <trkpt lat="42.81877" lon="-0.19638">
        <ele>1858</ele>
        <time>2024-08-01T05:45:20.119Z</time>
      </trkpt>
      <trkpt lat="42.81878" lon="-0.19635">
        <ele>1858</ele>
        <time>2024-08-01T05:45:22.256Z</time>
      </trkpt>
      <trkpt lat="42.81878" lon="-0.19629">
        <ele>1857</ele>
        <time>2024-08-01T05:45:25.903Z</time>
      </trkpt>
      <trkpt lat="42.81879" lon="-0.19625">
        <ele>1857</ele>
        <time>2024-08-01T05:45:28.863Z</time>
      </trkpt>
      <trkpt lat="42.81883" lon="-0.19615">
        <ele>1857</ele>
        <time>2024-08-01T05:45:36.398Z</time>
      </trkpt>
      <trkpt lat="42.81885" lon="-0.19613">
        <ele>1857</ele>
        <time>2024-08-01T05:45:38.999Z</time>
      </trkpt>
      <trkpt lat="42.81893" lon="-0.19618">
        <ele>1857</ele>
        <time>2024-08-01T05:45:46.458Z</time>
      </trkpt>
      <trkpt lat="42.81896" lon="-0.19623">
        <ele>1857</ele>
        <time>2024-08-01T05:45:50.667Z</time>
      </trkpt>
      <trkpt lat="42.81901" lon="-0.19622">
        <ele>1857</ele>
        <time>2024-08-01T05:45:54.868Z</time>
      </trkpt>
      <trkpt lat="42.81906" lon="-0.19619">
        <ele>1857</ele>
        <time>2024-08-01T05:45:59.948Z</time>
      </trkpt>
      <trkpt lat="42.81908" lon="-0.19615">
        <ele>1857</ele>
        <time>2024-08-01T05:46:03.737Z</time>
      </trkpt>
      <trkpt lat="42.81912" lon="-0.19603">
        <ele>1856</ele>
        <time>2024-08-01T05:46:11.124Z</time>
      </trkpt>
      <trkpt lat="42.81916" lon="-0.19597">
        <ele>1856</ele>
        <time>2024-08-01T05:46:16.245Z</time>
      </trkpt>
      <trkpt lat="42.81919" lon="-0.19591">
        <ele>1856</ele>
        <time>2024-08-01T05:46:21.419Z</time>
      </trkpt>
      <trkpt lat="42.8192" lon="-0.19589">
        <ele>1856</ele>
        <time>2024-08-01T05:46:23.028Z</time>
      </trkpt>
      <trkpt lat="42.81922" lon="-0.19585">
        <ele>1856</ele>
        <time>2024-08-01T05:46:25.723Z</time>
      </trkpt>
      <trkpt lat="42.81928" lon="-0.19576">
        <ele>1855</ele>
        <time>2024-08-01T05:46:33.090Z</time>
      </trkpt>
      <trkpt lat="42.81937" lon="-0.1956">
        <ele>1855</ele>
        <time>2024-08-01T05:46:46.643Z</time>
      </trkpt>
      <trkpt lat="42.81956" lon="-0.1955">
        <ele>1856</ele>
        <time>2024-08-01T05:47:07.650Z</time>
      </trkpt>
      <trkpt lat="42.8196" lon="-0.19548">
        <ele>1856</ele>
        <time>2024-08-01T05:47:11.385Z</time>
      </trkpt>
      <trkpt lat="42.81966" lon="-0.19546">
        <ele>1857</ele>
        <time>2024-08-01T05:47:21.090Z</time>
      </trkpt>
      <trkpt lat="42.8198" lon="-0.19534">
        <ele>1859</ele>
        <time>2024-08-01T05:47:43.592Z</time>
      </trkpt>
      <trkpt lat="42.81987" lon="-0.19521">
        <ele>1861</ele>
        <time>2024-08-01T05:48:02.365Z</time>
      </trkpt>
      <trkpt lat="42.81986" lon="-0.19503">
        <ele>1861</ele>
        <time>2024-08-01T05:48:14.330Z</time>
      </trkpt>
      <trkpt lat="42.81984" lon="-0.19476">
        <ele>1861</ele>
        <time>2024-08-01T05:48:32.808Z</time>
      </trkpt>
      <trkpt lat="42.81984" lon="-0.19458">
        <ele>1861</ele>
        <time>2024-08-01T05:48:44.715Z</time>
      </trkpt>
      <trkpt lat="42.81979" lon="-0.19446">
        <ele>1860</ele>
        <time>2024-08-01T05:48:52.348Z</time>
      </trkpt>
      <trkpt lat="42.81971" lon="-0.19438">
        <ele>1858</ele>
        <time>2024-08-01T05:49:00.184Z</time>
      </trkpt>
      <trkpt lat="42.81968" lon="-0.19432">
        <ele>1857</ele>
        <time>2024-08-01T05:49:03.966Z</time>
      </trkpt>
      <trkpt lat="42.81965" lon="-0.19425">
        <ele>1856</ele>
        <time>2024-08-01T05:49:08.832Z</time>
      </trkpt>
      <trkpt lat="42.81961" lon="-0.1942">
        <ele>1855</ele>
        <time>2024-08-01T05:49:13.260Z</time>
      </trkpt>
      <trkpt lat="42.81957" lon="-0.19407">
        <ele>1854</ele>
        <time>2024-08-01T05:49:21.303Z</time>
      </trkpt>
      <trkpt lat="42.81957" lon="-0.19401">
        <ele>1854</ele>
        <time>2024-08-01T05:49:25.470Z</time>
      </trkpt>
      <trkpt lat="42.8196" lon="-0.19388">
        <ele>1855</ele>
        <time>2024-08-01T05:49:37.893Z</time>
      </trkpt>
      <trkpt lat="42.81961" lon="-0.19384">
        <ele>1855</ele>
        <time>2024-08-01T05:49:40.936Z</time>
      </trkpt>
      <trkpt lat="42.81957" lon="-0.19377">
        <ele>1855</ele>
        <time>2024-08-01T05:49:46.545Z</time>
      </trkpt>
      <trkpt lat="42.81952" lon="-0.1936">
        <ele>1853</ele>
        <time>2024-08-01T05:49:57.260Z</time>
      </trkpt>
      <trkpt lat="42.81949" lon="-0.19355">
        <ele>1853</ele>
        <time>2024-08-01T05:50:01.049Z</time>
      </trkpt>
      <trkpt lat="42.81947" lon="-0.19352">
        <ele>1852</ele>
        <time>2024-08-01T05:50:03.270Z</time>
      </trkpt>
      <trkpt lat="42.81945" lon="-0.19352">
        <ele>1852</ele>
        <time>2024-08-01T05:50:05.170Z</time>
      </trkpt>
      <trkpt lat="42.81941" lon="-0.19353">
        <ele>1851</ele>
        <time>2024-08-01T05:50:08.946Z</time>
      </trkpt>
      <trkpt lat="42.81939" lon="-0.19355">
        <ele>1851</ele>
        <time>2024-08-01T05:50:11.108Z</time>
      </trkpt>
      <trkpt lat="42.81936" lon="-0.19357">
        <ele>1850</ele>
        <time>2024-08-01T05:50:13.383Z</time>
      </trkpt>
      <trkpt lat="42.81934" lon="-0.1936">
        <ele>1850</ele>
        <time>2024-08-01T05:50:16.371Z</time>
      </trkpt>
      <trkpt lat="42.81932" lon="-0.19359">
        <ele>1850</ele>
        <time>2024-08-01T05:50:17.767Z</time>
      </trkpt>
      <trkpt lat="42.81931" lon="-0.19358">
        <ele>1850</ele>
        <time>2024-08-01T05:50:18.635Z</time>
      </trkpt>
      <trkpt lat="42.81931" lon="-0.19353">
        <ele>1849</ele>
        <time>2024-08-01T05:50:21.240Z</time>
      </trkpt>
      <trkpt lat="42.81933" lon="-0.19346">
        <ele>1849</ele>
        <time>2024-08-01T05:50:26.167Z</time>
      </trkpt>
      <trkpt lat="42.81932" lon="-0.1933">
        <ele>1848</ele>
        <time>2024-08-01T05:50:35.503Z</time>
      </trkpt>
      <trkpt lat="42.81928" lon="-0.19326">
        <ele>1847</ele>
        <time>2024-08-01T05:50:39.219Z</time>
      </trkpt>
      <trkpt lat="42.81921" lon="-0.19329">
        <ele>1847</ele>
        <time>2024-08-01T05:50:46.041Z</time>
      </trkpt>
      <trkpt lat="42.81916" lon="-0.1933">
        <ele>1846</ele>
        <time>2024-08-01T05:50:49.708Z</time>
      </trkpt>
      <trkpt lat="42.81909" lon="-0.19323">
        <ele>1845</ele>
        <time>2024-08-01T05:50:56.818Z</time>
      </trkpt>
      <trkpt lat="42.8191" lon="-0.19299">
        <ele>1843</ele>
        <time>2024-08-01T05:51:10.895Z</time>
      </trkpt>
      <trkpt lat="42.8192" lon="-0.19273">
        <ele>1844</ele>
        <time>2024-08-01T05:51:33.354Z</time>
      </trkpt>
      <trkpt lat="42.81921" lon="-0.19269">
        <ele>1844</ele>
        <time>2024-08-01T05:51:36.008Z</time>
      </trkpt>
      <trkpt lat="42.81921" lon="-0.19257">
        <ele>1843</ele>
        <time>2024-08-01T05:51:42.780Z</time>
      </trkpt>
      <trkpt lat="42.81924" lon="-0.19248">
        <ele>1843</ele>
        <time>2024-08-01T05:51:49.179Z</time>
      </trkpt>
      <trkpt lat="42.81924" lon="-0.19237">
        <ele>1842</ele>
        <time>2024-08-01T05:51:55.951Z</time>
      </trkpt>
      <trkpt lat="42.81921" lon="-0.19226">
        <ele>1840</ele>
        <time>2024-08-01T05:52:02.476Z</time>
      </trkpt>
      <trkpt lat="42.8192" lon="-0.19206">
        <ele>1837</ele>
        <time>2024-08-01T05:52:13.982Z</time>
      </trkpt>
      <trkpt lat="42.81916" lon="-0.19202">
        <ele>1836</ele>
        <time>2024-08-01T05:52:17.666Z</time>
      </trkpt>
      <trkpt lat="42.81908" lon="-0.19188">
        <ele>1833</ele>
        <time>2024-08-01T05:52:27.662Z</time>
      </trkpt>
      <trkpt lat="42.81909" lon="-0.19183">
        <ele>1833</ele>
        <time>2024-08-01T05:52:31.275Z</time>
      </trkpt>
      <trkpt lat="42.81923" lon="-0.19164">
        <ele>1832</ele>
        <time>2024-08-01T05:52:46.767Z</time>
      </trkpt>
      <trkpt lat="42.8193" lon="-0.19143">
        <ele>1831</ele>
        <time>2024-08-01T05:52:59.779Z</time>
      </trkpt>
      <trkpt lat="42.81934" lon="-0.19117">
        <ele>1829</ele>
        <time>2024-08-01T05:53:15.212Z</time>
      </trkpt>
      <trkpt lat="42.81931" lon="-0.19095">
        <ele>1827</ele>
        <time>2024-08-01T05:53:28.283Z</time>
      </trkpt>
      <trkpt lat="42.81928" lon="-0.1906">
        <ele>1823</ele>
        <time>2024-08-01T05:53:48.317Z</time>
      </trkpt>
      <trkpt lat="42.81924" lon="-0.19057">
        <ele>1822</ele>
        <time>2024-08-01T05:53:52.099Z</time>
      </trkpt>
      <trkpt lat="42.81919" lon="-0.19046">
        <ele>1821</ele>
        <time>2024-08-01T05:53:59.239Z</time>
      </trkpt>
      <trkpt lat="42.81914" lon="-0.19042">
        <ele>1820</ele>
        <time>2024-08-01T05:54:03.804Z</time>
      </trkpt>
      <trkpt lat="42.81906" lon="-0.19036">
        <ele>1819</ele>
        <time>2024-08-01T05:54:11.180Z</time>
      </trkpt>
      <trkpt lat="42.81899" lon="-0.19035">
        <ele>1818</ele>
        <time>2024-08-01T05:54:16.970Z</time>
      </trkpt>
      <trkpt lat="42.81888" lon="-0.19029">
        <ele>1817</ele>
        <time>2024-08-01T05:54:25.977Z</time>
      </trkpt>
      <trkpt lat="42.81875" lon="-0.19027">
        <ele>1818</ele>
        <time>2024-08-01T05:54:41.243Z</time>
      </trkpt>
      <trkpt lat="42.81871" lon="-0.19024">
        <ele>1818</ele>
        <time>2024-08-01T05:54:45.566Z</time>
      </trkpt>
      <trkpt lat="42.81866" lon="-0.19018">
        <ele>1818</ele>
        <time>2024-08-01T05:54:51.461Z</time>
      </trkpt>
      <trkpt lat="42.81863" lon="-0.19011">
        <ele>1817</ele>
        <time>2024-08-01T05:54:56.090Z</time>
      </trkpt>
      <trkpt lat="42.81856" lon="-0.19001">
        <ele>1818</ele>
        <time>2024-08-01T05:55:08.793Z</time>
      </trkpt>
      <trkpt lat="42.81847" lon="-0.18994">
        <ele>1819</ele>
        <time>2024-08-01T05:55:21.418Z</time>
      </trkpt>
      <trkpt lat="42.81841" lon="-0.18978">
        <ele>1819</ele>
        <time>2024-08-01T05:55:33.619Z</time>
      </trkpt>
      <trkpt lat="42.81833" lon="-0.18963">
        <ele>1819</ele>
        <time>2024-08-01T05:55:45.644Z</time>
      </trkpt>
      <trkpt lat="42.81824" lon="-0.18947">
        <ele>1819</ele>
        <time>2024-08-01T05:55:58.738Z</time>
      </trkpt>
      <trkpt lat="42.8182" lon="-0.18937">
        <ele>1819</ele>
        <time>2024-08-01T05:56:06.702Z</time>
      </trkpt>
      <trkpt lat="42.81815" lon="-0.18933">
        <ele>1820</ele>
        <time>2024-08-01T05:56:16.225Z</time>
      </trkpt>
      <trkpt lat="42.81805" lon="-0.18933">
        <ele>1821</ele>
        <time>2024-08-01T05:56:28.581Z</time>
      </trkpt>
      <trkpt lat="42.818" lon="-0.18932">
        <ele>1822</ele>
        <time>2024-08-01T05:56:37.795Z</time>
      </trkpt>
      <trkpt lat="42.81792" lon="-0.18929">
        <ele>1824</ele>
        <time>2024-08-01T05:56:55.513Z</time>
      </trkpt>
      <trkpt lat="42.81787" lon="-0.18923">
        <ele>1825</ele>
        <time>2024-08-01T05:57:05.453Z</time>
      </trkpt>
      <trkpt lat="42.81782" lon="-0.18924">
        <ele>1827</ele>
        <time>2024-08-01T05:57:25.397Z</time>
      </trkpt>
      <trkpt lat="42.81779" lon="-0.18925">
        <ele>1827</ele>
        <time>2024-08-01T05:57:28.446Z</time>
      </trkpt>
      <trkpt lat="42.81771" lon="-0.18916">
        <ele>1832</ele>
        <time>2024-08-01T05:58:15.047Z</time>
      </trkpt>
      <trkpt lat="42.81759" lon="-0.18915">
        <ele>1837</ele>
        <time>2024-08-01T05:59:06.016Z</time>
      </trkpt>
      <trkpt lat="42.81741" lon="-0.18933">
        <ele>1838</ele>
        <time>2024-08-01T05:59:29.073Z</time>
      </trkpt>
      <trkpt lat="42.81734" lon="-0.18943">
        <ele>1837</ele>
        <time>2024-08-01T05:59:36.817Z</time>
      </trkpt>
      <trkpt lat="42.81698" lon="-0.18953">
        <ele>1848</ele>
        <time>2024-08-01T06:01:16.207Z</time>
      </trkpt>
      <trkpt lat="42.81687" lon="-0.18958">
        <ele>1850</ele>
        <time>2024-08-01T06:01:34.958Z</time>
      </trkpt>
      <trkpt lat="42.81678" lon="-0.18959">
        <ele>1852</ele>
        <time>2024-08-01T06:01:52.830Z</time>
      </trkpt>
      <trkpt lat="42.8167" lon="-0.18964">
        <ele>1851</ele>
        <time>2024-08-01T06:01:59.804Z</time>
      </trkpt>
      <trkpt lat="42.81655" lon="-0.18968">
        <ele>1853</ele>
        <time>2024-08-01T06:02:20.758Z</time>
      </trkpt>
      <trkpt lat="42.81646" lon="-0.18977">
        <ele>1851</ele>
        <time>2024-08-01T06:02:30.149Z</time>
      </trkpt>
      <trkpt lat="42.8164" lon="-0.18978">
        <ele>1852</ele>
        <time>2024-08-01T06:02:39.681Z</time>
      </trkpt>
      <trkpt lat="42.81615" lon="-0.18989">
        <ele>1856</ele>
        <time>2024-08-01T06:03:19.038Z</time>
      </trkpt>
      <trkpt lat="42.81581" lon="-0.18998">
        <ele>1865</ele>
        <time>2024-08-01T06:04:38.899Z</time>
      </trkpt>
      <trkpt lat="42.81565" lon="-0.19003">
        <ele>1868</ele>
        <time>2024-08-01T06:05:06.962Z</time>
      </trkpt>
      <trkpt lat="42.81558" lon="-0.19004">
        <ele>1869</ele>
        <time>2024-08-01T06:05:17.001Z</time>
      </trkpt>
      <trkpt lat="42.81549" lon="-0.19007">
        <ele>1870</ele>
        <time>2024-08-01T06:05:28.488Z</time>
      </trkpt>
      <trkpt lat="42.81532" lon="-0.19002">
        <ele>1874</ele>
        <time>2024-08-01T06:06:04.028Z</time>
      </trkpt>
      <trkpt lat="42.81523" lon="-0.18994">
        <ele>1878</ele>
        <time>2024-08-01T06:06:43.031Z</time>
      </trkpt>
      <trkpt lat="42.81508" lon="-0.1899">
        <ele>1881</ele>
        <time>2024-08-01T06:07:10.409Z</time>
      </trkpt>
      <trkpt lat="42.81477" lon="-0.18985">
        <ele>1885</ele>
        <time>2024-08-01T06:07:53.565Z</time>
      </trkpt>
      <trkpt lat="42.81464" lon="-0.18984">
        <ele>1885</ele>
        <time>2024-08-01T06:08:04.851Z</time>
      </trkpt>
      <trkpt lat="42.81444" lon="-0.18975">
        <ele>1888</ele>
        <time>2024-08-01T06:08:35.860Z</time>
      </trkpt>
      <trkpt lat="42.81425" lon="-0.18972">
        <ele>1890</ele>
        <time>2024-08-01T06:08:59.765Z</time>
      </trkpt>
      <trkpt lat="42.81419" lon="-0.18961">
        <ele>1894</ele>
        <time>2024-08-01T06:09:40.081Z</time>
      </trkpt>
      <trkpt lat="42.81389" lon="-0.18949">
        <ele>1897</ele>
        <time>2024-08-01T06:10:18.875Z</time>
      </trkpt>
      <trkpt lat="42.81377" lon="-0.18947">
        <ele>1898</ele>
        <time>2024-08-01T06:10:32.443Z</time>
      </trkpt>
      <trkpt lat="42.8137" lon="-0.18949">
        <ele>1898</ele>
        <time>2024-08-01T06:10:39.033Z</time>
      </trkpt>
      <trkpt lat="42.81358" lon="-0.18946">
        <ele>1898</ele>
        <time>2024-08-01T06:10:49.913Z</time>
      </trkpt>
      <trkpt lat="42.81346" lon="-0.18937">
        <ele>1904</ele>
        <time>2024-08-01T06:11:53.727Z</time>
      </trkpt>
      <trkpt lat="42.81326" lon="-0.18944">
        <ele>1902</ele>
        <time>2024-08-01T06:12:10.233Z</time>
      </trkpt>
      <trkpt lat="42.81304" lon="-0.18934">
        <ele>1909</ele>
        <time>2024-08-01T06:13:13.690Z</time>
      </trkpt>
      <trkpt lat="42.81292" lon="-0.18932">
        <ele>1911</ele>
        <time>2024-08-01T06:13:32.421Z</time>
      </trkpt>
      <trkpt lat="42.81278" lon="-0.18928">
        <ele>1914</ele>
        <time>2024-08-01T06:13:59.522Z</time>
      </trkpt>
      <trkpt lat="42.81269" lon="-0.18922">
        <ele>1917</ele>
        <time>2024-08-01T06:14:26.574Z</time>
      </trkpt>
      <trkpt lat="42.81262" lon="-0.1892">
        <ele>1918</ele>
        <time>2024-08-01T06:14:36.551Z</time>
      </trkpt>
      <trkpt lat="42.81255" lon="-0.1892">
        <ele>1919</ele>
        <time>2024-08-01T06:14:46.497Z</time>
      </trkpt>
      <trkpt lat="42.81242" lon="-0.18922">
        <ele>1918</ele>
        <time>2024-08-01T06:14:56.971Z</time>
      </trkpt>
      <trkpt lat="42.81234" lon="-0.18919">
        <ele>1919</ele>
        <time>2024-08-01T06:15:08.561Z</time>
      </trkpt>
      <trkpt lat="42.81223" lon="-0.18904">
        <ele>1925</ele>
        <time>2024-08-01T06:16:09.162Z</time>
      </trkpt>
      <trkpt lat="42.81217" lon="-0.18901">
        <ele>1926</ele>
        <time>2024-08-01T06:16:19.019Z</time>
      </trkpt>
      <trkpt lat="42.81204" lon="-0.189">
        <ele>1926</ele>
        <time>2024-08-01T06:16:30.942Z</time>
      </trkpt>
      <trkpt lat="42.81192" lon="-0.189">
        <ele>1926</ele>
        <time>2024-08-01T06:16:41.674Z</time>
      </trkpt>
      <trkpt lat="42.81184" lon="-0.18901">
        <ele>1926</ele>
        <time>2024-08-01T06:16:49.432Z</time>
      </trkpt>
      <trkpt lat="42.81178" lon="-0.18905">
        <ele>1925</ele>
        <time>2024-08-01T06:16:54.605Z</time>
      </trkpt>
      <trkpt lat="42.8117" lon="-0.18906">
        <ele>1926</ele>
        <time>2024-08-01T06:17:04.988Z</time>
      </trkpt>
      <trkpt lat="42.81164" lon="-0.1891">
        <ele>1925</ele>
        <time>2024-08-01T06:17:10.785Z</time>
      </trkpt>
      <trkpt lat="42.81154" lon="-0.18913">
        <ele>1926</ele>
        <time>2024-08-01T06:17:23.394Z</time>
      </trkpt>
      <trkpt lat="42.81153" lon="-0.18917">
        <ele>1926</ele>
        <time>2024-08-01T06:17:25.989Z</time>
      </trkpt>
      <trkpt lat="42.81149" lon="-0.1892">
        <ele>1926</ele>
        <time>2024-08-01T06:17:29.872Z</time>
      </trkpt>
      <trkpt lat="42.81136" lon="-0.18924">
        <ele>1929</ele>
        <time>2024-08-01T06:17:56.570Z</time>
      </trkpt>
      <trkpt lat="42.81133" lon="-0.18919">
        <ele>1930</ele>
        <time>2024-08-01T06:18:05.522Z</time>
      </trkpt>
      <trkpt lat="42.81132" lon="-0.18914">
        <ele>1931</ele>
        <time>2024-08-01T06:18:14.383Z</time>
      </trkpt>
      <trkpt lat="42.81126" lon="-0.1891">
        <ele>1933</ele>
        <time>2024-08-01T06:18:32.512Z</time>
      </trkpt>
      <trkpt lat="42.81122" lon="-0.18905">
        <ele>1936</ele>
        <time>2024-08-01T06:18:54.859Z</time>
      </trkpt>
      <trkpt lat="42.81114" lon="-0.18877">
        <ele>1946</ele>
        <time>2024-08-01T06:20:39.335Z</time>
      </trkpt>
      <trkpt lat="42.81113" lon="-0.18865">
        <ele>1951</ele>
        <time>2024-08-01T06:21:23.572Z</time>
      </trkpt>
      <trkpt lat="42.81118" lon="-0.18848">
        <ele>1956</ele>
        <time>2024-08-01T06:22:14.041Z</time>
      </trkpt>
      <trkpt lat="42.81124" lon="-0.18838">
        <ele>1960</ele>
        <time>2024-08-01T06:22:55.203Z</time>
      </trkpt>
      <trkpt lat="42.81129" lon="-0.18826">
        <ele>1966</ele>
        <time>2024-08-01T06:23:42.965Z</time>
      </trkpt>
      <trkpt lat="42.81123" lon="-0.18826">
        <ele>1966</ele>
        <time>2024-08-01T06:23:48.376Z</time>
      </trkpt>
      <trkpt lat="42.81116" lon="-0.18832">
        <ele>1964</ele>
        <time>2024-08-01T06:23:55.128Z</time>
      </trkpt>
      <trkpt lat="42.81105" lon="-0.18846">
        <ele>1959</ele>
        <time>2024-08-01T06:24:06.536Z</time>
      </trkpt>
      <trkpt lat="42.81096" lon="-0.18856">
        <ele>1958</ele>
        <time>2024-08-01T06:24:15.821Z</time>
      </trkpt>
      <trkpt lat="42.81081" lon="-0.18846">
        <ele>1964</ele>
        <time>2024-08-01T06:25:14.723Z</time>
      </trkpt>
      <trkpt lat="42.81075" lon="-0.1884">
        <ele>1966</ele>
        <time>2024-08-01T06:25:32.483Z</time>
      </trkpt>
      <trkpt lat="42.81072" lon="-0.18841">
        <ele>1966</ele>
        <time>2024-08-01T06:25:35.518Z</time>
      </trkpt>
      <trkpt lat="42.81071" lon="-0.18844">
        <ele>1965</ele>
        <time>2024-08-01T06:25:37.151Z</time>
      </trkpt>
      <trkpt lat="42.8107" lon="-0.18849">
        <ele>1964</ele>
        <time>2024-08-01T06:25:40.326Z</time>
      </trkpt>
      <trkpt lat="42.8107" lon="-0.18852">
        <ele>1964</ele>
        <time>2024-08-01T06:25:42.158Z</time>
      </trkpt>
      <trkpt lat="42.81062" lon="-0.18852">
        <ele>1964</ele>
        <time>2024-08-01T06:25:49.283Z</time>
      </trkpt>
      <trkpt lat="42.81056" lon="-0.18849">
        <ele>1965</ele>
        <time>2024-08-01T06:25:58.973Z</time>
      </trkpt>
      <trkpt lat="42.81053" lon="-0.18848">
        <ele>1966</ele>
        <time>2024-08-01T06:26:08.473Z</time>
      </trkpt>
      <trkpt lat="42.81051" lon="-0.18846">
        <ele>1966</ele>
        <time>2024-08-01T06:26:10.672Z</time>
      </trkpt>
      <trkpt lat="42.81047" lon="-0.18846">
        <ele>1967</ele>
        <time>2024-08-01T06:26:19.605Z</time>
      </trkpt>
      <trkpt lat="42.81043" lon="-0.18843">
        <ele>1968</ele>
        <time>2024-08-01T06:26:28.488Z</time>
      </trkpt>
      <trkpt lat="42.81039" lon="-0.18839">
        <ele>1969</ele>
        <time>2024-08-01T06:26:37.492Z</time>
      </trkpt>
      <trkpt lat="42.81037" lon="-0.18841">
        <ele>1969</ele>
        <time>2024-08-01T06:26:40.153Z</time>
      </trkpt>
      <trkpt lat="42.81035" lon="-0.18843">
        <ele>1968</ele>
        <time>2024-08-01T06:26:42.044Z</time>
      </trkpt>
      <trkpt lat="42.81029" lon="-0.18843">
        <ele>1969</ele>
        <time>2024-08-01T06:26:51.555Z</time>
      </trkpt>
      <trkpt lat="42.81024" lon="-0.18844">
        <ele>1969</ele>
        <time>2024-08-01T06:26:55.746Z</time>
      </trkpt>
      <trkpt lat="42.81019" lon="-0.18843">
        <ele>1969</ele>
        <time>2024-08-01T06:27:00.563Z</time>
      </trkpt>
      <trkpt lat="42.81013" lon="-0.1884">
        <ele>1970</ele>
        <time>2024-08-01T06:27:10.267Z</time>
      </trkpt>
      <trkpt lat="42.81008" lon="-0.18838">
        <ele>1971</ele>
        <time>2024-08-01T06:27:19.373Z</time>
      </trkpt>
      <trkpt lat="42.81002" lon="-0.18833">
        <ele>1972</ele>
        <time>2024-08-01T06:27:29.450Z</time>
      </trkpt>
      <trkpt lat="42.80996" lon="-0.1883">
        <ele>1973</ele>
        <time>2024-08-01T06:27:39.288Z</time>
      </trkpt>
      <trkpt lat="42.80988" lon="-0.18823">
        <ele>1974</ele>
        <time>2024-08-01T06:27:51.614Z</time>
      </trkpt>
      <trkpt lat="42.80983" lon="-0.18818">
        <ele>1976</ele>
        <time>2024-08-01T06:28:09.785Z</time>
      </trkpt>
      <trkpt lat="42.80978" lon="-0.18813">
        <ele>1976</ele>
        <time>2024-08-01T06:28:14.853Z</time>
      </trkpt>
      <trkpt lat="42.80975" lon="-0.18809">
        <ele>1977</ele>
        <time>2024-08-01T06:28:23.714Z</time>
      </trkpt>
      <trkpt lat="42.80973" lon="-0.18805">
        <ele>1978</ele>
        <time>2024-08-01T06:28:32.621Z</time>
      </trkpt>
      <trkpt lat="42.80965" lon="-0.18803">
        <ele>1979</ele>
        <time>2024-08-01T06:28:43.673Z</time>
      </trkpt>
      <trkpt lat="42.80961" lon="-0.18796">
        <ele>1981</ele>
        <time>2024-08-01T06:29:02.332Z</time>
      </trkpt>
      <trkpt lat="42.80957" lon="-0.18793">
        <ele>1982</ele>
        <time>2024-08-01T06:29:11.296Z</time>
      </trkpt>
      <trkpt lat="42.80954" lon="-0.18788">
        <ele>1983</ele>
        <time>2024-08-01T06:29:20.172Z</time>
      </trkpt>
      <trkpt lat="42.80951" lon="-0.18787">
        <ele>1984</ele>
        <time>2024-08-01T06:29:29.145Z</time>
      </trkpt>
      <trkpt lat="42.80939" lon="-0.18786">
        <ele>1984</ele>
        <time>2024-08-01T06:29:39.898Z</time>
      </trkpt>
      <trkpt lat="42.80932" lon="-0.18784">
        <ele>1984</ele>
        <time>2024-08-01T06:29:46.488Z</time>
      </trkpt>
      <trkpt lat="42.80917" lon="-0.18788">
        <ele>1984</ele>
        <time>2024-08-01T06:30:00.502Z</time>
      </trkpt>
      <trkpt lat="42.80906" lon="-0.18776">
        <ele>1987</ele>
        <time>2024-08-01T06:30:27.339Z</time>
      </trkpt>
      <trkpt lat="42.80877" lon="-0.18765">
        <ele>1991</ele>
        <time>2024-08-01T06:31:09.671Z</time>
      </trkpt>
      <trkpt lat="42.80869" lon="-0.18757">
        <ele>1994</ele>
        <time>2024-08-01T06:31:37.005Z</time>
      </trkpt>
      <trkpt lat="42.80854" lon="-0.18755">
        <ele>1995</ele>
        <time>2024-08-01T06:31:53.892Z</time>
      </trkpt>
      <trkpt lat="42.80847" lon="-0.18756">
        <ele>1995</ele>
        <time>2024-08-01T06:31:59.958Z</time>
      </trkpt>
      <trkpt lat="42.80843" lon="-0.18747">
        <ele>1997</ele>
        <time>2024-08-01T06:32:17.678Z</time>
      </trkpt>
      <trkpt lat="42.80836" lon="-0.18721">
        <ele>2002</ele>
        <time>2024-08-01T06:33:01.973Z</time>
      </trkpt>
      <trkpt lat="42.80822" lon="-0.18709">
        <ele>2003</ele>
        <time>2024-08-01T06:33:19.378Z</time>
      </trkpt>
      <trkpt lat="42.80808" lon="-0.18702">
        <ele>2004</ele>
        <time>2024-08-01T06:33:36.509Z</time>
      </trkpt>
      <trkpt lat="42.80795" lon="-0.1868">
        <ele>2005</ele>
        <time>2024-08-01T06:33:58.605Z</time>
      </trkpt>
      <trkpt lat="42.80791" lon="-0.18662">
        <ele>2007</ele>
        <time>2024-08-01T06:34:18.879Z</time>
      </trkpt>
      <trkpt lat="42.80788" lon="-0.18652">
        <ele>2009</ele>
        <time>2024-08-01T06:34:36.629Z</time>
      </trkpt>
      <trkpt lat="42.80785" lon="-0.18643">
        <ele>2010</ele>
        <time>2024-08-01T06:34:47.115Z</time>
      </trkpt>
      <trkpt lat="42.80782" lon="-0.18639">
        <ele>2010</ele>
        <time>2024-08-01T06:34:50.958Z</time>
      </trkpt>
      <trkpt lat="42.80775" lon="-0.18626">
        <ele>2013</ele>
        <time>2024-08-01T06:35:17.547Z</time>
      </trkpt>
      <trkpt lat="42.80761" lon="-0.18614">
        <ele>2015</ele>
        <time>2024-08-01T06:35:39.621Z</time>
      </trkpt>
      <trkpt lat="42.80749" lon="-0.18601">
        <ele>2017</ele>
        <time>2024-08-01T06:36:01.431Z</time>
      </trkpt>
      <trkpt lat="42.80735" lon="-0.18591">
        <ele>2018</ele>
        <time>2024-08-01T06:36:18.704Z</time>
      </trkpt>
      <trkpt lat="42.80724" lon="-0.18575">
        <ele>2020</ele>
        <time>2024-08-01T06:36:40.169Z</time>
      </trkpt>
      <trkpt lat="42.80714" lon="-0.18554">
        <ele>2022</ele>
        <time>2024-08-01T06:37:04.403Z</time>
      </trkpt>
      <trkpt lat="42.80703" lon="-0.18532">
        <ele>2023</ele>
        <time>2024-08-01T06:37:25.020Z</time>
      </trkpt>
      <trkpt lat="42.80703" lon="-0.18504">
        <ele>2027</ele>
        <time>2024-08-01T06:38:01.442Z</time>
      </trkpt>
      <trkpt lat="42.80697" lon="-0.18478">
        <ele>2031</ele>
        <time>2024-08-01T06:38:37.690Z</time>
      </trkpt>
      <trkpt lat="42.80691" lon="-0.1844">
        <ele>2038</ele>
        <time>2024-08-01T06:39:39.712Z</time>
      </trkpt>
      <trkpt lat="42.80686" lon="-0.1843">
        <ele>2039</ele>
        <time>2024-08-01T06:39:51.111Z</time>
      </trkpt>
      <trkpt lat="42.80682" lon="-0.18426">
        <ele>2038</ele>
        <time>2024-08-01T06:39:54.926Z</time>
      </trkpt>
      <trkpt lat="42.80676" lon="-0.1842">
        <ele>2038</ele>
        <time>2024-08-01T06:40:01.685Z</time>
      </trkpt>
      <trkpt lat="42.80675" lon="-0.18412">
        <ele>2039</ele>
        <time>2024-08-01T06:40:11.261Z</time>
      </trkpt>
      <trkpt lat="42.80676" lon="-0.18404">
        <ele>2040</ele>
        <time>2024-08-01T06:40:20.879Z</time>
      </trkpt>
      <trkpt lat="42.80679" lon="-0.18398">
        <ele>2042</ele>
        <time>2024-08-01T06:40:40.877Z</time>
      </trkpt>
      <trkpt lat="42.80687" lon="-0.18398">
        <ele>2044</ele>
        <time>2024-08-01T06:40:58.754Z</time>
      </trkpt>
      <trkpt lat="42.80689" lon="-0.18395">
        <ele>2045</ele>
        <time>2024-08-01T06:41:07.920Z</time>
      </trkpt>
      <trkpt lat="42.80693" lon="-0.18361">
        <ele>2051</ele>
        <time>2024-08-01T06:42:01.113Z</time>
      </trkpt>
      <trkpt lat="42.80701" lon="-0.18307">
        <ele>2064</ele>
        <time>2024-08-01T06:44:01.568Z</time>
      </trkpt>
      <trkpt lat="42.80714" lon="-0.18328">
        <ele>2063</ele>
        <time>2024-08-01T06:44:17.544Z</time>
      </trkpt>
      <trkpt lat="42.80722" lon="-0.18335">
        <ele>2065</ele>
        <time>2024-08-01T06:44:35.485Z</time>
      </trkpt>
      <trkpt lat="42.80743" lon="-0.18338">
        <ele>2073</ele>
        <time>2024-08-01T06:45:53.789Z</time>
      </trkpt>
      <trkpt lat="42.80749" lon="-0.1835">
        <ele>2072</ele>
        <time>2024-08-01T06:46:02.006Z</time>
      </trkpt>
      <trkpt lat="42.80755" lon="-0.18352">
        <ele>2073</ele>
        <time>2024-08-01T06:46:11.280Z</time>
      </trkpt>
      <trkpt lat="42.80759" lon="-0.18346">
        <ele>2077</ele>
        <time>2024-08-01T06:46:39.667Z</time>
      </trkpt>
      <trkpt lat="42.80761" lon="-0.18353">
        <ele>2075</ele>
        <time>2024-08-01T06:46:44.070Z</time>
      </trkpt>
      <trkpt lat="42.80767" lon="-0.18355">
        <ele>2076</ele>
        <time>2024-08-01T06:46:53.676Z</time>
      </trkpt>
      <trkpt lat="42.80774" lon="-0.18351">
        <ele>2081</ele>
        <time>2024-08-01T06:47:31.755Z</time>
      </trkpt>
      <trkpt lat="42.80781" lon="-0.18346">
        <ele>2085</ele>
        <time>2024-08-01T06:48:06.542Z</time>
      </trkpt>
      <trkpt lat="42.80784" lon="-0.18341">
        <ele>2089</ele>
        <time>2024-08-01T06:48:28.978Z</time>
      </trkpt>
      <trkpt lat="42.80781" lon="-0.18318">
        <ele>2096</ele>
        <time>2024-08-01T06:49:40.803Z</time>
      </trkpt>
      <trkpt lat="42.80768" lon="-0.18296">
        <ele>2097</ele>
        <time>2024-08-01T06:50:02.497Z</time>
      </trkpt>
      <trkpt lat="42.80761" lon="-0.18289">
        <ele>2094</ele>
        <time>2024-08-01T06:50:09.168Z</time>
      </trkpt>
      <trkpt lat="42.80756" lon="-0.18281">
        <ele>2093</ele>
        <time>2024-08-01T06:50:15.451Z</time>
      </trkpt>
      <trkpt lat="42.80756" lon="-0.18273">
        <ele>2095</ele>
        <time>2024-08-01T06:50:34.403Z</time>
      </trkpt>
      <trkpt lat="42.80751" lon="-0.18252">
        <ele>2097</ele>
        <time>2024-08-01T06:50:56.326Z</time>
      </trkpt>
      <trkpt lat="42.8075" lon="-0.18241">
        <ele>2100</ele>
        <time>2024-08-01T06:51:26.076Z</time>
      </trkpt>
      <trkpt lat="42.80751" lon="-0.18231">
        <ele>2103</ele>
        <time>2024-08-01T06:51:56.937Z</time>
      </trkpt>
      <trkpt lat="42.80754" lon="-0.18238">
        <ele>2102</ele>
        <time>2024-08-01T06:52:01.419Z</time>
      </trkpt>
      <trkpt lat="42.80756" lon="-0.18235">
        <ele>2103</ele>
        <time>2024-08-01T06:52:11.263Z</time>
      </trkpt>
      <trkpt lat="42.80757" lon="-0.18238">
        <ele>2103</ele>
        <time>2024-08-01T06:52:13.397Z</time>
      </trkpt>
      <trkpt lat="42.80759" lon="-0.18234">
        <ele>2105</ele>
        <time>2024-08-01T06:52:28.243Z</time>
      </trkpt>
      <trkpt lat="42.80763" lon="-0.18239">
        <ele>2105</ele>
        <time>2024-08-01T06:52:33.274Z</time>
      </trkpt>
      <trkpt lat="42.80765" lon="-0.18234">
        <ele>2106</ele>
        <time>2024-08-01T06:52:42.159Z</time>
      </trkpt>
      <trkpt lat="42.80768" lon="-0.18246">
        <ele>2105</ele>
        <time>2024-08-01T06:52:49.181Z</time>
      </trkpt>
      <trkpt lat="42.8078" lon="-0.18257">
        <ele>2108</ele>
        <time>2024-08-01T06:53:16.125Z</time>
      </trkpt>
      <trkpt lat="42.80788" lon="-0.18247">
        <ele>2111</ele>
        <time>2024-08-01T06:53:42.801Z</time>
      </trkpt>
      <trkpt lat="42.80794" lon="-0.18213">
        <ele>2117</ele>
        <time>2024-08-01T06:54:35.970Z</time>
      </trkpt>
      <trkpt lat="42.80803" lon="-0.18205">
        <ele>2120</ele>
        <time>2024-08-01T06:55:02.973Z</time>
      </trkpt>
      <trkpt lat="42.80804" lon="-0.18198">
        <ele>2121</ele>
        <time>2024-08-01T06:55:12.212Z</time>
      </trkpt>
      <trkpt lat="42.80802" lon="-0.18192">
        <ele>2122</ele>
        <time>2024-08-01T06:55:21.292Z</time>
      </trkpt>
      <trkpt lat="42.80793" lon="-0.18187">
        <ele>2122</ele>
        <time>2024-08-01T06:55:29.804Z</time>
      </trkpt>
      <trkpt lat="42.80788" lon="-0.1818">
        <ele>2123</ele>
        <time>2024-08-01T06:55:40.405Z</time>
      </trkpt>
      <trkpt lat="42.80782" lon="-0.18158">
        <ele>2129</ele>
        <time>2024-08-01T06:56:37.318Z</time>
      </trkpt>
      <trkpt lat="42.80768" lon="-0.1813">
        <ele>2134</ele>
        <time>2024-08-01T06:57:22.478Z</time>
      </trkpt>
      <trkpt lat="42.80757" lon="-0.18125">
        <ele>2134</ele>
        <time>2024-08-01T06:57:33.028Z</time>
      </trkpt>
      <trkpt lat="42.8075" lon="-0.18108">
        <ele>2137</ele>
        <time>2024-08-01T06:57:59.914Z</time>
      </trkpt>
      <trkpt lat="42.80732" lon="-0.18106">
        <ele>2137</ele>
        <time>2024-08-01T06:58:16.604Z</time>
      </trkpt>
      <trkpt lat="42.80719" lon="-0.181">
        <ele>2137</ele>
        <time>2024-08-01T06:58:28.430Z</time>
      </trkpt>
      <trkpt lat="42.80712" lon="-0.18092">
        <ele>2138</ele>
        <time>2024-08-01T06:58:40.511Z</time>
      </trkpt>
      <trkpt lat="42.80693" lon="-0.18085">
        <ele>2138</ele>
        <time>2024-08-01T06:58:57.844Z</time>
      </trkpt>
      <trkpt lat="42.80677" lon="-0.18077">
        <ele>2139</ele>
        <time>2024-08-01T06:59:16.263Z</time>
      </trkpt>
      <trkpt lat="42.80644" lon="-0.18043">
        <ele>2144</ele>
        <time>2024-08-01T07:00:12.377Z</time>
      </trkpt>
      <trkpt lat="42.80634" lon="-0.18034">
        <ele>2146</ele>
        <time>2024-08-01T07:00:31.457Z</time>
      </trkpt>
      <trkpt lat="42.80626" lon="-0.18023">
        <ele>2149</ele>
        <time>2024-08-01T07:00:58.148Z</time>
      </trkpt>
      <trkpt lat="42.80631" lon="-0.17998">
        <ele>2156</ele>
        <time>2024-08-01T07:02:06.951Z</time>
      </trkpt>
      <trkpt lat="42.80628" lon="-0.17982">
        <ele>2161</ele>
        <time>2024-08-01T07:02:58.474Z</time>
      </trkpt>
      <trkpt lat="42.80617" lon="-0.17972">
        <ele>2164</ele>
        <time>2024-08-01T07:03:25.162Z</time>
      </trkpt>
      <trkpt lat="42.80575" lon="-0.17969">
        <ele>2170</ele>
        <time>2024-08-01T07:04:26.144Z</time>
      </trkpt>
      <trkpt lat="42.80559" lon="-0.17986">
        <ele>2165</ele>
        <time>2024-08-01T07:04:42.091Z</time>
      </trkpt>
      <trkpt lat="42.80551" lon="-0.17986">
        <ele>2166</ele>
        <time>2024-08-01T07:04:53.415Z</time>
      </trkpt>
      <trkpt lat="42.80525" lon="-0.17965">
        <ele>2180</ele>
        <time>2024-08-01T07:07:16.372Z</time>
      </trkpt>
      <trkpt lat="42.80517" lon="-0.17963">
        <ele>2181</ele>
        <time>2024-08-01T07:07:27.313Z</time>
      </trkpt>
      <trkpt lat="42.80515" lon="-0.17961">
        <ele>2182</ele>
        <time>2024-08-01T07:07:37.636Z</time>
      </trkpt>
      <trkpt lat="42.80508" lon="-0.17957">
        <ele>2185</ele>
        <time>2024-08-01T07:08:07.963Z</time>
      </trkpt>
      <trkpt lat="42.80502" lon="-0.17945">
        <ele>2191</ele>
        <time>2024-08-01T07:09:00.144Z</time>
      </trkpt>
      <trkpt lat="42.8049" lon="-0.1794">
        <ele>2191</ele>
        <time>2024-08-01T07:09:11.821Z</time>
      </trkpt>
      <trkpt lat="42.8048" lon="-0.17934">
        <ele>2192</ele>
        <time>2024-08-01T07:09:24.581Z</time>
      </trkpt>
      <trkpt lat="42.80458" lon="-0.17926">
        <ele>2187</ele>
        <time>2024-08-01T07:09:42.854Z</time>
      </trkpt>
      <trkpt lat="42.80453" lon="-0.17921">
        <ele>2187</ele>
        <time>2024-08-01T07:09:48.398Z</time>
      </trkpt>
      <trkpt lat="42.8045" lon="-0.17912">
        <ele>2189</ele>
        <time>2024-08-01T07:10:06.236Z</time>
      </trkpt>
      <trkpt lat="42.80444" lon="-0.17904">
        <ele>2189</ele>
        <time>2024-08-01T07:10:13.806Z</time>
      </trkpt>
      <trkpt lat="42.80442" lon="-0.17895">
        <ele>2190</ele>
        <time>2024-08-01T07:10:23.953Z</time>
      </trkpt>
      <trkpt lat="42.80442" lon="-0.17879">
        <ele>2194</ele>
        <time>2024-08-01T07:11:02.561Z</time>
      </trkpt>
      <trkpt lat="42.80443" lon="-0.17877">
        <ele>2196</ele>
        <time>2024-08-01T07:11:15.557Z</time>
      </trkpt>
      <trkpt lat="42.80453" lon="-0.17885">
        <ele>2197</ele>
        <time>2024-08-01T07:11:29.357Z</time>
      </trkpt>
      <trkpt lat="42.80461" lon="-0.17886">
        <ele>2199</ele>
        <time>2024-08-01T07:11:47.075Z</time>
      </trkpt>
      <trkpt lat="42.80461" lon="-0.17878">
        <ele>2201</ele>
        <time>2024-08-01T07:12:06.027Z</time>
      </trkpt>
      <trkpt lat="42.80448" lon="-0.1785">
        <ele>2205</ele>
        <time>2024-08-01T07:12:44.549Z</time>
      </trkpt>
      <trkpt lat="42.80451" lon="-0.17848">
        <ele>2206</ele>
        <time>2024-08-01T07:12:53.426Z</time>
      </trkpt>
      <trkpt lat="42.80462" lon="-0.1785">
        <ele>2209</ele>
        <time>2024-08-01T07:13:20.297Z</time>
      </trkpt>
      <trkpt lat="42.80474" lon="-0.17835">
        <ele>2216</ele>
        <time>2024-08-01T07:14:34.688Z</time>
      </trkpt>
      <trkpt lat="42.8048" lon="-0.17823">
        <ele>2219</ele>
        <time>2024-08-01T07:15:01.658Z</time>
      </trkpt>
      <trkpt lat="42.8048" lon="-0.17805">
        <ele>2221</ele>
        <time>2024-08-01T07:15:21.960Z</time>
      </trkpt>
      <trkpt lat="42.80477" lon="-0.17788">
        <ele>2223</ele>
        <time>2024-08-01T07:15:41.657Z</time>
      </trkpt>
      <trkpt lat="42.80474" lon="-0.1778">
        <ele>2224</ele>
        <time>2024-08-01T07:15:51.186Z</time>
      </trkpt>
      <trkpt lat="42.80468" lon="-0.1778">
        <ele>2224</ele>
        <time>2024-08-01T07:15:57.139Z</time>
      </trkpt>
      <trkpt lat="42.80453" lon="-0.17779">
        <ele>2224</ele>
        <time>2024-08-01T07:16:10.809Z</time>
      </trkpt>
      <trkpt lat="42.8041" lon="-0.17753">
        <ele>2230</ele>
        <time>2024-08-01T07:17:15.696Z</time>
      </trkpt>
      <trkpt lat="42.80401" lon="-0.17733">
        <ele>2233</ele>
        <time>2024-08-01T07:17:43.909Z</time>
      </trkpt>
      <trkpt lat="42.80394" lon="-0.17707">
        <ele>2236</ele>
        <time>2024-08-01T07:18:14.048Z</time>
      </trkpt>
      <trkpt lat="42.80389" lon="-0.17708">
        <ele>2236</ele>
        <time>2024-08-01T07:18:18.768Z</time>
      </trkpt>
      <trkpt lat="42.80376" lon="-0.17709">
        <ele>2236</ele>
        <time>2024-08-01T07:18:30.201Z</time>
      </trkpt>
      <trkpt lat="42.80365" lon="-0.17708">
        <ele>2237</ele>
        <time>2024-08-01T07:18:43.782Z</time>
      </trkpt>
      <trkpt lat="42.80351" lon="-0.17709">
        <ele>2238</ele>
        <time>2024-08-01T07:18:59.518Z</time>
      </trkpt>
      <trkpt lat="42.80343" lon="-0.17711">
        <ele>2238</ele>
        <time>2024-08-01T07:19:07.477Z</time>
      </trkpt>
      <trkpt lat="42.80333" lon="-0.17704">
        <ele>2239</ele>
        <time>2024-08-01T07:19:20.465Z</time>
      </trkpt>
      <trkpt lat="42.8032" lon="-0.177">
        <ele>2240</ele>
        <time>2024-08-01T07:19:35.905Z</time>
      </trkpt>
      <trkpt lat="42.8031" lon="-0.17691">
        <ele>2241</ele>
        <time>2024-08-01T07:19:50.323Z</time>
      </trkpt>
      <trkpt lat="42.80299" lon="-0.17674">
        <ele>2241</ele>
        <time>2024-08-01T07:20:05.004Z</time>
      </trkpt>
      <trkpt lat="42.80291" lon="-0.17664">
        <ele>2242</ele>
        <time>2024-08-01T07:20:18.928Z</time>
      </trkpt>
      <trkpt lat="42.80281" lon="-0.17653">
        <ele>2242</ele>
        <time>2024-08-01T07:20:29.810Z</time>
      </trkpt>
      <trkpt lat="42.80262" lon="-0.17633">
        <ele>2244</ele>
        <time>2024-08-01T07:20:58.238Z</time>
      </trkpt>
      <trkpt lat="42.80257" lon="-0.17626">
        <ele>2244</ele>
        <time>2024-08-01T07:21:04.941Z</time>
      </trkpt>
      <trkpt lat="42.80242" lon="-0.17616">
        <ele>2245</ele>
        <time>2024-08-01T07:21:23.256Z</time>
      </trkpt>
      <trkpt lat="42.80235" lon="-0.17612">
        <ele>2246</ele>
        <time>2024-08-01T07:21:34.021Z</time>
      </trkpt>
      <trkpt lat="42.80225" lon="-0.17601">
        <ele>2247</ele>
        <time>2024-08-01T07:21:48.655Z</time>
      </trkpt>
      <trkpt lat="42.80222" lon="-0.17594">
        <ele>2247</ele>
        <time>2024-08-01T07:21:53.777Z</time>
      </trkpt>
      <trkpt lat="42.80217" lon="-0.17585">
        <ele>2247</ele>
        <time>2024-08-01T07:22:01.475Z</time>
      </trkpt>
      <trkpt lat="42.80209" lon="-0.1758">
        <ele>2247</ele>
        <time>2024-08-01T07:22:09.807Z</time>
      </trkpt>
      <trkpt lat="42.80192" lon="-0.17581">
        <ele>2247</ele>
        <time>2024-08-01T07:22:24.609Z</time>
      </trkpt>
      <trkpt lat="42.80182" lon="-0.17582">
        <ele>2247</ele>
        <time>2024-08-01T07:22:33.652Z</time>
      </trkpt>
      <trkpt lat="42.80175" lon="-0.1758">
        <ele>2247</ele>
        <time>2024-08-01T07:22:40.266Z</time>
      </trkpt>
      <trkpt lat="42.80162" lon="-0.1758">
        <ele>2248</ele>
        <time>2024-08-01T07:22:55.470Z</time>
      </trkpt>
      <trkpt lat="42.80156" lon="-0.17582">
        <ele>2248</ele>
        <time>2024-08-01T07:23:00.937Z</time>
      </trkpt>
      <trkpt lat="42.80151" lon="-0.17583">
        <ele>2248</ele>
        <time>2024-08-01T07:23:05.746Z</time>
      </trkpt>
      <trkpt lat="42.8014" lon="-0.17592">
        <ele>2250</ele>
        <time>2024-08-01T07:23:25.128Z</time>
      </trkpt>
      <trkpt lat="42.80132" lon="-0.17594">
        <ele>2250</ele>
        <time>2024-08-01T07:23:32.975Z</time>
      </trkpt>
      <trkpt lat="42.80126" lon="-0.17598">
        <ele>2250</ele>
        <time>2024-08-01T07:23:39.073Z</time>
      </trkpt>
      <trkpt lat="42.80122" lon="-0.17602">
        <ele>2251</ele>
        <time>2024-08-01T07:23:48.063Z</time>
      </trkpt>
      <trkpt lat="42.8012" lon="-0.17609">
        <ele>2252</ele>
        <time>2024-08-01T07:23:57.434Z</time>
      </trkpt>
      <trkpt lat="42.80117" lon="-0.17611">
        <ele>2251</ele>
        <time>2024-08-01T07:24:00.239Z</time>
      </trkpt>
      <trkpt lat="42.80113" lon="-0.17618">
        <ele>2252</ele>
        <time>2024-08-01T07:24:10.162Z</time>
      </trkpt>
      <trkpt lat="42.80107" lon="-0.17622">
        <ele>2253</ele>
        <time>2024-08-01T07:24:19.856Z</time>
      </trkpt>
      <trkpt lat="42.80103" lon="-0.17621">
        <ele>2252</ele>
        <time>2024-08-01T07:24:22.977Z</time>
      </trkpt>
      <trkpt lat="42.801" lon="-0.17624">
        <ele>2252</ele>
        <time>2024-08-01T07:24:26.526Z</time>
      </trkpt>
      <trkpt lat="42.80096" lon="-0.1763">
        <ele>2252</ele>
        <time>2024-08-01T07:24:32.344Z</time>
      </trkpt>
      <trkpt lat="42.80086" lon="-0.17641">
        <ele>2253</ele>
        <time>2024-08-01T07:24:46.751Z</time>
      </trkpt>
      <trkpt lat="42.80074" lon="-0.17656">
        <ele>2253</ele>
        <time>2024-08-01T07:25:00.992Z</time>
      </trkpt>
      <trkpt lat="42.80064" lon="-0.17657">
        <ele>2251</ele>
        <time>2024-08-01T07:25:09.421Z</time>
      </trkpt>
      <trkpt lat="42.80059" lon="-0.17659">
        <ele>2251</ele>
        <time>2024-08-01T07:25:13.737Z</time>
      </trkpt>
      <trkpt lat="42.80055" lon="-0.17664">
        <ele>2251</ele>
        <time>2024-08-01T07:25:18.844Z</time>
      </trkpt>
      <trkpt lat="42.80049" lon="-0.17665">
        <ele>2251</ele>
        <time>2024-08-01T07:25:23.770Z</time>
      </trkpt>
      <trkpt lat="42.80044" lon="-0.17668">
        <ele>2250</ele>
        <time>2024-08-01T07:25:28.235Z</time>
      </trkpt>
      <trkpt lat="42.80043" lon="-0.17672">
        <ele>2251</ele>
        <time>2024-08-01T07:25:38.177Z</time>
      </trkpt>
      <trkpt lat="42.8004" lon="-0.17674">
        <ele>2250</ele>
        <time>2024-08-01T07:25:41.004Z</time>
      </trkpt>
      <trkpt lat="42.80034" lon="-0.17675">
        <ele>2250</ele>
        <time>2024-08-01T07:25:46.443Z</time>
      </trkpt>
      <trkpt lat="42.80033" lon="-0.17677">
        <ele>2250</ele>
        <time>2024-08-01T07:25:48.225Z</time>
      </trkpt>
      <trkpt lat="42.80014" lon="-0.17688">
        <ele>2251</ele>
        <time>2024-08-01T07:26:09.942Z</time>
      </trkpt>
      <trkpt lat="42.80002" lon="-0.17684">
        <ele>2251</ele>
        <time>2024-08-01T07:26:20.847Z</time>
      </trkpt>
      <trkpt lat="42.79999" lon="-0.17683">
        <ele>2251</ele>
        <time>2024-08-01T07:26:23.870Z</time>
      </trkpt>
      <trkpt lat="42.79996" lon="-0.17682">
        <ele>2251</ele>
        <time>2024-08-01T07:26:26.611Z</time>
      </trkpt>
      <trkpt lat="42.79992" lon="-0.17679">
        <ele>2251</ele>
        <time>2024-08-01T07:26:30.636Z</time>
      </trkpt>
      <trkpt lat="42.79988" lon="-0.17675">
        <ele>2251</ele>
        <time>2024-08-01T07:26:34.884Z</time>
      </trkpt>
      <trkpt lat="42.79983" lon="-0.17666">
        <ele>2250</ele>
        <time>2024-08-01T07:26:41.517Z</time>
      </trkpt>
      <trkpt lat="42.79971" lon="-0.17669">
        <ele>2252</ele>
        <time>2024-08-01T07:27:00.693Z</time>
      </trkpt>
      <trkpt lat="42.79963" lon="-0.17665">
        <ele>2252</ele>
        <time>2024-08-01T07:27:08.390Z</time>
      </trkpt>
      <trkpt lat="42.79955" lon="-0.1766">
        <ele>2252</ele>
        <time>2024-08-01T07:27:16.138Z</time>
      </trkpt>
      <trkpt lat="42.79947" lon="-0.17653">
        <ele>2254</ele>
        <time>2024-08-01T07:27:34.290Z</time>
      </trkpt>
      <trkpt lat="42.79945" lon="-0.17648">
        <ele>2254</ele>
        <time>2024-08-01T07:27:37.490Z</time>
      </trkpt>
      <trkpt lat="42.79941" lon="-0.17641">
        <ele>2254</ele>
        <time>2024-08-01T07:27:43.758Z</time>
      </trkpt>
      <trkpt lat="42.79934" lon="-0.17628">
        <ele>2254</ele>
        <time>2024-08-01T07:27:54.598Z</time>
      </trkpt>
      <trkpt lat="42.79931" lon="-0.17625">
        <ele>2255</ele>
        <time>2024-08-01T07:28:03.491Z</time>
      </trkpt>
      <trkpt lat="42.79923" lon="-0.17622">
        <ele>2257</ele>
        <time>2024-08-01T07:28:21.211Z</time>
      </trkpt>
      <trkpt lat="42.7992" lon="-0.17618">
        <ele>2257</ele>
        <time>2024-08-01T07:28:24.949Z</time>
      </trkpt>
      <trkpt lat="42.79917" lon="-0.17612">
        <ele>2258</ele>
        <time>2024-08-01T07:28:34.104Z</time>
      </trkpt>
      <trkpt lat="42.79917" lon="-0.17603">
        <ele>2258</ele>
        <time>2024-08-01T07:28:40.060Z</time>
      </trkpt>
      <trkpt lat="42.7991" lon="-0.17592">
        <ele>2259</ele>
        <time>2024-08-01T07:28:53.161Z</time>
      </trkpt>
      <trkpt lat="42.79907" lon="-0.17587">
        <ele>2260</ele>
        <time>2024-08-01T07:29:02.134Z</time>
      </trkpt>
      <trkpt lat="42.79898" lon="-0.17583">
        <ele>2261</ele>
        <time>2024-08-01T07:29:14.469Z</time>
      </trkpt>
      <trkpt lat="42.79884" lon="-0.1758">
        <ele>2264</ele>
        <time>2024-08-01T07:29:41.335Z</time>
      </trkpt>
      <trkpt lat="42.79879" lon="-0.17582">
        <ele>2264</ele>
        <time>2024-08-01T07:29:45.583Z</time>
      </trkpt>
      <trkpt lat="42.7987" lon="-0.17574">
        <ele>2264</ele>
        <time>2024-08-01T07:29:55.573Z</time>
      </trkpt>
      <trkpt lat="42.79862" lon="-0.17568">
        <ele>2264</ele>
        <time>2024-08-01T07:30:04.031Z</time>
      </trkpt>
      <trkpt lat="42.7985" lon="-0.17569">
        <ele>2264</ele>
        <time>2024-08-01T07:30:14.783Z</time>
      </trkpt>
      <trkpt lat="42.79846" lon="-0.17569">
        <ele>2264</ele>
        <time>2024-08-01T07:30:18.391Z</time>
      </trkpt>
      <trkpt lat="42.79844" lon="-0.17565">
        <ele>2264</ele>
        <time>2024-08-01T07:30:21.884Z</time>
      </trkpt>
      <trkpt lat="42.79829" lon="-0.17555">
        <ele>2264</ele>
        <time>2024-08-01T07:30:37.049Z</time>
      </trkpt>
      <trkpt lat="42.79821" lon="-0.17552">
        <ele>2265</ele>
        <time>2024-08-01T07:30:47.597Z</time>
      </trkpt>
      <trkpt lat="42.79816" lon="-0.17548">
        <ele>2266</ele>
        <time>2024-08-01T07:30:57.314Z</time>
      </trkpt>
      <trkpt lat="42.79813" lon="-0.17542">
        <ele>2266</ele>
        <time>2024-08-01T07:31:01.588Z</time>
      </trkpt>
      <trkpt lat="42.79805" lon="-0.17532">
        <ele>2267</ele>
        <time>2024-08-01T07:31:15.146Z</time>
      </trkpt>
      <trkpt lat="42.798" lon="-0.17532">
        <ele>2268</ele>
        <time>2024-08-01T07:31:24.079Z</time>
      </trkpt>
      <trkpt lat="42.79793" lon="-0.17538">
        <ele>2269</ele>
        <time>2024-08-01T07:31:35.253Z</time>
      </trkpt>
      <trkpt lat="42.7979" lon="-0.17536">
        <ele>2269</ele>
        <time>2024-08-01T07:31:37.883Z</time>
      </trkpt>
      <trkpt lat="42.79784" lon="-0.17531">
        <ele>2270</ele>
        <time>2024-08-01T07:31:48.600Z</time>
      </trkpt>
      <trkpt lat="42.7978" lon="-0.17529">
        <ele>2270</ele>
        <time>2024-08-01T07:31:51.805Z</time>
      </trkpt>
      <trkpt lat="42.79779" lon="-0.17523">
        <ele>2270</ele>
        <time>2024-08-01T07:31:55.595Z</time>
      </trkpt>
      <trkpt lat="42.79773" lon="-0.17522">
        <ele>2271</ele>
        <time>2024-08-01T07:32:05.182Z</time>
      </trkpt>
      <trkpt lat="42.79767" lon="-0.17522">
        <ele>2272</ele>
        <time>2024-08-01T07:32:14.693Z</time>
      </trkpt>
      <trkpt lat="42.79764" lon="-0.17524">
        <ele>2273</ele>
        <time>2024-08-01T07:32:23.576Z</time>
      </trkpt>
      <trkpt lat="42.79762" lon="-0.17531">
        <ele>2274</ele>
        <time>2024-08-01T07:32:32.656Z</time>
      </trkpt>
      <trkpt lat="42.79763" lon="-0.17537">
        <ele>2274</ele>
        <time>2024-08-01T07:32:36.938Z</time>
      </trkpt>
      <trkpt lat="42.7976" lon="-0.1754">
        <ele>2275</ele>
        <time>2024-08-01T07:32:45.855Z</time>
      </trkpt>
      <trkpt lat="42.79755" lon="-0.17541">
        <ele>2276</ele>
        <time>2024-08-01T07:32:54.777Z</time>
      </trkpt>
      <trkpt lat="42.79751" lon="-0.17544">
        <ele>2277</ele>
        <time>2024-08-01T07:33:03.679Z</time>
      </trkpt>
      <trkpt lat="42.79749" lon="-0.17549">
        <ele>2278</ele>
        <time>2024-08-01T07:33:12.553Z</time>
      </trkpt>
      <trkpt lat="42.79746" lon="-0.17549">
        <ele>2278</ele>
        <time>2024-08-01T07:33:15.576Z</time>
      </trkpt>
      <trkpt lat="42.79742" lon="-0.1755">
        <ele>2279</ele>
        <time>2024-08-01T07:33:24.525Z</time>
      </trkpt>
      <trkpt lat="42.79737" lon="-0.17549">
        <ele>2279</ele>
        <time>2024-08-01T07:33:28.841Z</time>
      </trkpt>
      <trkpt lat="42.7973" lon="-0.17547">
        <ele>2280</ele>
        <time>2024-08-01T07:33:38.884Z</time>
      </trkpt>
      <trkpt lat="42.79726" lon="-0.1754">
        <ele>2280</ele>
        <time>2024-08-01T07:33:44.765Z</time>
      </trkpt>
      <trkpt lat="42.79719" lon="-0.17533">
        <ele>2280</ele>
        <time>2024-08-01T07:33:52.349Z</time>
      </trkpt>
      <trkpt lat="42.79716" lon="-0.17526">
        <ele>2280</ele>
        <time>2024-08-01T07:33:57.966Z</time>
      </trkpt>
      <trkpt lat="42.79699" lon="-0.17514">
        <ele>2282</ele>
        <time>2024-08-01T07:34:22.590Z</time>
      </trkpt>
      <trkpt lat="42.79688" lon="-0.17507">
        <ele>2285</ele>
        <time>2024-08-01T07:34:49.233Z</time>
      </trkpt>
      <trkpt lat="42.79682" lon="-0.175">
        <ele>2287</ele>
        <time>2024-08-01T07:35:06.965Z</time>
      </trkpt>
      <trkpt lat="42.79682" lon="-0.17494">
        <ele>2288</ele>
        <time>2024-08-01T07:35:15.914Z</time>
      </trkpt>
      <trkpt lat="42.79683" lon="-0.1749">
        <ele>2288</ele>
        <time>2024-08-01T07:35:18.443Z</time>
      </trkpt>
      <trkpt lat="42.79669" lon="-0.17475">
        <ele>2293</ele>
        <time>2024-08-01T07:36:03.282Z</time>
      </trkpt>
      <trkpt lat="42.79666" lon="-0.17469">
        <ele>2295</ele>
        <time>2024-08-01T07:36:23.113Z</time>
      </trkpt>
      <trkpt lat="42.79665" lon="-0.17461">
        <ele>2297</ele>
        <time>2024-08-01T07:36:41.702Z</time>
      </trkpt>
      <trkpt lat="42.79664" lon="-0.17435">
        <ele>2304</ele>
        <time>2024-08-01T07:37:51.293Z</time>
      </trkpt>
      <trkpt lat="42.79641" lon="-0.17424">
        <ele>2306</ele>
        <time>2024-08-01T07:38:19.625Z</time>
      </trkpt>
      <trkpt lat="42.79635" lon="-0.17419">
        <ele>2307</ele>
        <time>2024-08-01T07:38:29.702Z</time>
      </trkpt>
      <trkpt lat="42.79633" lon="-0.17418">
        <ele>2308</ele>
        <time>2024-08-01T07:38:40.181Z</time>
      </trkpt>
      <trkpt lat="42.79632" lon="-0.17413">
        <ele>2309</ele>
        <time>2024-08-01T07:38:49.054Z</time>
      </trkpt>
      <trkpt lat="42.7962" lon="-0.17403">
        <ele>2310</ele>
        <time>2024-08-01T07:39:04.862Z</time>
      </trkpt>
      <trkpt lat="42.79616" lon="-0.17401">
        <ele>2310</ele>
        <time>2024-08-01T07:39:08.683Z</time>
      </trkpt>
      <trkpt lat="42.79611" lon="-0.17388">
        <ele>2312</ele>
        <time>2024-08-01T07:39:27.196Z</time>
      </trkpt>
      <trkpt lat="42.79608" lon="-0.17373">
        <ele>2314</ele>
        <time>2024-08-01T07:39:46.161Z</time>
      </trkpt>
      <trkpt lat="42.79599" lon="-0.17366">
        <ele>2316</ele>
        <time>2024-08-01T07:40:04.203Z</time>
      </trkpt>
      <trkpt lat="42.79599" lon="-0.17363">
        <ele>2316</ele>
        <time>2024-08-01T07:40:06.646Z</time>
      </trkpt>
      <trkpt lat="42.7959" lon="-0.17351">
        <ele>2318</ele>
        <time>2024-08-01T07:40:25.875Z</time>
      </trkpt>
      <trkpt lat="42.79586" lon="-0.17351">
        <ele>2318</ele>
        <time>2024-08-01T07:40:29.482Z</time>
      </trkpt>
      <trkpt lat="42.79581" lon="-0.17343">
        <ele>2319</ele>
        <time>2024-08-01T07:40:40.306Z</time>
      </trkpt>
      <trkpt lat="42.79573" lon="-0.1733">
        <ele>2323</ele>
        <time>2024-08-01T07:41:18.154Z</time>
      </trkpt>
      <trkpt lat="42.79566" lon="-0.17325">
        <ele>2324</ele>
        <time>2024-08-01T07:41:29.742Z</time>
      </trkpt>
      <trkpt lat="42.79557" lon="-0.17305">
        <ele>2328</ele>
        <time>2024-08-01T07:42:05.194Z</time>
      </trkpt>
      <trkpt lat="42.79542" lon="-0.1729">
        <ele>2334</ele>
        <time>2024-08-01T07:43:00.598Z</time>
      </trkpt>
      <trkpt lat="42.79523" lon="-0.17284">
        <ele>2336</ele>
        <time>2024-08-01T07:43:24.880Z</time>
      </trkpt>
      <trkpt lat="42.79516" lon="-0.17279">
        <ele>2338</ele>
        <time>2024-08-01T07:43:42.601Z</time>
      </trkpt>
      <trkpt lat="42.79511" lon="-0.17275">
        <ele>2339</ele>
        <time>2024-08-01T07:43:51.980Z</time>
      </trkpt>
      <trkpt lat="42.7951" lon="-0.17287">
        <ele>2338</ele>
        <time>2024-08-01T07:43:59.347Z</time>
      </trkpt>
      <trkpt lat="42.79504" lon="-0.17285">
        <ele>2339</ele>
        <time>2024-08-01T07:44:09.380Z</time>
      </trkpt>
      <trkpt lat="42.79499" lon="-0.17288">
        <ele>2340</ele>
        <time>2024-08-01T07:44:18.437Z</time>
      </trkpt>
      <trkpt lat="42.79492" lon="-0.17292">
        <ele>2341</ele>
        <time>2024-08-01T07:44:29.152Z</time>
      </trkpt>
      <trkpt lat="42.79483" lon="-0.17298">
        <ele>2343</ele>
        <time>2024-08-01T07:44:47.194Z</time>
      </trkpt>
      <trkpt lat="42.79471" lon="-0.17296">
        <ele>2345</ele>
        <time>2024-08-01T07:45:06.679Z</time>
      </trkpt>
      <trkpt lat="42.7946" lon="-0.17293">
        <ele>2347</ele>
        <time>2024-08-01T07:45:25.178Z</time>
      </trkpt>
      <trkpt lat="42.79455" lon="-0.1729">
        <ele>2348</ele>
        <time>2024-08-01T07:45:34.284Z</time>
      </trkpt>
      <trkpt lat="42.7945" lon="-0.17288">
        <ele>2349</ele>
        <time>2024-08-01T07:45:43.567Z</time>
      </trkpt>
      <trkpt lat="42.7944" lon="-0.17282">
        <ele>2350</ele>
        <time>2024-08-01T07:45:56.773Z</time>
      </trkpt>
      <trkpt lat="42.79433" lon="-0.17282">
        <ele>2352</ele>
        <time>2024-08-01T07:46:14.623Z</time>
      </trkpt>
      <trkpt lat="42.79426" lon="-0.17283">
        <ele>2353</ele>
        <time>2024-08-01T07:46:24.595Z</time>
      </trkpt>
      <trkpt lat="42.79417" lon="-0.17285">
        <ele>2354</ele>
        <time>2024-08-01T07:46:37.192Z</time>
      </trkpt>
      <trkpt lat="42.79401" lon="-0.17284">
        <ele>2357</ele>
        <time>2024-08-01T07:47:04.756Z</time>
      </trkpt>
      <trkpt lat="42.7939" lon="-0.17285">
        <ele>2359</ele>
        <time>2024-08-01T07:47:23.138Z</time>
      </trkpt>
      <trkpt lat="42.79388" lon="-0.17277">
        <ele>2360</ele>
        <time>2024-08-01T07:47:32.872Z</time>
      </trkpt>
      <trkpt lat="42.79384" lon="-0.17272">
        <ele>2362</ele>
        <time>2024-08-01T07:47:51.545Z</time>
      </trkpt>
      <trkpt lat="42.7938" lon="-0.17258">
        <ele>2365</ele>
        <time>2024-08-01T07:48:18.230Z</time>
      </trkpt>
      <trkpt lat="42.79374" lon="-0.17249">
        <ele>2369</ele>
        <time>2024-08-01T07:48:58.029Z</time>
      </trkpt>
      <trkpt lat="42.79375" lon="-0.17235">
        <ele>2371</ele>
        <time>2024-08-01T07:49:16.131Z</time>
      </trkpt>
      <trkpt lat="42.79351" lon="-0.17229">
        <ele>2381</ele>
        <time>2024-08-01T07:50:58.476Z</time>
      </trkpt>
      <trkpt lat="42.7933" lon="-0.17229">
        <ele>2388</ele>
        <time>2024-08-01T07:52:04.995Z</time>
      </trkpt>
      <trkpt lat="42.7933" lon="-0.1722">
        <ele>2390</ele>
        <time>2024-08-01T07:52:23.180Z</time>
      </trkpt>
      <trkpt lat="42.79333" lon="-0.17215">
        <ele>2390</ele>
        <time>2024-08-01T07:52:27.344Z</time>
      </trkpt>
      <trkpt lat="42.79336" lon="-0.17209">
        <ele>2391</ele>
        <time>2024-08-01T07:52:36.564Z</time>
      </trkpt>
      <trkpt lat="42.7932" lon="-0.17196">
        <ele>2397</ele>
        <time>2024-08-01T07:53:33.136Z</time>
      </trkpt>
      <trkpt lat="42.79306" lon="-0.17185">
        <ele>2404</ele>
        <time>2024-08-01T07:54:45.891Z</time>
      </trkpt>
      <trkpt lat="42.79303" lon="-0.17179">
        <ele>2406</ele>
        <time>2024-08-01T07:55:06.696Z</time>
      </trkpt>
      <trkpt lat="42.79299" lon="-0.17179">
        <ele>2408</ele>
        <time>2024-08-01T07:55:25.161Z</time>
      </trkpt>
      <trkpt lat="42.79295" lon="-0.1717">
        <ele>2412</ele>
        <time>2024-08-01T07:56:05.874Z</time>
      </trkpt>
      <trkpt lat="42.79284" lon="-0.17171">
        <ele>2417</ele>
        <time>2024-08-01T07:56:56.409Z</time>
      </trkpt>
      <trkpt lat="42.79269" lon="-0.17192">
        <ele>2421</ele>
        <time>2024-08-01T07:57:33.318Z</time>
      </trkpt>
      <trkpt lat="42.79266" lon="-0.17205">
        <ele>2419</ele>
        <time>2024-08-01T07:57:41.503Z</time>
      </trkpt>
      <trkpt lat="42.79266" lon="-0.17222">
        <ele>2418</ele>
        <time>2024-08-01T07:57:50.942Z</time>
      </trkpt>
      <trkpt lat="42.79257" lon="-0.17228">
        <ele>2423</ele>
        <time>2024-08-01T07:58:36.847Z</time>
      </trkpt>
      <trkpt lat="42.79247" lon="-0.17224">
        <ele>2429</ele>
        <time>2024-08-01T07:59:28.027Z</time>
      </trkpt>
      <trkpt lat="42.79228" lon="-0.17231">
        <ele>2439</ele>
        <time>2024-08-01T08:00:59.028Z</time>
      </trkpt>
      <trkpt lat="42.79208" lon="-0.1723">
        <ele>2450</ele>
        <time>2024-08-01T08:02:35.799Z</time>
      </trkpt>
      <trkpt lat="42.79197" lon="-0.1724">
        <ele>2453</ele>
        <time>2024-08-01T08:03:02.414Z</time>
      </trkpt>
      <trkpt lat="42.79185" lon="-0.17223">
        <ele>2462</ele>
        <time>2024-08-01T08:04:26.276Z</time>
      </trkpt>
      <trkpt lat="42.79173" lon="-0.1722">
        <ele>2468</ele>
        <time>2024-08-01T08:05:22.929Z</time>
      </trkpt>
      <trkpt lat="42.79171" lon="-0.17213">
        <ele>2470</ele>
        <time>2024-08-01T08:05:42.600Z</time>
      </trkpt>
      <trkpt lat="42.79164" lon="-0.17213">
        <ele>2474</ele>
        <time>2024-08-01T08:06:16.691Z</time>
      </trkpt>
      <trkpt lat="42.79159" lon="-0.17205">
        <ele>2478</ele>
        <time>2024-08-01T08:06:50.433Z</time>
      </trkpt>
      <trkpt lat="42.79154" lon="-0.17206">
        <ele>2480</ele>
        <time>2024-08-01T08:07:10.359Z</time>
      </trkpt>
      <trkpt lat="42.79148" lon="-0.1718">
        <ele>2494</ele>
        <time>2024-08-01T08:08:46.606Z</time>
      </trkpt>
      <trkpt lat="42.79142" lon="-0.17184">
        <ele>2495</ele>
        <time>2024-08-01T08:08:56.523Z</time>
      </trkpt>
      <trkpt lat="42.79137" lon="-0.17202">
        <ele>2491</ele>
        <time>2024-08-01T08:09:07.535Z</time>
      </trkpt>
      <trkpt lat="42.79128" lon="-0.17219">
        <ele>2491</ele>
        <time>2024-08-01T08:09:21.568Z</time>
      </trkpt>
      <trkpt lat="42.79107" lon="-0.17226">
        <ele>2497</ele>
        <time>2024-08-01T08:10:15.162Z</time>
      </trkpt>
      <trkpt lat="42.79069" lon="-0.17225">
        <ele>2509</ele>
        <time>2024-08-01T08:12:05.587Z</time>
      </trkpt>
      <trkpt lat="42.79032" lon="-0.17227">
        <ele>2522</ele>
        <time>2024-08-01T08:14:11.383Z</time>
      </trkpt>
      <trkpt lat="42.79028" lon="-0.17234">
        <ele>2521</ele>
        <time>2024-08-01T08:14:16.868Z</time>
      </trkpt>
      <trkpt lat="42.7902" lon="-0.17242">
        <ele>2522</ele>
        <time>2024-08-01T08:14:29.330Z</time>
      </trkpt>
      <trkpt lat="42.79005" lon="-0.17248">
        <ele>2524</ele>
        <time>2024-08-01T08:14:50.496Z</time>
      </trkpt>
      <trkpt lat="42.78993" lon="-0.1725">
        <ele>2526</ele>
        <time>2024-08-01T08:15:10.036Z</time>
      </trkpt>
      <trkpt lat="42.78983" lon="-0.17258">
        <ele>2525</ele>
        <time>2024-08-01T08:15:19.118Z</time>
      </trkpt>
      <trkpt lat="42.78973" lon="-0.17267">
        <ele>2522</ele>
        <time>2024-08-01T08:15:28.510Z</time>
      </trkpt>
      <trkpt lat="42.78966" lon="-0.17272">
        <ele>2521</ele>
        <time>2024-08-01T08:15:34.360Z</time>
      </trkpt>
      <trkpt lat="42.78954" lon="-0.17273">
        <ele>2523</ele>
        <time>2024-08-01T08:15:53.448Z</time>
      </trkpt>
      <trkpt lat="42.78946" lon="-0.17274">
        <ele>2524</ele>
        <time>2024-08-01T08:16:04.791Z</time>
      </trkpt>
      <trkpt lat="42.78941" lon="-0.17278">
        <ele>2523</ele>
        <time>2024-08-01T08:16:09.750Z</time>
      </trkpt>
      <trkpt lat="42.78931" lon="-0.17286">
        <ele>2522</ele>
        <time>2024-08-01T08:16:18.429Z</time>
      </trkpt>
      <trkpt lat="42.78923" lon="-0.17291">
        <ele>2522</ele>
        <time>2024-08-01T08:16:26.126Z</time>
      </trkpt>
      <trkpt lat="42.78902" lon="-0.17289">
        <ele>2526</ele>
        <time>2024-08-01T08:17:02.830Z</time>
      </trkpt>
      <trkpt lat="42.78888" lon="-0.17292">
        <ele>2526</ele>
        <time>2024-08-01T08:17:16.118Z</time>
      </trkpt>
      <trkpt lat="42.78887" lon="-0.17286">
        <ele>2527</ele>
        <time>2024-08-01T08:17:24.979Z</time>
      </trkpt>
      <trkpt lat="42.78885" lon="-0.17286">
        <ele>2527</ele>
        <time>2024-08-01T08:17:27.414Z</time>
      </trkpt>
      <trkpt lat="42.7888" lon="-0.17284">
        <ele>2528</ele>
        <time>2024-08-01T08:17:36.378Z</time>
      </trkpt>
      <trkpt lat="42.78877" lon="-0.17286">
        <ele>2527</ele>
        <time>2024-08-01T08:17:39.278Z</time>
      </trkpt>
      <trkpt lat="42.78873" lon="-0.17287">
        <ele>2526</ele>
        <time>2024-08-01T08:17:42.399Z</time>
      </trkpt>
      <trkpt lat="42.7887" lon="-0.17276">
        <ele>2527</ele>
        <time>2024-08-01T08:17:53.625Z</time>
      </trkpt>
      <trkpt lat="42.78861" lon="-0.17273">
        <ele>2525</ele>
        <time>2024-08-01T08:18:01.178Z</time>
      </trkpt>
      <trkpt lat="42.78855" lon="-0.17271">
        <ele>2524</ele>
        <time>2024-08-01T08:18:05.950Z</time>
      </trkpt>
      <trkpt lat="42.78852" lon="-0.17265">
        <ele>2523</ele>
        <time>2024-08-01T08:18:10.432Z</time>
      </trkpt>
      <trkpt lat="42.78856" lon="-0.17252">
        <ele>2526</ele>
        <time>2024-08-01T08:18:37.633Z</time>
      </trkpt>
      <trkpt lat="42.78856" lon="-0.17246">
        <ele>2527</ele>
        <time>2024-08-01T08:18:46.583Z</time>
      </trkpt>
      <trkpt lat="42.78854" lon="-0.1724">
        <ele>2527</ele>
        <time>2024-08-01T08:18:51.355Z</time>
      </trkpt>
      <trkpt lat="42.78832" lon="-0.17191">
        <ele>2528</ele>
        <time>2024-08-01T08:19:31.876Z</time>
      </trkpt>
      <trkpt lat="42.78821" lon="-0.17173">
        <ele>2527</ele>
        <time>2024-08-01T08:19:45.543Z</time>
      </trkpt>
      <trkpt lat="42.78813" lon="-0.17162">
        <ele>2527</ele>
        <time>2024-08-01T08:19:55.249Z</time>
      </trkpt>
      <trkpt lat="42.78804" lon="-0.17137">
        <ele>2529</ele>
        <time>2024-08-01T08:20:20.751Z</time>
      </trkpt>
      <trkpt lat="42.78798" lon="-0.17135">
        <ele>2527</ele>
        <time>2024-08-01T08:20:25.662Z</time>
      </trkpt>
      <trkpt lat="42.78796" lon="-0.17129">
        <ele>2527</ele>
        <time>2024-08-01T08:20:29.666Z</time>
      </trkpt>
      <trkpt lat="42.78792" lon="-0.1712">
        <ele>2526</ele>
        <time>2024-08-01T08:20:36.017Z</time>
      </trkpt>
      <trkpt lat="42.7879" lon="-0.17113">
        <ele>2526</ele>
        <time>2024-08-01T08:20:41.112Z</time>
      </trkpt>
      <trkpt lat="42.78786" lon="-0.17107">
        <ele>2524</ele>
        <time>2024-08-01T08:20:45.595Z</time>
      </trkpt>
      <trkpt lat="42.78783" lon="-0.17106">
        <ele>2522</ele>
        <time>2024-08-01T08:20:48.251Z</time>
      </trkpt>
      <trkpt lat="42.78774" lon="-0.17095">
        <ele>2515</ele>
        <time>2024-08-01T08:20:57.833Z</time>
      </trkpt>
      <trkpt lat="42.78771" lon="-0.17087">
        <ele>2512</ele>
        <time>2024-08-01T08:21:03.148Z</time>
      </trkpt>
      <trkpt lat="42.78771" lon="-0.17079">
        <ele>2511</ele>
        <time>2024-08-01T08:21:07.863Z</time>
      </trkpt>
      <trkpt lat="42.78773" lon="-0.17072">
        <ele>2511</ele>
        <time>2024-08-01T08:21:12.793Z</time>
      </trkpt>
      <trkpt lat="42.78772" lon="-0.1705">
        <ele>2506</ele>
        <time>2024-08-01T08:21:25.314Z</time>
      </trkpt>
      <trkpt lat="42.78771" lon="-0.17027">
        <ele>2500</ele>
        <time>2024-08-01T08:21:38.846Z</time>
      </trkpt>
      <trkpt lat="42.7877" lon="-0.17014">
        <ele>2496</ele>
        <time>2024-08-01T08:21:46.159Z</time>
      </trkpt>
      <trkpt lat="42.78771" lon="-0.17003">
        <ele>2494</ele>
        <time>2024-08-01T08:21:52.431Z</time>
      </trkpt>
      <trkpt lat="42.78771" lon="-0.16994">
        <ele>2491</ele>
        <time>2024-08-01T08:21:57.643Z</time>
      </trkpt>
      <trkpt lat="42.7877" lon="-0.16985">
        <ele>2488</ele>
        <time>2024-08-01T08:22:02.819Z</time>
      </trkpt>
      <trkpt lat="42.78767" lon="-0.16974">
        <ele>2482</ele>
        <time>2024-08-01T08:22:09.922Z</time>
      </trkpt>
      <trkpt lat="42.78771" lon="-0.16958">
        <ele>2480</ele>
        <time>2024-08-01T08:22:19.659Z</time>
      </trkpt>
      <trkpt lat="42.78773" lon="-0.16952">
        <ele>2481</ele>
        <time>2024-08-01T08:22:28.632Z</time>
      </trkpt>
      <trkpt lat="42.78775" lon="-0.16942">
        <ele>2479</ele>
        <time>2024-08-01T08:22:34.470Z</time>
      </trkpt>
      <trkpt lat="42.78774" lon="-0.16923">
        <ele>2472</ele>
        <time>2024-08-01T08:22:45.893Z</time>
      </trkpt>
      <trkpt lat="42.78778" lon="-0.16917">
        <ele>2473</ele>
        <time>2024-08-01T08:22:55.504Z</time>
      </trkpt>
      <trkpt lat="42.78782" lon="-0.16906">
        <ele>2473</ele>
        <time>2024-08-01T08:23:03.530Z</time>
      </trkpt>
      <trkpt lat="42.78786" lon="-0.16886">
        <ele>2468</ele>
        <time>2024-08-01T08:23:15.758Z</time>
      </trkpt>
      <trkpt lat="42.78795" lon="-0.16869">
        <ele>2466</ele>
        <time>2024-08-01T08:23:28.037Z</time>
      </trkpt>
      <trkpt lat="42.78797" lon="-0.16859">
        <ele>2464</ele>
        <time>2024-08-01T08:23:33.984Z</time>
      </trkpt>
      <trkpt lat="42.78803" lon="-0.16849">
        <ele>2463</ele>
        <time>2024-08-01T08:23:41.325Z</time>
      </trkpt>
      <trkpt lat="42.78807" lon="-0.16847">
        <ele>2465</ele>
        <time>2024-08-01T08:24:02.147Z</time>
      </trkpt>
      <trkpt lat="42.78811" lon="-0.16835">
        <ele>2463</ele>
        <time>2024-08-01T08:24:09.622Z</time>
      </trkpt>
      <trkpt lat="42.78818" lon="-0.16826">
        <ele>2462</ele>
        <time>2024-08-01T08:24:17.272Z</time>
      </trkpt>
      <trkpt lat="42.78815" lon="-0.16819">
        <ele>2458</ele>
        <time>2024-08-01T08:24:21.457Z</time>
      </trkpt>
      <trkpt lat="42.78816" lon="-0.16812">
        <ele>2456</ele>
        <time>2024-08-01T08:24:25.663Z</time>
      </trkpt>
      <trkpt lat="42.78818" lon="-0.16806">
        <ele>2454</ele>
        <time>2024-08-01T08:24:29.662Z</time>
      </trkpt>
      <trkpt lat="42.78823" lon="-0.16802">
        <ele>2455</ele>
        <time>2024-08-01T08:24:38.900Z</time>
      </trkpt>
      <trkpt lat="42.78831" lon="-0.16789">
        <ele>2452</ele>
        <time>2024-08-01T08:24:49.158Z</time>
      </trkpt>
      <trkpt lat="42.78838" lon="-0.16781">
        <ele>2451</ele>
        <time>2024-08-01T08:24:56.128Z</time>
      </trkpt>
      <trkpt lat="42.78848" lon="-0.16773">
        <ele>2452</ele>
        <time>2024-08-01T08:25:09.685Z</time>
      </trkpt>
      <trkpt lat="42.7887" lon="-0.16759">
        <ele>2453</ele>
        <time>2024-08-01T08:25:35.031Z</time>
      </trkpt>
      <trkpt lat="42.78883" lon="-0.16748">
        <ele>2454</ele>
        <time>2024-08-01T08:25:52.132Z</time>
      </trkpt>
      <trkpt lat="42.78892" lon="-0.16739">
        <ele>2455</ele>
        <time>2024-08-01T08:26:05.710Z</time>
      </trkpt>
      <trkpt lat="42.78902" lon="-0.16727">
        <ele>2454</ele>
        <time>2024-08-01T08:26:16.458Z</time>
      </trkpt>
      <trkpt lat="42.78908" lon="-0.1671">
        <ele>2451</ele>
        <time>2024-08-01T08:26:26.751Z</time>
      </trkpt>
      <trkpt lat="42.78913" lon="-0.16706">
        <ele>2452</ele>
        <time>2024-08-01T08:26:36.445Z</time>
      </trkpt>
      <trkpt lat="42.7892" lon="-0.16702">
        <ele>2455</ele>
        <time>2024-08-01T08:27:06.723Z</time>
      </trkpt>
      <trkpt lat="42.78929" lon="-0.16689">
        <ele>2455</ele>
        <time>2024-08-01T08:27:18.605Z</time>
      </trkpt>
      <trkpt lat="42.78943" lon="-0.16662">
        <ele>2452</ele>
        <time>2024-08-01T08:27:37.887Z</time>
      </trkpt>
      <trkpt lat="42.7896" lon="-0.16636">
        <ele>2450</ele>
        <time>2024-08-01T08:27:57.837Z</time>
      </trkpt>
      <trkpt lat="42.78972" lon="-0.16623">
        <ele>2451</ele>
        <time>2024-08-01T08:28:15.070Z</time>
      </trkpt>
      <trkpt lat="42.78982" lon="-0.16614">
        <ele>2451</ele>
        <time>2024-08-01T08:28:25.766Z</time>
      </trkpt>
      <trkpt lat="42.78991" lon="-0.16603">
        <ele>2451</ele>
        <time>2024-08-01T08:28:36.773Z</time>
      </trkpt>
      <trkpt lat="42.79003" lon="-0.16579">
        <ele>2446</ele>
        <time>2024-08-01T08:28:53.550Z</time>
      </trkpt>
      <trkpt lat="42.79026" lon="-0.16546">
        <ele>2444</ele>
        <time>2024-08-01T08:29:19.752Z</time>
      </trkpt>
      <trkpt lat="42.79032" lon="-0.16542">
        <ele>2446</ele>
        <time>2024-08-01T08:29:37.586Z</time>
      </trkpt>
      <trkpt lat="42.79035" lon="-0.16536">
        <ele>2446</ele>
        <time>2024-08-01T08:29:41.911Z</time>
      </trkpt>
      <trkpt lat="42.79041" lon="-0.16533">
        <ele>2448</ele>
        <time>2024-08-01T08:30:00.232Z</time>
      </trkpt>
      <trkpt lat="42.79045" lon="-0.16519">
        <ele>2446</ele>
        <time>2024-08-01T08:30:08.633Z</time>
      </trkpt>
      <trkpt lat="42.79052" lon="-0.16508">
        <ele>2447</ele>
        <time>2024-08-01T08:30:21.789Z</time>
      </trkpt>
      <trkpt lat="42.79061" lon="-0.16498">
        <ele>2448</ele>
        <time>2024-08-01T08:30:36.052Z</time>
      </trkpt>
      <trkpt lat="42.79065" lon="-0.16488">
        <ele>2447</ele>
        <time>2024-08-01T08:30:42.596Z</time>
      </trkpt>
      <trkpt lat="42.79065" lon="-0.16481">
        <ele>2444</ele>
        <time>2024-08-01T08:30:46.286Z</time>
      </trkpt>
      <trkpt lat="42.79072" lon="-0.16454">
        <ele>2439</ele>
        <time>2024-08-01T08:31:03.119Z</time>
      </trkpt>
      <trkpt lat="42.79084" lon="-0.16437">
        <ele>2438</ele>
        <time>2024-08-01T08:31:16.349Z</time>
      </trkpt>
      <trkpt lat="42.79099" lon="-0.16421">
        <ele>2439</ele>
        <time>2024-08-01T08:31:36.870Z</time>
      </trkpt>
      <trkpt lat="42.79118" lon="-0.16401">
        <ele>2442</ele>
        <time>2024-08-01T08:32:10.000Z</time>
      </trkpt>
      <trkpt lat="42.79134" lon="-0.16378">
        <ele>2445</ele>
        <time>2024-08-01T08:32:42.296Z</time>
      </trkpt>
      <trkpt lat="42.79152" lon="-0.16364">
        <ele>2451</ele>
        <time>2024-08-01T08:33:36.755Z</time>
      </trkpt>
      <trkpt lat="42.79166" lon="-0.16339">
        <ele>2455</ele>
        <time>2024-08-01T08:34:14.774Z</time>
      </trkpt>
      <trkpt lat="42.79173" lon="-0.16322">
        <ele>2458</ele>
        <time>2024-08-01T08:34:41.596Z</time>
      </trkpt>
      <trkpt lat="42.79179" lon="-0.16314">
        <ele>2460</ele>
        <time>2024-08-01T08:34:59.374Z</time>
      </trkpt>
      <trkpt lat="42.79183" lon="-0.16293">
        <ele>2461</ele>
        <time>2024-08-01T08:35:16.604Z</time>
      </trkpt>
      <trkpt lat="42.7918" lon="-0.16273">
        <ele>2458</ele>
        <time>2024-08-01T08:35:28.252Z</time>
      </trkpt>
      <trkpt lat="42.79184" lon="-0.1626">
        <ele>2460</ele>
        <time>2024-08-01T08:35:46.649Z</time>
      </trkpt>
      <trkpt lat="42.7919" lon="-0.16248">
        <ele>2464</ele>
        <time>2024-08-01T08:36:26.659Z</time>
      </trkpt>
      <trkpt lat="42.79187" lon="-0.16221">
        <ele>2461</ele>
        <time>2024-08-01T08:36:42.510Z</time>
      </trkpt>
      <trkpt lat="42.79188" lon="-0.16211">
        <ele>2462</ele>
        <time>2024-08-01T08:36:53.088Z</time>
      </trkpt>
      <trkpt lat="42.79193" lon="-0.16202">
        <ele>2465</ele>
        <time>2024-08-01T08:37:22.671Z</time>
      </trkpt>
      <trkpt lat="42.79198" lon="-0.16169">
        <ele>2468</ele>
        <time>2024-08-01T08:37:56.205Z</time>
      </trkpt>
      <trkpt lat="42.79205" lon="-0.16132">
        <ele>2474</ele>
        <time>2024-08-01T08:38:49.857Z</time>
      </trkpt>
      <trkpt lat="42.79203" lon="-0.16116">
        <ele>2475</ele>
        <time>2024-08-01T08:39:04.071Z</time>
      </trkpt>
      <trkpt lat="42.79206" lon="-0.161">
        <ele>2479</ele>
        <time>2024-08-01T08:39:41.268Z</time>
      </trkpt>
      <trkpt lat="42.79198" lon="-0.16084">
        <ele>2477</ele>
        <time>2024-08-01T08:39:52.528Z</time>
      </trkpt>
      <trkpt lat="42.7919" lon="-0.16052">
        <ele>2478</ele>
        <time>2024-08-01T08:40:17.839Z</time>
      </trkpt>
      <trkpt lat="42.79177" lon="-0.16001">
        <ele>2480</ele>
        <time>2024-08-01T08:40:59.844Z</time>
      </trkpt>
      <trkpt lat="42.79157" lon="-0.15893">
        <ele>2486</ele>
        <time>2024-08-01T08:42:33.139Z</time>
      </trkpt>
      <trkpt lat="42.79114" lon="-0.15812">
        <ele>2492</ele>
        <time>2024-08-01T08:43:59.185Z</time>
      </trkpt>
      <trkpt lat="42.79102" lon="-0.15792">
        <ele>2498</ele>
        <time>2024-08-01T08:44:54.700Z</time>
      </trkpt>
      <trkpt lat="42.79094" lon="-0.15775">
        <ele>2506</ele>
        <time>2024-08-01T08:46:07.276Z</time>
      </trkpt>
      <trkpt lat="42.79086" lon="-0.15757">
        <ele>2513</ele>
        <time>2024-08-01T08:47:19.592Z</time>
      </trkpt>
      <trkpt lat="42.79079" lon="-0.15751">
        <ele>2516</ele>
        <time>2024-08-01T08:47:49.158Z</time>
      </trkpt>
      <trkpt lat="42.79074" lon="-0.15744">
        <ele>2520</ele>
        <time>2024-08-01T08:48:24.012Z</time>
      </trkpt>
      <trkpt lat="42.79063" lon="-0.15729">
        <ele>2527</ele>
        <time>2024-08-01T08:49:37.122Z</time>
      </trkpt>
      <trkpt lat="42.79041" lon="-0.15707">
        <ele>2537</ele>
        <time>2024-08-01T08:51:15.514Z</time>
      </trkpt>
      <trkpt lat="42.79043" lon="-0.15699">
        <ele>2541</ele>
        <time>2024-08-01T08:51:44.091Z</time>
      </trkpt>
      <trkpt lat="42.79038" lon="-0.15699">
        <ele>2542</ele>
        <time>2024-08-01T08:51:53.052Z</time>
      </trkpt>
      <trkpt lat="42.79038" lon="-0.15696">
        <ele>2543</ele>
        <time>2024-08-01T08:52:02.854Z</time>
      </trkpt>
      <trkpt lat="42.79035" lon="-0.15697">
        <ele>2543</ele>
        <time>2024-08-01T08:52:05.273Z</time>
      </trkpt>
      <trkpt lat="42.79035" lon="-0.15693">
        <ele>2545</ele>
        <time>2024-08-01T08:52:20.909Z</time>
      </trkpt>
      <trkpt lat="42.79033" lon="-0.15695">
        <ele>2544</ele>
        <time>2024-08-01T08:52:23.148Z</time>
      </trkpt>
      <trkpt lat="42.79031" lon="-0.15694">
        <ele>2544</ele>
        <time>2024-08-01T08:52:24.962Z</time>
      </trkpt>
      <trkpt lat="42.79026" lon="-0.15696">
        <ele>2544</ele>
        <time>2024-08-01T08:52:29.904Z</time>
      </trkpt>
      <trkpt lat="42.79024" lon="-0.15696">
        <ele>2544</ele>
        <time>2024-08-01T08:52:31.618Z</time>
      </trkpt>
      <trkpt lat="42.79022" lon="-0.15699">
        <ele>2542</ele>
        <time>2024-08-01T08:52:33.532Z</time>
      </trkpt>
      <trkpt lat="42.79019" lon="-0.15697">
        <ele>2544</ele>
        <time>2024-08-01T08:52:50.362Z</time>
      </trkpt>
      <trkpt lat="42.79016" lon="-0.15697">
        <ele>2544</ele>
        <time>2024-08-01T08:52:52.707Z</time>
      </trkpt>
      <trkpt lat="42.79013" lon="-0.15699">
        <ele>2543</ele>
        <time>2024-08-01T08:52:55.957Z</time>
      </trkpt>
      <trkpt lat="42.79011" lon="-0.15698">
        <ele>2544</ele>
        <time>2024-08-01T08:53:06.043Z</time>
      </trkpt>
      <trkpt lat="42.79011" lon="-0.15694">
        <ele>2546</ele>
        <time>2024-08-01T08:53:21.593Z</time>
      </trkpt>
      <trkpt lat="42.79007" lon="-0.15693">
        <ele>2547</ele>
        <time>2024-08-01T08:53:30.457Z</time>
      </trkpt>
      <trkpt lat="42.79001" lon="-0.15695">
        <ele>2546</ele>
        <time>2024-08-01T08:53:35.426Z</time>
      </trkpt>
      <trkpt lat="42.78997" lon="-0.1569">
        <ele>2549</ele>
        <time>2024-08-01T08:54:03.948Z</time>
      </trkpt>
      <trkpt lat="42.78995" lon="-0.15684">
        <ele>2552</ele>
        <time>2024-08-01T08:54:26.687Z</time>
      </trkpt>
      <trkpt lat="42.78992" lon="-0.15685">
        <ele>2552</ele>
        <time>2024-08-01T08:54:29.868Z</time>
      </trkpt>
      <trkpt lat="42.78989" lon="-0.1569">
        <ele>2550</ele>
        <time>2024-08-01T08:54:33.594Z</time>
      </trkpt>
      <trkpt lat="42.78987" lon="-0.15688">
        <ele>2551</ele>
        <time>2024-08-01T08:54:42.369Z</time>
      </trkpt>
      <trkpt lat="42.78988" lon="-0.15685">
        <ele>2552</ele>
        <time>2024-08-01T08:54:52.647Z</time>
      </trkpt>
      <trkpt lat="42.78985" lon="-0.15687">
        <ele>2551</ele>
        <time>2024-08-01T08:54:55.045Z</time>
      </trkpt>
      <trkpt lat="42.78983" lon="-0.15694">
        <ele>2549</ele>
        <time>2024-08-01T08:54:59.020Z</time>
      </trkpt>
      <trkpt lat="42.78975" lon="-0.15701">
        <ele>2546</ele>
        <time>2024-08-01T08:55:06.955Z</time>
      </trkpt>
      <trkpt lat="42.7897" lon="-0.15703">
        <ele>2546</ele>
        <time>2024-08-01T08:55:11.290Z</time>
      </trkpt>
      <trkpt lat="42.78965" lon="-0.15699">
        <ele>2549</ele>
        <time>2024-08-01T08:55:38.906Z</time>
      </trkpt>
      <trkpt lat="42.7897" lon="-0.15695">
        <ele>2550</ele>
        <time>2024-08-01T08:55:48.121Z</time>
      </trkpt>
      <trkpt lat="42.78972" lon="-0.15691">
        <ele>2551</ele>
        <time>2024-08-01T08:55:56.981Z</time>
      </trkpt>
      <trkpt lat="42.78968" lon="-0.15692">
        <ele>2552</ele>
        <time>2024-08-01T08:56:05.924Z</time>
      </trkpt>
      <trkpt lat="42.78964" lon="-0.1568">
        <ele>2557</ele>
        <time>2024-08-01T08:56:49.153Z</time>
      </trkpt>
      <trkpt lat="42.7896" lon="-0.15672">
        <ele>2561</ele>
        <time>2024-08-01T08:57:22.814Z</time>
      </trkpt>
      <trkpt lat="42.7896" lon="-0.15669">
        <ele>2563</ele>
        <time>2024-08-01T08:57:32.196Z</time>
      </trkpt>
      <trkpt lat="42.7896" lon="-0.15667">
        <ele>2564</ele>
        <time>2024-08-01T08:57:41.577Z</time>
      </trkpt>
      <trkpt lat="42.78959" lon="-0.15659">
        <ele>2568</ele>
        <time>2024-08-01T08:58:07.458Z</time>
      </trkpt>
      <trkpt lat="42.78958" lon="-0.15658">
        <ele>2568</ele>
        <time>2024-08-01T08:58:08.706Z</time>
      </trkpt>
      <trkpt lat="42.7895" lon="-0.15648">
        <ele>2574</ele>
        <time>2024-08-01T08:59:00.107Z</time>
      </trkpt>
      <trkpt lat="42.78953" lon="-0.15645">
        <ele>2575</ele>
        <time>2024-08-01T08:59:09.210Z</time>
      </trkpt>
      <trkpt lat="42.78956" lon="-0.15645">
        <ele>2575</ele>
        <time>2024-08-01T08:59:11.555Z</time>
      </trkpt>
      <trkpt lat="42.78958" lon="-0.15641">
        <ele>2576</ele>
        <time>2024-08-01T08:59:20.613Z</time>
      </trkpt>
      <trkpt lat="42.78955" lon="-0.15641">
        <ele>2577</ele>
        <time>2024-08-01T08:59:30.505Z</time>
      </trkpt>
      <trkpt lat="42.78955" lon="-0.15637">
        <ele>2579</ele>
        <time>2024-08-01T08:59:43.013Z</time>
      </trkpt>
      <trkpt lat="42.78956" lon="-0.15637">
        <ele>2578</ele>
        <time>2024-08-01T08:59:44.039Z</time>
      </trkpt>
      <trkpt lat="42.78957" lon="-0.15636">
        <ele>2579</ele>
        <time>2024-08-01T08:59:48.596Z</time>
      </trkpt>
      <trkpt lat="42.78954" lon="-0.15633">
        <ele>2580</ele>
        <time>2024-08-01T08:59:57.473Z</time>
      </trkpt>
      <trkpt lat="42.78953" lon="-0.15632">
        <ele>2580</ele>
        <time>2024-08-01T08:59:58.821Z</time>
      </trkpt>
      <trkpt lat="42.78956" lon="-0.15628">
        <ele>2582</ele>
        <time>2024-08-01T09:00:16.371Z</time>
      </trkpt>
      <trkpt lat="42.78956" lon="-0.15625">
        <ele>2582</ele>
        <time>2024-08-01T09:00:18.158Z</time>
      </trkpt>
      <trkpt lat="42.78952" lon="-0.15624">
        <ele>2583</ele>
        <time>2024-08-01T09:00:27.220Z</time>
      </trkpt>
      <trkpt lat="42.78954" lon="-0.15621">
        <ele>2584</ele>
        <time>2024-08-01T09:00:36.318Z</time>
      </trkpt>
      <trkpt lat="42.7895" lon="-0.1562">
        <ele>2584</ele>
        <time>2024-08-01T09:00:40.519Z</time>
      </trkpt>
      <trkpt lat="42.7895" lon="-0.15616">
        <ele>2585</ele>
        <time>2024-08-01T09:00:50.593Z</time>
      </trkpt>
      <trkpt lat="42.78946" lon="-0.15614">
        <ele>2586</ele>
        <time>2024-08-01T09:00:59.627Z</time>
      </trkpt>
      <trkpt lat="42.78937" lon="-0.156">
        <ele>2589</ele>
        <time>2024-08-01T09:01:26.386Z</time>
      </trkpt>
      <trkpt lat="42.78922" lon="-0.15589">
        <ele>2589</ele>
        <time>2024-08-01T09:01:41.736Z</time>
      </trkpt>
      <trkpt lat="42.78916" lon="-0.15583">
        <ele>2589</ele>
        <time>2024-08-01T09:01:48.567Z</time>
      </trkpt>
      <trkpt lat="42.78911" lon="-0.15574">
        <ele>2589</ele>
        <time>2024-08-01T09:01:55.826Z</time>
      </trkpt>
      <trkpt lat="42.7891" lon="-0.15566">
        <ele>2588</ele>
        <time>2024-08-01T09:02:00.483Z</time>
      </trkpt>
      <trkpt lat="42.78911" lon="-0.15559">
        <ele>2587</ele>
        <time>2024-08-01T09:02:04.737Z</time>
      </trkpt>
      <trkpt lat="42.78909" lon="-0.15546">
        <ele>2584</ele>
        <time>2024-08-01T09:02:12.202Z</time>
      </trkpt>
      <trkpt lat="42.7891" lon="-0.15542">
        <ele>2583</ele>
        <time>2024-08-01T09:02:14.980Z</time>
      </trkpt>
      <trkpt lat="42.78912" lon="-0.15537">
        <ele>2581</ele>
        <time>2024-08-01T09:02:17.807Z</time>
      </trkpt>
      <trkpt lat="42.78914" lon="-0.15527">
        <ele>2578</ele>
        <time>2024-08-01T09:02:23.869Z</time>
      </trkpt>
      <trkpt lat="42.78921" lon="-0.15519">
        <ele>2574</ele>
        <time>2024-08-01T09:02:31.196Z</time>
      </trkpt>
      <trkpt lat="42.78925" lon="-0.15515">
        <ele>2571</ele>
        <time>2024-08-01T09:02:35.011Z</time>
      </trkpt>
      <trkpt lat="42.78925" lon="-0.15514">
        <ele>2571</ele>
        <time>2024-08-01T09:02:35.607Z</time>
      </trkpt>
      <trkpt lat="42.7892" lon="-0.1551">
        <ele>2571</ele>
        <time>2024-08-01T09:02:40.750Z</time>
      </trkpt>
      <trkpt lat="42.78919" lon="-0.15509">
        <ele>2571</ele>
        <time>2024-08-01T09:02:42.018Z</time>
      </trkpt>
      <trkpt lat="42.78919" lon="-0.15507">
        <ele>2571</ele>
        <time>2024-08-01T09:02:43.210Z</time>
      </trkpt>
      <trkpt lat="42.78915" lon="-0.15499">
        <ele>2570</ele>
        <time>2024-08-01T09:02:48.864Z</time>
      </trkpt>
      <trkpt lat="42.78912" lon="-0.1549">
        <ele>2570</ele>
        <time>2024-08-01T09:02:55.563Z</time>
      </trkpt>
      <trkpt lat="42.7891" lon="-0.15477">
        <ele>2568</ele>
        <time>2024-08-01T09:03:03.012Z</time>
      </trkpt>
      <trkpt lat="42.78908" lon="-0.15466">
        <ele>2567</ele>
        <time>2024-08-01T09:03:09.293Z</time>
      </trkpt>
      <trkpt lat="42.78907" lon="-0.15451">
        <ele>2565</ele>
        <time>2024-08-01T09:03:18.213Z</time>
      </trkpt>
      <trkpt lat="42.78904" lon="-0.1545">
        <ele>2567</ele>
        <time>2024-08-01T09:03:31.374Z</time>
      </trkpt>
      <trkpt lat="42.78904" lon="-0.15443">
        <ele>2566</ele>
        <time>2024-08-01T09:03:35.522Z</time>
      </trkpt>
      <trkpt lat="42.78904" lon="-0.1542">
        <ele>2562</ele>
        <time>2024-08-01T09:03:49.074Z</time>
      </trkpt>
      <trkpt lat="42.78905" lon="-0.15413">
        <ele>2560</ele>
        <time>2024-08-01T09:03:52.886Z</time>
      </trkpt>
      <trkpt lat="42.78908" lon="-0.1541">
        <ele>2557</ele>
        <time>2024-08-01T09:03:56.221Z</time>
      </trkpt>
      <trkpt lat="42.78912" lon="-0.15405">
        <ele>2554</ele>
        <time>2024-08-01T09:04:00.217Z</time>
      </trkpt>
      <trkpt lat="42.78914" lon="-0.15401">
        <ele>2552</ele>
        <time>2024-08-01T09:04:03.313Z</time>
      </trkpt>
      <trkpt lat="42.78914" lon="-0.15393">
        <ele>2550</ele>
        <time>2024-08-01T09:04:07.946Z</time>
      </trkpt>
      <trkpt lat="42.78913" lon="-0.15381">
        <ele>2548</ele>
        <time>2024-08-01T09:04:14.799Z</time>
      </trkpt>
      <trkpt lat="42.78916" lon="-0.15376">
        <ele>2545</ele>
        <time>2024-08-01T09:04:18.539Z</time>
      </trkpt>
      <trkpt lat="42.78917" lon="-0.15371">
        <ele>2544</ele>
        <time>2024-08-01T09:04:21.340Z</time>
      </trkpt>
      <trkpt lat="42.78918" lon="-0.15365">
        <ele>2542</ele>
        <time>2024-08-01T09:04:25.152Z</time>
      </trkpt>
      <trkpt lat="42.78923" lon="-0.15352">
        <ele>2536</ele>
        <time>2024-08-01T09:04:33.523Z</time>
      </trkpt>
      <trkpt lat="42.78927" lon="-0.15347">
        <ele>2533</ele>
        <time>2024-08-01T09:04:37.967Z</time>
      </trkpt>
      <trkpt lat="42.78931" lon="-0.15344">
        <ele>2531</ele>
        <time>2024-08-01T09:04:41.419Z</time>
      </trkpt>
      <trkpt lat="42.78935" lon="-0.1534">
        <ele>2528</ele>
        <time>2024-08-01T09:04:45.119Z</time>
      </trkpt>
      <trkpt lat="42.78937" lon="-0.15332">
        <ele>2526</ele>
        <time>2024-08-01T09:04:49.818Z</time>
      </trkpt>
      <trkpt lat="42.7894" lon="-0.15321">
        <ele>2522</ele>
        <time>2024-08-01T09:04:56.842Z</time>
      </trkpt>
      <trkpt lat="42.78943" lon="-0.15312">
        <ele>2519</ele>
        <time>2024-08-01T09:05:02.443Z</time>
      </trkpt>
      <trkpt lat="42.78945" lon="-0.15303">
        <ele>2516</ele>
        <time>2024-08-01T09:05:07.889Z</time>
      </trkpt>
      <trkpt lat="42.78948" lon="-0.15295">
        <ele>2513</ele>
        <time>2024-08-01T09:05:13.203Z</time>
      </trkpt>
      <trkpt lat="42.7895" lon="-0.15286">
        <ele>2511</ele>
        <time>2024-08-01T09:05:18.805Z</time>
      </trkpt>
      <trkpt lat="42.78953" lon="-0.15262">
        <ele>2507</ele>
        <time>2024-08-01T09:05:32.522Z</time>
      </trkpt>
      <trkpt lat="42.78952" lon="-0.15254">
        <ele>2505</ele>
        <time>2024-08-01T09:05:37.706Z</time>
      </trkpt>
      <trkpt lat="42.7895" lon="-0.15248">
        <ele>2505</ele>
        <time>2024-08-01T09:05:41.768Z</time>
      </trkpt>
      <trkpt lat="42.78952" lon="-0.1524">
        <ele>2503</ele>
        <time>2024-08-01T09:05:46.588Z</time>
      </trkpt>
      <trkpt lat="42.78954" lon="-0.15229">
        <ele>2501</ele>
        <time>2024-08-01T09:05:52.982Z</time>
      </trkpt>
      <trkpt lat="42.78955" lon="-0.15222">
        <ele>2498</ele>
        <time>2024-08-01T09:05:57.332Z</time>
      </trkpt>
      <trkpt lat="42.78956" lon="-0.15218">
        <ele>2496</ele>
        <time>2024-08-01T09:06:00.079Z</time>
      </trkpt>
      <trkpt lat="42.78958" lon="-0.15212">
        <ele>2494</ele>
        <time>2024-08-01T09:06:03.633Z</time>
      </trkpt>
      <trkpt lat="42.78962" lon="-0.1521">
        <ele>2492</ele>
        <time>2024-08-01T09:06:06.417Z</time>
      </trkpt>
      <trkpt lat="42.7897" lon="-0.15209">
        <ele>2488</ele>
        <time>2024-08-01T09:06:12.738Z</time>
      </trkpt>
      <trkpt lat="42.78974" lon="-0.15194">
        <ele>2483</ele>
        <time>2024-08-01T09:06:21.886Z</time>
      </trkpt>
      <trkpt lat="42.78978" lon="-0.15189">
        <ele>2480</ele>
        <time>2024-08-01T09:06:26.233Z</time>
      </trkpt>
      <trkpt lat="42.78983" lon="-0.15177">
        <ele>2474</ele>
        <time>2024-08-01T09:06:33.957Z</time>
      </trkpt>
      <trkpt lat="42.78983" lon="-0.15166">
        <ele>2471</ele>
        <time>2024-08-01T09:06:40.171Z</time>
      </trkpt>
      <trkpt lat="42.78984" lon="-0.15163">
        <ele>2469</ele>
        <time>2024-08-01T09:06:42.328Z</time>
      </trkpt>
      <trkpt lat="42.78987" lon="-0.15162">
        <ele>2468</ele>
        <time>2024-08-01T09:06:44.460Z</time>
      </trkpt>
      <trkpt lat="42.78987" lon="-0.15165">
        <ele>2469</ele>
        <time>2024-08-01T09:06:54.235Z</time>
      </trkpt>
      <trkpt lat="42.78989" lon="-0.15166">
        <ele>2469</ele>
        <time>2024-08-01T09:06:55.582Z</time>
      </trkpt>
      <trkpt lat="42.78991" lon="-0.15157">
        <ele>2465</ele>
        <time>2024-08-01T09:07:01.183Z</time>
      </trkpt>
      <trkpt lat="42.78992" lon="-0.15153">
        <ele>2462</ele>
        <time>2024-08-01T09:07:03.904Z</time>
      </trkpt>
      <trkpt lat="42.78991" lon="-0.15151">
        <ele>2462</ele>
        <time>2024-08-01T09:07:05.194Z</time>
      </trkpt>
      <trkpt lat="42.78995" lon="-0.15152">
        <ele>2461</ele>
        <time>2024-08-01T09:07:08.393Z</time>
      </trkpt>
      <trkpt lat="42.78997" lon="-0.15151">
        <ele>2460</ele>
        <time>2024-08-01T09:07:09.980Z</time>
      </trkpt>
      <trkpt lat="42.79006" lon="-0.15155">
        <ele>2460</ele>
        <time>2024-08-01T09:07:18.265Z</time>
      </trkpt>
      <trkpt lat="42.7901" lon="-0.15158">
        <ele>2460</ele>
        <time>2024-08-01T09:07:22.321Z</time>
      </trkpt>
      <trkpt lat="42.79012" lon="-0.15161">
        <ele>2460</ele>
        <time>2024-08-01T09:07:24.860Z</time>
      </trkpt>
      <trkpt lat="42.79016" lon="-0.15151">
        <ele>2454</ele>
        <time>2024-08-01T09:07:31.367Z</time>
      </trkpt>
      <trkpt lat="42.79018" lon="-0.15142">
        <ele>2449</ele>
        <time>2024-08-01T09:07:36.812Z</time>
      </trkpt>
      <trkpt lat="42.79021" lon="-0.15138">
        <ele>2447</ele>
        <time>2024-08-01T09:07:40.148Z</time>
      </trkpt>
      <trkpt lat="42.79023" lon="-0.15142">
        <ele>2447</ele>
        <time>2024-08-01T09:07:43.136Z</time>
      </trkpt>
      <trkpt lat="42.79027" lon="-0.15143">
        <ele>2447</ele>
        <time>2024-08-01T09:07:46.704Z</time>
      </trkpt>
      <trkpt lat="42.79034" lon="-0.15144">
        <ele>2446</ele>
        <time>2024-08-01T09:07:51.938Z</time>
      </trkpt>
      <trkpt lat="42.79045" lon="-0.15142">
        <ele>2445</ele>
        <time>2024-08-01T09:08:01.386Z</time>
      </trkpt>
      <trkpt lat="42.79047" lon="-0.15128">
        <ele>2439</ele>
        <time>2024-08-01T09:08:09.731Z</time>
      </trkpt>
      <trkpt lat="42.79051" lon="-0.15122">
        <ele>2437</ele>
        <time>2024-08-01T09:08:14.582Z</time>
      </trkpt>
      <trkpt lat="42.79051" lon="-0.15119">
        <ele>2436</ele>
        <time>2024-08-01T09:08:16.667Z</time>
      </trkpt>
      <trkpt lat="42.79048" lon="-0.15111">
        <ele>2432</ele>
        <time>2024-08-01T09:08:21.674Z</time>
      </trkpt>
      <trkpt lat="42.79068" lon="-0.15095">
        <ele>2433</ele>
        <time>2024-08-01T09:08:45.526Z</time>
      </trkpt>
      <trkpt lat="42.79074" lon="-0.15081">
        <ele>2431</ele>
        <time>2024-08-01T09:08:55.115Z</time>
      </trkpt>
      <trkpt lat="42.79075" lon="-0.15069">
        <ele>2428</ele>
        <time>2024-08-01T09:09:01.968Z</time>
      </trkpt>
      <trkpt lat="42.79058" lon="-0.1507">
        <ele>2417</ele>
        <time>2024-08-01T09:09:15.551Z</time>
      </trkpt>
      <trkpt lat="42.79063" lon="-0.1505">
        <ele>2412</ele>
        <time>2024-08-01T09:09:28.192Z</time>
      </trkpt>
      <trkpt lat="42.79071" lon="-0.14996">
        <ele>2398</ele>
        <time>2024-08-01T09:09:59.933Z</time>
      </trkpt>
      <trkpt lat="42.79073" lon="-0.14987">
        <ele>2397</ele>
        <time>2024-08-01T09:10:05.534Z</time>
      </trkpt>
      <trkpt lat="42.79076" lon="-0.1494">
        <ele>2384</ele>
        <time>2024-08-01T09:10:32.655Z</time>
      </trkpt>
      <trkpt lat="42.79067" lon="-0.14944">
        <ele>2379</ele>
        <time>2024-08-01T09:10:40.209Z</time>
      </trkpt>
      <trkpt lat="42.79048" lon="-0.1496">
        <ele>2371</ele>
        <time>2024-08-01T09:10:57.531Z</time>
      </trkpt>
      <trkpt lat="42.79042" lon="-0.14955">
        <ele>2367</ele>
        <time>2024-08-01T09:11:02.838Z</time>
      </trkpt>
      <trkpt lat="42.79036" lon="-0.14957">
        <ele>2363</ele>
        <time>2024-08-01T09:11:08.139Z</time>
      </trkpt>
      <trkpt lat="42.79011" lon="-0.14953">
        <ele>2351</ele>
        <time>2024-08-01T09:11:27.977Z</time>
      </trkpt>
      <trkpt lat="42.7901" lon="-0.14937">
        <ele>2346</ele>
        <time>2024-08-01T09:11:37.317Z</time>
      </trkpt>
      <trkpt lat="42.79009" lon="-0.14934">
        <ele>2344</ele>
        <time>2024-08-01T09:11:39.640Z</time>
      </trkpt>
      <trkpt lat="42.78999" lon="-0.14934">
        <ele>2342</ele>
        <time>2024-08-01T09:11:46.900Z</time>
      </trkpt>
      <trkpt lat="42.78994" lon="-0.14935">
        <ele>2342</ele>
        <time>2024-08-01T09:11:51.811Z</time>
      </trkpt>
      <trkpt lat="42.7899" lon="-0.14933">
        <ele>2340</ele>
        <time>2024-08-01T09:11:55.308Z</time>
      </trkpt>
      <trkpt lat="42.78988" lon="-0.14933">
        <ele>2340</ele>
        <time>2024-08-01T09:11:57.022Z</time>
      </trkpt>
      <trkpt lat="42.78987" lon="-0.14916">
        <ele>2334</ele>
        <time>2024-08-01T09:12:06.986Z</time>
      </trkpt>
      <trkpt lat="42.78982" lon="-0.14907">
        <ele>2330</ele>
        <time>2024-08-01T09:12:13.619Z</time>
      </trkpt>
      <trkpt lat="42.78973" lon="-0.14893">
        <ele>2326</ele>
        <time>2024-08-01T09:12:23.928Z</time>
      </trkpt>
      <trkpt lat="42.7897" lon="-0.14883">
        <ele>2324</ele>
        <time>2024-08-01T09:12:30.225Z</time>
      </trkpt>
      <trkpt lat="42.78969" lon="-0.1488">
        <ele>2323</ele>
        <time>2024-08-01T09:12:32.382Z</time>
      </trkpt>
      <trkpt lat="42.78958" lon="-0.1488">
        <ele>2325</ele>
        <time>2024-08-01T09:12:51.071Z</time>
      </trkpt>
      <trkpt lat="42.78956" lon="-0.14877">
        <ele>2325</ele>
        <time>2024-08-01T09:12:53.610Z</time>
      </trkpt>
      <trkpt lat="42.78953" lon="-0.14872">
        <ele>2324</ele>
        <time>2024-08-01T09:12:56.973Z</time>
      </trkpt>
      <trkpt lat="42.78946" lon="-0.14848">
        <ele>2320</ele>
        <time>2024-08-01T09:13:12.041Z</time>
      </trkpt>
      <trkpt lat="42.78946" lon="-0.14837">
        <ele>2316</ele>
        <time>2024-08-01T09:13:18.817Z</time>
      </trkpt>
      <trkpt lat="42.78947" lon="-0.14808">
        <ele>2305</ele>
        <time>2024-08-01T09:13:35.527Z</time>
      </trkpt>
      <trkpt lat="42.78946" lon="-0.14802">
        <ele>2302</ele>
        <time>2024-08-01T09:13:39.317Z</time>
      </trkpt>
      <trkpt lat="42.78956" lon="-0.14797">
        <ele>2298</ele>
        <time>2024-08-01T09:13:47.459Z</time>
      </trkpt>
      <trkpt lat="42.78956" lon="-0.14794">
        <ele>2297</ele>
        <time>2024-08-01T09:13:49.023Z</time>
      </trkpt>
      <trkpt lat="42.78954" lon="-0.14792">
        <ele>2296</ele>
        <time>2024-08-01T09:13:50.893Z</time>
      </trkpt>
      <trkpt lat="42.78942" lon="-0.1478">
        <ele>2293</ele>
        <time>2024-08-01T09:14:02.860Z</time>
      </trkpt>
      <trkpt lat="42.78935" lon="-0.14781">
        <ele>2295</ele>
        <time>2024-08-01T09:14:21.056Z</time>
      </trkpt>
      <trkpt lat="42.78928" lon="-0.14762">
        <ele>2287</ele>
        <time>2024-08-01T09:14:33.322Z</time>
      </trkpt>
      <trkpt lat="42.78917" lon="-0.14754">
        <ele>2286</ele>
        <time>2024-08-01T09:14:43.355Z</time>
      </trkpt>
      <trkpt lat="42.78921" lon="-0.14743">
        <ele>2279</ele>
        <time>2024-08-01T09:14:50.309Z</time>
      </trkpt>
      <trkpt lat="42.78912" lon="-0.14735">
        <ele>2278</ele>
        <time>2024-08-01T09:14:59.019Z</time>
      </trkpt>
      <trkpt lat="42.78907" lon="-0.14723">
        <ele>2274</ele>
        <time>2024-08-01T09:15:07.134Z</time>
      </trkpt>
      <trkpt lat="42.78903" lon="-0.14716">
        <ele>2272</ele>
        <time>2024-08-01T09:15:11.959Z</time>
      </trkpt>
      <trkpt lat="42.789" lon="-0.14715">
        <ele>2272</ele>
        <time>2024-08-01T09:15:15.140Z</time>
      </trkpt>
      <trkpt lat="42.78894" lon="-0.14706">
        <ele>2271</ele>
        <time>2024-08-01T09:15:21.791Z</time>
      </trkpt>
      <trkpt lat="42.78891" lon="-0.14706">
        <ele>2272</ele>
        <time>2024-08-01T09:15:31.682Z</time>
      </trkpt>
      <trkpt lat="42.78888" lon="-0.14702">
        <ele>2272</ele>
        <time>2024-08-01T09:15:35.566Z</time>
      </trkpt>
      <trkpt lat="42.78887" lon="-0.14696">
        <ele>2270</ele>
        <time>2024-08-01T09:15:39.245Z</time>
      </trkpt>
      <trkpt lat="42.78891" lon="-0.14688">
        <ele>2267</ele>
        <time>2024-08-01T09:15:44.610Z</time>
      </trkpt>
      <trkpt lat="42.78893" lon="-0.14684">
        <ele>2265</ele>
        <time>2024-08-01T09:15:47.535Z</time>
      </trkpt>
      <trkpt lat="42.789" lon="-0.14683">
        <ele>2262</ele>
        <time>2024-08-01T09:15:52.775Z</time>
      </trkpt>
      <trkpt lat="42.78921" lon="-0.14684">
        <ele>2253</ele>
        <time>2024-08-01T09:16:09.436Z</time>
      </trkpt>
      <trkpt lat="42.78938" lon="-0.1469">
        <ele>2250</ele>
        <time>2024-08-01T09:16:23.491Z</time>
      </trkpt>
      <trkpt lat="42.78947" lon="-0.14687">
        <ele>2246</ele>
        <time>2024-08-01T09:16:31.044Z</time>
      </trkpt>
      <trkpt lat="42.78956" lon="-0.14679">
        <ele>2240</ele>
        <time>2024-08-01T09:16:39.229Z</time>
      </trkpt>
      <trkpt lat="42.78959" lon="-0.14673">
        <ele>2238</ele>
        <time>2024-08-01T09:16:43.343Z</time>
      </trkpt>
      <trkpt lat="42.78951" lon="-0.14662">
        <ele>2234</ele>
        <time>2024-08-01T09:16:52.133Z</time>
      </trkpt>
      <trkpt lat="42.78966" lon="-0.14654">
        <ele>2229</ele>
        <time>2024-08-01T09:17:04.573Z</time>
      </trkpt>
      <trkpt lat="42.78969" lon="-0.14653">
        <ele>2229</ele>
        <time>2024-08-01T09:17:07.520Z</time>
      </trkpt>
      <trkpt lat="42.78971" lon="-0.1465">
        <ele>2227</ele>
        <time>2024-08-01T09:17:10.134Z</time>
      </trkpt>
      <trkpt lat="42.78968" lon="-0.14645">
        <ele>2226</ele>
        <time>2024-08-01T09:17:13.778Z</time>
      </trkpt>
      <trkpt lat="42.78962" lon="-0.14633">
        <ele>2221</ele>
        <time>2024-08-01T09:17:22.188Z</time>
      </trkpt>
      <trkpt lat="42.78959" lon="-0.14626">
        <ele>2219</ele>
        <time>2024-08-01T09:17:26.671Z</time>
      </trkpt>
      <trkpt lat="42.78949" lon="-0.14609">
        <ele>2214</ele>
        <time>2024-08-01T09:17:39.583Z</time>
      </trkpt>
      <trkpt lat="42.78952" lon="-0.14606">
        <ele>2213</ele>
        <time>2024-08-01T09:17:42.918Z</time>
      </trkpt>
      <trkpt lat="42.78954" lon="-0.14603">
        <ele>2211</ele>
        <time>2024-08-01T09:17:45.140Z</time>
      </trkpt>
      <trkpt lat="42.78952" lon="-0.146">
        <ele>2211</ele>
        <time>2024-08-01T09:17:47.328Z</time>
      </trkpt>
      <trkpt lat="42.78949" lon="-0.14598">
        <ele>2211</ele>
        <time>2024-08-01T09:17:51.244Z</time>
      </trkpt>
      <trkpt lat="42.78949" lon="-0.14597">
        <ele>2211</ele>
        <time>2024-08-01T09:17:51.906Z</time>
      </trkpt>
      <trkpt lat="42.7895" lon="-0.14595">
        <ele>2210</ele>
        <time>2024-08-01T09:17:53.327Z</time>
      </trkpt>
      <trkpt lat="42.78953" lon="-0.14593">
        <ele>2209</ele>
        <time>2024-08-01T09:17:56.155Z</time>
      </trkpt>
      <trkpt lat="42.78952" lon="-0.1459">
        <ele>2208</ele>
        <time>2024-08-01T09:17:57.813Z</time>
      </trkpt>
      <trkpt lat="42.7895" lon="-0.14587">
        <ele>2208</ele>
        <time>2024-08-01T09:18:01.156Z</time>
      </trkpt>
      <trkpt lat="42.78952" lon="-0.14584">
        <ele>2206</ele>
        <time>2024-08-01T09:18:03.735Z</time>
      </trkpt>
      <trkpt lat="42.78964" lon="-0.14573">
        <ele>2202</ele>
        <time>2024-08-01T09:18:14.986Z</time>
      </trkpt>
      <trkpt lat="42.78963" lon="-0.14567">
        <ele>2201</ele>
        <time>2024-08-01T09:18:18.776Z</time>
      </trkpt>
      <trkpt lat="42.7897" lon="-0.1455">
        <ele>2197</ele>
        <time>2024-08-01T09:18:29.965Z</time>
      </trkpt>
      <trkpt lat="42.78975" lon="-0.1455">
        <ele>2197</ele>
        <time>2024-08-01T09:18:34.655Z</time>
      </trkpt>
      <trkpt lat="42.78981" lon="-0.14537">
        <ele>2192</ele>
        <time>2024-08-01T09:18:43.353Z</time>
      </trkpt>
      <trkpt lat="42.78997" lon="-0.14529">
        <ele>2186</ele>
        <time>2024-08-01T09:18:57.099Z</time>
      </trkpt>
      <trkpt lat="42.79002" lon="-0.1452">
        <ele>2182</ele>
        <time>2024-08-01T09:19:03.496Z</time>
      </trkpt>
      <trkpt lat="42.79016" lon="-0.14516">
        <ele>2179</ele>
        <time>2024-08-01T09:19:15.244Z</time>
      </trkpt>
      <trkpt lat="42.79026" lon="-0.14502">
        <ele>2174</ele>
        <time>2024-08-01T09:19:26.255Z</time>
      </trkpt>
      <trkpt lat="42.79024" lon="-0.145">
        <ele>2173</ele>
        <time>2024-08-01T09:19:28.800Z</time>
      </trkpt>
      <trkpt lat="42.7902" lon="-0.14494">
        <ele>2171</ele>
        <time>2024-08-01T09:19:33.285Z</time>
      </trkpt>
      <trkpt lat="42.79022" lon="-0.14477">
        <ele>2165</ele>
        <time>2024-08-01T09:19:43.398Z</time>
      </trkpt>
      <trkpt lat="42.79014" lon="-0.14469">
        <ele>2163</ele>
        <time>2024-08-01T09:19:51.615Z</time>
      </trkpt>
      <trkpt lat="42.79017" lon="-0.14454">
        <ele>2159</ele>
        <time>2024-08-01T09:20:00.850Z</time>
      </trkpt>
      <trkpt lat="42.79015" lon="-0.14449">
        <ele>2157</ele>
        <time>2024-08-01T09:20:04.318Z</time>
      </trkpt>
      <trkpt lat="42.7904" lon="-0.14378">
        <ele>2149</ele>
        <time>2024-08-01T09:20:49.870Z</time>
      </trkpt>
      <trkpt lat="42.79126" lon="-0.14359">
        <ele>2150</ele>
        <time>2024-08-01T09:22:11.101Z</time>
      </trkpt>
      <trkpt lat="42.79157" lon="-0.14342">
        <ele>2150</ele>
        <time>2024-08-01T09:22:41.489Z</time>
      </trkpt>
      <trkpt lat="42.79191" lon="-0.14335">
        <ele>2150</ele>
        <time>2024-08-01T09:23:12.242Z</time>
      </trkpt>
      <trkpt lat="42.79198" lon="-0.14327">
        <ele>2149</ele>
        <time>2024-08-01T09:23:19.573Z</time>
      </trkpt>
      <trkpt lat="42.79213" lon="-0.14323">
        <ele>2148</ele>
        <time>2024-08-01T09:23:31.322Z</time>
      </trkpt>
      <trkpt lat="42.79221" lon="-0.14306">
        <ele>2145</ele>
        <time>2024-08-01T09:23:43.279Z</time>
      </trkpt>
      <trkpt lat="42.79253" lon="-0.14269">
        <ele>2143</ele>
        <time>2024-08-01T09:24:16.178Z</time>
      </trkpt>
      <trkpt lat="42.79268" lon="-0.1427">
        <ele>2144</ele>
        <time>2024-08-01T09:24:33.037Z</time>
      </trkpt>
      <trkpt lat="42.79278" lon="-0.14263">
        <ele>2144</ele>
        <time>2024-08-01T09:24:42.716Z</time>
      </trkpt>
      <trkpt lat="42.79295" lon="-0.14271">
        <ele>2145</ele>
        <time>2024-08-01T09:25:02.207Z</time>
      </trkpt>
      <trkpt lat="42.79339" lon="-0.14217">
        <ele>2144</ele>
        <time>2024-08-01T09:25:53.425Z</time>
      </trkpt>
      <trkpt lat="42.79343" lon="-0.14202">
        <ele>2144</ele>
        <time>2024-08-01T09:26:03.408Z</time>
      </trkpt>
      <trkpt lat="42.79336" lon="-0.14193">
        <ele>2146</ele>
        <time>2024-08-01T09:26:21.312Z</time>
      </trkpt>
      <trkpt lat="42.79334" lon="-0.14193">
        <ele>2147</ele>
        <time>2024-08-01T09:26:30.781Z</time>
      </trkpt>
      <trkpt lat="42.79331" lon="-0.14195">
        <ele>2147</ele>
        <time>2024-08-01T09:26:33.987Z</time>
      </trkpt>
      <trkpt lat="42.79328" lon="-0.14195">
        <ele>2147</ele>
        <time>2024-08-01T09:26:36.332Z</time>
      </trkpt>
      <trkpt lat="42.79324" lon="-0.14193">
        <ele>2148</ele>
        <time>2024-08-01T09:26:45.192Z</time>
      </trkpt>
      <trkpt lat="42.79318" lon="-0.14187">
        <ele>2148</ele>
        <time>2024-08-01T09:26:52.533Z</time>
      </trkpt>
      <trkpt lat="42.79308" lon="-0.14182">
        <ele>2149</ele>
        <time>2024-08-01T09:27:05.543Z</time>
      </trkpt>
      <trkpt lat="42.793" lon="-0.14177">
        <ele>2148</ele>
        <time>2024-08-01T09:27:12.277Z</time>
      </trkpt>
      <trkpt lat="42.79295" lon="-0.14173">
        <ele>2148</ele>
        <time>2024-08-01T09:27:17.909Z</time>
      </trkpt>
      <trkpt lat="42.7929" lon="-0.14171">
        <ele>2148</ele>
        <time>2024-08-01T09:27:22.312Z</time>
      </trkpt>
      <trkpt lat="42.79283" lon="-0.14168">
        <ele>2148</ele>
        <time>2024-08-01T09:27:28.440Z</time>
      </trkpt>
      <trkpt lat="42.79275" lon="-0.14162">
        <ele>2148</ele>
        <time>2024-08-01T09:27:37.246Z</time>
      </trkpt>
      <trkpt lat="42.79272" lon="-0.14149">
        <ele>2148</ele>
        <time>2024-08-01T09:27:46.600Z</time>
      </trkpt>
      <trkpt lat="42.79266" lon="-0.14125">
        <ele>2148</ele>
        <time>2024-08-01T09:28:02.871Z</time>
      </trkpt>
      <trkpt lat="42.79268" lon="-0.14119">
        <ele>2148</ele>
        <time>2024-08-01T09:28:07.292Z</time>
      </trkpt>
      <trkpt lat="42.79268" lon="-0.14113">
        <ele>2148</ele>
        <time>2024-08-01T09:28:10.986Z</time>
      </trkpt>
      <trkpt lat="42.7927" lon="-0.14109">
        <ele>2148</ele>
        <time>2024-08-01T09:28:14.782Z</time>
      </trkpt>
      <trkpt lat="42.79272" lon="-0.14106">
        <ele>2147</ele>
        <time>2024-08-01T09:28:17.004Z</time>
      </trkpt>
      <trkpt lat="42.79274" lon="-0.14098">
        <ele>2147</ele>
        <time>2024-08-01T09:28:22.491Z</time>
      </trkpt>
      <trkpt lat="42.79272" lon="-0.14096">
        <ele>2147</ele>
        <time>2024-08-01T09:28:24.210Z</time>
      </trkpt>
      <trkpt lat="42.79265" lon="-0.14083">
        <ele>2150</ele>
        <time>2024-08-01T09:28:50.788Z</time>
      </trkpt>
      <trkpt lat="42.79262" lon="-0.14072">
        <ele>2152</ele>
        <time>2024-08-01T09:29:08.534Z</time>
      </trkpt>
      <trkpt lat="42.7926" lon="-0.1406">
        <ele>2155</ele>
        <time>2024-08-01T09:29:36.224Z</time>
      </trkpt>
      <trkpt lat="42.79258" lon="-0.14056">
        <ele>2156</ele>
        <time>2024-08-01T09:29:45.417Z</time>
      </trkpt>
      <trkpt lat="42.79254" lon="-0.14051">
        <ele>2159</ele>
        <time>2024-08-01T09:30:07.768Z</time>
      </trkpt>
      <trkpt lat="42.79247" lon="-0.14044">
        <ele>2161</ele>
        <time>2024-08-01T09:30:25.579Z</time>
      </trkpt>
      <trkpt lat="42.79246" lon="-0.14042">
        <ele>2162</ele>
        <time>2024-08-01T09:30:36.035Z</time>
      </trkpt>
      <trkpt lat="42.79243" lon="-0.14039">
        <ele>2163</ele>
        <time>2024-08-01T09:30:44.906Z</time>
      </trkpt>
      <trkpt lat="42.7924" lon="-0.14035">
        <ele>2165</ele>
        <time>2024-08-01T09:31:02.550Z</time>
      </trkpt>
      <trkpt lat="42.79237" lon="-0.14031">
        <ele>2167</ele>
        <time>2024-08-01T09:31:23.717Z</time>
      </trkpt>
      <trkpt lat="42.79225" lon="-0.14016">
        <ele>2174</ele>
        <time>2024-08-01T09:32:36.624Z</time>
      </trkpt>
      <trkpt lat="42.79202" lon="-0.13996">
        <ele>2182</ele>
        <time>2024-08-01T09:33:48.421Z</time>
      </trkpt>
      <trkpt lat="42.79152" lon="-0.13953">
        <ele>2193</ele>
        <time>2024-08-01T09:35:29.753Z</time>
      </trkpt>
      <trkpt lat="42.79096" lon="-0.139">
        <ele>2207</ele>
        <time>2024-08-01T09:37:36.195Z</time>
      </trkpt>
      <trkpt lat="42.79078" lon="-0.13885">
        <ele>2213</ele>
        <time>2024-08-01T09:38:30.654Z</time>
      </trkpt>
      <trkpt lat="42.79075" lon="-0.13883">
        <ele>2214</ele>
        <time>2024-08-01T09:38:39.531Z</time>
      </trkpt>
      <trkpt lat="42.79066" lon="-0.13886">
        <ele>2212</ele>
        <time>2024-08-01T09:38:47.160Z</time>
      </trkpt>
      <trkpt lat="42.79054" lon="-0.13895">
        <ele>2208</ele>
        <time>2024-08-01T09:38:57.831Z</time>
      </trkpt>
      <trkpt lat="42.79047" lon="-0.13897">
        <ele>2208</ele>
        <time>2024-08-01T09:39:04.510Z</time>
      </trkpt>
      <trkpt lat="42.7904" lon="-0.13898">
        <ele>2207</ele>
        <time>2024-08-01T09:39:10.221Z</time>
      </trkpt>
      <trkpt lat="42.79024" lon="-0.13895">
        <ele>2209</ele>
        <time>2024-08-01T09:39:32.048Z</time>
      </trkpt>
      <trkpt lat="42.79016" lon="-0.13891">
        <ele>2211</ele>
        <time>2024-08-01T09:39:49.768Z</time>
      </trkpt>
      <trkpt lat="42.79009" lon="-0.13885">
        <ele>2214</ele>
        <time>2024-08-01T09:40:18.975Z</time>
      </trkpt>
      <trkpt lat="42.78993" lon="-0.13881">
        <ele>2217</ele>
        <time>2024-08-01T09:40:46.972Z</time>
      </trkpt>
      <trkpt lat="42.79003" lon="-0.13876">
        <ele>2218</ele>
        <time>2024-08-01T09:41:00.321Z</time>
      </trkpt>
      <trkpt lat="42.78997" lon="-0.1387">
        <ele>2221</ele>
        <time>2024-08-01T09:41:30.782Z</time>
      </trkpt>
      <trkpt lat="42.7898" lon="-0.13864">
        <ele>2225</ele>
        <time>2024-08-01T09:42:06.487Z</time>
      </trkpt>
      <trkpt lat="42.78963" lon="-0.13856">
        <ele>2228</ele>
        <time>2024-08-01T09:42:34.926Z</time>
      </trkpt>
      <trkpt lat="42.78962" lon="-0.13853">
        <ele>2229</ele>
        <time>2024-08-01T09:42:45.382Z</time>
      </trkpt>
      <trkpt lat="42.78958" lon="-0.13848">
        <ele>2231</ele>
        <time>2024-08-01T09:43:05.427Z</time>
      </trkpt>
      <trkpt lat="42.78956" lon="-0.13845">
        <ele>2233</ele>
        <time>2024-08-01T09:43:19.057Z</time>
      </trkpt>
      <trkpt lat="42.78958" lon="-0.13843">
        <ele>2234</ele>
        <time>2024-08-01T09:43:28.083Z</time>
      </trkpt>
      <trkpt lat="42.7896" lon="-0.13841">
        <ele>2235</ele>
        <time>2024-08-01T09:43:37.509Z</time>
      </trkpt>
      <trkpt lat="42.78964" lon="-0.13843">
        <ele>2234</ele>
        <time>2024-08-01T09:43:40.219Z</time>
      </trkpt>
      <trkpt lat="42.78967" lon="-0.13845">
        <ele>2233</ele>
        <time>2024-08-01T09:43:43.046Z</time>
      </trkpt>
      <trkpt lat="42.7898" lon="-0.1384">
        <ele>2234</ele>
        <time>2024-08-01T09:43:58.614Z</time>
      </trkpt>
      <trkpt lat="42.78976" lon="-0.13836">
        <ele>2236</ele>
        <time>2024-08-01T09:44:17.919Z</time>
      </trkpt>
      <trkpt lat="42.78968" lon="-0.13829">
        <ele>2240</ele>
        <time>2024-08-01T09:45:00.204Z</time>
      </trkpt>
      <trkpt lat="42.78958" lon="-0.13817">
        <ele>2245</ele>
        <time>2024-08-01T09:45:50.064Z</time>
      </trkpt>
      <trkpt lat="42.78929" lon="-0.13806">
        <ele>2250</ele>
        <time>2024-08-01T09:46:37.936Z</time>
      </trkpt>
      <trkpt lat="42.78915" lon="-0.13803">
        <ele>2254</ele>
        <time>2024-08-01T09:47:13.587Z</time>
      </trkpt>
      <trkpt lat="42.78899" lon="-0.13803">
        <ele>2256</ele>
        <time>2024-08-01T09:47:35.321Z</time>
      </trkpt>
      <trkpt lat="42.78888" lon="-0.13799">
        <ele>2259</ele>
        <time>2024-08-01T09:48:01.942Z</time>
      </trkpt>
      <trkpt lat="42.78854" lon="-0.13809">
        <ele>2260</ele>
        <time>2024-08-01T09:48:36.532Z</time>
      </trkpt>
      <trkpt lat="42.78846" lon="-0.13804">
        <ele>2263</ele>
        <time>2024-08-01T09:49:04.872Z</time>
      </trkpt>
      <trkpt lat="42.78833" lon="-0.138">
        <ele>2267</ele>
        <time>2024-08-01T09:49:41.658Z</time>
      </trkpt>
      <trkpt lat="42.78828" lon="-0.13797">
        <ele>2268</ele>
        <time>2024-08-01T09:49:50.984Z</time>
      </trkpt>
      <trkpt lat="42.78827" lon="-0.13791">
        <ele>2271</ele>
        <time>2024-08-01T09:50:13.856Z</time>
      </trkpt>
      <trkpt lat="42.78795" lon="-0.13781">
        <ele>2281</ele>
        <time>2024-08-01T09:51:45.376Z</time>
      </trkpt>
      <trkpt lat="42.78795" lon="-0.1378">
        <ele>2281</ele>
        <time>2024-08-01T09:51:46.038Z</time>
      </trkpt>
      <trkpt lat="42.78799" lon="-0.13777">
        <ele>2282</ele>
        <time>2024-08-01T09:51:54.922Z</time>
      </trkpt>
      <trkpt lat="42.78802" lon="-0.13775">
        <ele>2283</ele>
        <time>2024-08-01T09:52:03.805Z</time>
      </trkpt>
      <trkpt lat="42.78806" lon="-0.13764">
        <ele>2289</ele>
        <time>2024-08-01T09:52:44.640Z</time>
      </trkpt>
      <trkpt lat="42.78814" lon="-0.13752">
        <ele>2293</ele>
        <time>2024-08-01T09:53:22.180Z</time>
      </trkpt>
      <trkpt lat="42.78822" lon="-0.13745">
        <ele>2294</ele>
        <time>2024-08-01T09:53:34.330Z</time>
      </trkpt>
      <trkpt lat="42.78825" lon="-0.13743">
        <ele>2295</ele>
        <time>2024-08-01T09:53:43.755Z</time>
      </trkpt>
      <trkpt lat="42.78831" lon="-0.1374">
        <ele>2295</ele>
        <time>2024-08-01T09:53:49.612Z</time>
      </trkpt>
      <trkpt lat="42.78848" lon="-0.13728">
        <ele>2298</ele>
        <time>2024-08-01T09:54:19.403Z</time>
      </trkpt>
      <trkpt lat="42.78862" lon="-0.13727">
        <ele>2297</ele>
        <time>2024-08-01T09:54:29.836Z</time>
      </trkpt>
      <trkpt lat="42.78885" lon="-0.1372">
        <ele>2298</ele>
        <time>2024-08-01T09:54:54.155Z</time>
      </trkpt>
      <trkpt lat="42.78925" lon="-0.1371">
        <ele>2296</ele>
        <time>2024-08-01T09:55:26.470Z</time>
      </trkpt>
      <trkpt lat="42.78947" lon="-0.137">
        <ele>2298</ele>
        <time>2024-08-01T09:55:54.453Z</time>
      </trkpt>
      <trkpt lat="42.78956" lon="-0.13684">
        <ele>2305</ele>
        <time>2024-08-01T09:57:03.367Z</time>
      </trkpt>
      <trkpt lat="42.78964" lon="-0.13681">
        <ele>2305</ele>
        <time>2024-08-01T09:57:10.729Z</time>
      </trkpt>
      <trkpt lat="42.7898" lon="-0.13687">
        <ele>2301</ele>
        <time>2024-08-01T09:57:23.674Z</time>
      </trkpt>
      <trkpt lat="42.78985" lon="-0.13687">
        <ele>2300</ele>
        <time>2024-08-01T09:57:27.856Z</time>
      </trkpt>
      <trkpt lat="42.78987" lon="-0.13685">
        <ele>2301</ele>
        <time>2024-08-01T09:57:37.312Z</time>
      </trkpt>
      <trkpt lat="42.78999" lon="-0.13677">
        <ele>2304</ele>
        <time>2024-08-01T09:58:03.907Z</time>
      </trkpt>
      <trkpt lat="42.7902" lon="-0.1367">
        <ele>2308</ele>
        <time>2024-08-01T09:58:41.311Z</time>
      </trkpt>
      <trkpt lat="42.7902" lon="-0.13666">
        <ele>2310</ele>
        <time>2024-08-01T09:58:53.916Z</time>
      </trkpt>
      <trkpt lat="42.79009" lon="-0.13656">
        <ele>2313</ele>
        <time>2024-08-01T09:59:20.532Z</time>
      </trkpt>
      <trkpt lat="42.79003" lon="-0.13645">
        <ele>2319</ele>
        <time>2024-08-01T10:00:11.807Z</time>
      </trkpt>
      <trkpt lat="42.79018" lon="-0.13641">
        <ele>2322</ele>
        <time>2024-08-01T10:00:39.180Z</time>
      </trkpt>
      <trkpt lat="42.79023" lon="-0.13638">
        <ele>2323</ele>
        <time>2024-08-01T10:00:48.556Z</time>
      </trkpt>
      <trkpt lat="42.79031" lon="-0.13638">
        <ele>2324</ele>
        <time>2024-08-01T10:00:59.423Z</time>
      </trkpt>
      <trkpt lat="42.79023" lon="-0.13629">
        <ele>2328</ele>
        <time>2024-08-01T10:01:39.659Z</time>
      </trkpt>
      <trkpt lat="42.79014" lon="-0.13626">
        <ele>2329</ele>
        <time>2024-08-01T10:01:51.907Z</time>
      </trkpt>
      <trkpt lat="42.79003" lon="-0.13615">
        <ele>2334</ele>
        <time>2024-08-01T10:02:40.762Z</time>
      </trkpt>
      <trkpt lat="42.79007" lon="-0.13612">
        <ele>2335</ele>
        <time>2024-08-01T10:02:49.664Z</time>
      </trkpt>
      <trkpt lat="42.79009" lon="-0.13613">
        <ele>2335</ele>
        <time>2024-08-01T10:02:52.068Z</time>
      </trkpt>
      <trkpt lat="42.79016" lon="-0.13613">
        <ele>2336</ele>
        <time>2024-08-01T10:03:02.495Z</time>
      </trkpt>
      <trkpt lat="42.79028" lon="-0.1361">
        <ele>2338</ele>
        <time>2024-08-01T10:03:21.342Z</time>
      </trkpt>
      <trkpt lat="42.79036" lon="-0.13609">
        <ele>2340</ele>
        <time>2024-08-01T10:03:39.068Z</time>
      </trkpt>
      <trkpt lat="42.79037" lon="-0.13607">
        <ele>2341</ele>
        <time>2024-08-01T10:03:47.843Z</time>
      </trkpt>
      <trkpt lat="42.79036" lon="-0.13605">
        <ele>2341</ele>
        <time>2024-08-01T10:03:49.515Z</time>
      </trkpt>
      <trkpt lat="42.79032" lon="-0.136">
        <ele>2344</ele>
        <time>2024-08-01T10:04:13.932Z</time>
      </trkpt>
      <trkpt lat="42.7904" lon="-0.13598">
        <ele>2346</ele>
        <time>2024-08-01T10:04:31.654Z</time>
      </trkpt>
      <trkpt lat="42.7904" lon="-0.13595">
        <ele>2347</ele>
        <time>2024-08-01T10:04:42.123Z</time>
      </trkpt>
      <trkpt lat="42.79037" lon="-0.13592">
        <ele>2348</ele>
        <time>2024-08-01T10:04:51.039Z</time>
      </trkpt>
      <trkpt lat="42.79032" lon="-0.13591">
        <ele>2348</ele>
        <time>2024-08-01T10:04:55.240Z</time>
      </trkpt>
      <trkpt lat="42.79033" lon="-0.13589">
        <ele>2349</ele>
        <time>2024-08-01T10:05:01.795Z</time>
      </trkpt>
      <trkpt lat="42.79038" lon="-0.13589">
        <ele>2350</ele>
        <time>2024-08-01T10:05:10.756Z</time>
      </trkpt>
      <trkpt lat="42.79053" lon="-0.13596">
        <ele>2348</ele>
        <time>2024-08-01T10:05:23.885Z</time>
      </trkpt>
      <trkpt lat="42.79067" lon="-0.13588">
        <ele>2355</ele>
        <time>2024-08-01T10:06:32.428Z</time>
      </trkpt>
      <trkpt lat="42.79058" lon="-0.13584">
        <ele>2354</ele>
        <time>2024-08-01T10:06:39.528Z</time>
      </trkpt>
      <trkpt lat="42.79055" lon="-0.13581">
        <ele>2355</ele>
        <time>2024-08-01T10:06:48.435Z</time>
      </trkpt>
      <trkpt lat="42.79053" lon="-0.13577">
        <ele>2356</ele>
        <time>2024-08-01T10:06:57.533Z</time>
      </trkpt>
      <trkpt lat="42.79051" lon="-0.1357">
        <ele>2359</ele>
        <time>2024-08-01T10:07:25.104Z</time>
      </trkpt>
      <trkpt lat="42.79048" lon="-0.13566">
        <ele>2360</ele>
        <time>2024-08-01T10:07:33.983Z</time>
      </trkpt>
      <trkpt lat="42.79036" lon="-0.13558">
        <ele>2363</ele>
        <time>2024-08-01T10:08:00.647Z</time>
      </trkpt>
      <trkpt lat="42.7904" lon="-0.13556">
        <ele>2365</ele>
        <time>2024-08-01T10:08:21.359Z</time>
      </trkpt>
      <trkpt lat="42.79064" lon="-0.13546">
        <ele>2370</ele>
        <time>2024-08-01T10:09:06.604Z</time>
      </trkpt>
      <trkpt lat="42.79052" lon="-0.13538">
        <ele>2373</ele>
        <time>2024-08-01T10:09:33.273Z</time>
      </trkpt>
      <trkpt lat="42.79038" lon="-0.1353">
        <ele>2376</ele>
        <time>2024-08-01T10:10:00.516Z</time>
      </trkpt>
      <trkpt lat="42.79018" lon="-0.13523">
        <ele>2379</ele>
        <time>2024-08-01T10:10:31.097Z</time>
      </trkpt>
      <trkpt lat="42.79008" lon="-0.13516">
        <ele>2382</ele>
        <time>2024-08-01T10:10:57.793Z</time>
      </trkpt>
      <trkpt lat="42.79003" lon="-0.13517">
        <ele>2382</ele>
        <time>2024-08-01T10:11:02.609Z</time>
      </trkpt>
      <trkpt lat="42.79001" lon="-0.13519">
        <ele>2382</ele>
        <time>2024-08-01T10:11:04.234Z</time>
      </trkpt>
      <trkpt lat="42.78998" lon="-0.1352">
        <ele>2382</ele>
        <time>2024-08-01T10:11:07.283Z</time>
      </trkpt>
      <trkpt lat="42.78991" lon="-0.13521">
        <ele>2382</ele>
        <time>2024-08-01T10:11:13.259Z</time>
      </trkpt>
      <trkpt lat="42.78988" lon="-0.1352">
        <ele>2383</ele>
        <time>2024-08-01T10:11:22.402Z</time>
      </trkpt>
      <trkpt lat="42.78982" lon="-0.1351">
        <ele>2387</ele>
        <time>2024-08-01T10:12:04.330Z</time>
      </trkpt>
      <trkpt lat="42.7897" lon="-0.13503">
        <ele>2391</ele>
        <time>2024-08-01T10:12:41.087Z</time>
      </trkpt>
      <trkpt lat="42.78972" lon="-0.135">
        <ele>2392</ele>
        <time>2024-08-01T10:12:50.185Z</time>
      </trkpt>
      <trkpt lat="42.78978" lon="-0.13498">
        <ele>2392</ele>
        <time>2024-08-01T10:12:55.095Z</time>
      </trkpt>
      <trkpt lat="42.78984" lon="-0.13498">
        <ele>2391</ele>
        <time>2024-08-01T10:13:00.304Z</time>
      </trkpt>
      <trkpt lat="42.79001" lon="-0.13486">
        <ele>2394</ele>
        <time>2024-08-01T10:13:29.569Z</time>
      </trkpt>
      <trkpt lat="42.79012" lon="-0.13477">
        <ele>2396</ele>
        <time>2024-08-01T10:13:49.124Z</time>
      </trkpt>
      <trkpt lat="42.79026" lon="-0.13472">
        <ele>2397</ele>
        <time>2024-08-01T10:14:05.891Z</time>
      </trkpt>
      <trkpt lat="42.79055" lon="-0.13469">
        <ele>2396</ele>
        <time>2024-08-01T10:14:28.899Z</time>
      </trkpt>
      <trkpt lat="42.79058" lon="-0.13464">
        <ele>2397</ele>
        <time>2024-08-01T10:14:38.054Z</time>
      </trkpt>
      <trkpt lat="42.79059" lon="-0.1346">
        <ele>2398</ele>
        <time>2024-08-01T10:14:47.542Z</time>
      </trkpt>
      <trkpt lat="42.79058" lon="-0.13457">
        <ele>2399</ele>
        <time>2024-08-01T10:14:56.948Z</time>
      </trkpt>
      <trkpt lat="42.79049" lon="-0.13451">
        <ele>2401</ele>
        <time>2024-08-01T10:15:15.086Z</time>
      </trkpt>
      <trkpt lat="42.7904" lon="-0.13444">
        <ele>2404</ele>
        <time>2024-08-01T10:15:42.274Z</time>
      </trkpt>
      <trkpt lat="42.79029" lon="-0.13444">
        <ele>2405</ele>
        <time>2024-08-01T10:15:55.784Z</time>
      </trkpt>
      <trkpt lat="42.79022" lon="-0.13443">
        <ele>2406</ele>
        <time>2024-08-01T10:16:05.756Z</time>
      </trkpt>
      <trkpt lat="42.79018" lon="-0.13442">
        <ele>2408</ele>
        <time>2024-08-01T10:16:26.616Z</time>
      </trkpt>
      <trkpt lat="42.79018" lon="-0.13438">
        <ele>2409</ele>
        <time>2024-08-01T10:16:36.550Z</time>
      </trkpt>
      <trkpt lat="42.79024" lon="-0.13423">
        <ele>2413</ele>
        <time>2024-08-01T10:17:13.363Z</time>
      </trkpt>
      <trkpt lat="42.79039" lon="-0.13406">
        <ele>2416</ele>
        <time>2024-08-01T10:17:43.090Z</time>
      </trkpt>
      <trkpt lat="42.79051" lon="-0.13395">
        <ele>2418</ele>
        <time>2024-08-01T10:18:03.702Z</time>
      </trkpt>
      <trkpt lat="42.79056" lon="-0.13392">
        <ele>2418</ele>
        <time>2024-08-01T10:18:08.721Z</time>
      </trkpt>
      <trkpt lat="42.79063" lon="-0.13382">
        <ele>2420</ele>
        <time>2024-08-01T10:18:26.975Z</time>
      </trkpt>
      <trkpt lat="42.79071" lon="-0.13378">
        <ele>2421</ele>
        <time>2024-08-01T10:18:37.926Z</time>
      </trkpt>
      <trkpt lat="42.79067" lon="-0.13374">
        <ele>2423</ele>
        <time>2024-08-01T10:18:58.810Z</time>
      </trkpt>
      <trkpt lat="42.7904" lon="-0.13362">
        <ele>2433</ele>
        <time>2024-08-01T10:20:34.680Z</time>
      </trkpt>
      <trkpt lat="42.79025" lon="-0.13361">
        <ele>2437</ele>
        <time>2024-08-01T10:21:10.374Z</time>
      </trkpt>
      <trkpt lat="42.79027" lon="-0.13354">
        <ele>2439</ele>
        <time>2024-08-01T10:21:30.706Z</time>
      </trkpt>
      <trkpt lat="42.79053" lon="-0.13336">
        <ele>2439</ele>
        <time>2024-08-01T10:21:57.012Z</time>
      </trkpt>
      <trkpt lat="42.79057" lon="-0.13329">
        <ele>2440</ele>
        <time>2024-08-01T10:22:06.953Z</time>
      </trkpt>
      <trkpt lat="42.79053" lon="-0.13327">
        <ele>2442</ele>
        <time>2024-08-01T10:22:26.898Z</time>
      </trkpt>
      <trkpt lat="42.79033" lon="-0.13327">
        <ele>2448</ele>
        <time>2024-08-01T10:23:21.082Z</time>
      </trkpt>
      <trkpt lat="42.79048" lon="-0.13311">
        <ele>2449</ele>
        <time>2024-08-01T10:23:41.563Z</time>
      </trkpt>
      <trkpt lat="42.7905" lon="-0.13306">
        <ele>2449</ele>
        <time>2024-08-01T10:23:45.567Z</time>
      </trkpt>
      <trkpt lat="42.79043" lon="-0.13304">
        <ele>2452</ele>
        <time>2024-08-01T10:24:17.565Z</time>
      </trkpt>
      <trkpt lat="42.79038" lon="-0.13309">
        <ele>2453</ele>
        <time>2024-08-01T10:24:27.643Z</time>
      </trkpt>
      <trkpt lat="42.79034" lon="-0.13308">
        <ele>2454</ele>
        <time>2024-08-01T10:24:36.502Z</time>
      </trkpt>
      <trkpt lat="42.79024" lon="-0.13309">
        <ele>2457</ele>
        <time>2024-08-01T10:25:03.879Z</time>
      </trkpt>
      <trkpt lat="42.79014" lon="-0.13309">
        <ele>2459</ele>
        <time>2024-08-01T10:25:21.772Z</time>
      </trkpt>
      <trkpt lat="42.79" lon="-0.13308">
        <ele>2462</ele>
        <time>2024-08-01T10:25:48.789Z</time>
      </trkpt>
      <trkpt lat="42.78989" lon="-0.1331">
        <ele>2464</ele>
        <time>2024-08-01T10:26:07.572Z</time>
      </trkpt>
      <trkpt lat="42.78987" lon="-0.13309">
        <ele>2465</ele>
        <time>2024-08-01T10:26:16.103Z</time>
      </trkpt>
      <trkpt lat="42.78997" lon="-0.13288">
        <ele>2466</ele>
        <time>2024-08-01T10:26:35.550Z</time>
      </trkpt>
      <trkpt lat="42.7901" lon="-0.13267">
        <ele>2464</ele>
        <time>2024-08-01T10:26:51.080Z</time>
      </trkpt>
      <trkpt lat="42.79008" lon="-0.1326">
        <ele>2464</ele>
        <time>2024-08-01T10:26:56.237Z</time>
      </trkpt>
      <trkpt lat="42.78999" lon="-0.13266">
        <ele>2466</ele>
        <time>2024-08-01T10:27:14.248Z</time>
      </trkpt>
      <trkpt lat="42.78993" lon="-0.1326">
        <ele>2468</ele>
        <time>2024-08-01T10:27:31.967Z</time>
      </trkpt>
      <trkpt lat="42.78995" lon="-0.13254">
        <ele>2467</ele>
        <time>2024-08-01T10:27:36.153Z</time>
      </trkpt>
      <trkpt lat="42.78993" lon="-0.13253">
        <ele>2467</ele>
        <time>2024-08-01T10:27:38.053Z</time>
      </trkpt>
      <trkpt lat="42.78991" lon="-0.13252">
        <ele>2468</ele>
        <time>2024-08-01T10:27:47.944Z</time>
      </trkpt>
      <trkpt lat="42.7898" lon="-0.13258">
        <ele>2470</ele>
        <time>2024-08-01T10:28:06.832Z</time>
      </trkpt>
      <trkpt lat="42.78976" lon="-0.13262">
        <ele>2471</ele>
        <time>2024-08-01T10:28:15.784Z</time>
      </trkpt>
      <trkpt lat="42.78972" lon="-0.13261">
        <ele>2472</ele>
        <time>2024-08-01T10:28:24.727Z</time>
      </trkpt>
      <trkpt lat="42.78965" lon="-0.13255">
        <ele>2474</ele>
        <time>2024-08-01T10:28:42.447Z</time>
      </trkpt>
      <trkpt lat="42.78954" lon="-0.13255">
        <ele>2477</ele>
        <time>2024-08-01T10:29:09.358Z</time>
      </trkpt>
      <trkpt lat="42.7895" lon="-0.13247">
        <ele>2478</ele>
        <time>2024-08-01T10:29:19.360Z</time>
      </trkpt>
      <trkpt lat="42.78929" lon="-0.13249">
        <ele>2483</ele>
        <time>2024-08-01T10:30:03.764Z</time>
      </trkpt>
      <trkpt lat="42.7892" lon="-0.1326">
        <ele>2486</ele>
        <time>2024-08-01T10:30:30.343Z</time>
      </trkpt>
      <trkpt lat="42.78911" lon="-0.1326">
        <ele>2488</ele>
        <time>2024-08-01T10:30:48.091Z</time>
      </trkpt>
      <trkpt lat="42.78898" lon="-0.13272">
        <ele>2491</ele>
        <time>2024-08-01T10:31:15.353Z</time>
      </trkpt>
      <trkpt lat="42.78898" lon="-0.13273">
        <ele>2491</ele>
        <time>2024-08-01T10:31:16.643Z</time>
      </trkpt>
      <trkpt lat="42.78892" lon="-0.13283">
        <ele>2492</ele>
        <time>2024-08-01T10:31:28.399Z</time>
      </trkpt>
      <trkpt lat="42.78884" lon="-0.13297">
        <ele>2493</ele>
        <time>2024-08-01T10:31:43.477Z</time>
      </trkpt>
      <trkpt lat="42.7888" lon="-0.13306">
        <ele>2494</ele>
        <time>2024-08-01T10:31:54.174Z</time>
      </trkpt>
      <trkpt lat="42.78876" lon="-0.13309">
        <ele>2495</ele>
        <time>2024-08-01T10:32:03.151Z</time>
      </trkpt>
      <trkpt lat="42.78874" lon="-0.13304">
        <ele>2495</ele>
        <time>2024-08-01T10:32:07.155Z</time>
      </trkpt>
      <trkpt lat="42.7887" lon="-0.13313">
        <ele>2496</ele>
        <time>2024-08-01T10:32:17.889Z</time>
      </trkpt>
      <trkpt lat="42.78867" lon="-0.1331">
        <ele>2497</ele>
        <time>2024-08-01T10:32:26.782Z</time>
      </trkpt>
      <trkpt lat="42.78864" lon="-0.13309">
        <ele>2497</ele>
        <time>2024-08-01T10:32:29.464Z</time>
      </trkpt>
      <trkpt lat="42.78863" lon="-0.13304">
        <ele>2498</ele>
        <time>2024-08-01T10:32:38.400Z</time>
      </trkpt>
      <trkpt lat="42.7886" lon="-0.13297">
        <ele>2498</ele>
        <time>2024-08-01T10:32:43.963Z</time>
      </trkpt>
      <trkpt lat="42.7885" lon="-0.13302">
        <ele>2500</ele>
        <time>2024-08-01T10:33:02.100Z</time>
      </trkpt>
      <trkpt lat="42.78848" lon="-0.13302">
        <ele>2500</ele>
        <time>2024-08-01T10:33:03.904Z</time>
      </trkpt>
      <trkpt lat="42.78846" lon="-0.13299">
        <ele>2501</ele>
        <time>2024-08-01T10:33:12.794Z</time>
      </trkpt>
      <trkpt lat="42.78835" lon="-0.13291">
        <ele>2503</ele>
        <time>2024-08-01T10:33:31.808Z</time>
      </trkpt>
      <trkpt lat="42.78815" lon="-0.1326">
        <ele>2503</ele>
        <time>2024-08-01T10:33:59.564Z</time>
      </trkpt>
      <trkpt lat="42.78811" lon="-0.13255">
        <ele>2503</ele>
        <time>2024-08-01T10:34:04.596Z</time>
      </trkpt>
      <trkpt lat="42.78806" lon="-0.1326">
        <ele>2504</ele>
        <time>2024-08-01T10:34:14.179Z</time>
      </trkpt>
      <trkpt lat="42.78804" lon="-0.13265">
        <ele>2505</ele>
        <time>2024-08-01T10:34:23.054Z</time>
      </trkpt>
      <trkpt lat="42.78804" lon="-0.13273">
        <ele>2506</ele>
        <time>2024-08-01T10:34:32.590Z</time>
      </trkpt>
      <trkpt lat="42.78807" lon="-0.13291">
        <ele>2507</ele>
        <time>2024-08-01T10:34:48.515Z</time>
      </trkpt>
      <trkpt lat="42.78802" lon="-0.13299">
        <ele>2508</ele>
        <time>2024-08-01T10:34:58.774Z</time>
      </trkpt>
      <trkpt lat="42.78799" lon="-0.13303">
        <ele>2509</ele>
        <time>2024-08-01T10:35:07.712Z</time>
      </trkpt>
      <trkpt lat="42.78794" lon="-0.13306">
        <ele>2509</ele>
        <time>2024-08-01T10:35:12.255Z</time>
      </trkpt>
      <trkpt lat="42.78792" lon="-0.13312">
        <ele>2510</ele>
        <time>2024-08-01T10:35:21.294Z</time>
      </trkpt>
      <trkpt lat="42.78789" lon="-0.13322">
        <ele>2510</ele>
        <time>2024-08-01T10:35:28.491Z</time>
      </trkpt>
      <trkpt lat="42.78786" lon="-0.13325">
        <ele>2510</ele>
        <time>2024-08-01T10:35:31.511Z</time>
      </trkpt>
      <trkpt lat="42.78784" lon="-0.13323">
        <ele>2511</ele>
        <time>2024-08-01T10:35:41.915Z</time>
      </trkpt>
      <trkpt lat="42.78782" lon="-0.13317">
        <ele>2512</ele>
        <time>2024-08-01T10:35:50.995Z</time>
      </trkpt>
      <trkpt lat="42.78777" lon="-0.13308">
        <ele>2513</ele>
        <time>2024-08-01T10:36:02.246Z</time>
      </trkpt>
      <trkpt lat="42.7877" lon="-0.13309">
        <ele>2515</ele>
        <time>2024-08-01T10:36:20.118Z</time>
      </trkpt>
      <trkpt lat="42.78765" lon="-0.13311">
        <ele>2516</ele>
        <time>2024-08-01T10:36:29.224Z</time>
      </trkpt>
      <trkpt lat="42.78763" lon="-0.13317">
        <ele>2517</ele>
        <time>2024-08-01T10:36:38.109Z</time>
      </trkpt>
      <trkpt lat="42.78761" lon="-0.13318">
        <ele>2517</ele>
        <time>2024-08-01T10:36:39.946Z</time>
      </trkpt>
      <trkpt lat="42.78755" lon="-0.1331">
        <ele>2518</ele>
        <time>2024-08-01T10:36:50.920Z</time>
      </trkpt>
      <trkpt lat="42.78744" lon="-0.13313">
        <ele>2520</ele>
        <time>2024-08-01T10:37:09.703Z</time>
      </trkpt>
      <trkpt lat="42.78741" lon="-0.13315">
        <ele>2521</ele>
        <time>2024-08-01T10:37:18.653Z</time>
      </trkpt>
      <trkpt lat="42.78736" lon="-0.13315">
        <ele>2522</ele>
        <time>2024-08-01T10:37:27.586Z</time>
      </trkpt>
      <trkpt lat="42.78728" lon="-0.13315">
        <ele>2523</ele>
        <time>2024-08-01T10:37:38.453Z</time>
      </trkpt>
      <trkpt lat="42.78719" lon="-0.13327">
        <ele>2524</ele>
        <time>2024-08-01T10:37:53.478Z</time>
      </trkpt>
      <trkpt lat="42.78705" lon="-0.13329">
        <ele>2527</ele>
        <time>2024-08-01T10:38:20.321Z</time>
      </trkpt>
      <trkpt lat="42.78691" lon="-0.13327">
        <ele>2530</ele>
        <time>2024-08-01T10:38:47.137Z</time>
      </trkpt>
      <trkpt lat="42.78666" lon="-0.13327">
        <ele>2537</ele>
        <time>2024-08-01T10:39:49.775Z</time>
      </trkpt>
      <trkpt lat="42.78639" lon="-0.13336">
        <ele>2543</ele>
        <time>2024-08-01T10:40:43.620Z</time>
      </trkpt>
      <trkpt lat="42.78614" lon="-0.13349">
        <ele>2547</ele>
        <time>2024-08-01T10:41:23.218Z</time>
      </trkpt>
      <trkpt lat="42.78608" lon="-0.13354">
        <ele>2547</ele>
        <time>2024-08-01T10:41:29.592Z</time>
      </trkpt>
      <trkpt lat="42.78603" lon="-0.13355">
        <ele>2549</ele>
        <time>2024-08-01T10:41:49.340Z</time>
      </trkpt>
      <trkpt lat="42.78597" lon="-0.13357">
        <ele>2550</ele>
        <time>2024-08-01T10:41:59.298Z</time>
      </trkpt>
      <trkpt lat="42.78587" lon="-0.13361">
        <ele>2553</ele>
        <time>2024-08-01T10:42:26.337Z</time>
      </trkpt>
      <trkpt lat="42.78583" lon="-0.13364">
        <ele>2553</ele>
        <time>2024-08-01T10:42:30.150Z</time>
      </trkpt>
      <trkpt lat="42.78581" lon="-0.13372">
        <ele>2552</ele>
        <time>2024-08-01T10:42:35.075Z</time>
      </trkpt>
      <trkpt lat="42.78579" lon="-0.13376">
        <ele>2552</ele>
        <time>2024-08-01T10:42:38.418Z</time>
      </trkpt>
      <trkpt lat="42.78562" lon="-0.13396">
        <ele>2552</ele>
        <time>2024-08-01T10:42:58.203Z</time>
      </trkpt>
      <trkpt lat="42.78552" lon="-0.13404">
        <ele>2554</ele>
        <time>2024-08-01T10:43:17.454Z</time>
      </trkpt>
      <trkpt lat="42.78532" lon="-0.13416">
        <ele>2556</ele>
        <time>2024-08-01T10:43:43.991Z</time>
      </trkpt>
      <trkpt lat="42.78521" lon="-0.13418">
        <ele>2558</ele>
        <time>2024-08-01T10:44:02.378Z</time>
      </trkpt>
      <trkpt lat="42.78516" lon="-0.1343">
        <ele>2556</ele>
        <time>2024-08-01T10:44:10.291Z</time>
      </trkpt>
      <trkpt lat="42.78511" lon="-0.13437">
        <ele>2556</ele>
        <time>2024-08-01T10:44:17.025Z</time>
      </trkpt>
      <trkpt lat="42.78496" lon="-0.13444">
        <ele>2560</ele>
        <time>2024-08-01T10:44:52.466Z</time>
      </trkpt>
      <trkpt lat="42.78497" lon="-0.13427">
        <ele>2563</ele>
        <time>2024-08-01T10:45:19.058Z</time>
      </trkpt>
      <trkpt lat="42.78485" lon="-0.13435">
        <ele>2567</ele>
        <time>2024-08-01T10:45:55.415Z</time>
      </trkpt>
      <trkpt lat="42.78482" lon="-0.1342">
        <ele>2571</ele>
        <time>2024-08-01T10:46:33.364Z</time>
      </trkpt>
      <trkpt lat="42.78477" lon="-0.1343">
        <ele>2572</ele>
        <time>2024-08-01T10:46:44.764Z</time>
      </trkpt>
      <trkpt lat="42.78475" lon="-0.13439">
        <ele>2571</ele>
        <time>2024-08-01T10:46:50.188Z</time>
      </trkpt>
      <trkpt lat="42.78471" lon="-0.13444">
        <ele>2573</ele>
        <time>2024-08-01T10:47:08.808Z</time>
      </trkpt>
      <trkpt lat="42.78453" lon="-0.13451">
        <ele>2580</ele>
        <time>2024-08-01T10:48:19.454Z</time>
      </trkpt>
      <trkpt lat="42.7842" lon="-0.13451">
        <ele>2586</ele>
        <time>2024-08-01T10:49:15.522Z</time>
      </trkpt>
      <trkpt lat="42.784" lon="-0.13447">
        <ele>2589</ele>
        <time>2024-08-01T10:49:45.540Z</time>
      </trkpt>
      <trkpt lat="42.78397" lon="-0.13448">
        <ele>2589</ele>
        <time>2024-08-01T10:49:48.575Z</time>
      </trkpt>
      <trkpt lat="42.78373" lon="-0.13455">
        <ele>2589</ele>
        <time>2024-08-01T10:50:10.474Z</time>
      </trkpt>
      <trkpt lat="42.78363" lon="-0.13452">
        <ele>2592</ele>
        <time>2024-08-01T10:50:37.591Z</time>
      </trkpt>
      <trkpt lat="42.78359" lon="-0.13431">
        <ele>2598</ele>
        <time>2024-08-01T10:51:36.608Z</time>
      </trkpt>
      <trkpt lat="42.7834" lon="-0.13426">
        <ele>2601</ele>
        <time>2024-08-01T10:52:06.181Z</time>
      </trkpt>
      <trkpt lat="42.7832" lon="-0.1345">
        <ele>2598</ele>
        <time>2024-08-01T10:52:27.187Z</time>
      </trkpt>
      <trkpt lat="42.7831" lon="-0.13442">
        <ele>2603</ele>
        <time>2024-08-01T10:53:20.158Z</time>
      </trkpt>
      <trkpt lat="42.78305" lon="-0.13442">
        <ele>2604</ele>
        <time>2024-08-01T10:53:29.119Z</time>
      </trkpt>
      <trkpt lat="42.78298" lon="-0.13442">
        <ele>2606</ele>
        <time>2024-08-01T10:53:47.005Z</time>
      </trkpt>
      <trkpt lat="42.78291" lon="-0.13434">
        <ele>2610</ele>
        <time>2024-08-01T10:54:28.860Z</time>
      </trkpt>
      <trkpt lat="42.78279" lon="-0.13433">
        <ele>2613</ele>
        <time>2024-08-01T10:54:55.545Z</time>
      </trkpt>
      <trkpt lat="42.78277" lon="-0.13435">
        <ele>2612</ele>
        <time>2024-08-01T10:54:58.124Z</time>
      </trkpt>
      <trkpt lat="42.78272" lon="-0.13438">
        <ele>2612</ele>
        <time>2024-08-01T10:55:02.642Z</time>
      </trkpt>
      <trkpt lat="42.78264" lon="-0.13436">
        <ele>2614</ele>
        <time>2024-08-01T10:55:20.363Z</time>
      </trkpt>
      <trkpt lat="42.78256" lon="-0.13445">
        <ele>2612</ele>
        <time>2024-08-01T10:55:28.920Z</time>
      </trkpt>
      <trkpt lat="42.78241" lon="-0.13442">
        <ele>2616</ele>
        <time>2024-08-01T10:56:04.576Z</time>
      </trkpt>
      <trkpt lat="42.78231" lon="-0.13446">
        <ele>2616</ele>
        <time>2024-08-01T10:56:13.988Z</time>
      </trkpt>
      <trkpt lat="42.78221" lon="-0.13446">
        <ele>2619</ele>
        <time>2024-08-01T10:56:41.311Z</time>
      </trkpt>
      <trkpt lat="42.78211" lon="-0.13442">
        <ele>2622</ele>
        <time>2024-08-01T10:57:08.405Z</time>
      </trkpt>
      <trkpt lat="42.78198" lon="-0.13445">
        <ele>2623</ele>
        <time>2024-08-01T10:57:23.735Z</time>
      </trkpt>
      <trkpt lat="42.78161" lon="-0.13418">
        <ele>2633</ele>
        <time>2024-08-01T10:58:52.363Z</time>
      </trkpt>
      <trkpt lat="42.78144" lon="-0.13396">
        <ele>2640</ele>
        <time>2024-08-01T10:59:55.633Z</time>
      </trkpt>
      <trkpt lat="42.78127" lon="-0.13369">
        <ele>2650</ele>
        <time>2024-08-01T11:01:35.398Z</time>
      </trkpt>
      <trkpt lat="42.78132" lon="-0.13363">
        <ele>2652</ele>
        <time>2024-08-01T11:01:54.102Z</time>
      </trkpt>
      <trkpt lat="42.78138" lon="-0.1336">
        <ele>2654</ele>
        <time>2024-08-01T11:02:11.987Z</time>
      </trkpt>
      <trkpt lat="42.78119" lon="-0.1334">
        <ele>2661</ele>
        <time>2024-08-01T11:03:15.180Z</time>
      </trkpt>
      <trkpt lat="42.7811" lon="-0.13339">
        <ele>2661</ele>
        <time>2024-08-01T11:03:23.593Z</time>
      </trkpt>
      <trkpt lat="42.78107" lon="-0.13335">
        <ele>2663</ele>
        <time>2024-08-01T11:03:44.728Z</time>
      </trkpt>
      <trkpt lat="42.78134" lon="-0.13325">
        <ele>2668</ele>
        <time>2024-08-01T11:04:31.431Z</time>
      </trkpt>
      <trkpt lat="42.78088" lon="-0.13291">
        <ele>2679</ele>
        <time>2024-08-01T11:06:09.987Z</time>
      </trkpt>
      <trkpt lat="42.78037" lon="-0.13267">
        <ele>2690</ele>
        <time>2024-08-01T11:07:49.458Z</time>
      </trkpt>
      <trkpt lat="42.78024" lon="-0.13264">
        <ele>2694</ele>
        <time>2024-08-01T11:08:26.230Z</time>
      </trkpt>
      <trkpt lat="42.78006" lon="-0.13256">
        <ele>2700</ele>
        <time>2024-08-01T11:09:21.305Z</time>
      </trkpt>
      <trkpt lat="42.77994" lon="-0.13249">
        <ele>2705</ele>
        <time>2024-08-01T11:10:11.375Z</time>
      </trkpt>
      <trkpt lat="42.77983" lon="-0.13238">
        <ele>2713</ele>
        <time>2024-08-01T11:11:16.544Z</time>
      </trkpt>
      <trkpt lat="42.77969" lon="-0.13227">
        <ele>2719</ele>
        <time>2024-08-01T11:12:15.506Z</time>
      </trkpt>
      <trkpt lat="42.7796" lon="-0.13218">
        <ele>2724</ele>
        <time>2024-08-01T11:13:06.850Z</time>
      </trkpt>
      <trkpt lat="42.77956" lon="-0.13209">
        <ele>2727</ele>
        <time>2024-08-01T11:13:36.432Z</time>
      </trkpt>
      <trkpt lat="42.77954" lon="-0.13201">
        <ele>2730</ele>
        <time>2024-08-01T11:14:05.652Z</time>
      </trkpt>
      <trkpt lat="42.7796" lon="-0.13199">
        <ele>2733</ele>
        <time>2024-08-01T11:14:37.129Z</time>
      </trkpt>
      <trkpt lat="42.77972" lon="-0.132">
        <ele>2736</ele>
        <time>2024-08-01T11:15:03.717Z</time>
      </trkpt>
      <trkpt lat="42.7797" lon="-0.13196">
        <ele>2737</ele>
        <time>2024-08-01T11:15:12.814Z</time>
      </trkpt>
      <trkpt lat="42.77948" lon="-0.13178">
        <ele>2737</ele>
        <time>2024-08-01T11:15:35.726Z</time>
      </trkpt>
      <trkpt lat="42.77935" lon="-0.13169">
        <ele>2733</ele>
        <time>2024-08-01T11:15:47.871Z</time>
      </trkpt>
      <trkpt lat="42.77958" lon="-0.13163">
        <ele>2742</ele>
        <time>2024-08-01T11:17:16.666Z</time>
      </trkpt>
      <trkpt lat="42.77959" lon="-0.13162">
        <ele>2742</ele>
        <time>2024-08-01T11:17:17.581Z</time>
      </trkpt>
      <trkpt lat="42.77942" lon="-0.13147">
        <ele>2737</ele>
        <time>2024-08-01T11:17:33.724Z</time>
      </trkpt>
      <trkpt lat="42.77937" lon="-0.13143">
        <ele>2735</ele>
        <time>2024-08-01T11:17:38.398Z</time>
      </trkpt>
      <trkpt lat="42.77929" lon="-0.13134">
        <ele>2730</ele>
        <time>2024-08-01T11:17:46.524Z</time>
      </trkpt>
      <trkpt lat="42.77933" lon="-0.13119">
        <ele>2728</ele>
        <time>2024-08-01T11:17:56.047Z</time>
      </trkpt>
      <trkpt lat="42.7794" lon="-0.131">
        <ele>2726</ele>
        <time>2024-08-01T11:18:08.117Z</time>
      </trkpt>
      <trkpt lat="42.77943" lon="-0.13089">
        <ele>2724</ele>
        <time>2024-08-01T11:18:15.377Z</time>
      </trkpt>
      <trkpt lat="42.77949" lon="-0.13081">
        <ele>2724</ele>
        <time>2024-08-01T11:18:22.521Z</time>
      </trkpt>
      <trkpt lat="42.7796" lon="-0.13065">
        <ele>2724</ele>
        <time>2024-08-01T11:18:36.936Z</time>
      </trkpt>
      <trkpt lat="42.77971" lon="-0.13047">
        <ele>2724</ele>
        <time>2024-08-01T11:18:52.506Z</time>
      </trkpt>
      <trkpt lat="42.77979" lon="-0.13035">
        <ele>2725</ele>
        <time>2024-08-01T11:19:06.779Z</time>
      </trkpt>
      <trkpt lat="42.77983" lon="-0.13026">
        <ele>2726</ele>
        <time>2024-08-01T11:19:17.758Z</time>
      </trkpt>
      <trkpt lat="42.77989" lon="-0.13013">
        <ele>2727</ele>
        <time>2024-08-01T11:19:30.817Z</time>
      </trkpt>
      <trkpt lat="42.77997" lon="-0.12982">
        <ele>2726</ele>
        <time>2024-08-01T11:19:49.931Z</time>
      </trkpt>
      <trkpt lat="42.77999" lon="-0.1297">
        <ele>2724</ele>
        <time>2024-08-01T11:19:57.312Z</time>
      </trkpt>
      <trkpt lat="42.77998" lon="-0.12959">
        <ele>2721</ele>
        <time>2024-08-01T11:20:03.534Z</time>
      </trkpt>
      <trkpt lat="42.78001" lon="-0.12944">
        <ele>2720</ele>
        <time>2024-08-01T11:20:12.648Z</time>
      </trkpt>
      <trkpt lat="42.78003" lon="-0.1292">
        <ele>2718</ele>
        <time>2024-08-01T11:20:26.871Z</time>
      </trkpt>
      <trkpt lat="42.78005" lon="-0.12898">
        <ele>2715</ele>
        <time>2024-08-01T11:20:39.357Z</time>
      </trkpt>
      <trkpt lat="42.78005" lon="-0.12891">
        <ele>2713</ele>
        <time>2024-08-01T11:20:43.585Z</time>
      </trkpt>
      <trkpt lat="42.78004" lon="-0.12887">
        <ele>2712</ele>
        <time>2024-08-01T11:20:45.875Z</time>
      </trkpt>
      <trkpt lat="42.78002" lon="-0.12887">
        <ele>2711</ele>
        <time>2024-08-01T11:20:47.532Z</time>
      </trkpt>
      <trkpt lat="42.78002" lon="-0.1289">
        <ele>2711</ele>
        <time>2024-08-01T11:20:49.319Z</time>
      </trkpt>
      <trkpt lat="42.78001" lon="-0.12896">
        <ele>2712</ele>
        <time>2024-08-01T11:20:58.304Z</time>
      </trkpt>
      <trkpt lat="42.77999" lon="-0.12898">
        <ele>2711</ele>
        <time>2024-08-01T11:21:00.228Z</time>
      </trkpt>
      <trkpt lat="42.77997" lon="-0.12893">
        <ele>2708</ele>
        <time>2024-08-01T11:21:03.783Z</time>
      </trkpt>
      <trkpt lat="42.77995" lon="-0.1289">
        <ele>2707</ele>
        <time>2024-08-01T11:21:05.654Z</time>
      </trkpt>
      <trkpt lat="42.77994" lon="-0.12873">
        <ele>2703</ele>
        <time>2024-08-01T11:21:15.562Z</time>
      </trkpt>
      <trkpt lat="42.77993" lon="-0.12865">
        <ele>2701</ele>
        <time>2024-08-01T11:21:20.277Z</time>
      </trkpt>
      <trkpt lat="42.77993" lon="-0.12853">
        <ele>2699</ele>
        <time>2024-08-01T11:21:27.070Z</time>
      </trkpt>
      <trkpt lat="42.77996" lon="-0.12836">
        <ele>2697</ele>
        <time>2024-08-01T11:21:37.291Z</time>
      </trkpt>
      <trkpt lat="42.77998" lon="-0.12824">
        <ele>2694</ele>
        <time>2024-08-01T11:21:44.249Z</time>
      </trkpt>
      <trkpt lat="42.77999" lon="-0.12812">
        <ele>2691</ele>
        <time>2024-08-01T11:21:51.562Z</time>
      </trkpt>
      <trkpt lat="42.78001" lon="-0.12802">
        <ele>2689</ele>
        <time>2024-08-01T11:21:57.401Z</time>
      </trkpt>
      <trkpt lat="42.78004" lon="-0.12779">
        <ele>2683</ele>
        <time>2024-08-01T11:22:10.792Z</time>
      </trkpt>
      <trkpt lat="42.78006" lon="-0.12772">
        <ele>2681</ele>
        <time>2024-08-01T11:22:15.196Z</time>
      </trkpt>
      <trkpt lat="42.78009" lon="-0.12767">
        <ele>2680</ele>
        <time>2024-08-01T11:22:18.937Z</time>
      </trkpt>
      <trkpt lat="42.78007" lon="-0.12766">
        <ele>2679</ele>
        <time>2024-08-01T11:22:20.599Z</time>
      </trkpt>
      <trkpt lat="42.78005" lon="-0.12768">
        <ele>2679</ele>
        <time>2024-08-01T11:22:22.725Z</time>
      </trkpt>
      <trkpt lat="42.77994" lon="-0.12777">
        <ele>2679</ele>
        <time>2024-08-01T11:22:34.452Z</time>
      </trkpt>
      <trkpt lat="42.77978" lon="-0.1279">
        <ele>2678</ele>
        <time>2024-08-01T11:22:49.169Z</time>
      </trkpt>
      <trkpt lat="42.77975" lon="-0.12791">
        <ele>2677</ele>
        <time>2024-08-01T11:22:51.825Z</time>
      </trkpt>
      <trkpt lat="42.77975" lon="-0.12787">
        <ele>2676</ele>
        <time>2024-08-01T11:22:54.431Z</time>
      </trkpt>
      <trkpt lat="42.77976" lon="-0.12779">
        <ele>2674</ele>
        <time>2024-08-01T11:22:59.195Z</time>
      </trkpt>
      <trkpt lat="42.77977" lon="-0.12768">
        <ele>2671</ele>
        <time>2024-08-01T11:23:05.526Z</time>
      </trkpt>
      <trkpt lat="42.77979" lon="-0.12752">
        <ele>2668</ele>
        <time>2024-08-01T11:23:14.527Z</time>
      </trkpt>
      <trkpt lat="42.77984" lon="-0.12741">
        <ele>2666</ele>
        <time>2024-08-01T11:23:22.441Z</time>
      </trkpt>
      <trkpt lat="42.77993" lon="-0.12728">
        <ele>2665</ele>
        <time>2024-08-01T11:23:32.364Z</time>
      </trkpt>
      <trkpt lat="42.77997" lon="-0.1272">
        <ele>2664</ele>
        <time>2024-08-01T11:23:38.024Z</time>
      </trkpt>
      <trkpt lat="42.77999" lon="-0.12711">
        <ele>2662</ele>
        <time>2024-08-01T11:23:43.626Z</time>
      </trkpt>
      <trkpt lat="42.78008" lon="-0.12691">
        <ele>2659</ele>
        <time>2024-08-01T11:23:57.634Z</time>
      </trkpt>
      <trkpt lat="42.78012" lon="-0.12686">
        <ele>2658</ele>
        <time>2024-08-01T11:24:01.318Z</time>
      </trkpt>
      <trkpt lat="42.78013" lon="-0.12682">
        <ele>2658</ele>
        <time>2024-08-01T11:24:04.487Z</time>
      </trkpt>
      <trkpt lat="42.78013" lon="-0.12678">
        <ele>2657</ele>
        <time>2024-08-01T11:24:06.572Z</time>
      </trkpt>
      <trkpt lat="42.78006" lon="-0.12677">
        <ele>2655</ele>
        <time>2024-08-01T11:24:11.723Z</time>
      </trkpt>
      <trkpt lat="42.78001" lon="-0.12677">
        <ele>2654</ele>
        <time>2024-08-01T11:24:16.378Z</time>
      </trkpt>
      <trkpt lat="42.77993" lon="-0.12677">
        <ele>2652</ele>
        <time>2024-08-01T11:24:22.139Z</time>
      </trkpt>
      <trkpt lat="42.7799" lon="-0.12675">
        <ele>2651</ele>
        <time>2024-08-01T11:24:24.966Z</time>
      </trkpt>
      <trkpt lat="42.77985" lon="-0.12678">
        <ele>2651</ele>
        <time>2024-08-01T11:24:29.566Z</time>
      </trkpt>
      <trkpt lat="42.77971" lon="-0.12687">
        <ele>2650</ele>
        <time>2024-08-01T11:24:41.615Z</time>
      </trkpt>
      <trkpt lat="42.77968" lon="-0.12687">
        <ele>2650</ele>
        <time>2024-08-01T11:24:45.132Z</time>
      </trkpt>
      <trkpt lat="42.77964" lon="-0.12685">
        <ele>2649</ele>
        <time>2024-08-01T11:24:48.439Z</time>
      </trkpt>
      <trkpt lat="42.77961" lon="-0.1268">
        <ele>2647</ele>
        <time>2024-08-01T11:24:52.179Z</time>
      </trkpt>
      <trkpt lat="42.77956" lon="-0.12674">
        <ele>2646</ele>
        <time>2024-08-01T11:24:56.933Z</time>
      </trkpt>
      <trkpt lat="42.77956" lon="-0.12665">
        <ele>2644</ele>
        <time>2024-08-01T11:25:02.694Z</time>
      </trkpt>
      <trkpt lat="42.77957" lon="-0.12656">
        <ele>2644</ele>
        <time>2024-08-01T11:25:08.766Z</time>
      </trkpt>
      <trkpt lat="42.77958" lon="-0.12647">
        <ele>2644</ele>
        <time>2024-08-01T11:25:14.254Z</time>
      </trkpt>
      <trkpt lat="42.77958" lon="-0.12639">
        <ele>2643</ele>
        <time>2024-08-01T11:25:19.027Z</time>
      </trkpt>
      <trkpt lat="42.77956" lon="-0.12631">
        <ele>2642</ele>
        <time>2024-08-01T11:25:23.922Z</time>
      </trkpt>
      <trkpt lat="42.77956" lon="-0.12621">
        <ele>2643</ele>
        <time>2024-08-01T11:25:34.777Z</time>
      </trkpt>
      <trkpt lat="42.77957" lon="-0.12611">
        <ele>2643</ele>
        <time>2024-08-01T11:25:41.419Z</time>
      </trkpt>
      <trkpt lat="42.77957" lon="-0.12601">
        <ele>2643</ele>
        <time>2024-08-01T11:25:47.972Z</time>
      </trkpt>
      <trkpt lat="42.77957" lon="-0.12589">
        <ele>2644</ele>
        <time>2024-08-01T11:25:59.363Z</time>
      </trkpt>
      <trkpt lat="42.77958" lon="-0.12577">
        <ele>2645</ele>
        <time>2024-08-01T11:26:11.180Z</time>
      </trkpt>
      <trkpt lat="42.77958" lon="-0.12565">
        <ele>2646</ele>
        <time>2024-08-01T11:26:22.628Z</time>
      </trkpt>
      <trkpt lat="42.77956" lon="-0.12558">
        <ele>2647</ele>
        <time>2024-08-01T11:26:31.963Z</time>
      </trkpt>
      <trkpt lat="42.77955" lon="-0.12554">
        <ele>2647</ele>
        <time>2024-08-01T11:26:34.493Z</time>
      </trkpt>
      <trkpt lat="42.77952" lon="-0.12545">
        <ele>2648</ele>
        <time>2024-08-01T11:26:44.902Z</time>
      </trkpt>
      <trkpt lat="42.77948" lon="-0.12537">
        <ele>2648</ele>
        <time>2024-08-01T11:26:51.364Z</time>
      </trkpt>
      <trkpt lat="42.77943" lon="-0.12528">
        <ele>2648</ele>
        <time>2024-08-01T11:26:58.624Z</time>
      </trkpt>
      <trkpt lat="42.7794" lon="-0.12516">
        <ele>2648</ele>
        <time>2024-08-01T11:27:06.859Z</time>
      </trkpt>
      <trkpt lat="42.7794" lon="-0.12508">
        <ele>2649</ele>
        <time>2024-08-01T11:27:16.439Z</time>
      </trkpt>
      <trkpt lat="42.77937" lon="-0.12491">
        <ele>2649</ele>
        <time>2024-08-01T11:27:27.998Z</time>
      </trkpt>
      <trkpt lat="42.77935" lon="-0.12483">
        <ele>2649</ele>
        <time>2024-08-01T11:27:33.593Z</time>
      </trkpt>
      <trkpt lat="42.77933" lon="-0.12477">
        <ele>2649</ele>
        <time>2024-08-01T11:27:38.136Z</time>
      </trkpt>
      <trkpt lat="42.77929" lon="-0.12463">
        <ele>2648</ele>
        <time>2024-08-01T11:27:46.486Z</time>
      </trkpt>
      <trkpt lat="42.7793" lon="-0.12457">
        <ele>2648</ele>
        <time>2024-08-01T11:27:50.691Z</time>
      </trkpt>
      <trkpt lat="42.77929" lon="-0.12452">
        <ele>2648</ele>
        <time>2024-08-01T11:27:54.372Z</time>
      </trkpt>
      <trkpt lat="42.7793" lon="-0.12443">
        <ele>2647</ele>
        <time>2024-08-01T11:27:59.087Z</time>
      </trkpt>
      <trkpt lat="42.77929" lon="-0.12431">
        <ele>2646</ele>
        <time>2024-08-01T11:28:06.400Z</time>
      </trkpt>
      <trkpt lat="42.77925" lon="-0.12417">
        <ele>2644</ele>
        <time>2024-08-01T11:28:15.475Z</time>
      </trkpt>
      <trkpt lat="42.7792" lon="-0.12416">
        <ele>2643</ele>
        <time>2024-08-01T11:28:19.135Z</time>
      </trkpt>
      <trkpt lat="42.77916" lon="-0.12413">
        <ele>2642</ele>
        <time>2024-08-01T11:28:22.684Z</time>
      </trkpt>
      <trkpt lat="42.77912" lon="-0.12411">
        <ele>2641</ele>
        <time>2024-08-01T11:28:25.933Z</time>
      </trkpt>
      <trkpt lat="42.7791" lon="-0.12407">
        <ele>2640</ele>
        <time>2024-08-01T11:28:29.205Z</time>
      </trkpt>
      <trkpt lat="42.77906" lon="-0.12398">
        <ele>2638</ele>
        <time>2024-08-01T11:28:35.299Z</time>
      </trkpt>
      <trkpt lat="42.77904" lon="-0.12397">
        <ele>2638</ele>
        <time>2024-08-01T11:28:37.198Z</time>
      </trkpt>
      <trkpt lat="42.77899" lon="-0.12384">
        <ele>2634</ele>
        <time>2024-08-01T11:28:45.349Z</time>
      </trkpt>
      <trkpt lat="42.77896" lon="-0.12384">
        <ele>2633</ele>
        <time>2024-08-01T11:28:47.953Z</time>
      </trkpt>
      <trkpt lat="42.77895" lon="-0.12387">
        <ele>2633</ele>
        <time>2024-08-01T11:28:49.787Z</time>
      </trkpt>
      <trkpt lat="42.77894" lon="-0.1239">
        <ele>2633</ele>
        <time>2024-08-01T11:28:51.924Z</time>
      </trkpt>
      <trkpt lat="42.77889" lon="-0.12395">
        <ele>2632</ele>
        <time>2024-08-01T11:28:56.716Z</time>
      </trkpt>
      <trkpt lat="42.77886" lon="-0.12401">
        <ele>2631</ele>
        <time>2024-08-01T11:29:01.199Z</time>
      </trkpt>
      <trkpt lat="42.77884" lon="-0.12408">
        <ele>2631</ele>
        <time>2024-08-01T11:29:05.531Z</time>
      </trkpt>
      <trkpt lat="42.77883" lon="-0.12408">
        <ele>2631</ele>
        <time>2024-08-01T11:29:06.703Z</time>
      </trkpt>
      <trkpt lat="42.7788" lon="-0.12406">
        <ele>2629</ele>
        <time>2024-08-01T11:29:09.487Z</time>
      </trkpt>
      <trkpt lat="42.77877" lon="-0.12408">
        <ele>2628</ele>
        <time>2024-08-01T11:29:12.032Z</time>
      </trkpt>
      <trkpt lat="42.77875" lon="-0.12407">
        <ele>2628</ele>
        <time>2024-08-01T11:29:14.235Z</time>
      </trkpt>
      <trkpt lat="42.77871" lon="-0.12398">
        <ele>2625</ele>
        <time>2024-08-01T11:29:20.543Z</time>
      </trkpt>
      <trkpt lat="42.77867" lon="-0.12384">
        <ele>2622</ele>
        <time>2024-08-01T11:29:28.810Z</time>
      </trkpt>
      <trkpt lat="42.77866" lon="-0.12365">
        <ele>2619</ele>
        <time>2024-08-01T11:29:39.797Z</time>
      </trkpt>
      <trkpt lat="42.77863" lon="-0.12358">
        <ele>2617</ele>
        <time>2024-08-01T11:29:44.481Z</time>
      </trkpt>
      <trkpt lat="42.77861" lon="-0.12352">
        <ele>2615</ele>
        <time>2024-08-01T11:29:48.456Z</time>
      </trkpt>
      <trkpt lat="42.77858" lon="-0.1235">
        <ele>2613</ele>
        <time>2024-08-01T11:29:51.240Z</time>
      </trkpt>
      <trkpt lat="42.77856" lon="-0.1234">
        <ele>2610</ele>
        <time>2024-08-01T11:29:57.188Z</time>
      </trkpt>
      <trkpt lat="42.77855" lon="-0.12337">
        <ele>2609</ele>
        <time>2024-08-01T11:29:59.478Z</time>
      </trkpt>
      <trkpt lat="42.77855" lon="-0.12332">
        <ele>2608</ele>
        <time>2024-08-01T11:30:02.084Z</time>
      </trkpt>
      <trkpt lat="42.77855" lon="-0.12327">
        <ele>2607</ele>
        <time>2024-08-01T11:30:05.270Z</time>
      </trkpt>
      <trkpt lat="42.77851" lon="-0.12317">
        <ele>2604</ele>
        <time>2024-08-01T11:30:11.548Z</time>
      </trkpt>
      <trkpt lat="42.7785" lon="-0.12314">
        <ele>2603</ele>
        <time>2024-08-01T11:30:13.673Z</time>
      </trkpt>
      <trkpt lat="42.77849" lon="-0.12305">
        <ele>2601</ele>
        <time>2024-08-01T11:30:18.915Z</time>
      </trkpt>
      <trkpt lat="42.7785" lon="-0.12284">
        <ele>2597</ele>
        <time>2024-08-01T11:30:31.468Z</time>
      </trkpt>
      <trkpt lat="42.77847" lon="-0.1228">
        <ele>2595</ele>
        <time>2024-08-01T11:30:34.450Z</time>
      </trkpt>
      <trkpt lat="42.77844" lon="-0.12278">
        <ele>2594</ele>
        <time>2024-08-01T11:30:37.182Z</time>
      </trkpt>
      <trkpt lat="42.77841" lon="-0.12279">
        <ele>2593</ele>
        <time>2024-08-01T11:30:39.827Z</time>
      </trkpt>
      <trkpt lat="42.7784" lon="-0.1228">
        <ele>2593</ele>
        <time>2024-08-01T11:30:41.252Z</time>
      </trkpt>
      <trkpt lat="42.77838" lon="-0.12278">
        <ele>2592</ele>
        <time>2024-08-01T11:30:42.661Z</time>
      </trkpt>
      <trkpt lat="42.77838" lon="-0.12274">
        <ele>2591</ele>
        <time>2024-08-01T11:30:45.267Z</time>
      </trkpt>
      <trkpt lat="42.77844" lon="-0.12259">
        <ele>2589</ele>
        <time>2024-08-01T11:30:54.563Z</time>
      </trkpt>
      <trkpt lat="42.77844" lon="-0.12257">
        <ele>2588</ele>
        <time>2024-08-01T11:30:56.221Z</time>
      </trkpt>
      <trkpt lat="42.77844" lon="-0.12253">
        <ele>2587</ele>
        <time>2024-08-01T11:30:58.378Z</time>
      </trkpt>
      <trkpt lat="42.77842" lon="-0.12251">
        <ele>2586</ele>
        <time>2024-08-01T11:31:00.238Z</time>
      </trkpt>
      <trkpt lat="42.77838" lon="-0.12253">
        <ele>2586</ele>
        <time>2024-08-01T11:31:03.931Z</time>
      </trkpt>
      <trkpt lat="42.77834" lon="-0.12251">
        <ele>2585</ele>
        <time>2024-08-01T11:31:07.238Z</time>
      </trkpt>
      <trkpt lat="42.77831" lon="-0.12249">
        <ele>2584</ele>
        <time>2024-08-01T11:31:09.818Z</time>
      </trkpt>
      <trkpt lat="42.77828" lon="-0.12244">
        <ele>2582</ele>
        <time>2024-08-01T11:31:13.543Z</time>
      </trkpt>
      <trkpt lat="42.77822" lon="-0.12243">
        <ele>2581</ele>
        <time>2024-08-01T11:31:17.758Z</time>
      </trkpt>
      <trkpt lat="42.7782" lon="-0.12242">
        <ele>2581</ele>
        <time>2024-08-01T11:31:20.162Z</time>
      </trkpt>
      <trkpt lat="42.77819" lon="-0.1224">
        <ele>2581</ele>
        <time>2024-08-01T11:31:22.299Z</time>
      </trkpt>
      <trkpt lat="42.77814" lon="-0.12231">
        <ele>2579</ele>
        <time>2024-08-01T11:31:28.277Z</time>
      </trkpt>
      <trkpt lat="42.77813" lon="-0.12228">
        <ele>2578</ele>
        <time>2024-08-01T11:31:30.379Z</time>
      </trkpt>
      <trkpt lat="42.77811" lon="-0.12228">
        <ele>2578</ele>
        <time>2024-08-01T11:31:32.182Z</time>
      </trkpt>
      <trkpt lat="42.77809" lon="-0.12237">
        <ele>2580</ele>
        <time>2024-08-01T11:31:50.205Z</time>
      </trkpt>
      <trkpt lat="42.77808" lon="-0.12239">
        <ele>2580</ele>
        <time>2024-08-01T11:31:51.877Z</time>
      </trkpt>
      <trkpt lat="42.77806" lon="-0.1224">
        <ele>2581</ele>
        <time>2024-08-01T11:32:01.849Z</time>
      </trkpt>
      <trkpt lat="42.77805" lon="-0.12237">
        <ele>2580</ele>
        <time>2024-08-01T11:32:03.720Z</time>
      </trkpt>
      <trkpt lat="42.77803" lon="-0.12235">
        <ele>2580</ele>
        <time>2024-08-01T11:32:05.439Z</time>
      </trkpt>
      <trkpt lat="42.77797" lon="-0.12217">
        <ele>2577</ele>
        <time>2024-08-01T11:32:16.805Z</time>
      </trkpt>
      <trkpt lat="42.77793" lon="-0.12212">
        <ele>2576</ele>
        <time>2024-08-01T11:32:21.248Z</time>
      </trkpt>
      <trkpt lat="42.77788" lon="-0.12209">
        <ele>2576</ele>
        <time>2024-08-01T11:32:26.351Z</time>
      </trkpt>
      <trkpt lat="42.77784" lon="-0.12207">
        <ele>2576</ele>
        <time>2024-08-01T11:32:30.650Z</time>
      </trkpt>
      <trkpt lat="42.77782" lon="-0.12202">
        <ele>2575</ele>
        <time>2024-08-01T11:32:34.205Z</time>
      </trkpt>
      <trkpt lat="42.7778" lon="-0.12193">
        <ele>2574</ele>
        <time>2024-08-01T11:32:39.629Z</time>
      </trkpt>
      <trkpt lat="42.77778" lon="-0.12183">
        <ele>2572</ele>
        <time>2024-08-01T11:32:45.521Z</time>
      </trkpt>
      <trkpt lat="42.77774" lon="-0.12163">
        <ele>2567</ele>
        <time>2024-08-01T11:32:57.472Z</time>
      </trkpt>
      <trkpt lat="42.77772" lon="-0.12158">
        <ele>2566</ele>
        <time>2024-08-01T11:33:00.709Z</time>
      </trkpt>
      <trkpt lat="42.77769" lon="-0.12153">
        <ele>2565</ele>
        <time>2024-08-01T11:33:04.352Z</time>
      </trkpt>
      <trkpt lat="42.77757" lon="-0.12135">
        <ele>2559</ele>
        <time>2024-08-01T11:33:18.705Z</time>
      </trkpt>
      <trkpt lat="42.77753" lon="-0.12127">
        <ele>2556</ele>
        <time>2024-08-01T11:33:24.408Z</time>
      </trkpt>
      <trkpt lat="42.77749" lon="-0.12122">
        <ele>2554</ele>
        <time>2024-08-01T11:33:28.852Z</time>
      </trkpt>
      <trkpt lat="42.77747" lon="-0.12112">
        <ele>2551</ele>
        <time>2024-08-01T11:33:34.667Z</time>
      </trkpt>
      <trkpt lat="42.77741" lon="-0.121">
        <ele>2546</ele>
        <time>2024-08-01T11:33:42.729Z</time>
      </trkpt>
      <trkpt lat="42.77741" lon="-0.12098">
        <ele>2545</ele>
        <time>2024-08-01T11:33:44.333Z</time>
      </trkpt>
      <trkpt lat="42.7774" lon="-0.12096">
        <ele>2544</ele>
        <time>2024-08-01T11:33:45.478Z</time>
      </trkpt>
      <trkpt lat="42.77741" lon="-0.12095">
        <ele>2544</ele>
        <time>2024-08-01T11:33:46.793Z</time>
      </trkpt>
      <trkpt lat="42.77743" lon="-0.12093">
        <ele>2544</ele>
        <time>2024-08-01T11:33:48.465Z</time>
      </trkpt>
      <trkpt lat="42.77742" lon="-0.12091">
        <ele>2543</ele>
        <time>2024-08-01T11:33:50.044Z</time>
      </trkpt>
      <trkpt lat="42.77741" lon="-0.1209">
        <ele>2542</ele>
        <time>2024-08-01T11:33:51.291Z</time>
      </trkpt>
      <trkpt lat="42.77741" lon="-0.12089">
        <ele>2542</ele>
        <time>2024-08-01T11:33:51.887Z</time>
      </trkpt>
      <trkpt lat="42.7774" lon="-0.12088">
        <ele>2541</ele>
        <time>2024-08-01T11:33:52.549Z</time>
      </trkpt>
      <trkpt lat="42.77739" lon="-0.12084">
        <ele>2540</ele>
        <time>2024-08-01T11:33:54.873Z</time>
      </trkpt>
      <trkpt lat="42.77737" lon="-0.12082">
        <ele>2538</ele>
        <time>2024-08-01T11:33:57.095Z</time>
      </trkpt>
      <trkpt lat="42.77738" lon="-0.12079">
        <ele>2538</ele>
        <time>2024-08-01T11:33:59.233Z</time>
      </trkpt>
      <trkpt lat="42.77741" lon="-0.12078">
        <ele>2538</ele>
        <time>2024-08-01T11:34:01.652Z</time>
      </trkpt>
      <trkpt lat="42.77743" lon="-0.12077">
        <ele>2539</ele>
        <time>2024-08-01T11:34:11.323Z</time>
      </trkpt>
      <trkpt lat="42.77745" lon="-0.12076">
        <ele>2539</ele>
        <time>2024-08-01T11:34:12.609Z</time>
      </trkpt>
      <trkpt lat="42.77743" lon="-0.12073">
        <ele>2538</ele>
        <time>2024-08-01T11:34:14.528Z</time>
      </trkpt>
      <trkpt lat="42.77741" lon="-0.1207">
        <ele>2536</ele>
        <time>2024-08-01T11:34:17.469Z</time>
      </trkpt>
      <trkpt lat="42.77733" lon="-0.12069">
        <ele>2533</ele>
        <time>2024-08-01T11:34:23.175Z</time>
      </trkpt>
      <trkpt lat="42.77732" lon="-0.12068">
        <ele>2533</ele>
        <time>2024-08-01T11:34:24.521Z</time>
      </trkpt>
      <trkpt lat="42.77733" lon="-0.12066">
        <ele>2532</ele>
        <time>2024-08-01T11:34:25.614Z</time>
      </trkpt>
      <trkpt lat="42.77742" lon="-0.12053">
        <ele>2531</ele>
        <time>2024-08-01T11:34:36.380Z</time>
      </trkpt>
      <trkpt lat="42.77742" lon="-0.12052">
        <ele>2531</ele>
        <time>2024-08-01T11:34:36.910Z</time>
      </trkpt>
      <trkpt lat="42.77741" lon="-0.1205">
        <ele>2530</ele>
        <time>2024-08-01T11:34:38.090Z</time>
      </trkpt>
      <trkpt lat="42.77739" lon="-0.12051">
        <ele>2530</ele>
        <time>2024-08-01T11:34:39.904Z</time>
      </trkpt>
      <trkpt lat="42.77735" lon="-0.12051">
        <ele>2528</ele>
        <time>2024-08-01T11:34:43.060Z</time>
      </trkpt>
      <trkpt lat="42.77729" lon="-0.12049">
        <ele>2526</ele>
        <time>2024-08-01T11:34:48.361Z</time>
      </trkpt>
      <trkpt lat="42.77726" lon="-0.1205">
        <ele>2525</ele>
        <time>2024-08-01T11:34:51.006Z</time>
      </trkpt>
      <trkpt lat="42.77721" lon="-0.12054">
        <ele>2524</ele>
        <time>2024-08-01T11:34:55.261Z</time>
      </trkpt>
      <trkpt lat="42.77716" lon="-0.12059">
        <ele>2523</ele>
        <time>2024-08-01T11:35:00.386Z</time>
      </trkpt>
      <trkpt lat="42.77709" lon="-0.12064">
        <ele>2522</ele>
        <time>2024-08-01T11:35:06.461Z</time>
      </trkpt>
      <trkpt lat="42.77704" lon="-0.12072">
        <ele>2521</ele>
        <time>2024-08-01T11:35:12.367Z</time>
      </trkpt>
      <trkpt lat="42.77701" lon="-0.1208">
        <ele>2522</ele>
        <time>2024-08-01T11:35:22.414Z</time>
      </trkpt>
      <trkpt lat="42.77697" lon="-0.12088">
        <ele>2522</ele>
        <time>2024-08-01T11:35:28.648Z</time>
      </trkpt>
      <trkpt lat="42.77694" lon="-0.12091">
        <ele>2520</ele>
        <time>2024-08-01T11:35:31.686Z</time>
      </trkpt>
      <trkpt lat="42.77691" lon="-0.12094">
        <ele>2519</ele>
        <time>2024-08-01T11:35:34.611Z</time>
      </trkpt>
      <trkpt lat="42.77687" lon="-0.12099">
        <ele>2518</ele>
        <time>2024-08-01T11:35:38.607Z</time>
      </trkpt>
      <trkpt lat="42.77684" lon="-0.12105">
        <ele>2517</ele>
        <time>2024-08-01T11:35:43.090Z</time>
      </trkpt>
      <trkpt lat="42.77682" lon="-0.12106">
        <ele>2515</ele>
        <time>2024-08-01T11:35:44.752Z</time>
      </trkpt>
      <trkpt lat="42.77683" lon="-0.12099">
        <ele>2514</ele>
        <time>2024-08-01T11:35:48.432Z</time>
      </trkpt>
      <trkpt lat="42.77683" lon="-0.12083">
        <ele>2510</ele>
        <time>2024-08-01T11:35:57.832Z</time>
      </trkpt>
      <trkpt lat="42.77684" lon="-0.12073">
        <ele>2508</ele>
        <time>2024-08-01T11:36:03.593Z</time>
      </trkpt>
      <trkpt lat="42.77684" lon="-0.12072">
        <ele>2507</ele>
        <time>2024-08-01T11:36:04.635Z</time>
      </trkpt>
      <trkpt lat="42.77682" lon="-0.12073">
        <ele>2506</ele>
        <time>2024-08-01T11:36:06.316Z</time>
      </trkpt>
      <trkpt lat="42.77675" lon="-0.12084">
        <ele>2504</ele>
        <time>2024-08-01T11:36:15.211Z</time>
      </trkpt>
      <trkpt lat="42.77669" lon="-0.12092">
        <ele>2501</ele>
        <time>2024-08-01T11:36:21.453Z</time>
      </trkpt>
      <trkpt lat="42.77656" lon="-0.12132">
        <ele>2498</ele>
        <time>2024-08-01T11:36:46.612Z</time>
      </trkpt>
      <trkpt lat="42.77646" lon="-0.12153">
        <ele>2494</ele>
        <time>2024-08-01T11:37:01.405Z</time>
      </trkpt>
      <trkpt lat="42.77638" lon="-0.12166">
        <ele>2490</ele>
        <time>2024-08-01T11:37:10.915Z</time>
      </trkpt>
      <trkpt lat="42.77635" lon="-0.12172">
        <ele>2489</ele>
        <time>2024-08-01T11:37:15.398Z</time>
      </trkpt>
      <trkpt lat="42.7763" lon="-0.12179">
        <ele>2486</ele>
        <time>2024-08-01T11:37:21.290Z</time>
      </trkpt>
      <trkpt lat="42.77627" lon="-0.12183">
        <ele>2484</ele>
        <time>2024-08-01T11:37:24.627Z</time>
      </trkpt>
      <trkpt lat="42.77622" lon="-0.12193">
        <ele>2483</ele>
        <time>2024-08-01T11:37:31.407Z</time>
      </trkpt>
      <trkpt lat="42.77614" lon="-0.12197">
        <ele>2478</ele>
        <time>2024-08-01T11:37:38.164Z</time>
      </trkpt>
      <trkpt lat="42.77608" lon="-0.12203">
        <ele>2475</ele>
        <time>2024-08-01T11:37:43.773Z</time>
      </trkpt>
      <trkpt lat="42.776" lon="-0.12212">
        <ele>2472</ele>
        <time>2024-08-01T11:37:51.900Z</time>
      </trkpt>
      <trkpt lat="42.77594" lon="-0.1222">
        <ele>2469</ele>
        <time>2024-08-01T11:37:58.525Z</time>
      </trkpt>
      <trkpt lat="42.77586" lon="-0.1223">
        <ele>2466</ele>
        <time>2024-08-01T11:38:07.035Z</time>
      </trkpt>
      <trkpt lat="42.7758" lon="-0.12231">
        <ele>2463</ele>
        <time>2024-08-01T11:38:11.720Z</time>
      </trkpt>
      <trkpt lat="42.77571" lon="-0.1224">
        <ele>2458</ele>
        <time>2024-08-01T11:38:21.112Z</time>
      </trkpt>
      <trkpt lat="42.77563" lon="-0.12249">
        <ele>2456</ele>
        <time>2024-08-01T11:38:29.238Z</time>
      </trkpt>
      <trkpt lat="42.77559" lon="-0.12253">
        <ele>2455</ele>
        <time>2024-08-01T11:38:32.882Z</time>
      </trkpt>
      <trkpt lat="42.77557" lon="-0.12262">
        <ele>2456</ele>
        <time>2024-08-01T11:38:43.168Z</time>
      </trkpt>
      <trkpt lat="42.77548" lon="-0.12275">
        <ele>2454</ele>
        <time>2024-08-01T11:38:53.134Z</time>
      </trkpt>
      <trkpt lat="42.77547" lon="-0.12275">
        <ele>2454</ele>
        <time>2024-08-01T11:38:54.306Z</time>
      </trkpt>
      <trkpt lat="42.77547" lon="-0.12259">
        <ele>2450</ele>
        <time>2024-08-01T11:39:03.181Z</time>
      </trkpt>
      <trkpt lat="42.77547" lon="-0.12258">
        <ele>2449</ele>
        <time>2024-08-01T11:39:04.274Z</time>
      </trkpt>
      <trkpt lat="42.77546" lon="-0.12257">
        <ele>2448</ele>
        <time>2024-08-01T11:39:05.452Z</time>
      </trkpt>
      <trkpt lat="42.77538" lon="-0.12258">
        <ele>2445</ele>
        <time>2024-08-01T11:39:11.228Z</time>
      </trkpt>
      <trkpt lat="42.77537" lon="-0.12258">
        <ele>2445</ele>
        <time>2024-08-01T11:39:12.491Z</time>
      </trkpt>
      <trkpt lat="42.77536" lon="-0.12256">
        <ele>2443</ele>
        <time>2024-08-01T11:39:14.150Z</time>
      </trkpt>
      <trkpt lat="42.77537" lon="-0.12252">
        <ele>2443</ele>
        <time>2024-08-01T11:39:16.615Z</time>
      </trkpt>
      <trkpt lat="42.7754" lon="-0.12245">
        <ele>2442</ele>
        <time>2024-08-01T11:39:21.483Z</time>
      </trkpt>
      <trkpt lat="42.77542" lon="-0.12242">
        <ele>2442</ele>
        <time>2024-08-01T11:39:23.620Z</time>
      </trkpt>
      <trkpt lat="42.7754" lon="-0.1224">
        <ele>2440</ele>
        <time>2024-08-01T11:39:25.125Z</time>
      </trkpt>
      <trkpt lat="42.77538" lon="-0.1224">
        <ele>2439</ele>
        <time>2024-08-01T11:39:27.177Z</time>
      </trkpt>
      <trkpt lat="42.77532" lon="-0.12239">
        <ele>2435</ele>
        <time>2024-08-01T11:39:32.013Z</time>
      </trkpt>
      <trkpt lat="42.7753" lon="-0.1224">
        <ele>2435</ele>
        <time>2024-08-01T11:39:33.827Z</time>
      </trkpt>
      <trkpt lat="42.77529" lon="-0.12238">
        <ele>2434</ele>
        <time>2024-08-01T11:39:35.058Z</time>
      </trkpt>
      <trkpt lat="42.77531" lon="-0.12231">
        <ele>2432</ele>
        <time>2024-08-01T11:39:39.436Z</time>
      </trkpt>
      <trkpt lat="42.77537" lon="-0.12218">
        <ele>2432</ele>
        <time>2024-08-01T11:39:49.378Z</time>
      </trkpt>
      <trkpt lat="42.77545" lon="-0.12194">
        <ele>2429</ele>
        <time>2024-08-01T11:40:04.773Z</time>
      </trkpt>
      <trkpt lat="42.77548" lon="-0.12178">
        <ele>2426</ele>
        <time>2024-08-01T11:40:14.511Z</time>
      </trkpt>
      <trkpt lat="42.77549" lon="-0.12167">
        <ele>2424</ele>
        <time>2024-08-01T11:40:20.733Z</time>
      </trkpt>
      <trkpt lat="42.7755" lon="-0.1216">
        <ele>2423</ele>
        <time>2024-08-01T11:40:24.972Z</time>
      </trkpt>
      <trkpt lat="42.7755" lon="-0.12156">
        <ele>2422</ele>
        <time>2024-08-01T11:40:27.115Z</time>
      </trkpt>
      <trkpt lat="42.77548" lon="-0.12148">
        <ele>2418</ele>
        <time>2024-08-01T11:40:32.065Z</time>
      </trkpt>
      <trkpt lat="42.77549" lon="-0.12143">
        <ele>2418</ele>
        <time>2024-08-01T11:40:35.110Z</time>
      </trkpt>
      <trkpt lat="42.77551" lon="-0.12134">
        <ele>2417</ele>
        <time>2024-08-01T11:40:40.535Z</time>
      </trkpt>
      <trkpt lat="42.77553" lon="-0.12125">
        <ele>2416</ele>
        <time>2024-08-01T11:40:46.483Z</time>
      </trkpt>
      <trkpt lat="42.77554" lon="-0.12109">
        <ele>2414</ele>
        <time>2024-08-01T11:40:55.413Z</time>
      </trkpt>
      <trkpt lat="42.77555" lon="-0.12102">
        <ele>2412</ele>
        <time>2024-08-01T11:40:59.553Z</time>
      </trkpt>
      <trkpt lat="42.77553" lon="-0.12091">
        <ele>2408</ele>
        <time>2024-08-01T11:41:06.455Z</time>
      </trkpt>
      <trkpt lat="42.77553" lon="-0.12074">
        <ele>2405</ele>
        <time>2024-08-01T11:41:15.913Z</time>
      </trkpt>
      <trkpt lat="42.77556" lon="-0.12068">
        <ele>2405</ele>
        <time>2024-08-01T11:41:20.697Z</time>
      </trkpt>
      <trkpt lat="42.77557" lon="-0.12056">
        <ele>2403</ele>
        <time>2024-08-01T11:41:27.964Z</time>
      </trkpt>
      <trkpt lat="42.77558" lon="-0.12046">
        <ele>2402</ele>
        <time>2024-08-01T11:41:33.776Z</time>
      </trkpt>
      <trkpt lat="42.77555" lon="-0.12032">
        <ele>2397</ele>
        <time>2024-08-01T11:41:41.861Z</time>
      </trkpt>
      <trkpt lat="42.77555" lon="-0.12025">
        <ele>2395</ele>
        <time>2024-08-01T11:41:46.010Z</time>
      </trkpt>
      <trkpt lat="42.77555" lon="-0.12015">
        <ele>2393</ele>
        <time>2024-08-01T11:41:51.771Z</time>
      </trkpt>
      <trkpt lat="42.77554" lon="-0.12">
        <ele>2388</ele>
        <time>2024-08-01T11:42:00.693Z</time>
      </trkpt>
      <trkpt lat="42.77555" lon="-0.11991">
        <ele>2387</ele>
        <time>2024-08-01T11:42:05.927Z</time>
      </trkpt>
      <trkpt lat="42.77558" lon="-0.11975">
        <ele>2384</ele>
        <time>2024-08-01T11:42:15.610Z</time>
      </trkpt>
      <trkpt lat="42.77557" lon="-0.11969">
        <ele>2382</ele>
        <time>2024-08-01T11:42:18.831Z</time>
      </trkpt>
      <trkpt lat="42.77555" lon="-0.11958">
        <ele>2379</ele>
        <time>2024-08-01T11:42:25.384Z</time>
      </trkpt>
      <trkpt lat="42.77555" lon="-0.11946">
        <ele>2376</ele>
        <time>2024-08-01T11:42:32.683Z</time>
      </trkpt>
      <trkpt lat="42.77557" lon="-0.11931">
        <ele>2374</ele>
        <time>2024-08-01T11:42:41.798Z</time>
      </trkpt>
      <trkpt lat="42.77559" lon="-0.11922">
        <ele>2373</ele>
        <time>2024-08-01T11:42:46.723Z</time>
      </trkpt>
      <trkpt lat="42.77561" lon="-0.11896">
        <ele>2369</ele>
        <time>2024-08-01T11:43:01.824Z</time>
      </trkpt>
      <trkpt lat="42.77558" lon="-0.11878">
        <ele>2365</ele>
        <time>2024-08-01T11:43:12.466Z</time>
      </trkpt>
      <trkpt lat="42.77559" lon="-0.1187">
        <ele>2364</ele>
        <time>2024-08-01T11:43:17.212Z</time>
      </trkpt>
      <trkpt lat="42.7756" lon="-0.11861">
        <ele>2362</ele>
        <time>2024-08-01T11:43:22.454Z</time>
      </trkpt>
      <trkpt lat="42.77559" lon="-0.11851">
        <ele>2360</ele>
        <time>2024-08-01T11:43:28.864Z</time>
      </trkpt>
      <trkpt lat="42.77557" lon="-0.11831">
        <ele>2355</ele>
        <time>2024-08-01T11:43:40.314Z</time>
      </trkpt>
      <trkpt lat="42.77559" lon="-0.11825">
        <ele>2354</ele>
        <time>2024-08-01T11:43:44.084Z</time>
      </trkpt>
      <trkpt lat="42.77562" lon="-0.11822">
        <ele>2353</ele>
        <time>2024-08-01T11:43:47.189Z</time>
      </trkpt>
      <trkpt lat="42.77569" lon="-0.11818">
        <ele>2352</ele>
        <time>2024-08-01T11:43:53.242Z</time>
      </trkpt>
      <trkpt lat="42.77571" lon="-0.11812">
        <ele>2351</ele>
        <time>2024-08-01T11:43:57.218Z</time>
      </trkpt>
      <trkpt lat="42.77571" lon="-0.11806">
        <ele>2348</ele>
        <time>2024-08-01T11:44:00.867Z</time>
      </trkpt>
      <trkpt lat="42.77569" lon="-0.11801">
        <ele>2347</ele>
        <time>2024-08-01T11:44:03.865Z</time>
      </trkpt>
      <trkpt lat="42.77567" lon="-0.11793">
        <ele>2344</ele>
        <time>2024-08-01T11:44:08.815Z</time>
      </trkpt>
      <trkpt lat="42.77565" lon="-0.11792">
        <ele>2344</ele>
        <time>2024-08-01T11:44:11.234Z</time>
      </trkpt>
      <trkpt lat="42.77561" lon="-0.11786">
        <ele>2342</ele>
        <time>2024-08-01T11:44:16.008Z</time>
      </trkpt>
      <trkpt lat="42.77557" lon="-0.11777">
        <ele>2338</ele>
        <time>2024-08-01T11:44:21.835Z</time>
      </trkpt>
      <trkpt lat="42.77555" lon="-0.1177">
        <ele>2336</ele>
        <time>2024-08-01T11:44:26.518Z</time>
      </trkpt>
      <trkpt lat="42.77563" lon="-0.11771">
        <ele>2336</ele>
        <time>2024-08-01T11:44:34.297Z</time>
      </trkpt>
      <trkpt lat="42.77567" lon="-0.1177">
        <ele>2336</ele>
        <time>2024-08-01T11:44:37.865Z</time>
      </trkpt>
      <trkpt lat="42.77571" lon="-0.11768">
        <ele>2335</ele>
        <time>2024-08-01T11:44:40.670Z</time>
      </trkpt>
      <trkpt lat="42.77577" lon="-0.11761">
        <ele>2333</ele>
        <time>2024-08-01T11:44:47.342Z</time>
      </trkpt>
      <trkpt lat="42.77584" lon="-0.11757">
        <ele>2333</ele>
        <time>2024-08-01T11:44:53.729Z</time>
      </trkpt>
      <trkpt lat="42.77588" lon="-0.11758">
        <ele>2334</ele>
        <time>2024-08-01T11:45:02.589Z</time>
      </trkpt>
      <trkpt lat="42.77589" lon="-0.11755">
        <ele>2333</ele>
        <time>2024-08-01T11:45:04.861Z</time>
      </trkpt>
      <trkpt lat="42.77588" lon="-0.11753">
        <ele>2332</ele>
        <time>2024-08-01T11:45:06.365Z</time>
      </trkpt>
      <trkpt lat="42.77578" lon="-0.11746">
        <ele>2328</ele>
        <time>2024-08-01T11:45:15.194Z</time>
      </trkpt>
      <trkpt lat="42.77575" lon="-0.1174">
        <ele>2326</ele>
        <time>2024-08-01T11:45:19.027Z</time>
      </trkpt>
      <trkpt lat="42.77572" lon="-0.11736">
        <ele>2324</ele>
        <time>2024-08-01T11:45:22.671Z</time>
      </trkpt>
      <trkpt lat="42.77566" lon="-0.11735">
        <ele>2324</ele>
        <time>2024-08-01T11:45:28.025Z</time>
      </trkpt>
      <trkpt lat="42.77561" lon="-0.11728">
        <ele>2322</ele>
        <time>2024-08-01T11:45:33.516Z</time>
      </trkpt>
      <trkpt lat="42.77555" lon="-0.11721">
        <ele>2319</ele>
        <time>2024-08-01T11:45:39.788Z</time>
      </trkpt>
      <trkpt lat="42.77549" lon="-0.11717">
        <ele>2318</ele>
        <time>2024-08-01T11:45:45.152Z</time>
      </trkpt>
      <trkpt lat="42.7754" lon="-0.11707">
        <ele>2315</ele>
        <time>2024-08-01T11:45:54.430Z</time>
      </trkpt>
      <trkpt lat="42.77535" lon="-0.11701">
        <ele>2313</ele>
        <time>2024-08-01T11:45:59.260Z</time>
      </trkpt>
      <trkpt lat="42.77531" lon="-0.11694">
        <ele>2311</ele>
        <time>2024-08-01T11:46:04.444Z</time>
      </trkpt>
      <trkpt lat="42.77528" lon="-0.11689">
        <ele>2310</ele>
        <time>2024-08-01T11:46:08.185Z</time>
      </trkpt>
      <trkpt lat="42.77526" lon="-0.11681">
        <ele>2308</ele>
        <time>2024-08-01T11:46:13.306Z</time>
      </trkpt>
      <trkpt lat="42.77523" lon="-0.11676">
        <ele>2306</ele>
        <time>2024-08-01T11:46:16.672Z</time>
      </trkpt>
      <trkpt lat="42.77518" lon="-0.11669">
        <ele>2304</ele>
        <time>2024-08-01T11:46:22.523Z</time>
      </trkpt>
      <trkpt lat="42.77508" lon="-0.11654">
        <ele>2297</ele>
        <time>2024-08-01T11:46:34.338Z</time>
      </trkpt>
      <trkpt lat="42.77505" lon="-0.11649">
        <ele>2295</ele>
        <time>2024-08-01T11:46:37.609Z</time>
      </trkpt>
      <trkpt lat="42.77503" lon="-0.11644">
        <ele>2293</ele>
        <time>2024-08-01T11:46:41.394Z</time>
      </trkpt>
      <trkpt lat="42.77497" lon="-0.11645">
        <ele>2291</ele>
        <time>2024-08-01T11:46:46.073Z</time>
      </trkpt>
      <trkpt lat="42.77493" lon="-0.11646">
        <ele>2290</ele>
        <time>2024-08-01T11:46:48.729Z</time>
      </trkpt>
      <trkpt lat="42.77486" lon="-0.11651">
        <ele>2289</ele>
        <time>2024-08-01T11:46:55.704Z</time>
      </trkpt>
      <trkpt lat="42.77481" lon="-0.1166">
        <ele>2290</ele>
        <time>2024-08-01T11:47:06.683Z</time>
      </trkpt>
      <trkpt lat="42.77478" lon="-0.11661">
        <ele>2289</ele>
        <time>2024-08-01T11:47:08.877Z</time>
      </trkpt>
      <trkpt lat="42.77478" lon="-0.11655">
        <ele>2287</ele>
        <time>2024-08-01T11:47:12.526Z</time>
      </trkpt>
      <trkpt lat="42.77478" lon="-0.11651">
        <ele>2285</ele>
        <time>2024-08-01T11:47:14.664Z</time>
      </trkpt>
      <trkpt lat="42.77475" lon="-0.1165">
        <ele>2284</ele>
        <time>2024-08-01T11:47:16.768Z</time>
      </trkpt>
      <trkpt lat="42.77472" lon="-0.11652">
        <ele>2283</ele>
        <time>2024-08-01T11:47:19.646Z</time>
      </trkpt>
      <trkpt lat="42.77466" lon="-0.11661">
        <ele>2282</ele>
        <time>2024-08-01T11:47:26.235Z</time>
      </trkpt>
      <trkpt lat="42.77461" lon="-0.11671">
        <ele>2282</ele>
        <time>2024-08-01T11:47:34.400Z</time>
      </trkpt>
      <trkpt lat="42.77453" lon="-0.1168">
        <ele>2279</ele>
        <time>2024-08-01T11:47:42.923Z</time>
      </trkpt>
      <trkpt lat="42.77446" lon="-0.11686">
        <ele>2277</ele>
        <time>2024-08-01T11:47:49.316Z</time>
      </trkpt>
      <trkpt lat="42.77433" lon="-0.11701">
        <ele>2272</ele>
        <time>2024-08-01T11:48:02.197Z</time>
      </trkpt>
      <trkpt lat="42.77431" lon="-0.11709">
        <ele>2272</ele>
        <time>2024-08-01T11:48:07.791Z</time>
      </trkpt>
      <trkpt lat="42.77428" lon="-0.11722">
        <ele>2271</ele>
        <time>2024-08-01T11:48:16.033Z</time>
      </trkpt>
      <trkpt lat="42.77429" lon="-0.11727">
        <ele>2272</ele>
        <time>2024-08-01T11:48:25.089Z</time>
      </trkpt>
      <trkpt lat="42.77428" lon="-0.11728">
        <ele>2271</ele>
        <time>2024-08-01T11:48:26.551Z</time>
      </trkpt>
      <trkpt lat="42.77426" lon="-0.11729">
        <ele>2271</ele>
        <time>2024-08-01T11:48:27.947Z</time>
      </trkpt>
      <trkpt lat="42.77426" lon="-0.11727">
        <ele>2270</ele>
        <time>2024-08-01T11:48:29.582Z</time>
      </trkpt>
      <trkpt lat="42.77422" lon="-0.11723">
        <ele>2268</ele>
        <time>2024-08-01T11:48:32.918Z</time>
      </trkpt>
      <trkpt lat="42.77418" lon="-0.11716">
        <ele>2265</ele>
        <time>2024-08-01T11:48:38.102Z</time>
      </trkpt>
      <trkpt lat="42.77414" lon="-0.11705">
        <ele>2262</ele>
        <time>2024-08-01T11:48:45.126Z</time>
      </trkpt>
      <trkpt lat="42.77412" lon="-0.11694">
        <ele>2260</ele>
        <time>2024-08-01T11:48:51.522Z</time>
      </trkpt>
      <trkpt lat="42.77413" lon="-0.11674">
        <ele>2257</ele>
        <time>2024-08-01T11:49:03.522Z</time>
      </trkpt>
      <trkpt lat="42.77413" lon="-0.11667">
        <ele>2256</ele>
        <time>2024-08-01T11:49:07.171Z</time>
      </trkpt>
      <trkpt lat="42.77416" lon="-0.11662">
        <ele>2256</ele>
        <time>2024-08-01T11:49:11.442Z</time>
      </trkpt>
      <trkpt lat="42.77417" lon="-0.11659">
        <ele>2256</ele>
        <time>2024-08-01T11:49:13.579Z</time>
      </trkpt>
      <trkpt lat="42.77414" lon="-0.11658">
        <ele>2255</ele>
        <time>2024-08-01T11:49:15.696Z</time>
      </trkpt>
      <trkpt lat="42.7741" lon="-0.11663">
        <ele>2254</ele>
        <time>2024-08-01T11:49:20.197Z</time>
      </trkpt>
      <trkpt lat="42.77386" lon="-0.11682">
        <ele>2247</ele>
        <time>2024-08-01T11:49:41.868Z</time>
      </trkpt>
      <trkpt lat="42.77381" lon="-0.11687">
        <ele>2245</ele>
        <time>2024-08-01T11:49:47.090Z</time>
      </trkpt>
      <trkpt lat="42.77379" lon="-0.11694">
        <ele>2245</ele>
        <time>2024-08-01T11:49:52.155Z</time>
      </trkpt>
      <trkpt lat="42.77379" lon="-0.11701">
        <ele>2246</ele>
        <time>2024-08-01T11:50:01.106Z</time>
      </trkpt>
      <trkpt lat="42.77377" lon="-0.11701">
        <ele>2245</ele>
        <time>2024-08-01T11:50:02.751Z</time>
      </trkpt>
      <trkpt lat="42.77374" lon="-0.11692">
        <ele>2243</ele>
        <time>2024-08-01T11:50:08.578Z</time>
      </trkpt>
      <trkpt lat="42.77371" lon="-0.1169">
        <ele>2242</ele>
        <time>2024-08-01T11:50:11.158Z</time>
      </trkpt>
      <trkpt lat="42.77368" lon="-0.11686">
        <ele>2240</ele>
        <time>2024-08-01T11:50:14.423Z</time>
      </trkpt>
      <trkpt lat="42.77366" lon="-0.11678">
        <ele>2239</ele>
        <time>2024-08-01T11:50:19.597Z</time>
      </trkpt>
      <trkpt lat="42.77364" lon="-0.11678">
        <ele>2239</ele>
        <time>2024-08-01T11:50:20.769Z</time>
      </trkpt>
      <trkpt lat="42.77362" lon="-0.11686">
        <ele>2238</ele>
        <time>2024-08-01T11:50:25.775Z</time>
      </trkpt>
      <trkpt lat="42.77362" lon="-0.11699">
        <ele>2238</ele>
        <time>2024-08-01T11:50:33.984Z</time>
      </trkpt>
      <trkpt lat="42.77364" lon="-0.1172">
        <ele>2238</ele>
        <time>2024-08-01T11:50:48.396Z</time>
      </trkpt>
      <trkpt lat="42.77367" lon="-0.11731">
        <ele>2238</ele>
        <time>2024-08-01T11:50:55.858Z</time>
      </trkpt>
      <trkpt lat="42.77371" lon="-0.11758">
        <ele>2237</ele>
        <time>2024-08-01T11:51:11.913Z</time>
      </trkpt>
      <trkpt lat="42.77372" lon="-0.11777">
        <ele>2233</ele>
        <time>2024-08-01T11:51:22.875Z</time>
      </trkpt>
      <trkpt lat="42.77371" lon="-0.11789">
        <ele>2230</ele>
        <time>2024-08-01T11:51:29.675Z</time>
      </trkpt>
      <trkpt lat="42.77373" lon="-0.11801">
        <ele>2228</ele>
        <time>2024-08-01T11:51:37.045Z</time>
      </trkpt>
      <trkpt lat="42.77372" lon="-0.11819">
        <ele>2225</ele>
        <time>2024-08-01T11:51:47.483Z</time>
      </trkpt>
      <trkpt lat="42.77373" lon="-0.11822">
        <ele>2225</ele>
        <time>2024-08-01T11:51:49.287Z</time>
      </trkpt>
      <trkpt lat="42.77372" lon="-0.11827">
        <ele>2224</ele>
        <time>2024-08-01T11:51:52.451Z</time>
      </trkpt>
      <trkpt lat="42.77369" lon="-0.11835">
        <ele>2222</ele>
        <time>2024-08-01T11:51:57.551Z</time>
      </trkpt>
      <trkpt lat="42.77368" lon="-0.11846">
        <ele>2220</ele>
        <time>2024-08-01T11:52:04.040Z</time>
      </trkpt>
      <trkpt lat="42.7736" lon="-0.11856">
        <ele>2217</ele>
        <time>2024-08-01T11:52:12.472Z</time>
      </trkpt>
      <trkpt lat="42.77329" lon="-0.11889">
        <ele>2213</ele>
        <time>2024-08-01T11:52:43.255Z</time>
      </trkpt>
      <trkpt lat="42.773" lon="-0.11906">
        <ele>2213</ele>
        <time>2024-08-01T11:53:12.334Z</time>
      </trkpt>
      <trkpt lat="42.77289" lon="-0.11906">
        <ele>2211</ele>
        <time>2024-08-01T11:53:20.620Z</time>
      </trkpt>
      <trkpt lat="42.77284" lon="-0.11909">
        <ele>2211</ele>
        <time>2024-08-01T11:53:25.723Z</time>
      </trkpt>
      <trkpt lat="42.77277" lon="-0.11909">
        <ele>2211</ele>
        <time>2024-08-01T11:53:32.216Z</time>
      </trkpt>
      <trkpt lat="42.77272" lon="-0.11909">
        <ele>2211</ele>
        <time>2024-08-01T11:53:36.455Z</time>
      </trkpt>
      <trkpt lat="42.77268" lon="-0.11907">
        <ele>2210</ele>
        <time>2024-08-01T11:53:39.724Z</time>
      </trkpt>
      <trkpt lat="42.77264" lon="-0.11903">
        <ele>2209</ele>
        <time>2024-08-01T11:53:43.781Z</time>
      </trkpt>
      <trkpt lat="42.77261" lon="-0.11903">
        <ele>2209</ele>
        <time>2024-08-01T11:53:46.757Z</time>
      </trkpt>
      <trkpt lat="42.77255" lon="-0.11912">
        <ele>2212</ele>
        <time>2024-08-01T11:54:15.654Z</time>
      </trkpt>
      <trkpt lat="42.77246" lon="-0.11913">
        <ele>2214</ele>
        <time>2024-08-01T11:54:33.715Z</time>
      </trkpt>
      <trkpt lat="42.77238" lon="-0.11902">
        <ele>2212</ele>
        <time>2024-08-01T11:54:42.177Z</time>
      </trkpt>
      <trkpt lat="42.77233" lon="-0.11891">
        <ele>2209</ele>
        <time>2024-08-01T11:54:49.659Z</time>
      </trkpt>
      <trkpt lat="42.77224" lon="-0.11883">
        <ele>2208</ele>
        <time>2024-08-01T11:54:58.370Z</time>
      </trkpt>
      <trkpt lat="42.77221" lon="-0.11878">
        <ele>2208</ele>
        <time>2024-08-01T11:55:02.645Z</time>
      </trkpt>
      <trkpt lat="42.77217" lon="-0.11875">
        <ele>2208</ele>
        <time>2024-08-01T11:55:06.671Z</time>
      </trkpt>
      <trkpt lat="42.77214" lon="-0.11874">
        <ele>2209</ele>
        <time>2024-08-01T11:55:16.371Z</time>
      </trkpt>
      <trkpt lat="42.7721" lon="-0.1187">
        <ele>2209</ele>
        <time>2024-08-01T11:55:21.123Z</time>
      </trkpt>
      <trkpt lat="42.77206" lon="-0.11867">
        <ele>2209</ele>
        <time>2024-08-01T11:55:25.371Z</time>
      </trkpt>
      <trkpt lat="42.77201" lon="-0.11863">
        <ele>2209</ele>
        <time>2024-08-01T11:55:30.189Z</time>
      </trkpt>
      <trkpt lat="42.77196" lon="-0.11861">
        <ele>2210</ele>
        <time>2024-08-01T11:55:39.551Z</time>
      </trkpt>
      <trkpt lat="42.77194" lon="-0.11857">
        <ele>2209</ele>
        <time>2024-08-01T11:55:42.213Z</time>
      </trkpt>
      <trkpt lat="42.77192" lon="-0.11853">
        <ele>2208</ele>
        <time>2024-08-01T11:55:44.828Z</time>
      </trkpt>
      <trkpt lat="42.77189" lon="-0.11851">
        <ele>2208</ele>
        <time>2024-08-01T11:55:47.777Z</time>
      </trkpt>
      <trkpt lat="42.77188" lon="-0.11851">
        <ele>2208</ele>
        <time>2024-08-01T11:55:48.949Z</time>
      </trkpt>
      <trkpt lat="42.77186" lon="-0.11849">
        <ele>2208</ele>
        <time>2024-08-01T11:55:51.075Z</time>
      </trkpt>
      <trkpt lat="42.77183" lon="-0.11849">
        <ele>2209</ele>
        <time>2024-08-01T11:56:00.183Z</time>
      </trkpt>
      <trkpt lat="42.7718" lon="-0.11847">
        <ele>2210</ele>
        <time>2024-08-01T11:56:09.144Z</time>
      </trkpt>
      <trkpt lat="42.77178" lon="-0.11845">
        <ele>2209</ele>
        <time>2024-08-01T11:56:10.607Z</time>
      </trkpt>
      <trkpt lat="42.77174" lon="-0.11841">
        <ele>2208</ele>
        <time>2024-08-01T11:56:14.700Z</time>
      </trkpt>
      <trkpt lat="42.77172" lon="-0.11835">
        <ele>2205</ele>
        <time>2024-08-01T11:56:18.490Z</time>
      </trkpt>
      <trkpt lat="42.77167" lon="-0.11834">
        <ele>2206</ele>
        <time>2024-08-01T11:56:27.471Z</time>
      </trkpt>
      <trkpt lat="42.77153" lon="-0.11833">
        <ele>2209</ele>
        <time>2024-08-01T11:56:54.488Z</time>
      </trkpt>
      <trkpt lat="42.77146" lon="-0.11833">
        <ele>2211</ele>
        <time>2024-08-01T11:57:12.703Z</time>
      </trkpt>
      <trkpt lat="42.77141" lon="-0.11834">
        <ele>2213</ele>
        <time>2024-08-01T11:57:33.785Z</time>
      </trkpt>
      <trkpt lat="42.77137" lon="-0.11834">
        <ele>2214</ele>
        <time>2024-08-01T11:57:42.730Z</time>
      </trkpt>
      <trkpt lat="42.77132" lon="-0.11834">
        <ele>2215</ele>
        <time>2024-08-01T11:57:51.705Z</time>
      </trkpt>
      <trkpt lat="42.77127" lon="-0.11834">
        <ele>2216</ele>
        <time>2024-08-01T11:58:00.651Z</time>
      </trkpt>
      <trkpt lat="42.77124" lon="-0.11834">
        <ele>2216</ele>
        <time>2024-08-01T11:58:03.686Z</time>
      </trkpt>
      <trkpt lat="42.77121" lon="-0.11832">
        <ele>2215</ele>
        <time>2024-08-01T11:58:06.471Z</time>
      </trkpt>
      <trkpt lat="42.77116" lon="-0.11829">
        <ele>2214</ele>
        <time>2024-08-01T11:58:10.423Z</time>
      </trkpt>
      <trkpt lat="42.77114" lon="-0.11827">
        <ele>2213</ele>
        <time>2024-08-01T11:58:12.283Z</time>
      </trkpt>
      <trkpt lat="42.77111" lon="-0.11824">
        <ele>2211</ele>
        <time>2024-08-01T11:58:15.681Z</time>
      </trkpt>
      <trkpt lat="42.77108" lon="-0.1182">
        <ele>2209</ele>
        <time>2024-08-01T11:58:18.982Z</time>
      </trkpt>
      <trkpt lat="42.77104" lon="-0.11816">
        <ele>2206</ele>
        <time>2024-08-01T11:58:23.053Z</time>
      </trkpt>
      <trkpt lat="42.771" lon="-0.11813">
        <ele>2205</ele>
        <time>2024-08-01T11:58:26.061Z</time>
      </trkpt>
      <trkpt lat="42.77096" lon="-0.11815">
        <ele>2205</ele>
        <time>2024-08-01T11:58:30.359Z</time>
      </trkpt>
      <trkpt lat="42.77092" lon="-0.11817">
        <ele>2206</ele>
        <time>2024-08-01T11:58:39.226Z</time>
      </trkpt>
      <trkpt lat="42.77087" lon="-0.11817">
        <ele>2205</ele>
        <time>2024-08-01T11:58:43.356Z</time>
      </trkpt>
      <trkpt lat="42.77081" lon="-0.11819">
        <ele>2205</ele>
        <time>2024-08-01T11:58:48.911Z</time>
      </trkpt>
      <trkpt lat="42.77078" lon="-0.11819">
        <ele>2205</ele>
        <time>2024-08-01T11:58:51.256Z</time>
      </trkpt>
      <trkpt lat="42.77074" lon="-0.11817">
        <ele>2203</ele>
        <time>2024-08-01T11:58:54.599Z</time>
      </trkpt>
      <trkpt lat="42.77068" lon="-0.11817">
        <ele>2200</ele>
        <time>2024-08-01T11:58:59.255Z</time>
      </trkpt>
      <trkpt lat="42.77066" lon="-0.11819">
        <ele>2200</ele>
        <time>2024-08-01T11:59:01.454Z</time>
      </trkpt>
      <trkpt lat="42.7706" lon="-0.11821">
        <ele>2198</ele>
        <time>2024-08-01T11:59:06.213Z</time>
      </trkpt>
      <trkpt lat="42.77054" lon="-0.11823">
        <ele>2197</ele>
        <time>2024-08-01T11:59:10.997Z</time>
      </trkpt>
      <trkpt lat="42.77048" lon="-0.11823">
        <ele>2193</ele>
        <time>2024-08-01T11:59:16.284Z</time>
      </trkpt>
      <trkpt lat="42.7704" lon="-0.11826">
        <ele>2190</ele>
        <time>2024-08-01T11:59:22.177Z</time>
      </trkpt>
      <trkpt lat="42.77038" lon="-0.11823">
        <ele>2187</ele>
        <time>2024-08-01T11:59:24.399Z</time>
      </trkpt>
      <trkpt lat="42.7704" lon="-0.11822">
        <ele>2188</ele>
        <time>2024-08-01T11:59:34.486Z</time>
      </trkpt>
      <trkpt lat="42.7704" lon="-0.11819">
        <ele>2187</ele>
        <time>2024-08-01T11:59:35.993Z</time>
      </trkpt>
      <trkpt lat="42.77042" lon="-0.11817">
        <ele>2186</ele>
        <time>2024-08-01T11:59:37.863Z</time>
      </trkpt>
      <trkpt lat="42.77046" lon="-0.11814">
        <ele>2188</ele>
        <time>2024-08-01T11:59:59.000Z</time>
      </trkpt>
      <trkpt lat="42.77047" lon="-0.11811">
        <ele>2187</ele>
        <time>2024-08-01T12:00:00.828Z</time>
      </trkpt>
      <trkpt lat="42.77046" lon="-0.11808">
        <ele>2184</ele>
        <time>2024-08-01T12:00:02.706Z</time>
      </trkpt>
      <trkpt lat="42.7704" lon="-0.11808">
        <ele>2181</ele>
        <time>2024-08-01T12:00:07.441Z</time>
      </trkpt>
      <trkpt lat="42.77025" lon="-0.11814">
        <ele>2175</ele>
        <time>2024-08-01T12:00:19.319Z</time>
      </trkpt>
      <trkpt lat="42.77023" lon="-0.11814">
        <ele>2174</ele>
        <time>2024-08-01T12:00:21.371Z</time>
      </trkpt>
      <trkpt lat="42.77021" lon="-0.1181">
        <ele>2171</ele>
        <time>2024-08-01T12:00:23.986Z</time>
      </trkpt>
      <trkpt lat="42.77018" lon="-0.11808">
        <ele>2168</ele>
        <time>2024-08-01T12:00:26.566Z</time>
      </trkpt>
      <trkpt lat="42.77016" lon="-0.11806">
        <ele>2166</ele>
        <time>2024-08-01T12:00:28.490Z</time>
      </trkpt>
      <trkpt lat="42.77014" lon="-0.11806">
        <ele>2165</ele>
        <time>2024-08-01T12:00:30.068Z</time>
      </trkpt>
      <trkpt lat="42.77013" lon="-0.11808">
        <ele>2165</ele>
        <time>2024-08-01T12:00:31.788Z</time>
      </trkpt>
      <trkpt lat="42.77011" lon="-0.11811">
        <ele>2165</ele>
        <time>2024-08-01T12:00:34.777Z</time>
      </trkpt>
      <trkpt lat="42.7701" lon="-0.11817">
        <ele>2167</ele>
        <time>2024-08-01T12:00:55.958Z</time>
      </trkpt>
      <trkpt lat="42.7701" lon="-0.11823">
        <ele>2169</ele>
        <time>2024-08-01T12:01:15.074Z</time>
      </trkpt>
      <trkpt lat="42.77012" lon="-0.11827">
        <ele>2172</ele>
        <time>2024-08-01T12:01:32.817Z</time>
      </trkpt>
      <trkpt lat="42.77016" lon="-0.11833">
        <ele>2176</ele>
        <time>2024-08-01T12:01:59.481Z</time>
      </trkpt>
      <trkpt lat="42.77016" lon="-0.11835">
        <ele>2177</ele>
        <time>2024-08-01T12:02:08.518Z</time>
      </trkpt>
      <trkpt lat="42.77015" lon="-0.11843">
        <ele>2179</ele>
        <time>2024-08-01T12:02:27.127Z</time>
      </trkpt>
      <trkpt lat="42.77013" lon="-0.1185">
        <ele>2180</ele>
        <time>2024-08-01T12:02:36.131Z</time>
      </trkpt>
      <trkpt lat="42.77011" lon="-0.11853">
        <ele>2179</ele>
        <time>2024-08-01T12:02:38.700Z</time>
      </trkpt>
      <trkpt lat="42.77009" lon="-0.11856">
        <ele>2178</ele>
        <time>2024-08-01T12:02:41.280Z</time>
      </trkpt>
      <trkpt lat="42.77005" lon="-0.11859">
        <ele>2175</ele>
        <time>2024-08-01T12:02:44.348Z</time>
      </trkpt>
      <trkpt lat="42.77" lon="-0.11869">
        <ele>2172</ele>
        <time>2024-08-01T12:02:52.100Z</time>
      </trkpt>
      <trkpt lat="42.76998" lon="-0.11878">
        <ele>2172</ele>
        <time>2024-08-01T12:02:57.758Z</time>
      </trkpt>
      <trkpt lat="42.76996" lon="-0.11878">
        <ele>2170</ele>
        <time>2024-08-01T12:02:58.784Z</time>
      </trkpt>
      <trkpt lat="42.76995" lon="-0.11874">
        <ele>2169</ele>
        <time>2024-08-01T12:03:01.108Z</time>
      </trkpt>
      <trkpt lat="42.76996" lon="-0.11871">
        <ele>2169</ele>
        <time>2024-08-01T12:03:02.976Z</time>
      </trkpt>
      <trkpt lat="42.76993" lon="-0.11859">
        <ele>2166</ele>
        <time>2024-08-01T12:03:10.502Z</time>
      </trkpt>
      <trkpt lat="42.76991" lon="-0.11857">
        <ele>2164</ele>
        <time>2024-08-01T12:03:12.362Z</time>
      </trkpt>
      <trkpt lat="42.76989" lon="-0.11852">
        <ele>2162</ele>
        <time>2024-08-01T12:03:15.851Z</time>
      </trkpt>
      <trkpt lat="42.76988" lon="-0.11847">
        <ele>2161</ele>
        <time>2024-08-01T12:03:18.500Z</time>
      </trkpt>
      <trkpt lat="42.76986" lon="-0.11844">
        <ele>2159</ele>
        <time>2024-08-01T12:03:20.763Z</time>
      </trkpt>
      <trkpt lat="42.76988" lon="-0.11842">
        <ele>2159</ele>
        <time>2024-08-01T12:03:22.846Z</time>
      </trkpt>
      <trkpt lat="42.76988" lon="-0.11834">
        <ele>2158</ele>
        <time>2024-08-01T12:03:27.053Z</time>
      </trkpt>
      <trkpt lat="42.76987" lon="-0.11825">
        <ele>2155</ele>
        <time>2024-08-01T12:03:32.879Z</time>
      </trkpt>
      <trkpt lat="42.76987" lon="-0.11815">
        <ele>2153</ele>
        <time>2024-08-01T12:03:38.614Z</time>
      </trkpt>
      <trkpt lat="42.76987" lon="-0.11804">
        <ele>2149</ele>
        <time>2024-08-01T12:03:44.813Z</time>
      </trkpt>
      <trkpt lat="42.76985" lon="-0.1179">
        <ele>2143</ele>
        <time>2024-08-01T12:03:53.303Z</time>
      </trkpt>
      <trkpt lat="42.76984" lon="-0.11784">
        <ele>2141</ele>
        <time>2024-08-01T12:03:56.422Z</time>
      </trkpt>
      <trkpt lat="42.76982" lon="-0.11782">
        <ele>2139</ele>
        <time>2024-08-01T12:03:58.750Z</time>
      </trkpt>
      <trkpt lat="42.76982" lon="-0.11777">
        <ele>2138</ele>
        <time>2024-08-01T12:04:01.927Z</time>
      </trkpt>
      <trkpt lat="42.76981" lon="-0.11773">
        <ele>2136</ele>
        <time>2024-08-01T12:04:04.705Z</time>
      </trkpt>
      <trkpt lat="42.76979" lon="-0.11764">
        <ele>2134</ele>
        <time>2024-08-01T12:04:09.686Z</time>
      </trkpt>
      <trkpt lat="42.76978" lon="-0.11764">
        <ele>2133</ele>
        <time>2024-08-01T12:04:10.884Z</time>
      </trkpt>
      <trkpt lat="42.76975" lon="-0.11768">
        <ele>2133</ele>
        <time>2024-08-01T12:04:14.985Z</time>
      </trkpt>
      <trkpt lat="42.76969" lon="-0.1178">
        <ele>2133</ele>
        <time>2024-08-01T12:04:24.087Z</time>
      </trkpt>
      <trkpt lat="42.76961" lon="-0.11795">
        <ele>2132</ele>
        <time>2024-08-01T12:04:35.250Z</time>
      </trkpt>
      <trkpt lat="42.76958" lon="-0.11796">
        <ele>2131</ele>
        <time>2024-08-01T12:04:37.367Z</time>
      </trkpt>
      <trkpt lat="42.76953" lon="-0.11801">
        <ele>2129</ele>
        <time>2024-08-01T12:04:42.590Z</time>
      </trkpt>
      <trkpt lat="42.76948" lon="-0.11809">
        <ele>2128</ele>
        <time>2024-08-01T12:04:48.525Z</time>
      </trkpt>
      <trkpt lat="42.76939" lon="-0.11832">
        <ele>2124</ele>
        <time>2024-08-01T12:05:03.496Z</time>
      </trkpt>
      <trkpt lat="42.7693" lon="-0.11853">
        <ele>2118</ele>
        <time>2024-08-01T12:05:17.862Z</time>
      </trkpt>
      <trkpt lat="42.76924" lon="-0.11863">
        <ele>2115</ele>
        <time>2024-08-01T12:05:24.960Z</time>
      </trkpt>
      <trkpt lat="42.76922" lon="-0.11865">
        <ele>2114</ele>
        <time>2024-08-01T12:05:26.786Z</time>
      </trkpt>
      <trkpt lat="42.7692" lon="-0.11863">
        <ele>2113</ele>
        <time>2024-08-01T12:05:28.744Z</time>
      </trkpt>
      <trkpt lat="42.76918" lon="-0.11852">
        <ele>2112</ele>
        <time>2024-08-01T12:05:35.122Z</time>
      </trkpt>
      <trkpt lat="42.76914" lon="-0.11839">
        <ele>2109</ele>
        <time>2024-08-01T12:05:43.743Z</time>
      </trkpt>
      <trkpt lat="42.76913" lon="-0.11834">
        <ele>2109</ele>
        <time>2024-08-01T12:05:46.789Z</time>
      </trkpt>
      <trkpt lat="42.76911" lon="-0.11834">
        <ele>2107</ele>
        <time>2024-08-01T12:05:48.288Z</time>
      </trkpt>
      <trkpt lat="42.76909" lon="-0.11839">
        <ele>2106</ele>
        <time>2024-08-01T12:05:51.655Z</time>
      </trkpt>
      <trkpt lat="42.76903" lon="-0.11849">
        <ele>2103</ele>
        <time>2024-08-01T12:05:58.753Z</time>
      </trkpt>
      <trkpt lat="42.76887" lon="-0.1188">
        <ele>2097</ele>
        <time>2024-08-01T12:06:20.806Z</time>
      </trkpt>
      <trkpt lat="42.76876" lon="-0.11893">
        <ele>2095</ele>
        <time>2024-08-01T12:06:32.700Z</time>
      </trkpt>
      <trkpt lat="42.76874" lon="-0.11896">
        <ele>2095</ele>
        <time>2024-08-01T12:06:35.689Z</time>
      </trkpt>
      <trkpt lat="42.76868" lon="-0.11901">
        <ele>2095</ele>
        <time>2024-08-01T12:06:41.287Z</time>
      </trkpt>
      <trkpt lat="42.76862" lon="-0.11902">
        <ele>2095</ele>
        <time>2024-08-01T12:06:46.649Z</time>
      </trkpt>
      <trkpt lat="42.76856" lon="-0.11896">
        <ele>2093</ele>
        <time>2024-08-01T12:06:52.258Z</time>
      </trkpt>
      <trkpt lat="42.76852" lon="-0.11886">
        <ele>2089</ele>
        <time>2024-08-01T12:06:59.481Z</time>
      </trkpt>
      <trkpt lat="42.76816" lon="-0.11858">
        <ele>2079</ele>
        <time>2024-08-01T12:07:32.303Z</time>
      </trkpt>
      <trkpt lat="42.7681" lon="-0.11856">
        <ele>2077</ele>
        <time>2024-08-01T12:07:37.087Z</time>
      </trkpt>
      <trkpt lat="42.76802" lon="-0.11851">
        <ele>2075</ele>
        <time>2024-08-01T12:07:43.643Z</time>
      </trkpt>
      <trkpt lat="42.76788" lon="-0.11851">
        <ele>2074</ele>
        <time>2024-08-01T12:07:54.611Z</time>
      </trkpt>
      <trkpt lat="42.76781" lon="-0.11851">
        <ele>2074</ele>
        <time>2024-08-01T12:08:01.105Z</time>
      </trkpt>
      <trkpt lat="42.76777" lon="-0.1185">
        <ele>2073</ele>
        <time>2024-08-01T12:08:04.295Z</time>
      </trkpt>
      <trkpt lat="42.76785" lon="-0.11836">
        <ele>2070</ele>
        <time>2024-08-01T12:08:14.346Z</time>
      </trkpt>
      <trkpt lat="42.76789" lon="-0.11832">
        <ele>2069</ele>
        <time>2024-08-01T12:08:18.342Z</time>
      </trkpt>
      <trkpt lat="42.76788" lon="-0.11831">
        <ele>2069</ele>
        <time>2024-08-01T12:08:19.689Z</time>
      </trkpt>
      <trkpt lat="42.76779" lon="-0.11828">
        <ele>2068</ele>
        <time>2024-08-01T12:08:26.576Z</time>
      </trkpt>
      <trkpt lat="42.76773" lon="-0.11826">
        <ele>2067</ele>
        <time>2024-08-01T12:08:31.424Z</time>
      </trkpt>
      <trkpt lat="42.76765" lon="-0.11826">
        <ele>2067</ele>
        <time>2024-08-01T12:08:38.569Z</time>
      </trkpt>
      <trkpt lat="42.76761" lon="-0.11824">
        <ele>2067</ele>
        <time>2024-08-01T12:08:42.389Z</time>
      </trkpt>
      <trkpt lat="42.76758" lon="-0.11819">
        <ele>2067</ele>
        <time>2024-08-01T12:08:46.554Z</time>
      </trkpt>
      <trkpt lat="42.76756" lon="-0.11812">
        <ele>2065</ele>
        <time>2024-08-01T12:08:51.068Z</time>
      </trkpt>
      <trkpt lat="42.76754" lon="-0.11808">
        <ele>2064</ele>
        <time>2024-08-01T12:08:54.025Z</time>
      </trkpt>
      <trkpt lat="42.7675" lon="-0.11793">
        <ele>2062</ele>
        <time>2024-08-01T12:09:03.123Z</time>
      </trkpt>
      <trkpt lat="42.7675" lon="-0.11787">
        <ele>2061</ele>
        <time>2024-08-01T12:09:06.803Z</time>
      </trkpt>
      <trkpt lat="42.76736" lon="-0.11755">
        <ele>2061</ele>
        <time>2024-08-01T12:09:31.869Z</time>
      </trkpt>
      <trkpt lat="42.76732" lon="-0.1174">
        <ele>2059</ele>
        <time>2024-08-01T12:09:40.664Z</time>
      </trkpt>
      <trkpt lat="42.76731" lon="-0.11728">
        <ele>2058</ele>
        <time>2024-08-01T12:09:47.920Z</time>
      </trkpt>
      <trkpt lat="42.76727" lon="-0.11714">
        <ele>2057</ele>
        <time>2024-08-01T12:09:56.379Z</time>
      </trkpt>
      <trkpt lat="42.76728" lon="-0.11701">
        <ele>2055</ele>
        <time>2024-08-01T12:10:03.693Z</time>
      </trkpt>
      <trkpt lat="42.76725" lon="-0.11682">
        <ele>2054</ele>
        <time>2024-08-01T12:10:15.399Z</time>
      </trkpt>
      <trkpt lat="42.76723" lon="-0.11676">
        <ele>2054</ele>
        <time>2024-08-01T12:10:19.404Z</time>
      </trkpt>
      <trkpt lat="42.76721" lon="-0.11665">
        <ele>2053</ele>
        <time>2024-08-01T12:10:26.307Z</time>
      </trkpt>
      <trkpt lat="42.7672" lon="-0.11654">
        <ele>2051</ele>
        <time>2024-08-01T12:10:32.639Z</time>
      </trkpt>
      <trkpt lat="42.76723" lon="-0.11643">
        <ele>2047</ele>
        <time>2024-08-01T12:10:39.168Z</time>
      </trkpt>
      <trkpt lat="42.76725" lon="-0.11628">
        <ele>2042</ele>
        <time>2024-08-01T12:10:48.171Z</time>
      </trkpt>
      <trkpt lat="42.76721" lon="-0.11613">
        <ele>2039</ele>
        <time>2024-08-01T12:10:57.580Z</time>
      </trkpt>
      <trkpt lat="42.76711" lon="-0.11583">
        <ele>2032</ele>
        <time>2024-08-01T12:11:16.391Z</time>
      </trkpt>
      <trkpt lat="42.76709" lon="-0.11574">
        <ele>2029</ele>
        <time>2024-08-01T12:11:21.721Z</time>
      </trkpt>
      <trkpt lat="42.76709" lon="-0.11569">
        <ele>2028</ele>
        <time>2024-08-01T12:11:24.897Z</time>
      </trkpt>
      <trkpt lat="42.7671" lon="-0.1157">
        <ele>2028</ele>
        <time>2024-08-01T12:11:26.589Z</time>
      </trkpt>
      <trkpt lat="42.76715" lon="-0.11581">
        <ele>2030</ele>
        <time>2024-08-01T12:11:44.573Z</time>
      </trkpt>
      <trkpt lat="42.76725" lon="-0.11595">
        <ele>2032</ele>
        <time>2024-08-01T12:12:04.927Z</time>
      </trkpt>
      <trkpt lat="42.76721" lon="-0.11565">
        <ele>2025</ele>
        <time>2024-08-01T12:12:22.454Z</time>
      </trkpt>
      <trkpt lat="42.76717" lon="-0.11553">
        <ele>2023</ele>
        <time>2024-08-01T12:12:29.715Z</time>
      </trkpt>
      <trkpt lat="42.76715" lon="-0.11551">
        <ele>2022</ele>
        <time>2024-08-01T12:12:32.295Z</time>
      </trkpt>
      <trkpt lat="42.76711" lon="-0.11552">
        <ele>2023</ele>
        <time>2024-08-01T12:12:41.257Z</time>
      </trkpt>
      <trkpt lat="42.76707" lon="-0.11553">
        <ele>2024</ele>
        <time>2024-08-01T12:12:50.202Z</time>
      </trkpt>
      <trkpt lat="42.76701" lon="-0.11552">
        <ele>2024</ele>
        <time>2024-08-01T12:12:55.019Z</time>
      </trkpt>
      <trkpt lat="42.76693" lon="-0.11549">
        <ele>2025</ele>
        <time>2024-08-01T12:13:06.715Z</time>
      </trkpt>
      <trkpt lat="42.76686" lon="-0.11545">
        <ele>2025</ele>
        <time>2024-08-01T12:13:13.043Z</time>
      </trkpt>
      <trkpt lat="42.7668" lon="-0.11536">
        <ele>2023</ele>
        <time>2024-08-01T12:13:20.412Z</time>
      </trkpt>
      <trkpt lat="42.76677" lon="-0.11526">
        <ele>2021</ele>
        <time>2024-08-01T12:13:26.531Z</time>
      </trkpt>
      <trkpt lat="42.76669" lon="-0.1151">
        <ele>2019</ele>
        <time>2024-08-01T12:13:37.749Z</time>
      </trkpt>
      <trkpt lat="42.76655" lon="-0.11486">
        <ele>2015</ele>
        <time>2024-08-01T12:13:55.890Z</time>
      </trkpt>
      <trkpt lat="42.76647" lon="-0.11476">
        <ele>2013</ele>
        <time>2024-08-01T12:14:03.964Z</time>
      </trkpt>
      <trkpt lat="42.76645" lon="-0.11471">
        <ele>2012</ele>
        <time>2024-08-01T12:14:07.504Z</time>
      </trkpt>
      <trkpt lat="42.76642" lon="-0.11465">
        <ele>2012</ele>
        <time>2024-08-01T12:14:12.098Z</time>
      </trkpt>
      <trkpt lat="42.76634" lon="-0.1146">
        <ele>2012</ele>
        <time>2024-08-01T12:14:20.611Z</time>
      </trkpt>
      <trkpt lat="42.7663" lon="-0.1145">
        <ele>2010</ele>
        <time>2024-08-01T12:14:26.963Z</time>
      </trkpt>
      <trkpt lat="42.76626" lon="-0.11444">
        <ele>2008</ele>
        <time>2024-08-01T12:14:32.111Z</time>
      </trkpt>
      <trkpt lat="42.76615" lon="-0.11428">
        <ele>2007</ele>
        <time>2024-08-01T12:14:44.256Z</time>
      </trkpt>
      <trkpt lat="42.76599" lon="-0.11412">
        <ele>2007</ele>
        <time>2024-08-01T12:15:02.561Z</time>
      </trkpt>
      <trkpt lat="42.76594" lon="-0.11408">
        <ele>2008</ele>
        <time>2024-08-01T12:15:11.963Z</time>
      </trkpt>
      <trkpt lat="42.76591" lon="-0.114">
        <ele>2007</ele>
        <time>2024-08-01T12:15:17.031Z</time>
      </trkpt>
      <trkpt lat="42.76587" lon="-0.11386">
        <ele>2005</ele>
        <time>2024-08-01T12:15:25.519Z</time>
      </trkpt>
      <trkpt lat="42.76583" lon="-0.11378">
        <ele>2005</ele>
        <time>2024-08-01T12:15:32.247Z</time>
      </trkpt>
      <trkpt lat="42.7658" lon="-0.11369">
        <ele>2003</ele>
        <time>2024-08-01T12:15:37.850Z</time>
      </trkpt>
      <trkpt lat="42.76576" lon="-0.11358">
        <ele>2002</ele>
        <time>2024-08-01T12:15:45.033Z</time>
      </trkpt>
      <trkpt lat="42.76568" lon="-0.11351">
        <ele>2003</ele>
        <time>2024-08-01T12:15:56.792Z</time>
      </trkpt>
      <trkpt lat="42.76563" lon="-0.11343">
        <ele>2004</ele>
        <time>2024-08-01T12:16:07.667Z</time>
      </trkpt>
      <trkpt lat="42.76559" lon="-0.11335">
        <ele>2003</ele>
        <time>2024-08-01T12:16:13.328Z</time>
      </trkpt>
      <trkpt lat="42.76558" lon="-0.11329">
        <ele>2002</ele>
        <time>2024-08-01T12:16:16.962Z</time>
      </trkpt>
      <trkpt lat="42.76558" lon="-0.11322">
        <ele>2000</ele>
        <time>2024-08-01T12:16:21.133Z</time>
      </trkpt>
      <trkpt lat="42.7656" lon="-0.1132">
        <ele>1999</ele>
        <time>2024-08-01T12:16:22.652Z</time>
      </trkpt>
      <trkpt lat="42.76561" lon="-0.11323">
        <ele>1999</ele>
        <time>2024-08-01T12:16:25.210Z</time>
      </trkpt>
      <trkpt lat="42.76565" lon="-0.1133">
        <ele>2000</ele>
        <time>2024-08-01T12:16:34.848Z</time>
      </trkpt>
      <trkpt lat="42.76568" lon="-0.11333">
        <ele>1999</ele>
        <time>2024-08-01T12:16:38.184Z</time>
      </trkpt>
      <trkpt lat="42.76576" lon="-0.11334">
        <ele>1997</ele>
        <time>2024-08-01T12:16:44.445Z</time>
      </trkpt>
      <trkpt lat="42.76572" lon="-0.11323">
        <ele>1996</ele>
        <time>2024-08-01T12:16:51.470Z</time>
      </trkpt>
      <trkpt lat="42.76571" lon="-0.11315">
        <ele>1995</ele>
        <time>2024-08-01T12:16:56.234Z</time>
      </trkpt>
      <trkpt lat="42.76569" lon="-0.11307">
        <ele>1994</ele>
        <time>2024-08-01T12:17:01.185Z</time>
      </trkpt>
      <trkpt lat="42.76566" lon="-0.11291">
        <ele>1992</ele>
        <time>2024-08-01T12:17:10.904Z</time>
      </trkpt>
      <trkpt lat="42.76566" lon="-0.11283">
        <ele>1992</ele>
        <time>2024-08-01T12:17:16.294Z</time>
      </trkpt>
      <trkpt lat="42.76568" lon="-0.11274">
        <ele>1991</ele>
        <time>2024-08-01T12:17:21.567Z</time>
      </trkpt>
      <trkpt lat="42.76566" lon="-0.1127">
        <ele>1991</ele>
        <time>2024-08-01T12:17:24.323Z</time>
      </trkpt>
      <trkpt lat="42.76566" lon="-0.11264">
        <ele>1991</ele>
        <time>2024-08-01T12:17:28.529Z</time>
      </trkpt>
      <trkpt lat="42.7656" lon="-0.11258">
        <ele>1992</ele>
        <time>2024-08-01T12:17:38.769Z</time>
      </trkpt>
      <trkpt lat="42.76557" lon="-0.11256">
        <ele>1991</ele>
        <time>2024-08-01T12:17:41.554Z</time>
      </trkpt>
      <trkpt lat="42.76546" lon="-0.11254">
        <ele>1990</ele>
        <time>2024-08-01T12:17:49.983Z</time>
      </trkpt>
      <trkpt lat="42.76531" lon="-0.11256">
        <ele>1988</ele>
        <time>2024-08-01T12:18:02.495Z</time>
      </trkpt>
      <trkpt lat="42.76514" lon="-0.11246">
        <ele>1984</ele>
        <time>2024-08-01T12:18:16.723Z</time>
      </trkpt>
      <trkpt lat="42.7651" lon="-0.11243">
        <ele>1982</ele>
        <time>2024-08-01T12:18:20.676Z</time>
      </trkpt>
      <trkpt lat="42.76504" lon="-0.11246">
        <ele>1982</ele>
        <time>2024-08-01T12:18:26.289Z</time>
      </trkpt>
      <trkpt lat="42.76496" lon="-0.11249">
        <ele>1981</ele>
        <time>2024-08-01T12:18:32.167Z</time>
      </trkpt>
      <trkpt lat="42.7649" lon="-0.11249">
        <ele>1979</ele>
        <time>2024-08-01T12:18:36.902Z</time>
      </trkpt>
      <trkpt lat="42.76485" lon="-0.11249">
        <ele>1978</ele>
        <time>2024-08-01T12:18:41.084Z</time>
      </trkpt>
      <trkpt lat="42.76481" lon="-0.11252">
        <ele>1978</ele>
        <time>2024-08-01T12:18:45.655Z</time>
      </trkpt>
      <trkpt lat="42.76474" lon="-0.11252">
        <ele>1976</ele>
        <time>2024-08-01T12:18:50.864Z</time>
      </trkpt>
      <trkpt lat="42.76468" lon="-0.11253">
        <ele>1975</ele>
        <time>2024-08-01T12:18:55.623Z</time>
      </trkpt>
      <trkpt lat="42.76462" lon="-0.11256">
        <ele>1973</ele>
        <time>2024-08-01T12:19:00.609Z</time>
      </trkpt>
      <trkpt lat="42.76459" lon="-0.11255">
        <ele>1972</ele>
        <time>2024-08-01T12:19:03.265Z</time>
      </trkpt>
      <trkpt lat="42.76448" lon="-0.11255">
        <ele>1967</ele>
        <time>2024-08-01T12:19:12.103Z</time>
      </trkpt>
      <trkpt lat="42.76444" lon="-0.1126">
        <ele>1968</ele>
        <time>2024-08-01T12:19:21.055Z</time>
      </trkpt>
      <trkpt lat="42.76433" lon="-0.11286">
        <ele>1980</ele>
        <time>2024-08-01T12:21:05.842Z</time>
      </trkpt>
      <trkpt lat="42.7643" lon="-0.11289">
        <ele>1982</ele>
        <time>2024-08-01T12:21:23.396Z</time>
      </trkpt>
      <trkpt lat="42.76424" lon="-0.11294">
        <ele>1982</ele>
        <time>2024-08-01T12:21:29.573Z</time>
      </trkpt>
      <trkpt lat="42.76418" lon="-0.11295">
        <ele>1981</ele>
        <time>2024-08-01T12:21:34.807Z</time>
      </trkpt>
      <trkpt lat="42.76413" lon="-0.11297">
        <ele>1982</ele>
        <time>2024-08-01T12:21:43.876Z</time>
      </trkpt>
      <trkpt lat="42.76407" lon="-0.11298">
        <ele>1981</ele>
        <time>2024-08-01T12:21:48.561Z</time>
      </trkpt>
      <trkpt lat="42.76406" lon="-0.113">
        <ele>1981</ele>
        <time>2024-08-01T12:21:50.233Z</time>
      </trkpt>
      <trkpt lat="42.76405" lon="-0.11301">
        <ele>1982</ele>
        <time>2024-08-01T12:21:54.790Z</time>
      </trkpt>
      <trkpt lat="42.76403" lon="-0.11301">
        <ele>1981</ele>
        <time>2024-08-01T12:21:56.369Z</time>
      </trkpt>
      <trkpt lat="42.76404" lon="-0.11298">
        <ele>1980</ele>
        <time>2024-08-01T12:21:58.028Z</time>
      </trkpt>
      <trkpt lat="42.76405" lon="-0.11295">
        <ele>1978</ele>
        <time>2024-08-01T12:22:00.352Z</time>
      </trkpt>
      <trkpt lat="42.76405" lon="-0.11291">
        <ele>1975</ele>
        <time>2024-08-01T12:22:02.438Z</time>
      </trkpt>
      <trkpt lat="42.76408" lon="-0.11287">
        <ele>1973</ele>
        <time>2024-08-01T12:22:05.760Z</time>
      </trkpt>
      <trkpt lat="42.76407" lon="-0.11283">
        <ele>1970</ele>
        <time>2024-08-01T12:22:07.973Z</time>
      </trkpt>
      <trkpt lat="42.76409" lon="-0.1128">
        <ele>1969</ele>
        <time>2024-08-01T12:22:09.796Z</time>
      </trkpt>
      <trkpt lat="42.76411" lon="-0.11278">
        <ele>1967</ele>
        <time>2024-08-01T12:22:12.018Z</time>
      </trkpt>
      <trkpt lat="42.76411" lon="-0.11273">
        <ele>1964</ele>
        <time>2024-08-01T12:22:14.683Z</time>
      </trkpt>
      <trkpt lat="42.76412" lon="-0.11272">
        <ele>1964</ele>
        <time>2024-08-01T12:22:15.970Z</time>
      </trkpt>
      <trkpt lat="42.76413" lon="-0.11269">
        <ele>1962</ele>
        <time>2024-08-01T12:22:18.294Z</time>
      </trkpt>
      <trkpt lat="42.76414" lon="-0.11265">
        <ele>1960</ele>
        <time>2024-08-01T12:22:20.451Z</time>
      </trkpt>
      <trkpt lat="42.76416" lon="-0.1126">
        <ele>1957</ele>
        <time>2024-08-01T12:22:23.549Z</time>
      </trkpt>
      <trkpt lat="42.76414" lon="-0.11258">
        <ele>1955</ele>
        <time>2024-08-01T12:22:25.771Z</time>
      </trkpt>
      <trkpt lat="42.76392" lon="-0.1126">
        <ele>1952</ele>
        <time>2024-08-01T12:22:43.482Z</time>
      </trkpt>
      <trkpt lat="42.76388" lon="-0.11256">
        <ele>1949</ele>
        <time>2024-08-01T12:22:47.265Z</time>
      </trkpt>
      <trkpt lat="42.76401" lon="-0.11228">
        <ele>1936</ele>
        <time>2024-08-01T12:23:06.494Z</time>
      </trkpt>
      <trkpt lat="42.76408" lon="-0.11216">
        <ele>1932</ele>
        <time>2024-08-01T12:23:15.390Z</time>
      </trkpt>
      <trkpt lat="42.764" lon="-0.11214">
        <ele>1930</ele>
        <time>2024-08-01T12:23:21.817Z</time>
      </trkpt>
      <trkpt lat="42.7639" lon="-0.11204">
        <ele>1925</ele>
        <time>2024-08-01T12:23:31.894Z</time>
      </trkpt>
      <trkpt lat="42.76382" lon="-0.11201">
        <ele>1923</ele>
        <time>2024-08-01T12:23:37.895Z</time>
      </trkpt>
      <trkpt lat="42.7638" lon="-0.11198">
        <ele>1922</ele>
        <time>2024-08-01T12:23:40.371Z</time>
      </trkpt>
      <trkpt lat="42.76377" lon="-0.11194">
        <ele>1920</ele>
        <time>2024-08-01T12:23:43.805Z</time>
      </trkpt>
      <trkpt lat="42.76376" lon="-0.11185">
        <ele>1917</ele>
        <time>2024-08-01T12:23:49.040Z</time>
      </trkpt>
      <trkpt lat="42.76374" lon="-0.11172">
        <ele>1912</ele>
        <time>2024-08-01T12:23:56.509Z</time>
      </trkpt>
      <trkpt lat="42.76371" lon="-0.11167">
        <ele>1910</ele>
        <time>2024-08-01T12:24:00.535Z</time>
      </trkpt>
      <trkpt lat="42.7636" lon="-0.11165">
        <ele>1912</ele>
        <time>2024-08-01T12:24:19.271Z</time>
      </trkpt>
      <trkpt lat="42.76353" lon="-0.11165">
        <ele>1913</ele>
        <time>2024-08-01T12:24:29.216Z</time>
      </trkpt>
      <trkpt lat="42.76349" lon="-0.11167">
        <ele>1914</ele>
        <time>2024-08-01T12:24:38.211Z</time>
      </trkpt>
      <trkpt lat="42.76346" lon="-0.11166">
        <ele>1915</ele>
        <time>2024-08-01T12:24:47.882Z</time>
      </trkpt>
      <trkpt lat="42.76346" lon="-0.11159">
        <ele>1913</ele>
        <time>2024-08-01T12:24:51.995Z</time>
      </trkpt>
      <trkpt lat="42.76345" lon="-0.11151">
        <ele>1911</ele>
        <time>2024-08-01T12:24:56.769Z</time>
      </trkpt>
      <trkpt lat="42.76347" lon="-0.11141">
        <ele>1908</ele>
        <time>2024-08-01T12:25:02.482Z</time>
      </trkpt>
      <trkpt lat="42.7635" lon="-0.11115">
        <ele>1901</ele>
        <time>2024-08-01T12:25:17.883Z</time>
      </trkpt>
      <trkpt lat="42.76347" lon="-0.11104">
        <ele>1899</ele>
        <time>2024-08-01T12:25:24.413Z</time>
      </trkpt>
      <trkpt lat="42.76341" lon="-0.11094">
        <ele>1898</ele>
        <time>2024-08-01T12:25:31.850Z</time>
      </trkpt>
      <trkpt lat="42.7634" lon="-0.11086">
        <ele>1896</ele>
        <time>2024-08-01T12:25:36.654Z</time>
      </trkpt>
      <trkpt lat="42.7633" lon="-0.11063">
        <ele>1893</ele>
        <time>2024-08-01T12:25:52.493Z</time>
      </trkpt>
      <trkpt lat="42.76328" lon="-0.11048">
        <ele>1889</ele>
        <time>2024-08-01T12:26:00.983Z</time>
      </trkpt>
      <trkpt lat="42.76325" lon="-0.1104">
        <ele>1887</ele>
        <time>2024-08-01T12:26:06.190Z</time>
      </trkpt>
      <trkpt lat="42.7632" lon="-0.11037">
        <ele>1887</ele>
        <time>2024-08-01T12:26:10.831Z</time>
      </trkpt>
      <trkpt lat="42.76313" lon="-0.11025">
        <ele>1887</ele>
        <time>2024-08-01T12:26:20.997Z</time>
      </trkpt>
      <trkpt lat="42.7631" lon="-0.11004">
        <ele>1883</ele>
        <time>2024-08-01T12:26:33.235Z</time>
      </trkpt>
      <trkpt lat="42.76306" lon="-0.10994">
        <ele>1881</ele>
        <time>2024-08-01T12:26:40.156Z</time>
      </trkpt>
      <trkpt lat="42.76303" lon="-0.10987">
        <ele>1881</ele>
        <time>2024-08-01T12:26:45.280Z</time>
      </trkpt>
      <trkpt lat="42.76297" lon="-0.10977">
        <ele>1881</ele>
        <time>2024-08-01T12:26:54.584Z</time>
      </trkpt>
      <trkpt lat="42.76296" lon="-0.10968">
        <ele>1879</ele>
        <time>2024-08-01T12:26:59.762Z</time>
      </trkpt>
      <trkpt lat="42.76299" lon="-0.10953">
        <ele>1876</ele>
        <time>2024-08-01T12:27:08.353Z</time>
      </trkpt>
      <trkpt lat="42.76297" lon="-0.10947">
        <ele>1875</ele>
        <time>2024-08-01T12:27:12.167Z</time>
      </trkpt>
      <trkpt lat="42.76298" lon="-0.10942">
        <ele>1874</ele>
        <time>2024-08-01T12:27:15.344Z</time>
      </trkpt>
      <trkpt lat="42.76295" lon="-0.10933">
        <ele>1873</ele>
        <time>2024-08-01T12:27:20.465Z</time>
      </trkpt>
      <trkpt lat="42.76294" lon="-0.10932">
        <ele>1873</ele>
        <time>2024-08-01T12:27:22.202Z</time>
      </trkpt>
      <trkpt lat="42.76295" lon="-0.10928">
        <ele>1872</ele>
        <time>2024-08-01T12:27:24.562Z</time>
      </trkpt>
      <trkpt lat="42.76294" lon="-0.10924">
        <ele>1872</ele>
        <time>2024-08-01T12:27:27.737Z</time>
      </trkpt>
      <trkpt lat="42.76294" lon="-0.10921">
        <ele>1871</ele>
        <time>2024-08-01T12:27:29.301Z</time>
      </trkpt>
      <trkpt lat="42.76294" lon="-0.10916">
        <ele>1871</ele>
        <time>2024-08-01T12:27:32.347Z</time>
      </trkpt>
      <trkpt lat="42.76294" lon="-0.10914">
        <ele>1871</ele>
        <time>2024-08-01T12:27:34.135Z</time>
      </trkpt>
      <trkpt lat="42.76294" lon="-0.10906">
        <ele>1870</ele>
        <time>2024-08-01T12:27:38.770Z</time>
      </trkpt>
      <trkpt lat="42.76295" lon="-0.10904">
        <ele>1870</ele>
        <time>2024-08-01T12:27:40.552Z</time>
      </trkpt>
      <trkpt lat="42.76292" lon="-0.109">
        <ele>1870</ele>
        <time>2024-08-01T12:27:44.365Z</time>
      </trkpt>
      <trkpt lat="42.7629" lon="-0.10897">
        <ele>1870</ele>
        <time>2024-08-01T12:27:47.302Z</time>
      </trkpt>
      <trkpt lat="42.76287" lon="-0.10895">
        <ele>1869</ele>
        <time>2024-08-01T12:27:49.630Z</time>
      </trkpt>
      <trkpt lat="42.76284" lon="-0.10892">
        <ele>1869</ele>
        <time>2024-08-01T12:27:53.102Z</time>
      </trkpt>
      <trkpt lat="42.76282" lon="-0.10891">
        <ele>1869</ele>
        <time>2024-08-01T12:27:55.001Z</time>
      </trkpt>
      <trkpt lat="42.7628" lon="-0.10888">
        <ele>1869</ele>
        <time>2024-08-01T12:27:57.938Z</time>
      </trkpt>
      <trkpt lat="42.76277" lon="-0.10884">
        <ele>1869</ele>
        <time>2024-08-01T12:28:01.751Z</time>
      </trkpt>
      <trkpt lat="42.76273" lon="-0.10879">
        <ele>1868</ele>
        <time>2024-08-01T12:28:05.882Z</time>
      </trkpt>
      <trkpt lat="42.76269" lon="-0.10879">
        <ele>1869</ele>
        <time>2024-08-01T12:28:14.953Z</time>
      </trkpt>
      <trkpt lat="42.76266" lon="-0.10875">
        <ele>1869</ele>
        <time>2024-08-01T12:28:19.202Z</time>
      </trkpt>
      <trkpt lat="42.7626" lon="-0.10871">
        <ele>1868</ele>
        <time>2024-08-01T12:28:24.538Z</time>
      </trkpt>
      <trkpt lat="42.76258" lon="-0.10867">
        <ele>1868</ele>
        <time>2024-08-01T12:28:27.178Z</time>
      </trkpt>
      <trkpt lat="42.76253" lon="-0.10862">
        <ele>1868</ele>
        <time>2024-08-01T12:28:33.187Z</time>
      </trkpt>
      <trkpt lat="42.76255" lon="-0.10854">
        <ele>1867</ele>
        <time>2024-08-01T12:28:37.621Z</time>
      </trkpt>
      <trkpt lat="42.76262" lon="-0.10833">
        <ele>1866</ele>
        <time>2024-08-01T12:28:51.365Z</time>
      </trkpt>
      <trkpt lat="42.76264" lon="-0.10827">
        <ele>1865</ele>
        <time>2024-08-01T12:28:55.342Z</time>
      </trkpt>
      <trkpt lat="42.76264" lon="-0.1082">
        <ele>1865</ele>
        <time>2024-08-01T12:28:59.560Z</time>
      </trkpt>
      <trkpt lat="42.76262" lon="-0.10818">
        <ele>1865</ele>
        <time>2024-08-01T12:29:01.698Z</time>
      </trkpt>
      <trkpt lat="42.76256" lon="-0.1081">
        <ele>1865</ele>
        <time>2024-08-01T12:29:09.283Z</time>
      </trkpt>
      <trkpt lat="42.76255" lon="-0.10808">
        <ele>1865</ele>
        <time>2024-08-01T12:29:11.151Z</time>
      </trkpt>
      <trkpt lat="42.76253" lon="-0.10801">
        <ele>1864</ele>
        <time>2024-08-01T12:29:15.639Z</time>
      </trkpt>
      <trkpt lat="42.76247" lon="-0.10783">
        <ele>1864</ele>
        <time>2024-08-01T12:29:28.692Z</time>
      </trkpt>
      <trkpt lat="42.7624" lon="-0.10759">
        <ele>1863</ele>
        <time>2024-08-01T12:29:43.391Z</time>
      </trkpt>
      <trkpt lat="42.76231" lon="-0.10749">
        <ele>1863</ele>
        <time>2024-08-01T12:29:53.546Z</time>
      </trkpt>
      <trkpt lat="42.76228" lon="-0.10743">
        <ele>1863</ele>
        <time>2024-08-01T12:29:58.670Z</time>
      </trkpt>
      <trkpt lat="42.76225" lon="-0.10735">
        <ele>1862</ele>
        <time>2024-08-01T12:30:03.772Z</time>
      </trkpt>
      <trkpt lat="42.76223" lon="-0.10728">
        <ele>1862</ele>
        <time>2024-08-01T12:30:09.144Z</time>
      </trkpt>
      <trkpt lat="42.76217" lon="-0.10706">
        <ele>1862</ele>
        <time>2024-08-01T12:30:24.098Z</time>
      </trkpt>
      <trkpt lat="42.76217" lon="-0.10696">
        <ele>1862</ele>
        <time>2024-08-01T12:30:30.741Z</time>
      </trkpt>
      <trkpt lat="42.76215" lon="-0.10685">
        <ele>1863</ele>
        <time>2024-08-01T12:30:42.154Z</time>
      </trkpt>
      <trkpt lat="42.76213" lon="-0.10673">
        <ele>1864</ele>
        <time>2024-08-01T12:30:53.727Z</time>
      </trkpt>
      <trkpt lat="42.7621" lon="-0.10665">
        <ele>1863</ele>
        <time>2024-08-01T12:30:59.043Z</time>
      </trkpt>
      <trkpt lat="42.76204" lon="-0.10656">
        <ele>1862</ele>
        <time>2024-08-01T12:31:06.086Z</time>
      </trkpt>
      <trkpt lat="42.7619" lon="-0.10636">
        <ele>1861</ele>
        <time>2024-08-01T12:31:22.330Z</time>
      </trkpt>
      <trkpt lat="42.76163" lon="-0.10577">
        <ele>1857</ele>
        <time>2024-08-01T12:32:02.708Z</time>
      </trkpt>
      <trkpt lat="42.76156" lon="-0.10565">
        <ele>1856</ele>
        <time>2024-08-01T12:32:11.256Z</time>
      </trkpt>
      <trkpt lat="42.76148" lon="-0.10549">
        <ele>1855</ele>
        <time>2024-08-01T12:32:22.524Z</time>
      </trkpt>
      <trkpt lat="42.7614" lon="-0.1053">
        <ele>1854</ele>
        <time>2024-08-01T12:32:35.357Z</time>
      </trkpt>
      <trkpt lat="42.76138" lon="-0.10523">
        <ele>1854</ele>
        <time>2024-08-01T12:32:40.516Z</time>
      </trkpt>
      <trkpt lat="42.76128" lon="-0.10479">
        <ele>1853</ele>
        <time>2024-08-01T12:33:08.139Z</time>
      </trkpt>
      <trkpt lat="42.76124" lon="-0.10462">
        <ele>1853</ele>
        <time>2024-08-01T12:33:20.022Z</time>
      </trkpt>
      <trkpt lat="42.76118" lon="-0.10446">
        <ele>1852</ele>
        <time>2024-08-01T12:33:30.499Z</time>
      </trkpt>
      <trkpt lat="42.76113" lon="-0.10425">
        <ele>1851</ele>
        <time>2024-08-01T12:33:43.364Z</time>
      </trkpt>
      <trkpt lat="42.76109" lon="-0.10412">
        <ele>1851</ele>
        <time>2024-08-01T12:33:52.723Z</time>
      </trkpt>
      <trkpt lat="42.76107" lon="-0.10403">
        <ele>1851</ele>
        <time>2024-08-01T12:33:59.127Z</time>
      </trkpt>
      <trkpt lat="42.76103" lon="-0.10397">
        <ele>1850</ele>
        <time>2024-08-01T12:34:03.242Z</time>
      </trkpt>
      <trkpt lat="42.76096" lon="-0.10389">
        <ele>1850</ele>
        <time>2024-08-01T12:34:11.692Z</time>
      </trkpt>
      <trkpt lat="42.76089" lon="-0.10376">
        <ele>1850</ele>
        <time>2024-08-01T12:34:21.941Z</time>
      </trkpt>
      <trkpt lat="42.76084" lon="-0.10362">
        <ele>1849</ele>
        <time>2024-08-01T12:34:31.274Z</time>
      </trkpt>
      <trkpt lat="42.76077" lon="-0.10341">
        <ele>1848</ele>
        <time>2024-08-01T12:34:44.492Z</time>
      </trkpt>
      <trkpt lat="42.76072" lon="-0.10328">
        <ele>1848</ele>
        <time>2024-08-01T12:34:54.570Z</time>
      </trkpt>
      <trkpt lat="42.76066" lon="-0.10316">
        <ele>1848</ele>
        <time>2024-08-01T12:35:03.673Z</time>
      </trkpt>
      <trkpt lat="42.76063" lon="-0.10309">
        <ele>1848</ele>
        <time>2024-08-01T12:35:09.294Z</time>
      </trkpt>
      <trkpt lat="42.76056" lon="-0.10294">
        <ele>1847</ele>
        <time>2024-08-01T12:35:19.865Z</time>
      </trkpt>
      <trkpt lat="42.76047" lon="-0.10276">
        <ele>1847</ele>
        <time>2024-08-01T12:35:34.388Z</time>
      </trkpt>
      <trkpt lat="42.76041" lon="-0.10268">
        <ele>1847</ele>
        <time>2024-08-01T12:35:41.896Z</time>
      </trkpt>
      <trkpt lat="42.76035" lon="-0.10259">
        <ele>1847</ele>
        <time>2024-08-01T12:35:49.535Z</time>
      </trkpt>
      <trkpt lat="42.76027" lon="-0.10248">
        <ele>1846</ele>
        <time>2024-08-01T12:35:58.409Z</time>
      </trkpt>
      <trkpt lat="42.76022" lon="-0.10241">
        <ele>1846</ele>
        <time>2024-08-01T12:36:05.510Z</time>
      </trkpt>
      <trkpt lat="42.76011" lon="-0.10225">
        <ele>1845</ele>
        <time>2024-08-01T12:36:18.082Z</time>
      </trkpt>
      <trkpt lat="42.76004" lon="-0.10212">
        <ele>1845</ele>
        <time>2024-08-01T12:36:28.658Z</time>
      </trkpt>
      <trkpt lat="42.76002" lon="-0.10209">
        <ele>1844</ele>
        <time>2024-08-01T12:36:31.227Z</time>
      </trkpt>
      <trkpt lat="42.75994" lon="-0.10194">
        <ele>1844</ele>
        <time>2024-08-01T12:36:43.130Z</time>
      </trkpt>
      <trkpt lat="42.75986" lon="-0.10184">
        <ele>1844</ele>
        <time>2024-08-01T12:36:52.811Z</time>
      </trkpt>
      <trkpt lat="42.75969" lon="-0.10167">
        <ele>1843</ele>
        <time>2024-08-01T12:37:09.582Z</time>
      </trkpt>
      <trkpt lat="42.75966" lon="-0.10165">
        <ele>1843</ele>
        <time>2024-08-01T12:37:12.243Z</time>
      </trkpt>
      <trkpt lat="42.75963" lon="-0.1016">
        <ele>1843</ele>
        <time>2024-08-01T12:37:16.569Z</time>
      </trkpt>
      <trkpt lat="42.75963" lon="-0.10156">
        <ele>1843</ele>
        <time>2024-08-01T12:37:19.532Z</time>
      </trkpt>
      <trkpt lat="42.75962" lon="-0.10152">
        <ele>1843</ele>
        <time>2024-08-01T12:37:22.188Z</time>
      </trkpt>
      <trkpt lat="42.75956" lon="-0.10147">
        <ele>1843</ele>
        <time>2024-08-01T12:37:27.856Z</time>
      </trkpt>
      <trkpt lat="42.75954" lon="-0.10141">
        <ele>1842</ele>
        <time>2024-08-01T12:37:32.083Z</time>
      </trkpt>
      <trkpt lat="42.75952" lon="-0.10136">
        <ele>1842</ele>
        <time>2024-08-01T12:37:36.029Z</time>
      </trkpt>
      <trkpt lat="42.75948" lon="-0.10129">
        <ele>1842</ele>
        <time>2024-08-01T12:37:41.593Z</time>
      </trkpt>
      <trkpt lat="42.75944" lon="-0.10118">
        <ele>1841</ele>
        <time>2024-08-01T12:37:48.618Z</time>
      </trkpt>
      <trkpt lat="42.75944" lon="-0.10109">
        <ele>1841</ele>
        <time>2024-08-01T12:37:54.611Z</time>
      </trkpt>
      <trkpt lat="42.75942" lon="-0.10104">
        <ele>1841</ele>
        <time>2024-08-01T12:37:57.751Z</time>
      </trkpt>
      <trkpt lat="42.75943" lon="-0.10098">
        <ele>1841</ele>
        <time>2024-08-01T12:38:01.971Z</time>
      </trkpt>
      <trkpt lat="42.75941" lon="-0.10086">
        <ele>1841</ele>
        <time>2024-08-01T12:38:09.925Z</time>
      </trkpt>
      <trkpt lat="42.7594" lon="-0.10075">
        <ele>1841</ele>
        <time>2024-08-01T12:38:17.698Z</time>
      </trkpt>
      <trkpt lat="42.75939" lon="-0.10054">
        <ele>1841</ele>
        <time>2024-08-01T12:38:31.381Z</time>
      </trkpt>
      <trkpt lat="42.75936" lon="-0.1003">
        <ele>1841</ele>
        <time>2024-08-01T12:38:47.655Z</time>
      </trkpt>
      <trkpt lat="42.75936" lon="-0.10023">
        <ele>1841</ele>
        <time>2024-08-01T12:38:52.464Z</time>
      </trkpt>
      <trkpt lat="42.75934" lon="-0.10019">
        <ele>1841</ele>
        <time>2024-08-01T12:38:55.400Z</time>
      </trkpt>
      <trkpt lat="42.75934" lon="-0.10014">
        <ele>1841</ele>
        <time>2024-08-01T12:38:58.380Z</time>
      </trkpt>
      <trkpt lat="42.75925" lon="-0.1">
        <ele>1839</ele>
        <time>2024-08-01T12:39:09.448Z</time>
      </trkpt>
      <trkpt lat="42.75921" lon="-0.09991">
        <ele>1839</ele>
        <time>2024-08-01T12:39:16.414Z</time>
      </trkpt>
      <trkpt lat="42.75917" lon="-0.09959">
        <ele>1840</ele>
        <time>2024-08-01T12:39:41.134Z</time>
      </trkpt>
      <trkpt lat="42.75918" lon="-0.09953">
        <ele>1840</ele>
        <time>2024-08-01T12:39:44.960Z</time>
      </trkpt>
      <trkpt lat="42.75916" lon="-0.09948">
        <ele>1840</ele>
        <time>2024-08-01T12:39:48.965Z</time>
      </trkpt>
      <trkpt lat="42.75912" lon="-0.09941">
        <ele>1840</ele>
        <time>2024-08-01T12:39:54.837Z</time>
      </trkpt>
      <trkpt lat="42.75911" lon="-0.09933">
        <ele>1840</ele>
        <time>2024-08-01T12:40:00.391Z</time>
      </trkpt>
      <trkpt lat="42.75909" lon="-0.09927">
        <ele>1840</ele>
        <time>2024-08-01T12:40:04.337Z</time>
      </trkpt>
      <trkpt lat="42.75908" lon="-0.09921">
        <ele>1840</ele>
        <time>2024-08-01T12:40:08.556Z</time>
      </trkpt>
      <trkpt lat="42.75907" lon="-0.09917">
        <ele>1841</ele>
        <time>2024-08-01T12:40:18.216Z</time>
      </trkpt>
      <trkpt lat="42.75904" lon="-0.09914">
        <ele>1840</ele>
        <time>2024-08-01T12:40:21.455Z</time>
      </trkpt>
      <trkpt lat="42.75903" lon="-0.09909">
        <ele>1840</ele>
        <time>2024-08-01T12:40:25.155Z</time>
      </trkpt>
      <trkpt lat="42.75901" lon="-0.09902">
        <ele>1840</ele>
        <time>2024-08-01T12:40:29.700Z</time>
      </trkpt>
      <trkpt lat="42.75897" lon="-0.09895">
        <ele>1840</ele>
        <time>2024-08-01T12:40:35.731Z</time>
      </trkpt>
      <trkpt lat="42.75893" lon="-0.09887">
        <ele>1841</ele>
        <time>2024-08-01T12:40:45.983Z</time>
      </trkpt>
      <trkpt lat="42.75886" lon="-0.09876">
        <ele>1841</ele>
        <time>2024-08-01T12:40:55.338Z</time>
      </trkpt>
      <trkpt lat="42.75886" lon="-0.09867">
        <ele>1842</ele>
        <time>2024-08-01T12:41:05.313Z</time>
      </trkpt>
      <trkpt lat="42.75878" lon="-0.09844">
        <ele>1844</ele>
        <time>2024-08-01T12:41:29.188Z</time>
      </trkpt>
      <trkpt lat="42.75874" lon="-0.09835">
        <ele>1844</ele>
        <time>2024-08-01T12:41:36.154Z</time>
      </trkpt>
      <trkpt lat="42.75871" lon="-0.09828">
        <ele>1844</ele>
        <time>2024-08-01T12:41:42.026Z</time>
      </trkpt>
      <trkpt lat="42.75866" lon="-0.09816">
        <ele>1845</ele>
        <time>2024-08-01T12:41:54.375Z</time>
      </trkpt>
      <trkpt lat="42.7586" lon="-0.09801">
        <ele>1845</ele>
        <time>2024-08-01T12:42:05.760Z</time>
      </trkpt>
      <trkpt lat="42.75857" lon="-0.09784">
        <ele>1846</ele>
        <time>2024-08-01T12:42:20.169Z</time>
      </trkpt>
      <trkpt lat="42.75836" lon="-0.09741">
        <ele>1842</ele>
        <time>2024-08-01T12:42:50.135Z</time>
      </trkpt>
      <trkpt lat="42.75834" lon="-0.09731">
        <ele>1842</ele>
        <time>2024-08-01T12:42:57.724Z</time>
      </trkpt>
      <trkpt lat="42.75832" lon="-0.09723">
        <ele>1842</ele>
        <time>2024-08-01T12:43:03.150Z</time>
      </trkpt>
      <trkpt lat="42.75832" lon="-0.09717">
        <ele>1843</ele>
        <time>2024-08-01T12:43:12.013Z</time>
      </trkpt>
      <trkpt lat="42.75829" lon="-0.09709">
        <ele>1842</ele>
        <time>2024-08-01T12:43:17.431Z</time>
      </trkpt>
      <trkpt lat="42.75824" lon="-0.09694">
        <ele>1842</ele>
        <time>2024-08-01T12:43:28.256Z</time>
      </trkpt>
      <trkpt lat="42.7582" lon="-0.09678">
        <ele>1843</ele>
        <time>2024-08-01T12:43:42.963Z</time>
      </trkpt>
      <trkpt lat="42.75814" lon="-0.09659">
        <ele>1843</ele>
        <time>2024-08-01T12:43:56.598Z</time>
      </trkpt>
      <trkpt lat="42.75812" lon="-0.09643">
        <ele>1844</ele>
        <time>2024-08-01T12:44:10.757Z</time>
      </trkpt>
      <trkpt lat="42.7581" lon="-0.09634">
        <ele>1845</ele>
        <time>2024-08-01T12:44:20.996Z</time>
      </trkpt>
      <trkpt lat="42.75807" lon="-0.09628">
        <ele>1844</ele>
        <time>2024-08-01T12:44:24.781Z</time>
      </trkpt>
      <trkpt lat="42.75803" lon="-0.09613">
        <ele>1845</ele>
        <time>2024-08-01T12:44:38.899Z</time>
      </trkpt>
      <trkpt lat="42.75803" lon="-0.09608">
        <ele>1845</ele>
        <time>2024-08-01T12:44:42.516Z</time>
      </trkpt>
      <trkpt lat="42.75792" lon="-0.09585">
        <ele>1843</ele>
        <time>2024-08-01T12:44:58.005Z</time>
      </trkpt>
      <trkpt lat="42.75785" lon="-0.09572">
        <ele>1843</ele>
        <time>2024-08-01T12:45:08.577Z</time>
      </trkpt>
      <trkpt lat="42.75784" lon="-0.09561">
        <ele>1843</ele>
        <time>2024-08-01T12:45:16.351Z</time>
      </trkpt>
      <trkpt lat="42.75782" lon="-0.09557">
        <ele>1843</ele>
        <time>2024-08-01T12:45:19.286Z</time>
      </trkpt>
      <trkpt lat="42.75778" lon="-0.09551">
        <ele>1843</ele>
        <time>2024-08-01T12:45:24.752Z</time>
      </trkpt>
      <trkpt lat="42.75775" lon="-0.0955">
        <ele>1842</ele>
        <time>2024-08-01T12:45:26.945Z</time>
      </trkpt>
      <trkpt lat="42.75774" lon="-0.09548">
        <ele>1842</ele>
        <time>2024-08-01T12:45:28.665Z</time>
      </trkpt>
      <trkpt lat="42.75773" lon="-0.09546">
        <ele>1842</ele>
        <time>2024-08-01T12:45:30.290Z</time>
      </trkpt>
      <trkpt lat="42.75772" lon="-0.09543">
        <ele>1842</ele>
        <time>2024-08-01T12:45:32.735Z</time>
      </trkpt>
      <trkpt lat="42.75773" lon="-0.09537">
        <ele>1842</ele>
        <time>2024-08-01T12:45:36.351Z</time>
      </trkpt>
      <trkpt lat="42.75769" lon="-0.09528">
        <ele>1842</ele>
        <time>2024-08-01T12:45:43.271Z</time>
      </trkpt>
      <trkpt lat="42.75766" lon="-0.09522">
        <ele>1842</ele>
        <time>2024-08-01T12:45:48.396Z</time>
      </trkpt>
      <trkpt lat="42.75764" lon="-0.09515">
        <ele>1842</ele>
        <time>2024-08-01T12:45:53.264Z</time>
      </trkpt>
      <trkpt lat="42.75766" lon="-0.09508">
        <ele>1843</ele>
        <time>2024-08-01T12:46:02.541Z</time>
      </trkpt>
      <trkpt lat="42.75761" lon="-0.09502">
        <ele>1843</ele>
        <time>2024-08-01T12:46:08.018Z</time>
      </trkpt>
      <trkpt lat="42.7576" lon="-0.09499">
        <ele>1843</ele>
        <time>2024-08-01T12:46:10.715Z</time>
      </trkpt>
      <trkpt lat="42.75758" lon="-0.09493">
        <ele>1843</ele>
        <time>2024-08-01T12:46:14.681Z</time>
      </trkpt>
      <trkpt lat="42.75756" lon="-0.09491">
        <ele>1843</ele>
        <time>2024-08-01T12:46:16.869Z</time>
      </trkpt>
      <trkpt lat="42.75754" lon="-0.09488">
        <ele>1843</ele>
        <time>2024-08-01T12:46:19.409Z</time>
      </trkpt>
      <trkpt lat="42.75753" lon="-0.09486">
        <ele>1843</ele>
        <time>2024-08-01T12:46:21.081Z</time>
      </trkpt>
      <trkpt lat="42.75753" lon="-0.09484">
        <ele>1843</ele>
        <time>2024-08-01T12:46:22.869Z</time>
      </trkpt>
      <trkpt lat="42.75752" lon="-0.09478">
        <ele>1843</ele>
        <time>2024-08-01T12:46:26.485Z</time>
      </trkpt>
      <trkpt lat="42.7575" lon="-0.09475">
        <ele>1843</ele>
        <time>2024-08-01T12:46:29.025Z</time>
      </trkpt>
      <trkpt lat="42.75746" lon="-0.09473">
        <ele>1843</ele>
        <time>2024-08-01T12:46:33.517Z</time>
      </trkpt>
      <trkpt lat="42.75743" lon="-0.09472">
        <ele>1843</ele>
        <time>2024-08-01T12:46:36.040Z</time>
      </trkpt>
      <trkpt lat="42.75741" lon="-0.09472">
        <ele>1842</ele>
        <time>2024-08-01T12:46:38.092Z</time>
      </trkpt>
      <trkpt lat="42.75739" lon="-0.09468">
        <ele>1842</ele>
        <time>2024-08-01T12:46:41.081Z</time>
      </trkpt>
      <trkpt lat="42.75733" lon="-0.09457">
        <ele>1842</ele>
        <time>2024-08-01T12:46:50.137Z</time>
      </trkpt>
      <trkpt lat="42.7573" lon="-0.09455">
        <ele>1842</ele>
        <time>2024-08-01T12:46:53.404Z</time>
      </trkpt>
      <trkpt lat="42.75727" lon="-0.09456">
        <ele>1842</ele>
        <time>2024-08-01T12:46:55.823Z</time>
      </trkpt>
      <trkpt lat="42.75724" lon="-0.09458">
        <ele>1841</ele>
        <time>2024-08-01T12:46:58.861Z</time>
      </trkpt>
      <trkpt lat="42.75722" lon="-0.09458">
        <ele>1841</ele>
        <time>2024-08-01T12:47:00.665Z</time>
      </trkpt>
      <trkpt lat="42.75721" lon="-0.09458">
        <ele>1840</ele>
        <time>2024-08-01T12:47:01.816Z</time>
      </trkpt>
      <trkpt lat="42.75719" lon="-0.09455">
        <ele>1840</ele>
        <time>2024-08-01T12:47:03.954Z</time>
      </trkpt>
      <trkpt lat="42.75717" lon="-0.09454">
        <ele>1839</ele>
        <time>2024-08-01T12:47:06.086Z</time>
      </trkpt>
      <trkpt lat="42.75715" lon="-0.09454">
        <ele>1838</ele>
        <time>2024-08-01T12:47:07.664Z</time>
      </trkpt>
      <trkpt lat="42.75713" lon="-0.0945">
        <ele>1837</ele>
        <time>2024-08-01T12:47:10.280Z</time>
      </trkpt>
      <trkpt lat="42.75707" lon="-0.09443">
        <ele>1835</ele>
        <time>2024-08-01T12:47:16.552Z</time>
      </trkpt>
      <trkpt lat="42.75702" lon="-0.09436">
        <ele>1833</ele>
        <time>2024-08-01T12:47:22.459Z</time>
      </trkpt>
      <trkpt lat="42.75696" lon="-0.09427">
        <ele>1831</ele>
        <time>2024-08-01T12:47:29.450Z</time>
      </trkpt>
      <trkpt lat="42.75708" lon="-0.09465">
        <ele>1834</ele>
        <time>2024-08-01T12:48:07.166Z</time>
      </trkpt>
      <trkpt lat="42.7571" lon="-0.0947">
        <ele>1835</ele>
        <time>2024-08-01T12:48:16.062Z</time>
      </trkpt>
      <trkpt lat="42.7571" lon="-0.09476">
        <ele>1834</ele>
        <time>2024-08-01T12:48:19.743Z</time>
      </trkpt>
      <trkpt lat="42.75709" lon="-0.09481">
        <ele>1834</ele>
        <time>2024-08-01T12:48:22.851Z</time>
      </trkpt>
      <trkpt lat="42.75709" lon="-0.09485">
        <ele>1833</ele>
        <time>2024-08-01T12:48:25.517Z</time>
      </trkpt>
      <trkpt lat="42.75709" lon="-0.09487">
        <ele>1833</ele>
        <time>2024-08-01T12:48:26.642Z</time>
      </trkpt>
      <trkpt lat="42.75708" lon="-0.09488">
        <ele>1832</ele>
        <time>2024-08-01T12:48:27.864Z</time>
      </trkpt>
      <trkpt lat="42.75705" lon="-0.09483">
        <ele>1832</ele>
        <time>2024-08-01T12:48:32.085Z</time>
      </trkpt>
      <trkpt lat="42.75701" lon="-0.09483">
        <ele>1830</ele>
        <time>2024-08-01T12:48:35.241Z</time>
      </trkpt>
      <trkpt lat="42.75699" lon="-0.09483">
        <ele>1829</ele>
        <time>2024-08-01T12:48:36.820Z</time>
      </trkpt>
      <trkpt lat="42.75698" lon="-0.09486">
        <ele>1829</ele>
        <time>2024-08-01T12:48:39.417Z</time>
      </trkpt>
      <trkpt lat="42.75693" lon="-0.09486">
        <ele>1829</ele>
        <time>2024-08-01T12:48:43.566Z</time>
      </trkpt>
      <trkpt lat="42.75688" lon="-0.09484">
        <ele>1829</ele>
        <time>2024-08-01T12:48:47.882Z</time>
      </trkpt>
      <trkpt lat="42.75686" lon="-0.09487">
        <ele>1829</ele>
        <time>2024-08-01T12:48:50.422Z</time>
      </trkpt>
      <trkpt lat="42.75684" lon="-0.09491">
        <ele>1829</ele>
        <time>2024-08-01T12:48:53.411Z</time>
      </trkpt>
      <trkpt lat="42.75684" lon="-0.09494">
        <ele>1829</ele>
        <time>2024-08-01T12:48:55.856Z</time>
      </trkpt>
      <trkpt lat="42.75678" lon="-0.09501">
        <ele>1830</ele>
        <time>2024-08-01T12:49:06.450Z</time>
      </trkpt>
      <trkpt lat="42.75675" lon="-0.09506">
        <ele>1831</ele>
        <time>2024-08-01T12:49:15.444Z</time>
      </trkpt>
      <trkpt lat="42.75675" lon="-0.09511">
        <ele>1831</ele>
        <time>2024-08-01T12:49:19.075Z</time>
      </trkpt>
      <trkpt lat="42.75673" lon="-0.09513">
        <ele>1832</ele>
        <time>2024-08-01T12:49:29.702Z</time>
      </trkpt>
      <trkpt lat="42.7567" lon="-0.09514">
        <ele>1833</ele>
        <time>2024-08-01T12:49:39.373Z</time>
      </trkpt>
      <trkpt lat="42.75667" lon="-0.09512">
        <ele>1833</ele>
        <time>2024-08-01T12:49:42.003Z</time>
      </trkpt>
      <trkpt lat="42.75667" lon="-0.09513">
        <ele>1834</ele>
        <time>2024-08-01T12:49:46.330Z</time>
      </trkpt>
      <trkpt lat="42.75666" lon="-0.09518">
        <ele>1834</ele>
        <time>2024-08-01T12:49:49.441Z</time>
      </trkpt>
      <trkpt lat="42.75665" lon="-0.09526">
        <ele>1835</ele>
        <time>2024-08-01T12:49:58.954Z</time>
      </trkpt>
      <trkpt lat="42.75664" lon="-0.09541">
        <ele>1836</ele>
        <time>2024-08-01T12:50:12.555Z</time>
      </trkpt>
      <trkpt lat="42.75659" lon="-0.09553">
        <ele>1838</ele>
        <time>2024-08-01T12:50:30.590Z</time>
      </trkpt>
      <trkpt lat="42.75658" lon="-0.09556">
        <ele>1839</ele>
        <time>2024-08-01T12:50:39.994Z</time>
      </trkpt>
      <trkpt lat="42.75657" lon="-0.09562">
        <ele>1839</ele>
        <time>2024-08-01T12:50:43.730Z</time>
      </trkpt>
      <trkpt lat="42.75655" lon="-0.09562">
        <ele>1840</ele>
        <time>2024-08-01T12:50:53.673Z</time>
      </trkpt>
      <trkpt lat="42.75654" lon="-0.09559">
        <ele>1840</ele>
        <time>2024-08-01T12:50:55.541Z</time>
      </trkpt>
      <trkpt lat="42.75653" lon="-0.09554">
        <ele>1840</ele>
        <time>2024-08-01T12:50:59.304Z</time>
      </trkpt>
      <trkpt lat="42.75647" lon="-0.0954">
        <ele>1842</ele>
        <time>2024-08-01T12:51:18.205Z</time>
      </trkpt>
      <trkpt lat="42.75644" lon="-0.09537">
        <ele>1843</ele>
        <time>2024-08-01T12:51:27.112Z</time>
      </trkpt>
      <trkpt lat="42.75643" lon="-0.09535">
        <ele>1843</ele>
        <time>2024-08-01T12:51:28.784Z</time>
      </trkpt>
      <trkpt lat="42.75641" lon="-0.09532">
        <ele>1844</ele>
        <time>2024-08-01T12:51:38.427Z</time>
      </trkpt>
      <trkpt lat="42.7564" lon="-0.09529">
        <ele>1844</ele>
        <time>2024-08-01T12:51:40.232Z</time>
      </trkpt>
      <trkpt lat="42.75639" lon="-0.09527">
        <ele>1845</ele>
        <time>2024-08-01T12:51:50.577Z</time>
      </trkpt>
      <trkpt lat="42.75637" lon="-0.09523">
        <ele>1845</ele>
        <time>2024-08-01T12:51:53.567Z</time>
      </trkpt>
      <trkpt lat="42.75636" lon="-0.0952">
        <ele>1845</ele>
        <time>2024-08-01T12:51:55.702Z</time>
      </trkpt>
      <trkpt lat="42.75634" lon="-0.09519">
        <ele>1845</ele>
        <time>2024-08-01T12:51:57.048Z</time>
      </trkpt>
      <trkpt lat="42.75633" lon="-0.09521">
        <ele>1846</ele>
        <time>2024-08-01T12:52:06.077Z</time>
      </trkpt>
      <trkpt lat="42.75631" lon="-0.0952">
        <ele>1846</ele>
        <time>2024-08-01T12:52:07.977Z</time>
      </trkpt>
      <trkpt lat="42.75628" lon="-0.09519">
        <ele>1847</ele>
        <time>2024-08-01T12:52:17.805Z</time>
      </trkpt>
      <trkpt lat="42.75621" lon="-0.09519">
        <ele>1849</ele>
        <time>2024-08-01T12:52:35.534Z</time>
      </trkpt>
      <trkpt lat="42.75619" lon="-0.0952">
        <ele>1850</ele>
        <time>2024-08-01T12:52:45.621Z</time>
      </trkpt>
      <trkpt lat="42.75616" lon="-0.09519">
        <ele>1850</ele>
        <time>2024-08-01T12:52:48.145Z</time>
      </trkpt>
      <trkpt lat="42.75615" lon="-0.09519">
        <ele>1850</ele>
        <time>2024-08-01T12:52:49.460Z</time>
      </trkpt>
      <trkpt lat="42.75612" lon="-0.09519">
        <ele>1850</ele>
        <time>2024-08-01T12:52:51.879Z</time>
      </trkpt>
      <trkpt lat="42.75607" lon="-0.09519">
        <ele>1851</ele>
        <time>2024-08-01T12:53:00.812Z</time>
      </trkpt>
      <trkpt lat="42.75605" lon="-0.0952">
        <ele>1851</ele>
        <time>2024-08-01T12:53:02.734Z</time>
      </trkpt>
      <trkpt lat="42.75603" lon="-0.09524">
        <ele>1851</ele>
        <time>2024-08-01T12:53:05.723Z</time>
      </trkpt>
      <trkpt lat="42.75601" lon="-0.09528">
        <ele>1852</ele>
        <time>2024-08-01T12:53:14.864Z</time>
      </trkpt>
      <trkpt lat="42.756" lon="-0.09531">
        <ele>1852</ele>
        <time>2024-08-01T12:53:17.521Z</time>
      </trkpt>
      <trkpt lat="42.75598" lon="-0.09532">
        <ele>1852</ele>
        <time>2024-08-01T12:53:19.420Z</time>
      </trkpt>
      <trkpt lat="42.75593" lon="-0.09534">
        <ele>1852</ele>
        <time>2024-08-01T12:53:24.346Z</time>
      </trkpt>
      <trkpt lat="42.75588" lon="-0.09537">
        <ele>1852</ele>
        <time>2024-08-01T12:53:28.781Z</time>
      </trkpt>
      <trkpt lat="42.75586" lon="-0.09539">
        <ele>1853</ele>
        <time>2024-08-01T12:53:38.251Z</time>
      </trkpt>
      <trkpt lat="42.75586" lon="-0.09542">
        <ele>1853</ele>
        <time>2024-08-01T12:53:40.119Z</time>
      </trkpt>
      <trkpt lat="42.75586" lon="-0.09545">
        <ele>1853</ele>
        <time>2024-08-01T12:53:41.841Z</time>
      </trkpt>
      <trkpt lat="42.75584" lon="-0.09548">
        <ele>1853</ele>
        <time>2024-08-01T12:53:44.439Z</time>
      </trkpt>
      <trkpt lat="42.75582" lon="-0.09551">
        <ele>1853</ele>
        <time>2024-08-01T12:53:47.025Z</time>
      </trkpt>
      <trkpt lat="42.75579" lon="-0.09552">
        <ele>1853</ele>
        <time>2024-08-01T12:53:50.048Z</time>
      </trkpt>
      <trkpt lat="42.75575" lon="-0.09554">
        <ele>1854</ele>
        <time>2024-08-01T12:53:58.915Z</time>
      </trkpt>
      <trkpt lat="42.75573" lon="-0.09554">
        <ele>1854</ele>
        <time>2024-08-01T12:54:00.795Z</time>
      </trkpt>
      <trkpt lat="42.7557" lon="-0.09555">
        <ele>1854</ele>
        <time>2024-08-01T12:54:03.844Z</time>
      </trkpt>
      <trkpt lat="42.75566" lon="-0.09555">
        <ele>1854</ele>
        <time>2024-08-01T12:54:06.730Z</time>
      </trkpt>
      <trkpt lat="42.75562" lon="-0.09555">
        <ele>1853</ele>
        <time>2024-08-01T12:54:10.439Z</time>
      </trkpt>
      <trkpt lat="42.75555" lon="-0.09554">
        <ele>1853</ele>
        <time>2024-08-01T12:54:17.041Z</time>
      </trkpt>
      <trkpt lat="42.7555" lon="-0.09553">
        <ele>1853</ele>
        <time>2024-08-01T12:54:21.232Z</time>
      </trkpt>
      <trkpt lat="42.75545" lon="-0.09554">
        <ele>1853</ele>
        <time>2024-08-01T12:54:25.512Z</time>
      </trkpt>
      <trkpt lat="42.75543" lon="-0.09555">
        <ele>1853</ele>
        <time>2024-08-01T12:54:28.143Z</time>
      </trkpt>
      <trkpt lat="42.75536" lon="-0.09562">
        <ele>1853</ele>
        <time>2024-08-01T12:54:35.338Z</time>
      </trkpt>
      <trkpt lat="42.75529" lon="-0.09572">
        <ele>1854</ele>
        <time>2024-08-01T12:54:48.161Z</time>
      </trkpt>
      <trkpt lat="42.75524" lon="-0.09575">
        <ele>1854</ele>
        <time>2024-08-01T12:54:52.914Z</time>
      </trkpt>
      <trkpt lat="42.75522" lon="-0.09578">
        <ele>1855</ele>
        <time>2024-08-01T12:55:02.010Z</time>
      </trkpt>
      <trkpt lat="42.75519" lon="-0.0958">
        <ele>1855</ele>
        <time>2024-08-01T12:55:04.612Z</time>
      </trkpt>
      <trkpt lat="42.75516" lon="-0.09581">
        <ele>1855</ele>
        <time>2024-08-01T12:55:07.135Z</time>
      </trkpt>
      <trkpt lat="42.75516" lon="-0.09583">
        <ele>1855</ele>
        <time>2024-08-01T12:55:09.003Z</time>
      </trkpt>
      <trkpt lat="42.75512" lon="-0.09583">
        <ele>1856</ele>
        <time>2024-08-01T12:55:18.044Z</time>
      </trkpt>
      <trkpt lat="42.75512" lon="-0.09581">
        <ele>1856</ele>
        <time>2024-08-01T12:55:19.413Z</time>
      </trkpt>
      <trkpt lat="42.75511" lon="-0.09581">
        <ele>1856</ele>
        <time>2024-08-01T12:55:20.171Z</time>
      </trkpt>
      <trkpt lat="42.7551" lon="-0.09574">
        <ele>1856</ele>
        <time>2024-08-01T12:55:24.529Z</time>
      </trkpt>
      <trkpt lat="42.75509" lon="-0.09568">
        <ele>1856</ele>
        <time>2024-08-01T12:55:28.736Z</time>
      </trkpt>
      <trkpt lat="42.75508" lon="-0.09563">
        <ele>1856</ele>
        <time>2024-08-01T12:55:32.000Z</time>
      </trkpt>
      <trkpt lat="42.75506" lon="-0.09562">
        <ele>1856</ele>
        <time>2024-08-01T12:55:33.692Z</time>
      </trkpt>
      <trkpt lat="42.75504" lon="-0.09561">
        <ele>1856</ele>
        <time>2024-08-01T12:55:35.613Z</time>
      </trkpt>
      <trkpt lat="42.75503" lon="-0.09559">
        <ele>1856</ele>
        <time>2024-08-01T12:55:37.175Z</time>
      </trkpt>
      <trkpt lat="42.75501" lon="-0.09555">
        <ele>1856</ele>
        <time>2024-08-01T12:55:40.164Z</time>
      </trkpt>
      <trkpt lat="42.75496" lon="-0.09553">
        <ele>1857</ele>
        <time>2024-08-01T12:55:49.271Z</time>
      </trkpt>
      <trkpt lat="42.75492" lon="-0.09551">
        <ele>1857</ele>
        <time>2024-08-01T12:55:53.587Z</time>
      </trkpt>
      <trkpt lat="42.75489" lon="-0.09549">
        <ele>1857</ele>
        <time>2024-08-01T12:55:56.793Z</time>
      </trkpt>
      <trkpt lat="42.75485" lon="-0.09549">
        <ele>1857</ele>
        <time>2024-08-01T12:56:00.310Z</time>
      </trkpt>
      <trkpt lat="42.75481" lon="-0.09546">
        <ele>1858</ele>
        <time>2024-08-01T12:56:09.212Z</time>
      </trkpt>
      <trkpt lat="42.75478" lon="-0.09546">
        <ele>1858</ele>
        <time>2024-08-01T12:56:11.556Z</time>
      </trkpt>
      <trkpt lat="42.75477" lon="-0.09545">
        <ele>1858</ele>
        <time>2024-08-01T12:56:12.982Z</time>
      </trkpt>
      <trkpt lat="42.75474" lon="-0.09545">
        <ele>1858</ele>
        <time>2024-08-01T12:56:15.327Z</time>
      </trkpt>
      <trkpt lat="42.75471" lon="-0.09544">
        <ele>1858</ele>
        <time>2024-08-01T12:56:17.928Z</time>
      </trkpt>
      <trkpt lat="42.75466" lon="-0.09541">
        <ele>1858</ele>
        <time>2024-08-01T12:56:23.031Z</time>
      </trkpt>
      <trkpt lat="42.75462" lon="-0.09538">
        <ele>1857</ele>
        <time>2024-08-01T12:56:26.484Z</time>
      </trkpt>
      <trkpt lat="42.75457" lon="-0.09529">
        <ele>1856</ele>
        <time>2024-08-01T12:56:33.124Z</time>
      </trkpt>
      <trkpt lat="42.75456" lon="-0.09527">
        <ele>1856</ele>
        <time>2024-08-01T12:56:35.313Z</time>
      </trkpt>
      <trkpt lat="42.75452" lon="-0.09523">
        <ele>1855</ele>
        <time>2024-08-01T12:56:39.063Z</time>
      </trkpt>
      <trkpt lat="42.75449" lon="-0.09521">
        <ele>1855</ele>
        <time>2024-08-01T12:56:41.746Z</time>
      </trkpt>
      <trkpt lat="42.75445" lon="-0.09519">
        <ele>1854</ele>
        <time>2024-08-01T12:56:45.015Z</time>
      </trkpt>
      <trkpt lat="42.7544" lon="-0.09518">
        <ele>1854</ele>
        <time>2024-08-01T12:56:49.313Z</time>
      </trkpt>
      <trkpt lat="42.75438" lon="-0.09516">
        <ele>1854</ele>
        <time>2024-08-01T12:56:52.054Z</time>
      </trkpt>
      <trkpt lat="42.75434" lon="-0.09515">
        <ele>1853</ele>
        <time>2024-08-01T12:56:55.166Z</time>
      </trkpt>
      <trkpt lat="42.75433" lon="-0.09513">
        <ele>1853</ele>
        <time>2024-08-01T12:56:56.886Z</time>
      </trkpt>
      <trkpt lat="42.75431" lon="-0.09511">
        <ele>1853</ele>
        <time>2024-08-01T12:56:59.012Z</time>
      </trkpt>
      <trkpt lat="42.75427" lon="-0.0951">
        <ele>1852</ele>
        <time>2024-08-01T12:57:01.840Z</time>
      </trkpt>
      <trkpt lat="42.75425" lon="-0.09509">
        <ele>1852</ele>
        <time>2024-08-01T12:57:04.332Z</time>
      </trkpt>
      <trkpt lat="42.75423" lon="-0.09507">
        <ele>1852</ele>
        <time>2024-08-01T12:57:06.051Z</time>
      </trkpt>
      <trkpt lat="42.75421" lon="-0.09506">
        <ele>1852</ele>
        <time>2024-08-01T12:57:07.845Z</time>
      </trkpt>
      <trkpt lat="42.75418" lon="-0.09507">
        <ele>1851</ele>
        <time>2024-08-01T12:57:10.490Z</time>
      </trkpt>
      <trkpt lat="42.75417" lon="-0.09506">
        <ele>1851</ele>
        <time>2024-08-01T12:57:11.859Z</time>
      </trkpt>
      <trkpt lat="42.75415" lon="-0.09506">
        <ele>1851</ele>
        <time>2024-08-01T12:57:13.573Z</time>
      </trkpt>
      <trkpt lat="42.75412" lon="-0.09507">
        <ele>1851</ele>
        <time>2024-08-01T12:57:16.065Z</time>
      </trkpt>
      <trkpt lat="42.75411" lon="-0.09507">
        <ele>1851</ele>
        <time>2024-08-01T12:57:17.237Z</time>
      </trkpt>
      <trkpt lat="42.75408" lon="-0.09503">
        <ele>1850</ele>
        <time>2024-08-01T12:57:20.179Z</time>
      </trkpt>
      <trkpt lat="42.75406" lon="-0.09502">
        <ele>1850</ele>
        <time>2024-08-01T12:57:21.993Z</time>
      </trkpt>
      <trkpt lat="42.75404" lon="-0.09501">
        <ele>1849</ele>
        <time>2024-08-01T12:57:23.917Z</time>
      </trkpt>
      <trkpt lat="42.75402" lon="-0.09502">
        <ele>1849</ele>
        <time>2024-08-01T12:57:26.354Z</time>
      </trkpt>
      <trkpt lat="42.754" lon="-0.09502">
        <ele>1849</ele>
        <time>2024-08-01T12:57:28.254Z</time>
      </trkpt>
      <trkpt lat="42.75398" lon="-0.09506">
        <ele>1849</ele>
        <time>2024-08-01T12:57:31.243Z</time>
      </trkpt>
      <trkpt lat="42.75394" lon="-0.09509">
        <ele>1850</ele>
        <time>2024-08-01T12:57:40.119Z</time>
      </trkpt>
      <trkpt lat="42.75392" lon="-0.09507">
        <ele>1850</ele>
        <time>2024-08-01T12:57:42.860Z</time>
      </trkpt>
      <trkpt lat="42.75388" lon="-0.09507">
        <ele>1850</ele>
        <time>2024-08-01T12:57:46.378Z</time>
      </trkpt>
      <trkpt lat="42.75385" lon="-0.09507">
        <ele>1850</ele>
        <time>2024-08-01T12:57:48.722Z</time>
      </trkpt>
      <trkpt lat="42.75382" lon="-0.09506">
        <ele>1850</ele>
        <time>2024-08-01T12:57:51.126Z</time>
      </trkpt>
      <trkpt lat="42.7538" lon="-0.09504">
        <ele>1850</ele>
        <time>2024-08-01T12:57:53.867Z</time>
      </trkpt>
      <trkpt lat="42.75376" lon="-0.09504">
        <ele>1850</ele>
        <time>2024-08-01T12:57:57.475Z</time>
      </trkpt>
      <trkpt lat="42.75373" lon="-0.09505">
        <ele>1851</ele>
        <time>2024-08-01T12:58:07.303Z</time>
      </trkpt>
      <trkpt lat="42.75372" lon="-0.09504">
        <ele>1851</ele>
        <time>2024-08-01T12:58:08.650Z</time>
      </trkpt>
      <trkpt lat="42.75371" lon="-0.09502">
        <ele>1851</ele>
        <time>2024-08-01T12:58:10.275Z</time>
      </trkpt>
      <trkpt lat="42.75369" lon="-0.09501">
        <ele>1851</ele>
        <time>2024-08-01T12:58:12.474Z</time>
      </trkpt>
      <trkpt lat="42.75366" lon="-0.09497">
        <ele>1851</ele>
        <time>2024-08-01T12:58:15.771Z</time>
      </trkpt>
      <trkpt lat="42.75363" lon="-0.09494">
        <ele>1852</ele>
        <time>2024-08-01T12:58:24.637Z</time>
      </trkpt>
      <trkpt lat="42.7536" lon="-0.09493">
        <ele>1852</ele>
        <time>2024-08-01T12:58:27.056Z</time>
      </trkpt>
      <trkpt lat="42.75357" lon="-0.09493">
        <ele>1853</ele>
        <time>2024-08-01T12:58:36.918Z</time>
      </trkpt>
      <trkpt lat="42.75355" lon="-0.0949">
        <ele>1853</ele>
        <time>2024-08-01T12:58:39.457Z</time>
      </trkpt>
      <trkpt lat="42.75355" lon="-0.09484">
        <ele>1853</ele>
        <time>2024-08-01T12:58:43.089Z</time>
      </trkpt>
      <trkpt lat="42.75353" lon="-0.09483">
        <ele>1853</ele>
        <time>2024-08-01T12:58:44.714Z</time>
      </trkpt>
      <trkpt lat="42.75351" lon="-0.09483">
        <ele>1853</ele>
        <time>2024-08-01T12:58:46.518Z</time>
      </trkpt>
      <trkpt lat="42.7535" lon="-0.09484">
        <ele>1854</ele>
        <time>2024-08-01T12:58:53.272Z</time>
      </trkpt>
      <trkpt lat="42.75348" lon="-0.09484">
        <ele>1855</ele>
        <time>2024-08-01T12:59:03.245Z</time>
      </trkpt>
      <trkpt lat="42.75347" lon="-0.09489">
        <ele>1855</ele>
        <time>2024-08-01T12:59:06.448Z</time>
      </trkpt>
      <trkpt lat="42.75347" lon="-0.09492">
        <ele>1856</ele>
        <time>2024-08-01T12:59:16.075Z</time>
      </trkpt>
      <trkpt lat="42.75347" lon="-0.09497">
        <ele>1857</ele>
        <time>2024-08-01T12:59:24.935Z</time>
      </trkpt>
      <trkpt lat="42.75345" lon="-0.09496">
        <ele>1857</ele>
        <time>2024-08-01T12:59:26.250Z</time>
      </trkpt>
      <trkpt lat="42.75343" lon="-0.09493">
        <ele>1857</ele>
        <time>2024-08-01T12:59:29.658Z</time>
      </trkpt>
      <trkpt lat="42.75342" lon="-0.09492">
        <ele>1858</ele>
        <time>2024-08-01T12:59:36.319Z</time>
      </trkpt>
      <trkpt lat="42.75339" lon="-0.09488">
        <ele>1858</ele>
        <time>2024-08-01T12:59:39.681Z</time>
      </trkpt>
      <trkpt lat="42.75338" lon="-0.09485">
        <ele>1858</ele>
        <time>2024-08-01T12:59:41.485Z</time>
      </trkpt>
      <trkpt lat="42.75336" lon="-0.09477">
        <ele>1858</ele>
        <time>2024-08-01T12:59:47.207Z</time>
      </trkpt>
      <trkpt lat="42.75336" lon="-0.09474">
        <ele>1857</ele>
        <time>2024-08-01T12:59:49.235Z</time>
      </trkpt>
      <trkpt lat="42.75336" lon="-0.09472">
        <ele>1857</ele>
        <time>2024-08-01T12:59:50.643Z</time>
      </trkpt>
      <trkpt lat="42.75334" lon="-0.0947">
        <ele>1858</ele>
        <time>2024-08-01T13:00:01.121Z</time>
      </trkpt>
      <trkpt lat="42.75332" lon="-0.09467">
        <ele>1858</ele>
        <time>2024-08-01T13:00:03.661Z</time>
      </trkpt>
      <trkpt lat="42.7533" lon="-0.09467">
        <ele>1859</ele>
        <time>2024-08-01T13:00:13.186Z</time>
      </trkpt>
      <trkpt lat="42.75328" lon="-0.09467">
        <ele>1859</ele>
        <time>2024-08-01T13:00:14.449Z</time>
      </trkpt>
      <trkpt lat="42.75326" lon="-0.09464">
        <ele>1860</ele>
        <time>2024-08-01T13:00:23.579Z</time>
      </trkpt>
      <trkpt lat="42.75321" lon="-0.09458">
        <ele>1861</ele>
        <time>2024-08-01T13:00:33.474Z</time>
      </trkpt>
      <trkpt lat="42.75318" lon="-0.09453">
        <ele>1861</ele>
        <time>2024-08-01T13:00:37.374Z</time>
      </trkpt>
      <trkpt lat="42.75314" lon="-0.09447">
        <ele>1861</ele>
        <time>2024-08-01T13:00:42.781Z</time>
      </trkpt>
      <trkpt lat="42.7531" lon="-0.09442">
        <ele>1861</ele>
        <time>2024-08-01T13:00:47.460Z</time>
      </trkpt>
      <trkpt lat="42.7531" lon="-0.09438">
        <ele>1860</ele>
        <time>2024-08-01T13:00:50.053Z</time>
      </trkpt>
      <trkpt lat="42.75309" lon="-0.09435">
        <ele>1860</ele>
        <time>2024-08-01T13:00:52.303Z</time>
      </trkpt>
      <trkpt lat="42.75307" lon="-0.09435">
        <ele>1860</ele>
        <time>2024-08-01T13:00:53.566Z</time>
      </trkpt>
      <trkpt lat="42.75305" lon="-0.09436">
        <ele>1861</ele>
        <time>2024-08-01T13:01:03.210Z</time>
      </trkpt>
      <trkpt lat="42.75303" lon="-0.09432">
        <ele>1861</ele>
        <time>2024-08-01T13:01:06.618Z</time>
      </trkpt>
      <trkpt lat="42.75301" lon="-0.09429">
        <ele>1861</ele>
        <time>2024-08-01T13:01:09.500Z</time>
      </trkpt>
      <trkpt lat="42.75299" lon="-0.09425">
        <ele>1860</ele>
        <time>2024-08-01T13:01:11.912Z</time>
      </trkpt>
      <trkpt lat="42.75297" lon="-0.09425">
        <ele>1861</ele>
        <time>2024-08-01T13:01:21.923Z</time>
      </trkpt>
      <trkpt lat="42.75294" lon="-0.09425">
        <ele>1862</ele>
        <time>2024-08-01T13:01:31.754Z</time>
      </trkpt>
      <trkpt lat="42.75291" lon="-0.09429">
        <ele>1863</ele>
        <time>2024-08-01T13:01:40.648Z</time>
      </trkpt>
      <trkpt lat="42.75288" lon="-0.09432">
        <ele>1864</ele>
        <time>2024-08-01T13:01:49.524Z</time>
      </trkpt>
      <trkpt lat="42.75286" lon="-0.09433">
        <ele>1864</ele>
        <time>2024-08-01T13:01:51.651Z</time>
      </trkpt>
      <trkpt lat="42.75283" lon="-0.09433">
        <ele>1865</ele>
        <time>2024-08-01T13:02:00.758Z</time>
      </trkpt>
      <trkpt lat="42.75279" lon="-0.09432">
        <ele>1865</ele>
        <time>2024-08-01T13:02:04.451Z</time>
      </trkpt>
      <trkpt lat="42.75276" lon="-0.09431">
        <ele>1865</ele>
        <time>2024-08-01T13:02:06.975Z</time>
      </trkpt>
      <trkpt lat="42.75274" lon="-0.09431">
        <ele>1865</ele>
        <time>2024-08-01T13:02:08.778Z</time>
      </trkpt>
      <trkpt lat="42.75272" lon="-0.09431">
        <ele>1866</ele>
        <time>2024-08-01T13:02:18.789Z</time>
      </trkpt>
      <trkpt lat="42.7527" lon="-0.09432">
        <ele>1867</ele>
        <time>2024-08-01T13:02:29.192Z</time>
      </trkpt>
      <trkpt lat="42.75267" lon="-0.09433">
        <ele>1867</ele>
        <time>2024-08-01T13:02:31.611Z</time>
      </trkpt>
      <trkpt lat="42.75264" lon="-0.09434">
        <ele>1868</ele>
        <time>2024-08-01T13:02:41.472Z</time>
      </trkpt>
      <trkpt lat="42.75258" lon="-0.09432">
        <ele>1869</ele>
        <time>2024-08-01T13:02:51.571Z</time>
      </trkpt>
      <trkpt lat="42.75254" lon="-0.09431">
        <ele>1869</ele>
        <time>2024-08-01T13:02:54.694Z</time>
      </trkpt>
      <trkpt lat="42.75244" lon="-0.09425">
        <ele>1870</ele>
        <time>2024-08-01T13:03:08.301Z</time>
      </trkpt>
      <trkpt lat="42.75242" lon="-0.09423">
        <ele>1871</ele>
        <time>2024-08-01T13:03:18.025Z</time>
      </trkpt>
      <trkpt lat="42.75239" lon="-0.09417">
        <ele>1871</ele>
        <time>2024-08-01T13:03:22.677Z</time>
      </trkpt>
      <trkpt lat="42.75237" lon="-0.09415">
        <ele>1871</ele>
        <time>2024-08-01T13:03:24.803Z</time>
      </trkpt>
      <trkpt lat="42.75235" lon="-0.09413">
        <ele>1871</ele>
        <time>2024-08-01T13:03:27.343Z</time>
      </trkpt>
      <trkpt lat="42.75234" lon="-0.0941">
        <ele>1871</ele>
        <time>2024-08-01T13:03:29.177Z</time>
      </trkpt>
      <trkpt lat="42.75231" lon="-0.09405">
        <ele>1871</ele>
        <time>2024-08-01T13:03:33.453Z</time>
      </trkpt>
      <trkpt lat="42.75229" lon="-0.094">
        <ele>1870</ele>
        <time>2024-08-01T13:03:36.551Z</time>
      </trkpt>
      <trkpt lat="42.75227" lon="-0.09396">
        <ele>1870</ele>
        <time>2024-08-01T13:03:39.978Z</time>
      </trkpt>
      <trkpt lat="42.75225" lon="-0.09395">
        <ele>1871</ele>
        <time>2024-08-01T13:03:49.951Z</time>
      </trkpt>
      <trkpt lat="42.75223" lon="-0.09391">
        <ele>1871</ele>
        <time>2024-08-01T13:03:53.295Z</time>
      </trkpt>
      <trkpt lat="42.75221" lon="-0.09387">
        <ele>1870</ele>
        <time>2024-08-01T13:03:56.302Z</time>
      </trkpt>
      <trkpt lat="42.75217" lon="-0.0938">
        <ele>1871</ele>
        <time>2024-08-01T13:04:05.981Z</time>
      </trkpt>
      <trkpt lat="42.75214" lon="-0.09379">
        <ele>1873</ele>
        <time>2024-08-01T13:04:19.637Z</time>
      </trkpt>
      <trkpt lat="42.75212" lon="-0.09374">
        <ele>1873</ele>
        <time>2024-08-01T13:04:23.481Z</time>
      </trkpt>
      <trkpt lat="42.7521" lon="-0.0937">
        <ele>1874</ele>
        <time>2024-08-01T13:04:32.578Z</time>
      </trkpt>
      <trkpt lat="42.75206" lon="-0.09362">
        <ele>1874</ele>
        <time>2024-08-01T13:04:38.654Z</time>
      </trkpt>
      <trkpt lat="42.75203" lon="-0.09358">
        <ele>1875</ele>
        <time>2024-08-01T13:04:47.622Z</time>
      </trkpt>
      <trkpt lat="42.752" lon="-0.09347">
        <ele>1875</ele>
        <time>2024-08-01T13:04:55.308Z</time>
      </trkpt>
      <trkpt lat="42.752" lon="-0.09344">
        <ele>1875</ele>
        <time>2024-08-01T13:04:57.096Z</time>
      </trkpt>
      <trkpt lat="42.75199" lon="-0.09337">
        <ele>1874</ele>
        <time>2024-08-01T13:05:01.352Z</time>
      </trkpt>
      <trkpt lat="42.75198" lon="-0.09334">
        <ele>1873</ele>
        <time>2024-08-01T13:05:03.398Z</time>
      </trkpt>
      <trkpt lat="42.75196" lon="-0.09331">
        <ele>1874</ele>
        <time>2024-08-01T13:05:12.985Z</time>
      </trkpt>
      <trkpt lat="42.75194" lon="-0.09328">
        <ele>1875</ele>
        <time>2024-08-01T13:05:22.596Z</time>
      </trkpt>
      <trkpt lat="42.75192" lon="-0.09324">
        <ele>1876</ele>
        <time>2024-08-01T13:05:31.479Z</time>
      </trkpt>
      <trkpt lat="42.75191" lon="-0.09319">
        <ele>1876</ele>
        <time>2024-08-01T13:05:34.681Z</time>
      </trkpt>
      <trkpt lat="42.7519" lon="-0.09316">
        <ele>1877</ele>
        <time>2024-08-01T13:05:44.167Z</time>
      </trkpt>
      <trkpt lat="42.75188" lon="-0.09314">
        <ele>1878</ele>
        <time>2024-08-01T13:05:54.646Z</time>
      </trkpt>
      <trkpt lat="42.75186" lon="-0.0931">
        <ele>1878</ele>
        <time>2024-08-01T13:05:57.636Z</time>
      </trkpt>
      <trkpt lat="42.75186" lon="-0.09307">
        <ele>1878</ele>
        <time>2024-08-01T13:05:59.954Z</time>
      </trkpt>
      <trkpt lat="42.75183" lon="-0.09305">
        <ele>1879</ele>
        <time>2024-08-01T13:06:09.302Z</time>
      </trkpt>
      <trkpt lat="42.75183" lon="-0.09301">
        <ele>1878</ele>
        <time>2024-08-01T13:06:11.388Z</time>
      </trkpt>
      <trkpt lat="42.75182" lon="-0.09298">
        <ele>1878</ele>
        <time>2024-08-01T13:06:13.986Z</time>
      </trkpt>
      <trkpt lat="42.7518" lon="-0.09294">
        <ele>1879</ele>
        <time>2024-08-01T13:06:23.127Z</time>
      </trkpt>
      <trkpt lat="42.75178" lon="-0.09292">
        <ele>1880</ele>
        <time>2024-08-01T13:06:33.288Z</time>
      </trkpt>
      <trkpt lat="42.75177" lon="-0.09289">
        <ele>1880</ele>
        <time>2024-08-01T13:06:35.668Z</time>
      </trkpt>
      <trkpt lat="42.75177" lon="-0.09286">
        <ele>1879</ele>
        <time>2024-08-01T13:06:37.233Z</time>
      </trkpt>
      <trkpt lat="42.75176" lon="-0.09281">
        <ele>1879</ele>
        <time>2024-08-01T13:06:40.435Z</time>
      </trkpt>
      <trkpt lat="42.75173" lon="-0.09279">
        <ele>1880</ele>
        <time>2024-08-01T13:06:49.301Z</time>
      </trkpt>
      <trkpt lat="42.75171" lon="-0.09274">
        <ele>1880</ele>
        <time>2024-08-01T13:06:52.796Z</time>
      </trkpt>
      <trkpt lat="42.75169" lon="-0.09273">
        <ele>1881</ele>
        <time>2024-08-01T13:06:59.550Z</time>
      </trkpt>
      <trkpt lat="42.75167" lon="-0.09272">
        <ele>1883</ele>
        <time>2024-08-01T13:07:12.712Z</time>
      </trkpt>
      <trkpt lat="42.75165" lon="-0.09269">
        <ele>1884</ele>
        <time>2024-08-01T13:07:21.808Z</time>
      </trkpt>
      <trkpt lat="42.75163" lon="-0.09268">
        <ele>1885</ele>
        <time>2024-08-01T13:07:28.134Z</time>
      </trkpt>
      <trkpt lat="42.75161" lon="-0.09262">
        <ele>1885</ele>
        <time>2024-08-01T13:07:32.716Z</time>
      </trkpt>
      <trkpt lat="42.75159" lon="-0.09259">
        <ele>1886</ele>
        <time>2024-08-01T13:07:41.847Z</time>
      </trkpt>
      <trkpt lat="42.75157" lon="-0.09254">
        <ele>1886</ele>
        <time>2024-08-01T13:07:45.387Z</time>
      </trkpt>
      <trkpt lat="42.75154" lon="-0.09253">
        <ele>1888</ele>
        <time>2024-08-01T13:07:59.043Z</time>
      </trkpt>
      <trkpt lat="42.75151" lon="-0.09247">
        <ele>1889</ele>
        <time>2024-08-01T13:08:08.174Z</time>
      </trkpt>
      <trkpt lat="42.75149" lon="-0.09245">
        <ele>1889</ele>
        <time>2024-08-01T13:08:10.761Z</time>
      </trkpt>
      <trkpt lat="42.75148" lon="-0.09243">
        <ele>1890</ele>
        <time>2024-08-01T13:08:19.294Z</time>
      </trkpt>
      <trkpt lat="42.75145" lon="-0.09238">
        <ele>1890</ele>
        <time>2024-08-01T13:08:23.086Z</time>
      </trkpt>
      <trkpt lat="42.75143" lon="-0.0924">
        <ele>1892</ele>
        <time>2024-08-01T13:08:34.437Z</time>
      </trkpt>
      <trkpt lat="42.75145" lon="-0.09246">
        <ele>1893</ele>
        <time>2024-08-01T13:08:43.518Z</time>
      </trkpt>
      <trkpt lat="42.75145" lon="-0.09249">
        <ele>1894</ele>
        <time>2024-08-01T13:08:52.906Z</time>
      </trkpt>
      <trkpt lat="42.75144" lon="-0.0925">
        <ele>1896</ele>
        <time>2024-08-01T13:08:59.810Z</time>
      </trkpt>
      <trkpt lat="42.7514" lon="-0.0925">
        <ele>1899</ele>
        <time>2024-08-01T13:09:18.750Z</time>
      </trkpt>
      <trkpt lat="42.75138" lon="-0.09247">
        <ele>1899</ele>
        <time>2024-08-01T13:09:20.888Z</time>
      </trkpt>
      <trkpt lat="42.75137" lon="-0.09245">
        <ele>1899</ele>
        <time>2024-08-01T13:09:23.131Z</time>
      </trkpt>
      <trkpt lat="42.75136" lon="-0.09243">
        <ele>1898</ele>
        <time>2024-08-01T13:09:24.224Z</time>
      </trkpt>
      <trkpt lat="42.75136" lon="-0.09243">
        <ele>1899</ele>
        <time>2024-08-01T13:09:27.065Z</time>
      </trkpt>
      <trkpt lat="42.75134" lon="-0.09245">
        <ele>1902</ele>
        <time>2024-08-01T13:09:40.156Z</time>
      </trkpt>
      <trkpt lat="42.75132" lon="-0.09246">
        <ele>1903</ele>
        <time>2024-08-01T13:09:47.642Z</time>
      </trkpt>
      <trkpt lat="42.75132" lon="-0.09243">
        <ele>1902</ele>
        <time>2024-08-01T13:09:49.800Z</time>
      </trkpt>
      <trkpt lat="42.7513" lon="-0.0924">
        <ele>1902</ele>
        <time>2024-08-01T13:09:51.890Z</time>
      </trkpt>
      <trkpt lat="42.7513" lon="-0.09238">
        <ele>1901</ele>
        <time>2024-08-01T13:09:52.933Z</time>
      </trkpt>
      <trkpt lat="42.7513" lon="-0.09237">
        <ele>1901</ele>
        <time>2024-08-01T13:09:53.801Z</time>
      </trkpt>
      <trkpt lat="42.75128" lon="-0.09233">
        <ele>1901</ele>
        <time>2024-08-01T13:09:57.065Z</time>
      </trkpt>
      <trkpt lat="42.75129" lon="-0.0923">
        <ele>1899</ele>
        <time>2024-08-01T13:09:58.644Z</time>
      </trkpt>
      <trkpt lat="42.75128" lon="-0.09226">
        <ele>1898</ele>
        <time>2024-08-01T13:10:01.446Z</time>
      </trkpt>
      <trkpt lat="42.75127" lon="-0.09223">
        <ele>1898</ele>
        <time>2024-08-01T13:10:03.315Z</time>
      </trkpt>
      <trkpt lat="42.75126" lon="-0.09219">
        <ele>1897</ele>
        <time>2024-08-01T13:10:05.675Z</time>
      </trkpt>
      <trkpt lat="42.75123" lon="-0.09218">
        <ele>1899</ele>
        <time>2024-08-01T13:10:19.331Z</time>
      </trkpt>
      <trkpt lat="42.75121" lon="-0.09217">
        <ele>1900</ele>
        <time>2024-08-01T13:10:29.419Z</time>
      </trkpt>
      <trkpt lat="42.75119" lon="-0.09215">
        <ele>1900</ele>
        <time>2024-08-01T13:10:31.506Z</time>
      </trkpt>
      <trkpt lat="42.75117" lon="-0.0921">
        <ele>1899</ele>
        <time>2024-08-01T13:10:34.873Z</time>
      </trkpt>
      <trkpt lat="42.75109" lon="-0.09206">
        <ele>1900</ele>
        <time>2024-08-01T13:10:45.825Z</time>
      </trkpt>
      <trkpt lat="42.75105" lon="-0.09204">
        <ele>1900</ele>
        <time>2024-08-01T13:10:50.141Z</time>
      </trkpt>
      <trkpt lat="42.751" lon="-0.09204">
        <ele>1902</ele>
        <time>2024-08-01T13:11:11.306Z</time>
      </trkpt>
      <trkpt lat="42.75095" lon="-0.09203">
        <ele>1904</ele>
        <time>2024-08-01T13:11:31.250Z</time>
      </trkpt>
      <trkpt lat="42.7509" lon="-0.09202">
        <ele>1904</ele>
        <time>2024-08-01T13:11:36.060Z</time>
      </trkpt>
      <trkpt lat="42.75087" lon="-0.092">
        <ele>1903</ele>
        <time>2024-08-01T13:11:38.703Z</time>
      </trkpt>
      <trkpt lat="42.75084" lon="-0.092">
        <ele>1904</ele>
        <time>2024-08-01T13:11:48.714Z</time>
      </trkpt>
      <trkpt lat="42.7508" lon="-0.09202">
        <ele>1906</ele>
        <time>2024-08-01T13:12:08.660Z</time>
      </trkpt>
      <trkpt lat="42.75068" lon="-0.09206">
        <ele>1910</ele>
        <time>2024-08-01T13:12:45.316Z</time>
      </trkpt>
      <trkpt lat="42.75054" lon="-0.09212">
        <ele>1915</ele>
        <time>2024-08-01T13:13:32.852Z</time>
      </trkpt>
      <trkpt lat="42.7505" lon="-0.09214">
        <ele>1916</ele>
        <time>2024-08-01T13:13:41.719Z</time>
      </trkpt>
      <trkpt lat="42.75045" lon="-0.09217">
        <ele>1917</ele>
        <time>2024-08-01T13:13:51.082Z</time>
      </trkpt>
      <trkpt lat="42.75042" lon="-0.09218">
        <ele>1918</ele>
        <time>2024-08-01T13:14:00.910Z</time>
      </trkpt>
      <trkpt lat="42.75037" lon="-0.09218">
        <ele>1918</ele>
        <time>2024-08-01T13:14:05.059Z</time>
      </trkpt>
      <trkpt lat="42.75031" lon="-0.09217">
        <ele>1919</ele>
        <time>2024-08-01T13:14:15.097Z</time>
      </trkpt>
      <trkpt lat="42.75028" lon="-0.09216">
        <ele>1918</ele>
        <time>2024-08-01T13:14:17.214Z</time>
      </trkpt>
      <trkpt lat="42.75026" lon="-0.09211">
        <ele>1917</ele>
        <time>2024-08-01T13:14:20.172Z</time>
      </trkpt>
      <trkpt lat="42.75022" lon="-0.0921">
        <ele>1917</ele>
        <time>2024-08-01T13:14:24.078Z</time>
      </trkpt>
      <trkpt lat="42.75016" lon="-0.0921">
        <ele>1919</ele>
        <time>2024-08-01T13:14:42.943Z</time>
      </trkpt>
      <trkpt lat="42.75014" lon="-0.09209">
        <ele>1919</ele>
        <time>2024-08-01T13:14:45.544Z</time>
      </trkpt>
      <trkpt lat="42.7501" lon="-0.09208">
        <ele>1919</ele>
        <time>2024-08-01T13:14:48.579Z</time>
      </trkpt>
      <trkpt lat="42.75008" lon="-0.09208">
        <ele>1920</ele>
        <time>2024-08-01T13:14:58.590Z</time>
      </trkpt>
      <trkpt lat="42.74997" lon="-0.09202">
        <ele>1921</ele>
        <time>2024-08-01T13:15:12.198Z</time>
      </trkpt>
      <trkpt lat="42.74991" lon="-0.092">
        <ele>1922</ele>
        <time>2024-08-01T13:15:21.903Z</time>
      </trkpt>
      <trkpt lat="42.74986" lon="-0.09198">
        <ele>1923</ele>
        <time>2024-08-01T13:15:31.186Z</time>
      </trkpt>
      <trkpt lat="42.74983" lon="-0.09196">
        <ele>1923</ele>
        <time>2024-08-01T13:15:34.368Z</time>
      </trkpt>
      <trkpt lat="42.7498" lon="-0.09194">
        <ele>1924</ele>
        <time>2024-08-01T13:15:43.823Z</time>
      </trkpt>
      <trkpt lat="42.74977" lon="-0.09194">
        <ele>1924</ele>
        <time>2024-08-01T13:15:46.258Z</time>
      </trkpt>
      <trkpt lat="42.74973" lon="-0.09192">
        <ele>1925</ele>
        <time>2024-08-01T13:15:55.326Z</time>
      </trkpt>
      <trkpt lat="42.74969" lon="-0.09191">
        <ele>1925</ele>
        <time>2024-08-01T13:15:58.349Z</time>
      </trkpt>
      <trkpt lat="42.74967" lon="-0.09193">
        <ele>1926</ele>
        <time>2024-08-01T13:16:08.752Z</time>
      </trkpt>
      <trkpt lat="42.74965" lon="-0.09193">
        <ele>1926</ele>
        <time>2024-08-01T13:16:10.652Z</time>
      </trkpt>
      <trkpt lat="42.74961" lon="-0.09195">
        <ele>1927</ele>
        <time>2024-08-01T13:16:19.604Z</time>
      </trkpt>
      <trkpt lat="42.74959" lon="-0.09194">
        <ele>1927</ele>
        <time>2024-08-01T13:16:21.589Z</time>
      </trkpt>
      <trkpt lat="42.74959" lon="-0.09193">
        <ele>1927</ele>
        <time>2024-08-01T13:16:22.715Z</time>
      </trkpt>
      <trkpt lat="42.7496" lon="-0.09192">
        <ele>1927</ele>
        <time>2024-08-01T13:16:23.630Z</time>
      </trkpt>
      <trkpt lat="42.7496" lon="-0.09191">
        <ele>1926</ele>
        <time>2024-08-01T13:16:24.351Z</time>
      </trkpt>
      <trkpt lat="42.74959" lon="-0.09187">
        <ele>1926</ele>
        <time>2024-08-01T13:16:27.049Z</time>
      </trkpt>
      <trkpt lat="42.74958" lon="-0.09185">
        <ele>1926</ele>
        <time>2024-08-01T13:16:28.769Z</time>
      </trkpt>
      <trkpt lat="42.74953" lon="-0.09183">
        <ele>1926</ele>
        <time>2024-08-01T13:16:33.287Z</time>
      </trkpt>
      <trkpt lat="42.7495" lon="-0.09181">
        <ele>1926</ele>
        <time>2024-08-01T13:16:36.469Z</time>
      </trkpt>
      <trkpt lat="42.74948" lon="-0.09181">
        <ele>1926</ele>
        <time>2024-08-01T13:16:37.641Z</time>
      </trkpt>
      <trkpt lat="42.74946" lon="-0.09181">
        <ele>1926</ele>
        <time>2024-08-01T13:16:39.445Z</time>
      </trkpt>
      <trkpt lat="42.74942" lon="-0.09182">
        <ele>1926</ele>
        <time>2024-08-01T13:16:43.101Z</time>
      </trkpt>
      <trkpt lat="42.7494" lon="-0.09182">
        <ele>1926</ele>
        <time>2024-08-01T13:16:45.446Z</time>
      </trkpt>
      <trkpt lat="42.74934" lon="-0.09183">
        <ele>1927</ele>
        <time>2024-08-01T13:16:54.974Z</time>
      </trkpt>
      <trkpt lat="42.74926" lon="-0.09188">
        <ele>1928</ele>
        <time>2024-08-01T13:17:06.562Z</time>
      </trkpt>
      <trkpt lat="42.74923" lon="-0.09188">
        <ele>1928</ele>
        <time>2024-08-01T13:17:08.997Z</time>
      </trkpt>
      <trkpt lat="42.74921" lon="-0.09188">
        <ele>1928</ele>
        <time>2024-08-01T13:17:10.800Z</time>
      </trkpt>
      <trkpt lat="42.74917" lon="-0.0919">
        <ele>1928</ele>
        <time>2024-08-01T13:17:14.536Z</time>
      </trkpt>
      <trkpt lat="42.74913" lon="-0.09192">
        <ele>1929</ele>
        <time>2024-08-01T13:17:23.399Z</time>
      </trkpt>
      <trkpt lat="42.74902" lon="-0.092">
        <ele>1931</ele>
        <time>2024-08-01T13:17:42.977Z</time>
      </trkpt>
      <trkpt lat="42.74899" lon="-0.09201">
        <ele>1931</ele>
        <time>2024-08-01T13:17:46.000Z</time>
      </trkpt>
      <trkpt lat="42.74896" lon="-0.09202">
        <ele>1931</ele>
        <time>2024-08-01T13:17:48.436Z</time>
      </trkpt>
      <trkpt lat="42.74892" lon="-0.09205">
        <ele>1932</ele>
        <time>2024-08-01T13:17:57.634Z</time>
      </trkpt>
      <trkpt lat="42.74884" lon="-0.0921">
        <ele>1934</ele>
        <time>2024-08-01T13:18:15.357Z</time>
      </trkpt>
      <trkpt lat="42.74878" lon="-0.0921">
        <ele>1934</ele>
        <time>2024-08-01T13:18:21.339Z</time>
      </trkpt>
      <trkpt lat="42.74875" lon="-0.09212">
        <ele>1934</ele>
        <time>2024-08-01T13:18:23.969Z</time>
      </trkpt>
      <trkpt lat="42.74872" lon="-0.09211">
        <ele>1935</ele>
        <time>2024-08-01T13:18:33.040Z</time>
      </trkpt>
      <trkpt lat="42.74867" lon="-0.09208">
        <ele>1935</ele>
        <time>2024-08-01T13:18:37.825Z</time>
      </trkpt>
      <trkpt lat="42.74866" lon="-0.09207">
        <ele>1935</ele>
        <time>2024-08-01T13:18:39.251Z</time>
      </trkpt>
      <trkpt lat="42.74865" lon="-0.09204">
        <ele>1935</ele>
        <time>2024-08-01T13:18:41.389Z</time>
      </trkpt>
      <trkpt lat="42.74869" lon="-0.09195">
        <ele>1934</ele>
        <time>2024-08-01T13:18:47.486Z</time>
      </trkpt>
      <trkpt lat="42.74871" lon="-0.09193">
        <ele>1934</ele>
        <time>2024-08-01T13:18:49.612Z</time>
      </trkpt>
      <trkpt lat="42.74871" lon="-0.0919">
        <ele>1934</ele>
        <time>2024-08-01T13:18:52.057Z</time>
      </trkpt>
      <trkpt lat="42.74871" lon="-0.09182">
        <ele>1934</ele>
        <time>2024-08-01T13:18:57.421Z</time>
      </trkpt>
      <trkpt lat="42.7487" lon="-0.09177">
        <ele>1934</ele>
        <time>2024-08-01T13:19:00.624Z</time>
      </trkpt>
      <trkpt lat="42.74867" lon="-0.09172">
        <ele>1934</ele>
        <time>2024-08-01T13:19:04.900Z</time>
      </trkpt>
      <trkpt lat="42.74863" lon="-0.09166">
        <ele>1934</ele>
        <time>2024-08-01T13:19:10.416Z</time>
      </trkpt>
      <trkpt lat="42.74855" lon="-0.0916">
        <ele>1935</ele>
        <time>2024-08-01T13:19:22.505Z</time>
      </trkpt>
      <trkpt lat="42.74847" lon="-0.09156">
        <ele>1935</ele>
        <time>2024-08-01T13:19:30.228Z</time>
      </trkpt>
      <trkpt lat="42.7484" lon="-0.09152">
        <ele>1935</ele>
        <time>2024-08-01T13:19:36.616Z</time>
      </trkpt>
      <trkpt lat="42.74823" lon="-0.09145">
        <ele>1934</ele>
        <time>2024-08-01T13:19:50.740Z</time>
      </trkpt>
      <trkpt lat="42.74814" lon="-0.0914">
        <ele>1932</ele>
        <time>2024-08-01T13:19:58.718Z</time>
      </trkpt>
      <trkpt lat="42.74783" lon="-0.09132">
        <ele>1928</ele>
        <time>2024-08-01T13:20:23.535Z</time>
      </trkpt>
      <trkpt lat="42.74772" lon="-0.09135">
        <ele>1927</ele>
        <time>2024-08-01T13:20:32.501Z</time>
      </trkpt>
      <trkpt lat="42.74766" lon="-0.09134">
        <ele>1927</ele>
        <time>2024-08-01T13:20:37.848Z</time>
      </trkpt>
      <trkpt lat="42.74761" lon="-0.09137">
        <ele>1927</ele>
        <time>2024-08-01T13:20:42.365Z</time>
      </trkpt>
      <trkpt lat="42.74754" lon="-0.09143">
        <ele>1926</ele>
        <time>2024-08-01T13:20:48.791Z</time>
      </trkpt>
      <trkpt lat="42.74746" lon="-0.09149">
        <ele>1926</ele>
        <time>2024-08-01T13:20:57.250Z</time>
      </trkpt>
      <trkpt lat="42.74736" lon="-0.09152">
        <ele>1926</ele>
        <time>2024-08-01T13:21:06.491Z</time>
      </trkpt>
      <trkpt lat="42.74729" lon="-0.09154">
        <ele>1926</ele>
        <time>2024-08-01T13:21:12.549Z</time>
      </trkpt>
      <trkpt lat="42.74721" lon="-0.09155">
        <ele>1925</ele>
        <time>2024-08-01T13:21:19.360Z</time>
      </trkpt>
      <trkpt lat="42.74712" lon="-0.09157">
        <ele>1926</ele>
        <time>2024-08-01T13:21:31.301Z</time>
      </trkpt>
      <trkpt lat="42.74703" lon="-0.09158">
        <ele>1927</ele>
        <time>2024-08-01T13:21:42.780Z</time>
      </trkpt>
      <trkpt lat="42.74694" lon="-0.09164">
        <ele>1928</ele>
        <time>2024-08-01T13:21:54.895Z</time>
      </trkpt>
      <trkpt lat="42.74682" lon="-0.09166">
        <ele>1929</ele>
        <time>2024-08-01T13:22:09.553Z</time>
      </trkpt>
      <trkpt lat="42.74679" lon="-0.09166">
        <ele>1930</ele>
        <time>2024-08-01T13:22:19.564Z</time>
      </trkpt>
      <trkpt lat="42.74677" lon="-0.09163">
        <ele>1930</ele>
        <time>2024-08-01T13:22:22.585Z</time>
      </trkpt>
      <trkpt lat="42.74676" lon="-0.09153">
        <ele>1931</ele>
        <time>2024-08-01T13:22:33.009Z</time>
      </trkpt>
      <trkpt lat="42.74677" lon="-0.09144">
        <ele>1931</ele>
        <time>2024-08-01T13:22:38.994Z</time>
      </trkpt>
      <trkpt lat="42.74677" lon="-0.09141">
        <ele>1931</ele>
        <time>2024-08-01T13:22:40.782Z</time>
      </trkpt>
      <trkpt lat="42.74675" lon="-0.09142">
        <ele>1931</ele>
        <time>2024-08-01T13:22:42.704Z</time>
      </trkpt>
      <trkpt lat="42.74673" lon="-0.09144">
        <ele>1932</ele>
        <time>2024-08-01T13:22:51.238Z</time>
      </trkpt>
      <trkpt lat="42.74669" lon="-0.09146">
        <ele>1932</ele>
        <time>2024-08-01T13:22:55.058Z</time>
      </trkpt>
      <trkpt lat="42.74667" lon="-0.09149">
        <ele>1932</ele>
        <time>2024-08-01T13:22:58.007Z</time>
      </trkpt>
      <trkpt lat="42.74662" lon="-0.09153">
        <ele>1933</ele>
        <time>2024-08-01T13:23:07.363Z</time>
      </trkpt>
      <trkpt lat="42.74657" lon="-0.09153">
        <ele>1933</ele>
        <time>2024-08-01T13:23:12.143Z</time>
      </trkpt>
      <trkpt lat="42.74647" lon="-0.09151">
        <ele>1935</ele>
        <time>2024-08-01T13:23:30.265Z</time>
      </trkpt>
      <trkpt lat="42.74638" lon="-0.09152">
        <ele>1935</ele>
        <time>2024-08-01T13:23:37.954Z</time>
      </trkpt>
      <trkpt lat="42.74607" lon="-0.09154">
        <ele>1937</ele>
        <time>2024-08-01T13:24:12.967Z</time>
      </trkpt>
      <trkpt lat="42.74582" lon="-0.09161">
        <ele>1938</ele>
        <time>2024-08-01T13:24:39.141Z</time>
      </trkpt>
      <trkpt lat="42.74578" lon="-0.09164">
        <ele>1938</ele>
        <time>2024-08-01T13:24:43.087Z</time>
      </trkpt>
      <trkpt lat="42.74571" lon="-0.09165">
        <ele>1939</ele>
        <time>2024-08-01T13:24:53.116Z</time>
      </trkpt>
      <trkpt lat="42.74531" lon="-0.09137">
        <ele>1941</ele>
        <time>2024-08-01T13:25:39.907Z</time>
      </trkpt>
      <trkpt lat="42.7452" lon="-0.09129">
        <ele>1942</ele>
        <time>2024-08-01T13:25:54.697Z</time>
      </trkpt>
      <trkpt lat="42.74513" lon="-0.09127">
        <ele>1943</ele>
        <time>2024-08-01T13:26:04.721Z</time>
      </trkpt>
      <trkpt lat="42.74506" lon="-0.09128">
        <ele>1943</ele>
        <time>2024-08-01T13:26:10.703Z</time>
      </trkpt>
      <trkpt lat="42.745" lon="-0.09131">
        <ele>1944</ele>
        <time>2024-08-01T13:26:20.844Z</time>
      </trkpt>
      <trkpt lat="42.74498" lon="-0.09129">
        <ele>1944</ele>
        <time>2024-08-01T13:26:22.564Z</time>
      </trkpt>
      <trkpt lat="42.74497" lon="-0.09129">
        <ele>1944</ele>
        <time>2024-08-01T13:26:23.736Z</time>
      </trkpt>
      <trkpt lat="42.74488" lon="-0.09128">
        <ele>1945</ele>
        <time>2024-08-01T13:26:35.704Z</time>
      </trkpt>
      <trkpt lat="42.74485" lon="-0.09127">
        <ele>1945</ele>
        <time>2024-08-01T13:26:38.124Z</time>
      </trkpt>
      <trkpt lat="42.74485" lon="-0.09125">
        <ele>1945</ele>
        <time>2024-08-01T13:26:39.433Z</time>
      </trkpt>
      <trkpt lat="42.74485" lon="-0.09117">
        <ele>1945</ele>
        <time>2024-08-01T13:26:44.798Z</time>
      </trkpt>
      <trkpt lat="42.74485" lon="-0.09113">
        <ele>1945</ele>
        <time>2024-08-01T13:26:47.778Z</time>
      </trkpt>
      <trkpt lat="42.74493" lon="-0.09099">
        <ele>1946</ele>
        <time>2024-08-01T13:27:02.534Z</time>
      </trkpt>
      <trkpt lat="42.745" lon="-0.09093">
        <ele>1946</ele>
        <time>2024-08-01T13:27:10.791Z</time>
      </trkpt>
      <trkpt lat="42.74509" lon="-0.09083">
        <ele>1946</ele>
        <time>2024-08-01T13:27:20.905Z</time>
      </trkpt>
      <trkpt lat="42.74519" lon="-0.09077">
        <ele>1945</ele>
        <time>2024-08-01T13:27:29.457Z</time>
      </trkpt>
      <trkpt lat="42.74526" lon="-0.0907">
        <ele>1946</ele>
        <time>2024-08-01T13:27:40.506Z</time>
      </trkpt>
      <trkpt lat="42.74531" lon="-0.09059">
        <ele>1947</ele>
        <time>2024-08-01T13:27:53.371Z</time>
      </trkpt>
      <trkpt lat="42.74535" lon="-0.09048">
        <ele>1947</ele>
        <time>2024-08-01T13:28:01.057Z</time>
      </trkpt>
      <trkpt lat="42.7454" lon="-0.09033">
        <ele>1949</ele>
        <time>2024-08-01T13:28:20.108Z</time>
      </trkpt>
      <trkpt lat="42.74551" lon="-0.09015">
        <ele>1950</ele>
        <time>2024-08-01T13:28:38.894Z</time>
      </trkpt>
      <trkpt lat="42.74558" lon="-0.09005">
        <ele>1951</ele>
        <time>2024-08-01T13:28:51.679Z</time>
      </trkpt>
      <trkpt lat="42.74568" lon="-0.08997">
        <ele>1952</ele>
        <time>2024-08-01T13:29:05.888Z</time>
      </trkpt>
      <trkpt lat="42.74586" lon="-0.08985">
        <ele>1952</ele>
        <time>2024-08-01T13:29:23.228Z</time>
      </trkpt>
      <trkpt lat="42.74609" lon="-0.08963">
        <ele>1952</ele>
        <time>2024-08-01T13:29:48.948Z</time>
      </trkpt>
      <trkpt lat="42.74623" lon="-0.08953">
        <ele>1953</ele>
        <time>2024-08-01T13:30:06.609Z</time>
      </trkpt>
      <trkpt lat="42.74625" lon="-0.08949">
        <ele>1953</ele>
        <time>2024-08-01T13:30:09.439Z</time>
      </trkpt>
      <trkpt lat="42.74641" lon="-0.08937">
        <ele>1953</ele>
        <time>2024-08-01T13:30:25.738Z</time>
      </trkpt>
      <trkpt lat="42.74649" lon="-0.08928">
        <ele>1953</ele>
        <time>2024-08-01T13:30:35.825Z</time>
      </trkpt>
      <trkpt lat="42.7466" lon="-0.0892">
        <ele>1952</ele>
        <time>2024-08-01T13:30:45.199Z</time>
      </trkpt>
      <trkpt lat="42.74665" lon="-0.08913">
        <ele>1952</ele>
        <time>2024-08-01T13:30:51.904Z</time>
      </trkpt>
      <trkpt lat="42.74669" lon="-0.08904">
        <ele>1952</ele>
        <time>2024-08-01T13:30:58.567Z</time>
      </trkpt>
      <trkpt lat="42.74676" lon="-0.08896">
        <ele>1951</ele>
        <time>2024-08-01T13:31:05.961Z</time>
      </trkpt>
      <trkpt lat="42.74686" lon="-0.08884">
        <ele>1951</ele>
        <time>2024-08-01T13:31:17.759Z</time>
      </trkpt>
      <trkpt lat="42.7469" lon="-0.08877">
        <ele>1950</ele>
        <time>2024-08-01T13:31:23.298Z</time>
      </trkpt>
      <trkpt lat="42.74702" lon="-0.08856">
        <ele>1950</ele>
        <time>2024-08-01T13:31:40.810Z</time>
      </trkpt>
      <trkpt lat="42.74708" lon="-0.08839">
        <ele>1950</ele>
        <time>2024-08-01T13:31:53.323Z</time>
      </trkpt>
      <trkpt lat="42.74708" lon="-0.08836">
        <ele>1951</ele>
        <time>2024-08-01T13:32:02.364Z</time>
      </trkpt>
      <trkpt lat="42.74716" lon="-0.0882">
        <ele>1950</ele>
        <time>2024-08-01T13:32:13.995Z</time>
      </trkpt>
      <trkpt lat="42.74716" lon="-0.08814">
        <ele>1951</ele>
        <time>2024-08-01T13:32:22.865Z</time>
      </trkpt>
      <trkpt lat="42.74723" lon="-0.08797">
        <ele>1951</ele>
        <time>2024-08-01T13:32:35.920Z</time>
      </trkpt>
      <trkpt lat="42.74728" lon="-0.08782">
        <ele>1951</ele>
        <time>2024-08-01T13:32:46.842Z</time>
      </trkpt>
      <trkpt lat="42.74733" lon="-0.08775">
        <ele>1951</ele>
        <time>2024-08-01T13:32:53.213Z</time>
      </trkpt>
      <trkpt lat="42.74739" lon="-0.0876">
        <ele>1950</ele>
        <time>2024-08-01T13:33:02.718Z</time>
      </trkpt>
      <trkpt lat="42.74745" lon="-0.08742">
        <ele>1949</ele>
        <time>2024-08-01T13:33:14.174Z</time>
      </trkpt>
      <trkpt lat="42.74746" lon="-0.0873">
        <ele>1949</ele>
        <time>2024-08-01T13:33:22.693Z</time>
      </trkpt>
      <trkpt lat="42.74749" lon="-0.08727">
        <ele>1949</ele>
        <time>2024-08-01T13:33:25.714Z</time>
      </trkpt>
      <trkpt lat="42.74755" lon="-0.08709">
        <ele>1948</ele>
        <time>2024-08-01T13:33:37.137Z</time>
      </trkpt>
      <trkpt lat="42.74755" lon="-0.08699">
        <ele>1949</ele>
        <time>2024-08-01T13:33:47.491Z</time>
      </trkpt>
      <trkpt lat="42.7476" lon="-0.08683">
        <ele>1948</ele>
        <time>2024-08-01T13:33:57.768Z</time>
      </trkpt>
      <trkpt lat="42.74764" lon="-0.08671">
        <ele>1947</ele>
        <time>2024-08-01T13:34:05.214Z</time>
      </trkpt>
      <trkpt lat="42.74766" lon="-0.08663">
        <ele>1948</ele>
        <time>2024-08-01T13:34:14.806Z</time>
      </trkpt>
      <trkpt lat="42.74773" lon="-0.08633">
        <ele>1948</ele>
        <time>2024-08-01T13:34:36.087Z</time>
      </trkpt>
      <trkpt lat="42.74782" lon="-0.08614">
        <ele>1946</ele>
        <time>2024-08-01T13:34:49.271Z</time>
      </trkpt>
      <trkpt lat="42.74788" lon="-0.08607">
        <ele>1944</ele>
        <time>2024-08-01T13:34:55.485Z</time>
      </trkpt>
      <trkpt lat="42.74791" lon="-0.086">
        <ele>1942</ele>
        <time>2024-08-01T13:35:00.403Z</time>
      </trkpt>
      <trkpt lat="42.74791" lon="-0.0859">
        <ele>1942</ele>
        <time>2024-08-01T13:35:07.026Z</time>
      </trkpt>
      <trkpt lat="42.74791" lon="-0.08574">
        <ele>1941</ele>
        <time>2024-08-01T13:35:16.356Z</time>
      </trkpt>
      <trkpt lat="42.74789" lon="-0.08566">
        <ele>1941</ele>
        <time>2024-08-01T13:35:21.669Z</time>
      </trkpt>
      <trkpt lat="42.74788" lon="-0.08562">
        <ele>1941</ele>
        <time>2024-08-01T13:35:24.651Z</time>
      </trkpt>
      <trkpt lat="42.74789" lon="-0.08555">
        <ele>1940</ele>
        <time>2024-08-01T13:35:28.917Z</time>
      </trkpt>
      <trkpt lat="42.7479" lon="-0.08548">
        <ele>1938</ele>
        <time>2024-08-01T13:35:33.158Z</time>
      </trkpt>
      <trkpt lat="42.74789" lon="-0.08545">
        <ele>1938</ele>
        <time>2024-08-01T13:35:35.352Z</time>
      </trkpt>
      <trkpt lat="42.74787" lon="-0.08547">
        <ele>1940</ele>
        <time>2024-08-01T13:35:47.289Z</time>
      </trkpt>
      <trkpt lat="42.74777" lon="-0.08548">
        <ele>1945</ele>
        <time>2024-08-01T13:36:34.065Z</time>
      </trkpt>
      <trkpt lat="42.74768" lon="-0.08539">
        <ele>1948</ele>
        <time>2024-08-01T13:37:00.667Z</time>
      </trkpt>
      <trkpt lat="42.74767" lon="-0.08531">
        <ele>1948</ele>
        <time>2024-08-01T13:37:05.466Z</time>
      </trkpt>
      <trkpt lat="42.74765" lon="-0.08524">
        <ele>1948</ele>
        <time>2024-08-01T13:37:10.564Z</time>
      </trkpt>
      <trkpt lat="42.74768" lon="-0.08516">
        <ele>1946</ele>
        <time>2024-08-01T13:37:15.932Z</time>
      </trkpt>
      <trkpt lat="42.74772" lon="-0.08506">
        <ele>1943</ele>
        <time>2024-08-01T13:37:22.232Z</time>
      </trkpt>
      <trkpt lat="42.74774" lon="-0.08491">
        <ele>1940</ele>
        <time>2024-08-01T13:37:31.295Z</time>
      </trkpt>
      <trkpt lat="42.74774" lon="-0.08478">
        <ele>1939</ele>
        <time>2024-08-01T13:37:38.596Z</time>
      </trkpt>
      <trkpt lat="42.74772" lon="-0.0846">
        <ele>1939</ele>
        <time>2024-08-01T13:37:50.699Z</time>
      </trkpt>
      <trkpt lat="42.7477" lon="-0.08452">
        <ele>1940</ele>
        <time>2024-08-01T13:38:00.435Z</time>
      </trkpt>
      <trkpt lat="42.74768" lon="-0.08447">
        <ele>1940</ele>
        <time>2024-08-01T13:38:04.500Z</time>
      </trkpt>
      <trkpt lat="42.74761" lon="-0.08435">
        <ele>1942</ele>
        <time>2024-08-01T13:38:22.973Z</time>
      </trkpt>
      <trkpt lat="42.7476" lon="-0.0843">
        <ele>1942</ele>
        <time>2024-08-01T13:38:26.539Z</time>
      </trkpt>
      <trkpt lat="42.74759" lon="-0.08421">
        <ele>1942</ele>
        <time>2024-08-01T13:38:32.632Z</time>
      </trkpt>
      <trkpt lat="42.74752" lon="-0.08407">
        <ele>1944</ele>
        <time>2024-08-01T13:38:51.886Z</time>
      </trkpt>
      <trkpt lat="42.74748" lon="-0.08399">
        <ele>1944</ele>
        <time>2024-08-01T13:38:58.079Z</time>
      </trkpt>
      <trkpt lat="42.74748" lon="-0.08384">
        <ele>1943</ele>
        <time>2024-08-01T13:39:06.958Z</time>
      </trkpt>
      <trkpt lat="42.74741" lon="-0.08371">
        <ele>1943</ele>
        <time>2024-08-01T13:39:17.644Z</time>
      </trkpt>
      <trkpt lat="42.7474" lon="-0.08368">
        <ele>1942</ele>
        <time>2024-08-01T13:39:19.559Z</time>
      </trkpt>
      <trkpt lat="42.74741" lon="-0.08365">
        <ele>1942</ele>
        <time>2024-08-01T13:39:21.455Z</time>
      </trkpt>
      <trkpt lat="42.74739" lon="-0.08352">
        <ele>1940</ele>
        <time>2024-08-01T13:39:29.346Z</time>
      </trkpt>
      <trkpt lat="42.74736" lon="-0.08349">
        <ele>1941</ele>
        <time>2024-08-01T13:39:38.222Z</time>
      </trkpt>
      <trkpt lat="42.74732" lon="-0.0835">
        <ele>1942</ele>
        <time>2024-08-01T13:39:47.081Z</time>
      </trkpt>
      <trkpt lat="42.74729" lon="-0.08354">
        <ele>1943</ele>
        <time>2024-08-01T13:39:55.988Z</time>
      </trkpt>
      <trkpt lat="42.74726" lon="-0.08354">
        <ele>1944</ele>
        <time>2024-08-01T13:40:05.060Z</time>
      </trkpt>
      <trkpt lat="42.74722" lon="-0.08354">
        <ele>1945</ele>
        <time>2024-08-01T13:40:13.919Z</time>
      </trkpt>
      <trkpt lat="42.74716" lon="-0.08348">
        <ele>1946</ele>
        <time>2024-08-01T13:40:24.211Z</time>
      </trkpt>
      <trkpt lat="42.74711" lon="-0.08333">
        <ele>1945</ele>
        <time>2024-08-01T13:40:34.015Z</time>
      </trkpt>
      <trkpt lat="42.7471" lon="-0.08326">
        <ele>1945</ele>
        <time>2024-08-01T13:40:38.925Z</time>
      </trkpt>
      <trkpt lat="42.74709" lon="-0.08314">
        <ele>1945</ele>
        <time>2024-08-01T13:40:46.693Z</time>
      </trkpt>
      <trkpt lat="42.74706" lon="-0.08293">
        <ele>1946</ele>
        <time>2024-08-01T13:41:03.888Z</time>
      </trkpt>
      <trkpt lat="42.74701" lon="-0.08285">
        <ele>1948</ele>
        <time>2024-08-01T13:41:21.676Z</time>
      </trkpt>
      <trkpt lat="42.747" lon="-0.08272">
        <ele>1947</ele>
        <time>2024-08-01T13:41:29.513Z</time>
      </trkpt>
      <trkpt lat="42.747" lon="-0.08269">
        <ele>1947</ele>
        <time>2024-08-01T13:41:31.410Z</time>
      </trkpt>
      <trkpt lat="42.747" lon="-0.08258">
        <ele>1946</ele>
        <time>2024-08-01T13:41:37.635Z</time>
      </trkpt>
      <trkpt lat="42.747" lon="-0.08253">
        <ele>1946</ele>
        <time>2024-08-01T13:41:41.267Z</time>
      </trkpt>
      <trkpt lat="42.74695" lon="-0.08238">
        <ele>1944</ele>
        <time>2024-08-01T13:41:50.847Z</time>
      </trkpt>
      <trkpt lat="42.74688" lon="-0.0823">
        <ele>1945</ele>
        <time>2024-08-01T13:42:02.138Z</time>
      </trkpt>
      <trkpt lat="42.74682" lon="-0.08217">
        <ele>1945</ele>
        <time>2024-08-01T13:42:12.589Z</time>
      </trkpt>
      <trkpt lat="42.74682" lon="-0.08206">
        <ele>1943</ele>
        <time>2024-08-01T13:42:18.865Z</time>
      </trkpt>
      <trkpt lat="42.74681" lon="-0.08197">
        <ele>1942</ele>
        <time>2024-08-01T13:42:24.110Z</time>
      </trkpt>
      <trkpt lat="42.74682" lon="-0.08188">
        <ele>1940</ele>
        <time>2024-08-01T13:42:29.355Z</time>
      </trkpt>
      <trkpt lat="42.74681" lon="-0.08175">
        <ele>1937</ele>
        <time>2024-08-01T13:42:37.140Z</time>
      </trkpt>
      <trkpt lat="42.74679" lon="-0.08164">
        <ele>1935</ele>
        <time>2024-08-01T13:42:43.632Z</time>
      </trkpt>
      <trkpt lat="42.74677" lon="-0.08158">
        <ele>1935</ele>
        <time>2024-08-01T13:42:48.463Z</time>
      </trkpt>
      <trkpt lat="42.74671" lon="-0.08156">
        <ele>1937</ele>
        <time>2024-08-01T13:43:08.049Z</time>
      </trkpt>
      <trkpt lat="42.74668" lon="-0.08154">
        <ele>1938</ele>
        <time>2024-08-01T13:43:17.054Z</time>
      </trkpt>
      <trkpt lat="42.74664" lon="-0.0815">
        <ele>1938</ele>
        <time>2024-08-01T13:43:21.378Z</time>
      </trkpt>
      <trkpt lat="42.74654" lon="-0.08131">
        <ele>1937</ele>
        <time>2024-08-01T13:43:35.212Z</time>
      </trkpt>
      <trkpt lat="42.74648" lon="-0.08124">
        <ele>1937</ele>
        <time>2024-08-01T13:43:41.974Z</time>
      </trkpt>
      <trkpt lat="42.74638" lon="-0.08115">
        <ele>1937</ele>
        <time>2024-08-01T13:43:52.709Z</time>
      </trkpt>
      <trkpt lat="42.74632" lon="-0.08106">
        <ele>1936</ele>
        <time>2024-08-01T13:44:00.080Z</time>
      </trkpt>
      <trkpt lat="42.74627" lon="-0.08102">
        <ele>1936</ele>
        <time>2024-08-01T13:44:05.188Z</time>
      </trkpt>
      <trkpt lat="42.74613" lon="-0.08096">
        <ele>1937</ele>
        <time>2024-08-01T13:44:21.640Z</time>
      </trkpt>
      <trkpt lat="42.74604" lon="-0.08088">
        <ele>1936</ele>
        <time>2024-08-01T13:44:30.352Z</time>
      </trkpt>
      <trkpt lat="42.74589" lon="-0.08082">
        <ele>1937</ele>
        <time>2024-08-01T13:44:47.624Z</time>
      </trkpt>
      <trkpt lat="42.74579" lon="-0.08074">
        <ele>1936</ele>
        <time>2024-08-01T13:44:56.738Z</time>
      </trkpt>
      <trkpt lat="42.7456" lon="-0.08066">
        <ele>1938</ele>
        <time>2024-08-01T13:45:21.332Z</time>
      </trkpt>
      <trkpt lat="42.7456" lon="-0.08056">
        <ele>1936</ele>
        <time>2024-08-01T13:45:27.038Z</time>
      </trkpt>
      <trkpt lat="42.74551" lon="-0.08038">
        <ele>1936</ele>
        <time>2024-08-01T13:45:41.509Z</time>
      </trkpt>
      <trkpt lat="42.74549" lon="-0.08032">
        <ele>1936</ele>
        <time>2024-08-01T13:45:46.054Z</time>
      </trkpt>
      <trkpt lat="42.74547" lon="-0.08015">
        <ele>1934</ele>
        <time>2024-08-01T13:45:56.075Z</time>
      </trkpt>
      <trkpt lat="42.74549" lon="-0.07995">
        <ele>1933</ele>
        <time>2024-08-01T13:46:07.537Z</time>
      </trkpt>
      <trkpt lat="42.7455" lon="-0.07985">
        <ele>1931</ele>
        <time>2024-08-01T13:46:13.380Z</time>
      </trkpt>
      <trkpt lat="42.74554" lon="-0.07969">
        <ele>1929</ele>
        <time>2024-08-01T13:46:23.205Z</time>
      </trkpt>
      <trkpt lat="42.74553" lon="-0.07963">
        <ele>1929</ele>
        <time>2024-08-01T13:46:27.539Z</time>
      </trkpt>
      <trkpt lat="42.74553" lon="-0.07954">
        <ele>1928</ele>
        <time>2024-08-01T13:46:32.784Z</time>
      </trkpt>
      <trkpt lat="42.74553" lon="-0.07946">
        <ele>1927</ele>
        <time>2024-08-01T13:46:37.510Z</time>
      </trkpt>
      <trkpt lat="42.74553" lon="-0.07938">
        <ele>1926</ele>
        <time>2024-08-01T13:46:41.719Z</time>
      </trkpt>
      <trkpt lat="42.74553" lon="-0.0793">
        <ele>1925</ele>
        <time>2024-08-01T13:46:46.388Z</time>
      </trkpt>
      <trkpt lat="42.74551" lon="-0.07923">
        <ele>1925</ele>
        <time>2024-08-01T13:46:51.548Z</time>
      </trkpt>
      <trkpt lat="42.74545" lon="-0.07916">
        <ele>1925</ele>
        <time>2024-08-01T13:46:58.649Z</time>
      </trkpt>
      <trkpt lat="42.74542" lon="-0.07907">
        <ele>1925</ele>
        <time>2024-08-01T13:47:05.055Z</time>
      </trkpt>
      <trkpt lat="42.74537" lon="-0.07902">
        <ele>1925</ele>
        <time>2024-08-01T13:47:10.644Z</time>
      </trkpt>
      <trkpt lat="42.74534" lon="-0.07898">
        <ele>1926</ele>
        <time>2024-08-01T13:47:19.506Z</time>
      </trkpt>
      <trkpt lat="42.74531" lon="-0.07893">
        <ele>1926</ele>
        <time>2024-08-01T13:47:24.210Z</time>
      </trkpt>
      <trkpt lat="42.74528" lon="-0.07877">
        <ele>1925</ele>
        <time>2024-08-01T13:47:33.198Z</time>
      </trkpt>
      <trkpt lat="42.74524" lon="-0.07866">
        <ele>1924</ele>
        <time>2024-08-01T13:47:40.677Z</time>
      </trkpt>
      <trkpt lat="42.74524" lon="-0.0786">
        <ele>1924</ele>
        <time>2024-08-01T13:47:44.320Z</time>
      </trkpt>
      <trkpt lat="42.74523" lon="-0.07852">
        <ele>1923</ele>
        <time>2024-08-01T13:47:49.068Z</time>
      </trkpt>
      <trkpt lat="42.74521" lon="-0.07842">
        <ele>1922</ele>
        <time>2024-08-01T13:47:55.075Z</time>
      </trkpt>
      <trkpt lat="42.74518" lon="-0.07835">
        <ele>1922</ele>
        <time>2024-08-01T13:48:00.592Z</time>
      </trkpt>
      <trkpt lat="42.74519" lon="-0.07826">
        <ele>1921</ele>
        <time>2024-08-01T13:48:05.893Z</time>
      </trkpt>
      <trkpt lat="42.74518" lon="-0.07815">
        <ele>1920</ele>
        <time>2024-08-01T13:48:12.632Z</time>
      </trkpt>
      <trkpt lat="42.7452" lon="-0.0781">
        <ele>1919</ele>
        <time>2024-08-01T13:48:15.489Z</time>
      </trkpt>
      <trkpt lat="42.74517" lon="-0.07797">
        <ele>1919</ele>
        <time>2024-08-01T13:48:24.668Z</time>
      </trkpt>
      <trkpt lat="42.74515" lon="-0.07794">
        <ele>1919</ele>
        <time>2024-08-01T13:48:27.208Z</time>
      </trkpt>
      <trkpt lat="42.74515" lon="-0.07788">
        <ele>1919</ele>
        <time>2024-08-01T13:48:30.851Z</time>
      </trkpt>
      <trkpt lat="42.74514" lon="-0.07785">
        <ele>1919</ele>
        <time>2024-08-01T13:48:33.448Z</time>
      </trkpt>
      <trkpt lat="42.74512" lon="-0.07777">
        <ele>1919</ele>
        <time>2024-08-01T13:48:38.940Z</time>
      </trkpt>
      <trkpt lat="42.74512" lon="-0.07767">
        <ele>1919</ele>
        <time>2024-08-01T13:48:45.461Z</time>
      </trkpt>
      <trkpt lat="42.74508" lon="-0.07759">
        <ele>1919</ele>
        <time>2024-08-01T13:48:51.654Z</time>
      </trkpt>
      <trkpt lat="42.74504" lon="-0.07738">
        <ele>1919</ele>
        <time>2024-08-01T13:49:05.978Z</time>
      </trkpt>
      <trkpt lat="42.74502" lon="-0.07729">
        <ele>1918</ele>
        <time>2024-08-01T13:49:11.252Z</time>
      </trkpt>
      <trkpt lat="42.74498" lon="-0.07716">
        <ele>1919</ele>
        <time>2024-08-01T13:49:24.308Z</time>
      </trkpt>
      <trkpt lat="42.74485" lon="-0.07687">
        <ele>1918</ele>
        <time>2024-08-01T13:49:44.185Z</time>
      </trkpt>
      <trkpt lat="42.74481" lon="-0.07677">
        <ele>1917</ele>
        <time>2024-08-01T13:49:50.733Z</time>
      </trkpt>
      <trkpt lat="42.74475" lon="-0.07668">
        <ele>1916</ele>
        <time>2024-08-01T13:49:58.104Z</time>
      </trkpt>
      <trkpt lat="42.74471" lon="-0.07654">
        <ele>1914</ele>
        <time>2024-08-01T13:50:06.768Z</time>
      </trkpt>
      <trkpt lat="42.74467" lon="-0.07637">
        <ele>1910</ele>
        <time>2024-08-01T13:50:17.403Z</time>
      </trkpt>
      <trkpt lat="42.74463" lon="-0.07631">
        <ele>1909</ele>
        <time>2024-08-01T13:50:21.430Z</time>
      </trkpt>
      <trkpt lat="42.7446" lon="-0.07629">
        <ele>1909</ele>
        <time>2024-08-01T13:50:24.825Z</time>
      </trkpt>
      <trkpt lat="42.7445" lon="-0.07623">
        <ele>1909</ele>
        <time>2024-08-01T13:50:35.032Z</time>
      </trkpt>
      <trkpt lat="42.74433" lon="-0.07625">
        <ele>1910</ele>
        <time>2024-08-01T13:50:53.136Z</time>
      </trkpt>
      <trkpt lat="42.74416" lon="-0.07625">
        <ele>1911</ele>
        <time>2024-08-01T13:51:11.812Z</time>
      </trkpt>
      <trkpt lat="42.74411" lon="-0.07626">
        <ele>1911</ele>
        <time>2024-08-01T13:51:16.013Z</time>
      </trkpt>
      <trkpt lat="42.74408" lon="-0.07625">
        <ele>1911</ele>
        <time>2024-08-01T13:51:19.062Z</time>
      </trkpt>
      <trkpt lat="42.74404" lon="-0.07618">
        <ele>1910</ele>
        <time>2024-08-01T13:51:24.248Z</time>
      </trkpt>
      <trkpt lat="42.744" lon="-0.07608">
        <ele>1907</ele>
        <time>2024-08-01T13:51:30.996Z</time>
      </trkpt>
      <trkpt lat="42.74385" lon="-0.07589">
        <ele>1907</ele>
        <time>2024-08-01T13:51:49.164Z</time>
      </trkpt>
      <trkpt lat="42.74381" lon="-0.0758">
        <ele>1907</ele>
        <time>2024-08-01T13:51:56.085Z</time>
      </trkpt>
      <trkpt lat="42.74378" lon="-0.07576">
        <ele>1908</ele>
        <time>2024-08-01T13:52:05.023Z</time>
      </trkpt>
      <trkpt lat="42.74377" lon="-0.07564">
        <ele>1908</ele>
        <time>2024-08-01T13:52:12.798Z</time>
      </trkpt>
      <trkpt lat="42.74375" lon="-0.07562">
        <ele>1908</ele>
        <time>2024-08-01T13:52:14.960Z</time>
      </trkpt>
      <trkpt lat="42.74374" lon="-0.07554">
        <ele>1908</ele>
        <time>2024-08-01T13:52:20.451Z</time>
      </trkpt>
      <trkpt lat="42.74371" lon="-0.07533">
        <ele>1907</ele>
        <time>2024-08-01T13:52:32.578Z</time>
      </trkpt>
      <trkpt lat="42.74369" lon="-0.075">
        <ele>1904</ele>
        <time>2024-08-01T13:52:51.935Z</time>
      </trkpt>
      <trkpt lat="42.74361" lon="-0.07463">
        <ele>1901</ele>
        <time>2024-08-01T13:53:14.316Z</time>
      </trkpt>
      <trkpt lat="42.74351" lon="-0.07432">
        <ele>1899</ele>
        <time>2024-08-01T13:53:33.962Z</time>
      </trkpt>
      <trkpt lat="42.74347" lon="-0.07425">
        <ele>1900</ele>
        <time>2024-08-01T13:53:43.889Z</time>
      </trkpt>
      <trkpt lat="42.74347" lon="-0.07417">
        <ele>1899</ele>
        <time>2024-08-01T13:53:48.098Z</time>
      </trkpt>
      <trkpt lat="42.74341" lon="-0.07398">
        <ele>1897</ele>
        <time>2024-08-01T13:54:00.230Z</time>
      </trkpt>
      <trkpt lat="42.74337" lon="-0.07386">
        <ele>1897</ele>
        <time>2024-08-01T13:54:09.019Z</time>
      </trkpt>
      <trkpt lat="42.7433" lon="-0.07369">
        <ele>1896</ele>
        <time>2024-08-01T13:54:20.303Z</time>
      </trkpt>
      <trkpt lat="42.7432" lon="-0.0735">
        <ele>1895</ele>
        <time>2024-08-01T13:54:33.945Z</time>
      </trkpt>
      <trkpt lat="42.74316" lon="-0.07344">
        <ele>1895</ele>
        <time>2024-08-01T13:54:39.461Z</time>
      </trkpt>
      <trkpt lat="42.74309" lon="-0.07338">
        <ele>1895</ele>
        <time>2024-08-01T13:54:46.656Z</time>
      </trkpt>
      <trkpt lat="42.74299" lon="-0.07332">
        <ele>1896</ele>
        <time>2024-08-01T13:54:59.721Z</time>
      </trkpt>
      <trkpt lat="42.74277" lon="-0.0732">
        <ele>1897</ele>
        <time>2024-08-01T13:55:24.404Z</time>
      </trkpt>
      <trkpt lat="42.74269" lon="-0.07318">
        <ele>1898</ele>
        <time>2024-08-01T13:55:35.093Z</time>
      </trkpt>
      <trkpt lat="42.74262" lon="-0.07317">
        <ele>1899</ele>
        <time>2024-08-01T13:55:45.471Z</time>
      </trkpt>
      <trkpt lat="42.74252" lon="-0.07308">
        <ele>1897</ele>
        <time>2024-08-01T13:55:54.864Z</time>
      </trkpt>
      <trkpt lat="42.74248" lon="-0.07307">
        <ele>1897</ele>
        <time>2024-08-01T13:55:59.056Z</time>
      </trkpt>
      <trkpt lat="42.74237" lon="-0.07302">
        <ele>1897</ele>
        <time>2024-08-01T13:56:09.587Z</time>
      </trkpt>
      <trkpt lat="42.74235" lon="-0.07303">
        <ele>1898</ele>
        <time>2024-08-01T13:56:19.560Z</time>
      </trkpt>
      <trkpt lat="42.74231" lon="-0.07306">
        <ele>1899</ele>
        <time>2024-08-01T13:56:28.443Z</time>
      </trkpt>
      <trkpt lat="42.74228" lon="-0.07307">
        <ele>1900</ele>
        <time>2024-08-01T13:56:37.496Z</time>
      </trkpt>
      <trkpt lat="42.7422" lon="-0.07294">
        <ele>1896</ele>
        <time>2024-08-01T13:56:47.454Z</time>
      </trkpt>
      <trkpt lat="42.74204" lon="-0.07284">
        <ele>1895</ele>
        <time>2024-08-01T13:57:01.275Z</time>
      </trkpt>
      <trkpt lat="42.74193" lon="-0.07273">
        <ele>1893</ele>
        <time>2024-08-01T13:57:12.072Z</time>
      </trkpt>
      <trkpt lat="42.74168" lon="-0.07258">
        <ele>1890</ele>
        <time>2024-08-01T13:57:33.516Z</time>
      </trkpt>
      <trkpt lat="42.74146" lon="-0.07253">
        <ele>1891</ele>
        <time>2024-08-01T13:57:56.557Z</time>
      </trkpt>
      <trkpt lat="42.74122" lon="-0.07249">
        <ele>1892</ele>
        <time>2024-08-01T13:58:21.207Z</time>
      </trkpt>
      <trkpt lat="42.74097" lon="-0.07253">
        <ele>1892</ele>
        <time>2024-08-01T13:58:44.514Z</time>
      </trkpt>
      <trkpt lat="42.74092" lon="-0.07257">
        <ele>1893</ele>
        <time>2024-08-01T13:58:53.712Z</time>
      </trkpt>
      <trkpt lat="42.74088" lon="-0.07255">
        <ele>1892</ele>
        <time>2024-08-01T13:58:56.962Z</time>
      </trkpt>
      <trkpt lat="42.74066" lon="-0.0726">
        <ele>1893</ele>
        <time>2024-08-01T13:59:20.627Z</time>
      </trkpt>
      <trkpt lat="42.74035" lon="-0.07256">
        <ele>1892</ele>
        <time>2024-08-01T13:59:46.156Z</time>
      </trkpt>
      <trkpt lat="42.7401" lon="-0.07253">
        <ele>1891</ele>
        <time>2024-08-01T14:00:06.304Z</time>
      </trkpt>
      <trkpt lat="42.7399" lon="-0.07262">
        <ele>1893</ele>
        <time>2024-08-01T14:00:31.494Z</time>
      </trkpt>
      <trkpt lat="42.73979" lon="-0.07262">
        <ele>1893</ele>
        <time>2024-08-01T14:00:42.226Z</time>
      </trkpt>
      <trkpt lat="42.73967" lon="-0.07265">
        <ele>1894</ele>
        <time>2024-08-01T14:00:56.462Z</time>
      </trkpt>
      <trkpt lat="42.73963" lon="-0.07267">
        <ele>1895</ele>
        <time>2024-08-01T14:01:05.411Z</time>
      </trkpt>
      <trkpt lat="42.73953" lon="-0.07266">
        <ele>1895</ele>
        <time>2024-08-01T14:01:14.900Z</time>
      </trkpt>
      <trkpt lat="42.7395" lon="-0.07264">
        <ele>1895</ele>
        <time>2024-08-01T14:01:17.611Z</time>
      </trkpt>
      <trkpt lat="42.73946" lon="-0.07262">
        <ele>1895</ele>
        <time>2024-08-01T14:01:21.946Z</time>
      </trkpt>
      <trkpt lat="42.7394" lon="-0.07264">
        <ele>1895</ele>
        <time>2024-08-01T14:01:27.414Z</time>
      </trkpt>
      <trkpt lat="42.73932" lon="-0.07262">
        <ele>1896</ele>
        <time>2024-08-01T14:01:37.866Z</time>
      </trkpt>
      <trkpt lat="42.73928" lon="-0.07258">
        <ele>1896</ele>
        <time>2024-08-01T14:01:42.729Z</time>
      </trkpt>
      <trkpt lat="42.73924" lon="-0.07257">
        <ele>1896</ele>
        <time>2024-08-01T14:01:46.423Z</time>
      </trkpt>
      <trkpt lat="42.73919" lon="-0.07254">
        <ele>1896</ele>
        <time>2024-08-01T14:01:50.940Z</time>
      </trkpt>
      <trkpt lat="42.73914" lon="-0.07252">
        <ele>1896</ele>
        <time>2024-08-01T14:01:55.851Z</time>
      </trkpt>
      <trkpt lat="42.73907" lon="-0.07251">
        <ele>1897</ele>
        <time>2024-08-01T14:02:06.305Z</time>
      </trkpt>
      <trkpt lat="42.73903" lon="-0.07249">
        <ele>1897</ele>
        <time>2024-08-01T14:02:10.251Z</time>
      </trkpt>
      <trkpt lat="42.73897" lon="-0.07246">
        <ele>1898</ele>
        <time>2024-08-01T14:02:19.613Z</time>
      </trkpt>
      <trkpt lat="42.73892" lon="-0.0724">
        <ele>1897</ele>
        <time>2024-08-01T14:02:24.872Z</time>
      </trkpt>
      <trkpt lat="42.7389" lon="-0.07238">
        <ele>1897</ele>
        <time>2024-08-01T14:02:27.412Z</time>
      </trkpt>
      <trkpt lat="42.73888" lon="-0.07236">
        <ele>1898</ele>
        <time>2024-08-01T14:02:36.911Z</time>
      </trkpt>
      <trkpt lat="42.73886" lon="-0.07235">
        <ele>1898</ele>
        <time>2024-08-01T14:02:38.811Z</time>
      </trkpt>
      <trkpt lat="42.73884" lon="-0.07234">
        <ele>1898</ele>
        <time>2024-08-01T14:02:40.180Z</time>
      </trkpt>
      <trkpt lat="42.73882" lon="-0.07231">
        <ele>1898</ele>
        <time>2024-08-01T14:02:43.117Z</time>
      </trkpt>
      <trkpt lat="42.73878" lon="-0.07227">
        <ele>1898</ele>
        <time>2024-08-01T14:02:47.478Z</time>
      </trkpt>
      <trkpt lat="42.73873" lon="-0.07224">
        <ele>1898</ele>
        <time>2024-08-01T14:02:52.559Z</time>
      </trkpt>
      <trkpt lat="42.73871" lon="-0.07222">
        <ele>1898</ele>
        <time>2024-08-01T14:02:55.035Z</time>
      </trkpt>
      <trkpt lat="42.73869" lon="-0.07219">
        <ele>1898</ele>
        <time>2024-08-01T14:02:57.575Z</time>
      </trkpt>
      <trkpt lat="42.7386" lon="-0.07217">
        <ele>1900</ele>
        <time>2024-08-01T14:03:15.339Z</time>
      </trkpt>
      <trkpt lat="42.7385" lon="-0.07214">
        <ele>1901</ele>
        <time>2024-08-01T14:03:28.524Z</time>
      </trkpt>
      <trkpt lat="42.73843" lon="-0.07208">
        <ele>1901</ele>
        <time>2024-08-01T14:03:35.580Z</time>
      </trkpt>
      <trkpt lat="42.73839" lon="-0.07201">
        <ele>1901</ele>
        <time>2024-08-01T14:03:41.851Z</time>
      </trkpt>
      <trkpt lat="42.73837" lon="-0.07196">
        <ele>1900</ele>
        <time>2024-08-01T14:03:44.859Z</time>
      </trkpt>
      <trkpt lat="42.73833" lon="-0.07193">
        <ele>1900</ele>
        <time>2024-08-01T14:03:48.715Z</time>
      </trkpt>
      <trkpt lat="42.73831" lon="-0.07187">
        <ele>1899</ele>
        <time>2024-08-01T14:03:52.453Z</time>
      </trkpt>
      <trkpt lat="42.73826" lon="-0.07181">
        <ele>1899</ele>
        <time>2024-08-01T14:03:58.730Z</time>
      </trkpt>
      <trkpt lat="42.73822" lon="-0.07172">
        <ele>1897</ele>
        <time>2024-08-01T14:04:04.596Z</time>
      </trkpt>
      <trkpt lat="42.73809" lon="-0.07151">
        <ele>1897</ele>
        <time>2024-08-01T14:04:22.696Z</time>
      </trkpt>
      <trkpt lat="42.73802" lon="-0.07138">
        <ele>1896</ele>
        <time>2024-08-01T14:04:32.091Z</time>
      </trkpt>
      <trkpt lat="42.73787" lon="-0.07123">
        <ele>1898</ele>
        <time>2024-08-01T14:04:56.631Z</time>
      </trkpt>
      <trkpt lat="42.73771" lon="-0.07102">
        <ele>1899</ele>
        <time>2024-08-01T14:05:18.991Z</time>
      </trkpt>
      <trkpt lat="42.73763" lon="-0.07095">
        <ele>1901</ele>
        <time>2024-08-01T14:05:37.175Z</time>
      </trkpt>
      <trkpt lat="42.7374" lon="-0.07074">
        <ele>1904</ele>
        <time>2024-08-01T14:06:12.410Z</time>
      </trkpt>
      <trkpt lat="42.73738" lon="-0.07071">
        <ele>1904</ele>
        <time>2024-08-01T14:06:15.292Z</time>
      </trkpt>
      <trkpt lat="42.73739" lon="-0.07064">
        <ele>1905</ele>
        <time>2024-08-01T14:06:24.244Z</time>
      </trkpt>
      <trkpt lat="42.73741" lon="-0.07061">
        <ele>1905</ele>
        <time>2024-08-01T14:06:27.233Z</time>
      </trkpt>
      <trkpt lat="42.73744" lon="-0.07055">
        <ele>1906</ele>
        <time>2024-08-01T14:06:36.225Z</time>
      </trkpt>
      <trkpt lat="42.73746" lon="-0.07048">
        <ele>1907</ele>
        <time>2024-08-01T14:06:45.732Z</time>
      </trkpt>
      <trkpt lat="42.7375" lon="-0.07044">
        <ele>1908</ele>
        <time>2024-08-01T14:06:54.684Z</time>
      </trkpt>
      <trkpt lat="42.73754" lon="-0.07039">
        <ele>1909</ele>
        <time>2024-08-01T14:07:03.795Z</time>
      </trkpt>
      <trkpt lat="42.73781" lon="-0.07034">
        <ele>1907</ele>
        <time>2024-08-01T14:07:25.409Z</time>
      </trkpt>
      <trkpt lat="42.73847" lon="-0.07007">
        <ele>1901</ele>
        <time>2024-08-01T14:08:19.775Z</time>
      </trkpt>
      <trkpt lat="42.7386" lon="-0.07001">
        <ele>1900</ele>
        <time>2024-08-01T14:08:31.261Z</time>
      </trkpt>
      <trkpt lat="42.73866" lon="-0.06993">
        <ele>1900</ele>
        <time>2024-08-01T14:08:38.446Z</time>
      </trkpt>
      <trkpt lat="42.73874" lon="-0.06986">
        <ele>1900</ele>
        <time>2024-08-01T14:08:46.703Z</time>
      </trkpt>
      <trkpt lat="42.73876" lon="-0.06982">
        <ele>1901</ele>
        <time>2024-08-01T14:08:55.567Z</time>
      </trkpt>
      <trkpt lat="42.73878" lon="-0.06975">
        <ele>1902</ele>
        <time>2024-08-01T14:09:04.649Z</time>
      </trkpt>
      <trkpt lat="42.73881" lon="-0.06969">
        <ele>1902</ele>
        <time>2024-08-01T14:09:09.423Z</time>
      </trkpt>
      <trkpt lat="42.73884" lon="-0.06962">
        <ele>1904</ele>
        <time>2024-08-01T14:09:27.945Z</time>
      </trkpt>
      <trkpt lat="42.73888" lon="-0.06958">
        <ele>1904</ele>
        <time>2024-08-01T14:09:32.582Z</time>
      </trkpt>
      <trkpt lat="42.73899" lon="-0.06955">
        <ele>1904</ele>
        <time>2024-08-01T14:09:42.941Z</time>
      </trkpt>
      <trkpt lat="42.73911" lon="-0.06951">
        <ele>1904</ele>
        <time>2024-08-01T14:09:53.304Z</time>
      </trkpt>
      <trkpt lat="42.73914" lon="-0.06947">
        <ele>1904</ele>
        <time>2024-08-01T14:09:57.517Z</time>
      </trkpt>
      <trkpt lat="42.73917" lon="-0.06948">
        <ele>1904</ele>
        <time>2024-08-01T14:09:59.936Z</time>
      </trkpt>
      <trkpt lat="42.73926" lon="-0.06947">
        <ele>1904</ele>
        <time>2024-08-01T14:10:08.254Z</time>
      </trkpt>
      <trkpt lat="42.73933" lon="-0.06947">
        <ele>1903</ele>
        <time>2024-08-01T14:10:14.015Z</time>
      </trkpt>
      <trkpt lat="42.73944" lon="-0.0694">
        <ele>1904</ele>
        <time>2024-08-01T14:10:28.321Z</time>
      </trkpt>
      <trkpt lat="42.73964" lon="-0.06939">
        <ele>1904</ele>
        <time>2024-08-01T14:10:46.213Z</time>
      </trkpt>
      <trkpt lat="42.73971" lon="-0.06937">
        <ele>1904</ele>
        <time>2024-08-01T14:10:52.297Z</time>
      </trkpt>
      <trkpt lat="42.73982" lon="-0.06934">
        <ele>1904</ele>
        <time>2024-08-01T14:11:02.555Z</time>
      </trkpt>
      <trkpt lat="42.73992" lon="-0.06932">
        <ele>1904</ele>
        <time>2024-08-01T14:11:11.554Z</time>
      </trkpt>
      <trkpt lat="42.73997" lon="-0.06929">
        <ele>1904</ele>
        <time>2024-08-01T14:11:16.896Z</time>
      </trkpt>
      <trkpt lat="42.74009" lon="-0.06924">
        <ele>1903</ele>
        <time>2024-08-01T14:11:26.627Z</time>
      </trkpt>
      <trkpt lat="42.74015" lon="-0.06919">
        <ele>1903</ele>
        <time>2024-08-01T14:11:33.075Z</time>
      </trkpt>
      <trkpt lat="42.74021" lon="-0.06921">
        <ele>1902</ele>
        <time>2024-08-01T14:11:37.847Z</time>
      </trkpt>
      <trkpt lat="42.7403" lon="-0.06916">
        <ele>1901</ele>
        <time>2024-08-01T14:11:45.635Z</time>
      </trkpt>
      <trkpt lat="42.74038" lon="-0.06913">
        <ele>1900</ele>
        <time>2024-08-01T14:11:52.191Z</time>
      </trkpt>
      <trkpt lat="42.7404" lon="-0.0691">
        <ele>1900</ele>
        <time>2024-08-01T14:11:54.668Z</time>
      </trkpt>
      <trkpt lat="42.74048" lon="-0.06898">
        <ele>1900</ele>
        <time>2024-08-01T14:12:05.305Z</time>
      </trkpt>
      <trkpt lat="42.74051" lon="-0.06895">
        <ele>1900</ele>
        <time>2024-08-01T14:12:08.777Z</time>
      </trkpt>
      <trkpt lat="42.74059" lon="-0.06886">
        <ele>1899</ele>
        <time>2024-08-01T14:12:16.905Z</time>
      </trkpt>
      <trkpt lat="42.74063" lon="-0.06883">
        <ele>1898</ele>
        <time>2024-08-01T14:12:20.626Z</time>
      </trkpt>
      <trkpt lat="42.74066" lon="-0.06878">
        <ele>1898</ele>
        <time>2024-08-01T14:12:24.471Z</time>
      </trkpt>
      <trkpt lat="42.74068" lon="-0.06877">
        <ele>1898</ele>
        <time>2024-08-01T14:12:26.633Z</time>
      </trkpt>
      <trkpt lat="42.74071" lon="-0.0687">
        <ele>1898</ele>
        <time>2024-08-01T14:12:31.759Z</time>
      </trkpt>
      <trkpt lat="42.74074" lon="-0.06863">
        <ele>1898</ele>
        <time>2024-08-01T14:12:37.380Z</time>
      </trkpt>
      <trkpt lat="42.74078" lon="-0.06856">
        <ele>1898</ele>
        <time>2024-08-01T14:12:42.946Z</time>
      </trkpt>
      <trkpt lat="42.74081" lon="-0.06848">
        <ele>1899</ele>
        <time>2024-08-01T14:12:53.284Z</time>
      </trkpt>
      <trkpt lat="42.74085" lon="-0.06837">
        <ele>1900</ele>
        <time>2024-08-01T14:13:04.855Z</time>
      </trkpt>
      <trkpt lat="42.74087" lon="-0.06829">
        <ele>1901</ele>
        <time>2024-08-01T14:13:14.593Z</time>
      </trkpt>
      <trkpt lat="42.74093" lon="-0.06818">
        <ele>1902</ele>
        <time>2024-08-01T14:13:26.738Z</time>
      </trkpt>
      <trkpt lat="42.74098" lon="-0.06808">
        <ele>1902</ele>
        <time>2024-08-01T14:13:34.746Z</time>
      </trkpt>
      <trkpt lat="42.74106" lon="-0.06801">
        <ele>1902</ele>
        <time>2024-08-01T14:13:43.356Z</time>
      </trkpt>
      <trkpt lat="42.74112" lon="-0.06798">
        <ele>1901</ele>
        <time>2024-08-01T14:13:48.530Z</time>
      </trkpt>
      <trkpt lat="42.74136" lon="-0.06781">
        <ele>1897</ele>
        <time>2024-08-01T14:14:10.160Z</time>
      </trkpt>
      <trkpt lat="42.7416" lon="-0.06766">
        <ele>1892</ele>
        <time>2024-08-01T14:14:30.639Z</time>
      </trkpt>
      <trkpt lat="42.74161" lon="-0.06764">
        <ele>1892</ele>
        <time>2024-08-01T14:14:32.775Z</time>
      </trkpt>
      <trkpt lat="42.74166" lon="-0.06759">
        <ele>1891</ele>
        <time>2024-08-01T14:14:37.279Z</time>
      </trkpt>
      <trkpt lat="42.74168" lon="-0.06751">
        <ele>1890</ele>
        <time>2024-08-01T14:14:42.176Z</time>
      </trkpt>
      <trkpt lat="42.74169" lon="-0.06745">
        <ele>1890</ele>
        <time>2024-08-01T14:14:46.450Z</time>
      </trkpt>
      <trkpt lat="42.74168" lon="-0.06741">
        <ele>1890</ele>
        <time>2024-08-01T14:14:48.895Z</time>
      </trkpt>
      <trkpt lat="42.74156" lon="-0.06733">
        <ele>1892</ele>
        <time>2024-08-01T14:15:08.833Z</time>
      </trkpt>
      <trkpt lat="42.74151" lon="-0.06728">
        <ele>1893</ele>
        <time>2024-08-01T14:15:18.576Z</time>
      </trkpt>
      <trkpt lat="42.74146" lon="-0.06722">
        <ele>1893</ele>
        <time>2024-08-01T14:15:24.367Z</time>
      </trkpt>
      <trkpt lat="42.74146" lon="-0.06719">
        <ele>1894</ele>
        <time>2024-08-01T14:15:34.168Z</time>
      </trkpt>
      <trkpt lat="42.74146" lon="-0.06711">
        <ele>1894</ele>
        <time>2024-08-01T14:15:38.937Z</time>
      </trkpt>
      <trkpt lat="42.74147" lon="-0.06708">
        <ele>1894</ele>
        <time>2024-08-01T14:15:41.595Z</time>
      </trkpt>
      <trkpt lat="42.74148" lon="-0.06705">
        <ele>1893</ele>
        <time>2024-08-01T14:15:43.254Z</time>
      </trkpt>
      <trkpt lat="42.74149" lon="-0.06694">
        <ele>1893</ele>
        <time>2024-08-01T14:15:50.437Z</time>
      </trkpt>
      <trkpt lat="42.74154" lon="-0.06682">
        <ele>1893</ele>
        <time>2024-08-01T14:15:59.757Z</time>
      </trkpt>
      <trkpt lat="42.74156" lon="-0.06676">
        <ele>1893</ele>
        <time>2024-08-01T14:16:03.763Z</time>
      </trkpt>
      <trkpt lat="42.74157" lon="-0.06668">
        <ele>1893</ele>
        <time>2024-08-01T14:16:09.255Z</time>
      </trkpt>
      <trkpt lat="42.7416" lon="-0.06664">
        <ele>1892</ele>
        <time>2024-08-01T14:16:12.573Z</time>
      </trkpt>
      <trkpt lat="42.74164" lon="-0.06655">
        <ele>1891</ele>
        <time>2024-08-01T14:16:18.670Z</time>
      </trkpt>
      <trkpt lat="42.74166" lon="-0.06642">
        <ele>1891</ele>
        <time>2024-08-01T14:16:27.208Z</time>
      </trkpt>
      <trkpt lat="42.74166" lon="-0.06633">
        <ele>1891</ele>
        <time>2024-08-01T14:16:33.169Z</time>
      </trkpt>
      <trkpt lat="42.74166" lon="-0.06621">
        <ele>1891</ele>
        <time>2024-08-01T14:16:41.449Z</time>
      </trkpt>
      <trkpt lat="42.74168" lon="-0.06606">
        <ele>1890</ele>
        <time>2024-08-01T14:16:49.999Z</time>
      </trkpt>
      <trkpt lat="42.74169" lon="-0.06593">
        <ele>1890</ele>
        <time>2024-08-01T14:16:58.891Z</time>
      </trkpt>
      <trkpt lat="42.74171" lon="-0.06582">
        <ele>1889</ele>
        <time>2024-08-01T14:17:05.290Z</time>
      </trkpt>
      <trkpt lat="42.74171" lon="-0.0657">
        <ele>1890</ele>
        <time>2024-08-01T14:17:16.702Z</time>
      </trkpt>
      <trkpt lat="42.74171" lon="-0.06551">
        <ele>1890</ele>
        <time>2024-08-01T14:17:29.816Z</time>
      </trkpt>
      <trkpt lat="42.74173" lon="-0.0654">
        <ele>1891</ele>
        <time>2024-08-01T14:17:40.744Z</time>
      </trkpt>
      <trkpt lat="42.74175" lon="-0.06533">
        <ele>1891</ele>
        <time>2024-08-01T14:17:45.905Z</time>
      </trkpt>
      <trkpt lat="42.74179" lon="-0.06524">
        <ele>1890</ele>
        <time>2024-08-01T14:17:52.002Z</time>
      </trkpt>
      <trkpt lat="42.74187" lon="-0.06511">
        <ele>1888</ele>
        <time>2024-08-01T14:18:01.917Z</time>
      </trkpt>
      <trkpt lat="42.74188" lon="-0.06503">
        <ele>1888</ele>
        <time>2024-08-01T14:18:07.244Z</time>
      </trkpt>
      <trkpt lat="42.74187" lon="-0.06497">
        <ele>1889</ele>
        <time>2024-08-01T14:18:16.194Z</time>
      </trkpt>
      <trkpt lat="42.74192" lon="-0.06488">
        <ele>1888</ele>
        <time>2024-08-01T14:18:22.549Z</time>
      </trkpt>
      <trkpt lat="42.74196" lon="-0.06476">
        <ele>1887</ele>
        <time>2024-08-01T14:18:30.241Z</time>
      </trkpt>
      <trkpt lat="42.74207" lon="-0.06459">
        <ele>1885</ele>
        <time>2024-08-01T14:18:43.165Z</time>
      </trkpt>
      <trkpt lat="42.74211" lon="-0.06452">
        <ele>1884</ele>
        <time>2024-08-01T14:18:48.397Z</time>
      </trkpt>
      <trkpt lat="42.74217" lon="-0.06437">
        <ele>1883</ele>
        <time>2024-08-01T14:18:57.953Z</time>
      </trkpt>
      <trkpt lat="42.74217" lon="-0.06432">
        <ele>1882</ele>
        <time>2024-08-01T14:19:01.119Z</time>
      </trkpt>
      <trkpt lat="42.74219" lon="-0.06417">
        <ele>1882</ele>
        <time>2024-08-01T14:19:11.331Z</time>
      </trkpt>
      <trkpt lat="42.74217" lon="-0.06407">
        <ele>1883</ele>
        <time>2024-08-01T14:19:21.932Z</time>
      </trkpt>
      <trkpt lat="42.74217" lon="-0.06403">
        <ele>1883</ele>
        <time>2024-08-01T14:19:24.313Z</time>
      </trkpt>
      <trkpt lat="42.74215" lon="-0.06397">
        <ele>1884</ele>
        <time>2024-08-01T14:19:33.379Z</time>
      </trkpt>
      <trkpt lat="42.74215" lon="-0.06389">
        <ele>1884</ele>
        <time>2024-08-01T14:19:38.744Z</time>
      </trkpt>
      <trkpt lat="42.74217" lon="-0.0638">
        <ele>1885</ele>
        <time>2024-08-01T14:19:48.780Z</time>
      </trkpt>
      <trkpt lat="42.74217" lon="-0.06368">
        <ele>1885</ele>
        <time>2024-08-01T14:19:56.548Z</time>
      </trkpt>
      <trkpt lat="42.74225" lon="-0.06353">
        <ele>1884</ele>
        <time>2024-08-01T14:20:07.386Z</time>
      </trkpt>
      <trkpt lat="42.74239" lon="-0.06334">
        <ele>1881</ele>
        <time>2024-08-01T14:20:22.832Z</time>
      </trkpt>
      <trkpt lat="42.74248" lon="-0.06321">
        <ele>1879</ele>
        <time>2024-08-01T14:20:32.801Z</time>
      </trkpt>
      <trkpt lat="42.7425" lon="-0.06316">
        <ele>1878</ele>
        <time>2024-08-01T14:20:36.254Z</time>
      </trkpt>
      <trkpt lat="42.74252" lon="-0.0631">
        <ele>1876</ele>
        <time>2024-08-01T14:20:40.232Z</time>
      </trkpt>
      <trkpt lat="42.74252" lon="-0.06304">
        <ele>1876</ele>
        <time>2024-08-01T14:20:43.808Z</time>
      </trkpt>
      <trkpt lat="42.74248" lon="-0.06283">
        <ele>1875</ele>
        <time>2024-08-01T14:20:56.611Z</time>
      </trkpt>
      <trkpt lat="42.74249" lon="-0.06279">
        <ele>1874</ele>
        <time>2024-08-01T14:20:58.769Z</time>
      </trkpt>
      <trkpt lat="42.74248" lon="-0.06274">
        <ele>1875</ele>
        <time>2024-08-01T14:21:07.631Z</time>
      </trkpt>
      <trkpt lat="42.74245" lon="-0.06267">
        <ele>1875</ele>
        <time>2024-08-01T14:21:12.927Z</time>
      </trkpt>
      <trkpt lat="42.74245" lon="-0.06261">
        <ele>1875</ele>
        <time>2024-08-01T14:21:16.570Z</time>
      </trkpt>
      <trkpt lat="42.74239" lon="-0.06249">
        <ele>1876</ele>
        <time>2024-08-01T14:21:29.839Z</time>
      </trkpt>
      <trkpt lat="42.74236" lon="-0.06241">
        <ele>1877</ele>
        <time>2024-08-01T14:21:39.888Z</time>
      </trkpt>
      <trkpt lat="42.74235" lon="-0.06233">
        <ele>1877</ele>
        <time>2024-08-01T14:21:45.400Z</time>
      </trkpt>
      <trkpt lat="42.74232" lon="-0.06225">
        <ele>1877</ele>
        <time>2024-08-01T14:21:50.714Z</time>
      </trkpt>
      <trkpt lat="42.74219" lon="-0.06209">
        <ele>1878</ele>
        <time>2024-08-01T14:22:09.395Z</time>
      </trkpt>
      <trkpt lat="42.74211" lon="-0.06198">
        <ele>1878</ele>
        <time>2024-08-01T14:22:19.992Z</time>
      </trkpt>
      <trkpt lat="42.74209" lon="-0.06194">
        <ele>1878</ele>
        <time>2024-08-01T14:22:23.168Z</time>
      </trkpt>
      <trkpt lat="42.74209" lon="-0.06189">
        <ele>1877</ele>
        <time>2024-08-01T14:22:26.333Z</time>
      </trkpt>
      <trkpt lat="42.74201" lon="-0.06161">
        <ele>1877</ele>
        <time>2024-08-01T14:22:46.171Z</time>
      </trkpt>
      <trkpt lat="42.74199" lon="-0.06151">
        <ele>1877</ele>
        <time>2024-08-01T14:22:52.948Z</time>
      </trkpt>
      <trkpt lat="42.74198" lon="-0.0614">
        <ele>1877</ele>
        <time>2024-08-01T14:23:00.132Z</time>
      </trkpt>
      <trkpt lat="42.74198" lon="-0.06131">
        <ele>1877</ele>
        <time>2024-08-01T14:23:06.093Z</time>
      </trkpt>
      <trkpt lat="42.74197" lon="-0.06124">
        <ele>1877</ele>
        <time>2024-08-01T14:23:10.903Z</time>
      </trkpt>
      <trkpt lat="42.74198" lon="-0.06115">
        <ele>1877</ele>
        <time>2024-08-01T14:23:16.898Z</time>
      </trkpt>
      <trkpt lat="42.74196" lon="-0.06109">
        <ele>1878</ele>
        <time>2024-08-01T14:23:25.794Z</time>
      </trkpt>
      <trkpt lat="42.74192" lon="-0.06099">
        <ele>1880</ele>
        <time>2024-08-01T14:23:43.576Z</time>
      </trkpt>
      <trkpt lat="42.74191" lon="-0.06094">
        <ele>1881</ele>
        <time>2024-08-01T14:23:52.598Z</time>
      </trkpt>
      <trkpt lat="42.74198" lon="-0.06082">
        <ele>1879</ele>
        <time>2024-08-01T14:24:01.148Z</time>
      </trkpt>
      <trkpt lat="42.74196" lon="-0.06074">
        <ele>1880</ele>
        <time>2024-08-01T14:24:11.150Z</time>
      </trkpt>
      <trkpt lat="42.74194" lon="-0.06067">
        <ele>1881</ele>
        <time>2024-08-01T14:24:20.216Z</time>
      </trkpt>
      <trkpt lat="42.74193" lon="-0.06065">
        <ele>1881</ele>
        <time>2024-08-01T14:24:22.405Z</time>
      </trkpt>
      <trkpt lat="42.74192" lon="-0.06058">
        <ele>1882</ele>
        <time>2024-08-01T14:24:31.356Z</time>
      </trkpt>
      <trkpt lat="42.7419" lon="-0.06044">
        <ele>1884</ele>
        <time>2024-08-01T14:24:49.886Z</time>
      </trkpt>
      <trkpt lat="42.74188" lon="-0.06036">
        <ele>1885</ele>
        <time>2024-08-01T14:24:59.479Z</time>
      </trkpt>
      <trkpt lat="42.74188" lon="-0.0603">
        <ele>1885</ele>
        <time>2024-08-01T14:25:03.652Z</time>
      </trkpt>
      <trkpt lat="42.74186" lon="-0.06026">
        <ele>1886</ele>
        <time>2024-08-01T14:25:12.793Z</time>
      </trkpt>
      <trkpt lat="42.74187" lon="-0.06021">
        <ele>1886</ele>
        <time>2024-08-01T14:25:15.822Z</time>
      </trkpt>
      <trkpt lat="42.74186" lon="-0.06011">
        <ele>1888</ele>
        <time>2024-08-01T14:25:33.543Z</time>
      </trkpt>
      <trkpt lat="42.74182" lon="-0.05983">
        <ele>1894</ele>
        <time>2024-08-01T14:26:27.558Z</time>
      </trkpt>
      <trkpt lat="42.74182" lon="-0.05978">
        <ele>1895</ele>
        <time>2024-08-01T14:26:36.570Z</time>
      </trkpt>
      <trkpt lat="42.74182" lon="-0.05975">
        <ele>1895</ele>
        <time>2024-08-01T14:26:38.822Z</time>
      </trkpt>
      <trkpt lat="42.7418" lon="-0.05972">
        <ele>1897</ele>
        <time>2024-08-01T14:26:52.656Z</time>
      </trkpt>
      <trkpt lat="42.7418" lon="-0.05969">
        <ele>1897</ele>
        <time>2024-08-01T14:26:54.994Z</time>
      </trkpt>
      <trkpt lat="42.7418" lon="-0.05964">
        <ele>1898</ele>
        <time>2024-08-01T14:27:04.006Z</time>
      </trkpt>
      <trkpt lat="42.7418" lon="-0.05958">
        <ele>1899</ele>
        <time>2024-08-01T14:27:12.946Z</time>
      </trkpt>
      <trkpt lat="42.74179" lon="-0.05956">
        <ele>1900</ele>
        <time>2024-08-01T14:27:21.725Z</time>
      </trkpt>
      <trkpt lat="42.74179" lon="-0.05948">
        <ele>1901</ele>
        <time>2024-08-01T14:27:31.239Z</time>
      </trkpt>
      <trkpt lat="42.74176" lon="-0.05943">
        <ele>1902</ele>
        <time>2024-08-01T14:27:40.101Z</time>
      </trkpt>
      <trkpt lat="42.74175" lon="-0.0594">
        <ele>1903</ele>
        <time>2024-08-01T14:27:49.562Z</time>
      </trkpt>
      <trkpt lat="42.74178" lon="-0.05936">
        <ele>1903</ele>
        <time>2024-08-01T14:27:52.924Z</time>
      </trkpt>
      <trkpt lat="42.74177" lon="-0.05929">
        <ele>1904</ele>
        <time>2024-08-01T14:28:02.135Z</time>
      </trkpt>
      <trkpt lat="42.74179" lon="-0.05922">
        <ele>1905</ele>
        <time>2024-08-01T14:28:11.546Z</time>
      </trkpt>
      <trkpt lat="42.7418" lon="-0.05905">
        <ele>1907</ele>
        <time>2024-08-01T14:28:30.987Z</time>
      </trkpt>
      <trkpt lat="42.7418" lon="-0.05902">
        <ele>1907</ele>
        <time>2024-08-01T14:28:32.884Z</time>
      </trkpt>
      <trkpt lat="42.7418" lon="-0.05889">
        <ele>1907</ele>
        <time>2024-08-01T14:28:41.253Z</time>
      </trkpt>
      <trkpt lat="42.7418" lon="-0.05884">
        <ele>1908</ele>
        <time>2024-08-01T14:28:50.117Z</time>
      </trkpt>
      <trkpt lat="42.7418" lon="-0.05881">
        <ele>1908</ele>
        <time>2024-08-01T14:28:51.906Z</time>
      </trkpt>
      <trkpt lat="42.74182" lon="-0.05875">
        <ele>1908</ele>
        <time>2024-08-01T14:28:56.240Z</time>
      </trkpt>
      <trkpt lat="42.74183" lon="-0.05864">
        <ele>1908</ele>
        <time>2024-08-01T14:29:03.489Z</time>
      </trkpt>
      <trkpt lat="42.74184" lon="-0.05851">
        <ele>1908</ele>
        <time>2024-08-01T14:29:12.519Z</time>
      </trkpt>
      <trkpt lat="42.74184" lon="-0.05842">
        <ele>1908</ele>
        <time>2024-08-01T14:29:18.480Z</time>
      </trkpt>
      <trkpt lat="42.74183" lon="-0.05835">
        <ele>1908</ele>
        <time>2024-08-01T14:29:23.349Z</time>
      </trkpt>
      <trkpt lat="42.7418" lon="-0.05829">
        <ele>1909</ele>
        <time>2024-08-01T14:29:32.343Z</time>
      </trkpt>
      <trkpt lat="42.74179" lon="-0.05825">
        <ele>1909</ele>
        <time>2024-08-01T14:29:35.484Z</time>
      </trkpt>
      <trkpt lat="42.74176" lon="-0.05816">
        <ele>1910</ele>
        <time>2024-08-01T14:29:45.975Z</time>
      </trkpt>
      <trkpt lat="42.74175" lon="-0.05805">
        <ele>1910</ele>
        <time>2024-08-01T14:29:53.158Z</time>
      </trkpt>
      <trkpt lat="42.74172" lon="-0.05799">
        <ele>1911</ele>
        <time>2024-08-01T14:30:02.380Z</time>
      </trkpt>
      <trkpt lat="42.74172" lon="-0.05792">
        <ele>1911</ele>
        <time>2024-08-01T14:30:06.553Z</time>
      </trkpt>
      <trkpt lat="42.74172" lon="-0.05789">
        <ele>1912</ele>
        <time>2024-08-01T14:30:16.355Z</time>
      </trkpt>
      <trkpt lat="42.7417" lon="-0.05778">
        <ele>1912</ele>
        <time>2024-08-01T14:30:23.646Z</time>
      </trkpt>
      <trkpt lat="42.74167" lon="-0.05769">
        <ele>1913</ele>
        <time>2024-08-01T14:30:33.960Z</time>
      </trkpt>
      <trkpt lat="42.74165" lon="-0.05757">
        <ele>1913</ele>
        <time>2024-08-01T14:30:41.852Z</time>
      </trkpt>
      <trkpt lat="42.74165" lon="-0.05749">
        <ele>1912</ele>
        <time>2024-08-01T14:30:46.605Z</time>
      </trkpt>
      <trkpt lat="42.74166" lon="-0.05745">
        <ele>1912</ele>
        <time>2024-08-01T14:30:49.587Z</time>
      </trkpt>
      <trkpt lat="42.74168" lon="-0.05738">
        <ele>1912</ele>
        <time>2024-08-01T14:30:54.747Z</time>
      </trkpt>
      <trkpt lat="42.74176" lon="-0.05721">
        <ele>1911</ele>
        <time>2024-08-01T14:31:06.239Z</time>
      </trkpt>
      <trkpt lat="42.74181" lon="-0.05711">
        <ele>1911</ele>
        <time>2024-08-01T14:31:14.554Z</time>
      </trkpt>
      <trkpt lat="42.74186" lon="-0.05703">
        <ele>1910</ele>
        <time>2024-08-01T14:31:20.462Z</time>
      </trkpt>
      <trkpt lat="42.7419" lon="-0.05698">
        <ele>1910</ele>
        <time>2024-08-01T14:31:25.115Z</time>
      </trkpt>
      <trkpt lat="42.74191" lon="-0.05693">
        <ele>1910</ele>
        <time>2024-08-01T14:31:28.879Z</time>
      </trkpt>
      <trkpt lat="42.74191" lon="-0.05689">
        <ele>1910</ele>
        <time>2024-08-01T14:31:31.263Z</time>
      </trkpt>
      <trkpt lat="42.74189" lon="-0.05686">
        <ele>1910</ele>
        <time>2024-08-01T14:31:33.803Z</time>
      </trkpt>
      <trkpt lat="42.74187" lon="-0.05683">
        <ele>1910</ele>
        <time>2024-08-01T14:31:36.740Z</time>
      </trkpt>
      <trkpt lat="42.74186" lon="-0.0568">
        <ele>1911</ele>
        <time>2024-08-01T14:31:47.193Z</time>
      </trkpt>
      <trkpt lat="42.74179" lon="-0.05672">
        <ele>1912</ele>
        <time>2024-08-01T14:31:58.856Z</time>
      </trkpt>
      <trkpt lat="42.74171" lon="-0.05663">
        <ele>1914</ele>
        <time>2024-08-01T14:32:17.365Z</time>
      </trkpt>
      <trkpt lat="42.74168" lon="-0.05655">
        <ele>1916</ele>
        <time>2024-08-01T14:32:35.719Z</time>
      </trkpt>
      <trkpt lat="42.74168" lon="-0.05649">
        <ele>1916</ele>
        <time>2024-08-01T14:32:39.892Z</time>
      </trkpt>
      <trkpt lat="42.74165" lon="-0.05641">
        <ele>1917</ele>
        <time>2024-08-01T14:32:49.750Z</time>
      </trkpt>
      <trkpt lat="42.74165" lon="-0.05634">
        <ele>1918</ele>
        <time>2024-08-01T14:32:58.711Z</time>
      </trkpt>
      <trkpt lat="42.74165" lon="-0.05623">
        <ele>1919</ele>
        <time>2024-08-01T14:33:10.066Z</time>
      </trkpt>
      <trkpt lat="42.74163" lon="-0.05613">
        <ele>1920</ele>
        <time>2024-08-01T14:33:20.568Z</time>
      </trkpt>
      <trkpt lat="42.74162" lon="-0.05612">
        <ele>1920</ele>
        <time>2024-08-01T14:33:21.837Z</time>
      </trkpt>
      <trkpt lat="42.74161" lon="-0.05608">
        <ele>1920</ele>
        <time>2024-08-01T14:33:24.240Z</time>
      </trkpt>
      <trkpt lat="42.74161" lon="-0.05605">
        <ele>1920</ele>
        <time>2024-08-01T14:33:26.624Z</time>
      </trkpt>
      <trkpt lat="42.7416" lon="-0.05601">
        <ele>1921</ele>
        <time>2024-08-01T14:33:36.028Z</time>
      </trkpt>
      <trkpt lat="42.7416" lon="-0.05597">
        <ele>1921</ele>
        <time>2024-08-01T14:33:38.942Z</time>
      </trkpt>
      <trkpt lat="42.74159" lon="-0.05593">
        <ele>1921</ele>
        <time>2024-08-01T14:33:41.452Z</time>
      </trkpt>
      <trkpt lat="42.7416" lon="-0.05588">
        <ele>1921</ele>
        <time>2024-08-01T14:33:44.481Z</time>
      </trkpt>
      <trkpt lat="42.74161" lon="-0.05582">
        <ele>1921</ele>
        <time>2024-08-01T14:33:48.702Z</time>
      </trkpt>
      <trkpt lat="42.74161" lon="-0.05574">
        <ele>1921</ele>
        <time>2024-08-01T14:33:54.104Z</time>
      </trkpt>
      <trkpt lat="42.74163" lon="-0.05566">
        <ele>1922</ele>
        <time>2024-08-01T14:34:03.778Z</time>
      </trkpt>
      <trkpt lat="42.74165" lon="-0.05557">
        <ele>1921</ele>
        <time>2024-08-01T14:34:09.228Z</time>
      </trkpt>
      <trkpt lat="42.7417" lon="-0.05543">
        <ele>1918</ele>
        <time>2024-08-01T14:34:18.308Z</time>
      </trkpt>
      <trkpt lat="42.7417" lon="-0.05539">
        <ele>1918</ele>
        <time>2024-08-01T14:34:20.758Z</time>
      </trkpt>
      <trkpt lat="42.74171" lon="-0.05536">
        <ele>1917</ele>
        <time>2024-08-01T14:34:22.393Z</time>
      </trkpt>
      <trkpt lat="42.74171" lon="-0.05531">
        <ele>1917</ele>
        <time>2024-08-01T14:34:25.904Z</time>
      </trkpt>
      <trkpt lat="42.74174" lon="-0.05514">
        <ele>1914</ele>
        <time>2024-08-01T14:34:36.206Z</time>
      </trkpt>
      <trkpt lat="42.74173" lon="-0.05502">
        <ele>1913</ele>
        <time>2024-08-01T14:34:43.004Z</time>
      </trkpt>
      <trkpt lat="42.74171" lon="-0.055">
        <ele>1914</ele>
        <time>2024-08-01T14:34:52.614Z</time>
      </trkpt>
      <trkpt lat="42.7417" lon="-0.05489">
        <ele>1914</ele>
        <time>2024-08-01T14:34:59.848Z</time>
      </trkpt>
      <trkpt lat="42.74167" lon="-0.05479">
        <ele>1915</ele>
        <time>2024-08-01T14:35:10.810Z</time>
      </trkpt>
      <trkpt lat="42.74168" lon="-0.05475">
        <ele>1915</ele>
        <time>2024-08-01T14:35:13.508Z</time>
      </trkpt>
      <trkpt lat="42.74167" lon="-0.05465">
        <ele>1914</ele>
        <time>2024-08-01T14:35:19.215Z</time>
      </trkpt>
      <trkpt lat="42.74169" lon="-0.05457">
        <ele>1913</ele>
        <time>2024-08-01T14:35:24.222Z</time>
      </trkpt>
      <trkpt lat="42.74169" lon="-0.05442">
        <ele>1911</ele>
        <time>2024-08-01T14:35:33.107Z</time>
      </trkpt>
      <trkpt lat="42.74166" lon="-0.05433">
        <ele>1911</ele>
        <time>2024-08-01T14:35:39.512Z</time>
      </trkpt>
      <trkpt lat="42.74165" lon="-0.05422">
        <ele>1909</ele>
        <time>2024-08-01T14:35:45.738Z</time>
      </trkpt>
      <trkpt lat="42.74164" lon="-0.05418">
        <ele>1909</ele>
        <time>2024-08-01T14:35:48.879Z</time>
      </trkpt>
      <trkpt lat="42.74161" lon="-0.05414">
        <ele>1909</ele>
        <time>2024-08-01T14:35:52.693Z</time>
      </trkpt>
      <trkpt lat="42.74159" lon="-0.05405">
        <ele>1908</ele>
        <time>2024-08-01T14:35:58.143Z</time>
      </trkpt>
      <trkpt lat="42.74159" lon="-0.05395">
        <ele>1906</ele>
        <time>2024-08-01T14:36:03.907Z</time>
      </trkpt>
      <trkpt lat="42.74157" lon="-0.05393">
        <ele>1906</ele>
        <time>2024-08-01T14:36:06.447Z</time>
      </trkpt>
      <trkpt lat="42.74155" lon="-0.05384">
        <ele>1905</ele>
        <time>2024-08-01T14:36:11.896Z</time>
      </trkpt>
      <trkpt lat="42.74157" lon="-0.05372">
        <ele>1902</ele>
        <time>2024-08-01T14:36:18.858Z</time>
      </trkpt>
      <trkpt lat="42.74155" lon="-0.05367">
        <ele>1902</ele>
        <time>2024-08-01T14:36:22.707Z</time>
      </trkpt>
      <trkpt lat="42.74155" lon="-0.05364">
        <ele>1901</ele>
        <time>2024-08-01T14:36:24.809Z</time>
      </trkpt>
      <trkpt lat="42.74153" lon="-0.05359">
        <ele>1900</ele>
        <time>2024-08-01T14:36:28.552Z</time>
      </trkpt>
      <trkpt lat="42.74153" lon="-0.05355">
        <ele>1900</ele>
        <time>2024-08-01T14:36:31.018Z</time>
      </trkpt>
      <trkpt lat="42.7415" lon="-0.05346">
        <ele>1899</ele>
        <time>2024-08-01T14:36:36.848Z</time>
      </trkpt>
      <trkpt lat="42.74143" lon="-0.05333">
        <ele>1900</ele>
        <time>2024-08-01T14:36:50.546Z</time>
      </trkpt>
      <trkpt lat="42.74137" lon="-0.05328">
        <ele>1900</ele>
        <time>2024-08-01T14:36:57.413Z</time>
      </trkpt>
      <trkpt lat="42.74132" lon="-0.05324">
        <ele>1902</ele>
        <time>2024-08-01T14:37:17.241Z</time>
      </trkpt>
      <trkpt lat="42.74131" lon="-0.05321">
        <ele>1903</ele>
        <time>2024-08-01T14:37:26.645Z</time>
      </trkpt>
      <trkpt lat="42.74133" lon="-0.05315">
        <ele>1903</ele>
        <time>2024-08-01T14:37:30.650Z</time>
      </trkpt>
      <trkpt lat="42.74135" lon="-0.0531">
        <ele>1904</ele>
        <time>2024-08-01T14:37:39.535Z</time>
      </trkpt>
      <trkpt lat="42.74143" lon="-0.05299">
        <ele>1903</ele>
        <time>2024-08-01T14:37:48.749Z</time>
      </trkpt>
      <trkpt lat="42.74145" lon="-0.05294">
        <ele>1903</ele>
        <time>2024-08-01T14:37:52.543Z</time>
      </trkpt>
      <trkpt lat="42.74147" lon="-0.05287">
        <ele>1903</ele>
        <time>2024-08-01T14:37:57.329Z</time>
      </trkpt>
      <trkpt lat="42.74153" lon="-0.05281">
        <ele>1902</ele>
        <time>2024-08-01T14:38:02.881Z</time>
      </trkpt>
      <trkpt lat="42.74158" lon="-0.05275">
        <ele>1900</ele>
        <time>2024-08-01T14:38:08.357Z</time>
      </trkpt>
      <trkpt lat="42.74167" lon="-0.05263">
        <ele>1898</ele>
        <time>2024-08-01T14:38:18.331Z</time>
      </trkpt>
      <trkpt lat="42.7417" lon="-0.05254">
        <ele>1897</ele>
        <time>2024-08-01T14:38:23.965Z</time>
      </trkpt>
      <trkpt lat="42.74171" lon="-0.05248">
        <ele>1898</ele>
        <time>2024-08-01T14:38:32.897Z</time>
      </trkpt>
      <trkpt lat="42.74171" lon="-0.05245">
        <ele>1898</ele>
        <time>2024-08-01T14:38:34.685Z</time>
      </trkpt>
      <trkpt lat="42.74171" lon="-0.05241">
        <ele>1898</ele>
        <time>2024-08-01T14:38:37.665Z</time>
      </trkpt>
      <trkpt lat="42.74171" lon="-0.05237">
        <ele>1898</ele>
        <time>2024-08-01T14:38:40.116Z</time>
      </trkpt>
      <trkpt lat="42.74173" lon="-0.05233">
        <ele>1898</ele>
        <time>2024-08-01T14:38:43.544Z</time>
      </trkpt>
      <trkpt lat="42.74178" lon="-0.05228">
        <ele>1897</ele>
        <time>2024-08-01T14:38:48.472Z</time>
      </trkpt>
      <trkpt lat="42.7418" lon="-0.05224">
        <ele>1897</ele>
        <time>2024-08-01T14:38:51.910Z</time>
      </trkpt>
      <trkpt lat="42.74183" lon="-0.0522">
        <ele>1896</ele>
        <time>2024-08-01T14:38:55.247Z</time>
      </trkpt>
      <trkpt lat="42.74182" lon="-0.05217">
        <ele>1897</ele>
        <time>2024-08-01T14:39:05.060Z</time>
      </trkpt>
      <trkpt lat="42.74184" lon="-0.05213">
        <ele>1897</ele>
        <time>2024-08-01T14:39:07.717Z</time>
      </trkpt>
      <trkpt lat="42.74189" lon="-0.05204">
        <ele>1897</ele>
        <time>2024-08-01T14:39:15.357Z</time>
      </trkpt>
      <trkpt lat="42.74192" lon="-0.05199">
        <ele>1897</ele>
        <time>2024-08-01T14:39:19.634Z</time>
      </trkpt>
      <trkpt lat="42.74196" lon="-0.05188">
        <ele>1897</ele>
        <time>2024-08-01T14:39:27.846Z</time>
      </trkpt>
      <trkpt lat="42.74207" lon="-0.05174">
        <ele>1897</ele>
        <time>2024-08-01T14:39:40.981Z</time>
      </trkpt>
      <trkpt lat="42.74211" lon="-0.05168">
        <ele>1896</ele>
        <time>2024-08-01T14:39:46.130Z</time>
      </trkpt>
      <trkpt lat="42.74224" lon="-0.05149">
        <ele>1895</ele>
        <time>2024-08-01T14:40:00.784Z</time>
      </trkpt>
      <trkpt lat="42.74228" lon="-0.05138">
        <ele>1896</ele>
        <time>2024-08-01T14:40:12.880Z</time>
      </trkpt>
      <trkpt lat="42.74235" lon="-0.05118">
        <ele>1897</ele>
        <time>2024-08-01T14:40:30.480Z</time>
      </trkpt>
      <trkpt lat="42.74241" lon="-0.05103">
        <ele>1898</ele>
        <time>2024-08-01T14:40:45.057Z</time>
      </trkpt>
      <trkpt lat="42.74242" lon="-0.05093">
        <ele>1899</ele>
        <time>2024-08-01T14:40:55.972Z</time>
      </trkpt>
      <trkpt lat="42.74244" lon="-0.05084">
        <ele>1901</ele>
        <time>2024-08-01T14:41:14.080Z</time>
      </trkpt>
      <trkpt lat="42.74248" lon="-0.05067">
        <ele>1902</ele>
        <time>2024-08-01T14:41:28.704Z</time>
      </trkpt>
      <trkpt lat="42.74259" lon="-0.05037">
        <ele>1901</ele>
        <time>2024-08-01T14:41:48.737Z</time>
      </trkpt>
      <trkpt lat="42.74256" lon="-0.05023">
        <ele>1902</ele>
        <time>2024-08-01T14:42:01.459Z</time>
      </trkpt>
      <trkpt lat="42.74257" lon="-0.05012">
        <ele>1902</ele>
        <time>2024-08-01T14:42:09.227Z</time>
      </trkpt>
      <trkpt lat="42.74258" lon="-0.05007">
        <ele>1901</ele>
        <time>2024-08-01T14:42:12.084Z</time>
      </trkpt>
      <trkpt lat="42.74258" lon="-0.05002">
        <ele>1901</ele>
        <time>2024-08-01T14:42:15.594Z</time>
      </trkpt>
      <trkpt lat="42.74262" lon="-0.04998">
        <ele>1899</ele>
        <time>2024-08-01T14:42:18.931Z</time>
      </trkpt>
      <trkpt lat="42.74263" lon="-0.04995">
        <ele>1898</ele>
        <time>2024-08-01T14:42:21.241Z</time>
      </trkpt>
      <trkpt lat="42.74264" lon="-0.04987">
        <ele>1897</ele>
        <time>2024-08-01T14:42:25.498Z</time>
      </trkpt>
      <trkpt lat="42.74263" lon="-0.04978">
        <ele>1897</ele>
        <time>2024-08-01T14:42:31.484Z</time>
      </trkpt>
      <trkpt lat="42.74265" lon="-0.0497">
        <ele>1896</ele>
        <time>2024-08-01T14:42:36.855Z</time>
      </trkpt>
      <trkpt lat="42.74267" lon="-0.04968">
        <ele>1895</ele>
        <time>2024-08-01T14:42:38.747Z</time>
      </trkpt>
      <trkpt lat="42.74268" lon="-0.04966">
        <ele>1894</ele>
        <time>2024-08-01T14:42:40.307Z</time>
      </trkpt>
      <trkpt lat="42.74269" lon="-0.04961">
        <ele>1893</ele>
        <time>2024-08-01T14:42:43.415Z</time>
      </trkpt>
      <trkpt lat="42.74272" lon="-0.04952">
        <ele>1891</ele>
        <time>2024-08-01T14:42:48.783Z</time>
      </trkpt>
      <trkpt lat="42.74272" lon="-0.04948">
        <ele>1891</ele>
        <time>2024-08-01T14:42:51.763Z</time>
      </trkpt>
      <trkpt lat="42.74275" lon="-0.04936">
        <ele>1888</ele>
        <time>2024-08-01T14:42:58.848Z</time>
      </trkpt>
      <trkpt lat="42.74281" lon="-0.04925">
        <ele>1883</ele>
        <time>2024-08-01T14:43:07.118Z</time>
      </trkpt>
      <trkpt lat="42.74279" lon="-0.04918">
        <ele>1883</ele>
        <time>2024-08-01T14:43:11.452Z</time>
      </trkpt>
      <trkpt lat="42.74283" lon="-0.04915">
        <ele>1881</ele>
        <time>2024-08-01T14:43:14.753Z</time>
      </trkpt>
      <trkpt lat="42.7429" lon="-0.04895">
        <ele>1871</ele>
        <time>2024-08-01T14:43:27.558Z</time>
      </trkpt>
      <trkpt lat="42.74291" lon="-0.04879">
        <ele>1866</ele>
        <time>2024-08-01T14:43:36.905Z</time>
      </trkpt>
      <trkpt lat="42.74289" lon="-0.04874">
        <ele>1867</ele>
        <time>2024-08-01T14:43:45.771Z</time>
      </trkpt>
      <trkpt lat="42.74289" lon="-0.0487">
        <ele>1866</ele>
        <time>2024-08-01T14:43:48.365Z</time>
      </trkpt>
      <trkpt lat="42.74288" lon="-0.04865">
        <ele>1866</ele>
        <time>2024-08-01T14:43:51.536Z</time>
      </trkpt>
      <trkpt lat="42.74288" lon="-0.0486">
        <ele>1865</ele>
        <time>2024-08-01T14:43:54.665Z</time>
      </trkpt>
      <trkpt lat="42.74285" lon="-0.04849">
        <ele>1865</ele>
        <time>2024-08-01T14:44:02.159Z</time>
      </trkpt>
      <trkpt lat="42.74284" lon="-0.0484">
        <ele>1865</ele>
        <time>2024-08-01T14:44:08.234Z</time>
      </trkpt>
      <trkpt lat="42.74281" lon="-0.04823">
        <ele>1865</ele>
        <time>2024-08-01T14:44:19.883Z</time>
      </trkpt>
      <trkpt lat="42.74281" lon="-0.04814">
        <ele>1864</ele>
        <time>2024-08-01T14:44:25.121Z</time>
      </trkpt>
      <trkpt lat="42.74281" lon="-0.04808">
        <ele>1863</ele>
        <time>2024-08-01T14:44:28.803Z</time>
      </trkpt>
      <trkpt lat="42.74281" lon="-0.04805">
        <ele>1863</ele>
        <time>2024-08-01T14:44:30.671Z</time>
      </trkpt>
      <trkpt lat="42.74281" lon="-0.04802">
        <ele>1863</ele>
        <time>2024-08-01T14:44:32.393Z</time>
      </trkpt>
      <trkpt lat="42.74279" lon="-0.04801">
        <ele>1863</ele>
        <time>2024-08-01T14:44:34.065Z</time>
      </trkpt>
      <trkpt lat="42.74277" lon="-0.04795">
        <ele>1864</ele>
        <time>2024-08-01T14:44:42.950Z</time>
      </trkpt>
      <trkpt lat="42.74277" lon="-0.04785">
        <ele>1863</ele>
        <time>2024-08-01T14:44:48.746Z</time>
      </trkpt>
      <trkpt lat="42.74275" lon="-0.04766">
        <ele>1863</ele>
        <time>2024-08-01T14:45:01.918Z</time>
      </trkpt>
      <trkpt lat="42.74276" lon="-0.04756">
        <ele>1861</ele>
        <time>2024-08-01T14:45:07.682Z</time>
      </trkpt>
      <trkpt lat="42.74272" lon="-0.04737">
        <ele>1865</ele>
        <time>2024-08-01T14:45:43.436Z</time>
      </trkpt>
      <trkpt lat="42.74272" lon="-0.04729">
        <ele>1866</ele>
        <time>2024-08-01T14:45:52.992Z</time>
      </trkpt>
      <trkpt lat="42.74271" lon="-0.04721">
        <ele>1866</ele>
        <time>2024-08-01T14:45:58.329Z</time>
      </trkpt>
      <trkpt lat="42.74271" lon="-0.04714">
        <ele>1867</ele>
        <time>2024-08-01T14:46:07.269Z</time>
      </trkpt>
      <trkpt lat="42.74272" lon="-0.04713">
        <ele>1866</ele>
        <time>2024-08-01T14:46:08.501Z</time>
      </trkpt>
      <trkpt lat="42.74271" lon="-0.04707">
        <ele>1867</ele>
        <time>2024-08-01T14:46:17.361Z</time>
      </trkpt>
      <trkpt lat="42.74273" lon="-0.04704">
        <ele>1866</ele>
        <time>2024-08-01T14:46:19.977Z</time>
      </trkpt>
      <trkpt lat="42.74273" lon="-0.04698">
        <ele>1866</ele>
        <time>2024-08-01T14:46:23.528Z</time>
      </trkpt>
      <trkpt lat="42.74279" lon="-0.04687">
        <ele>1863</ele>
        <time>2024-08-01T14:46:31.056Z</time>
      </trkpt>
      <trkpt lat="42.74279" lon="-0.04683">
        <ele>1863</ele>
        <time>2024-08-01T14:46:34.037Z</time>
      </trkpt>
      <trkpt lat="42.74279" lon="-0.04677">
        <ele>1864</ele>
        <time>2024-08-01T14:46:42.977Z</time>
      </trkpt>
      <trkpt lat="42.7428" lon="-0.04671">
        <ele>1863</ele>
        <time>2024-08-01T14:46:46.270Z</time>
      </trkpt>
      <trkpt lat="42.74278" lon="-0.04625">
        <ele>1873</ele>
        <time>2024-08-01T14:48:16.470Z</time>
      </trkpt>
      <trkpt lat="42.74279" lon="-0.04614">
        <ele>1875</ele>
        <time>2024-08-01T14:48:34.199Z</time>
      </trkpt>
      <trkpt lat="42.74281" lon="-0.04611">
        <ele>1875</ele>
        <time>2024-08-01T14:48:36.786Z</time>
      </trkpt>
      <trkpt lat="42.74281" lon="-0.04607">
        <ele>1876</ele>
        <time>2024-08-01T14:48:45.947Z</time>
      </trkpt>
      <trkpt lat="42.74283" lon="-0.04598">
        <ele>1877</ele>
        <time>2024-08-01T14:48:56.235Z</time>
      </trkpt>
      <trkpt lat="42.74287" lon="-0.04586">
        <ele>1878</ele>
        <time>2024-08-01T14:49:08.112Z</time>
      </trkpt>
      <trkpt lat="42.74287" lon="-0.04583">
        <ele>1878</ele>
        <time>2024-08-01T14:49:09.901Z</time>
      </trkpt>
      <trkpt lat="42.74289" lon="-0.04578">
        <ele>1878</ele>
        <time>2024-08-01T14:49:14.122Z</time>
      </trkpt>
      <trkpt lat="42.74292" lon="-0.0457">
        <ele>1878</ele>
        <time>2024-08-01T14:49:20.074Z</time>
      </trkpt>
      <trkpt lat="42.74294" lon="-0.04562">
        <ele>1878</ele>
        <time>2024-08-01T14:49:25.734Z</time>
      </trkpt>
      <trkpt lat="42.74294" lon="-0.04557">
        <ele>1879</ele>
        <time>2024-08-01T14:49:34.895Z</time>
      </trkpt>
      <trkpt lat="42.74296" lon="-0.04546">
        <ele>1879</ele>
        <time>2024-08-01T14:49:42.852Z</time>
      </trkpt>
      <trkpt lat="42.74297" lon="-0.04536">
        <ele>1878</ele>
        <time>2024-08-01T14:49:48.680Z</time>
      </trkpt>
      <trkpt lat="42.74297" lon="-0.04527">
        <ele>1877</ele>
        <time>2024-08-01T14:49:53.925Z</time>
      </trkpt>
      <trkpt lat="42.74295" lon="-0.04518">
        <ele>1875</ele>
        <time>2024-08-01T14:49:59.241Z</time>
      </trkpt>
      <trkpt lat="42.74294" lon="-0.04511">
        <ele>1875</ele>
        <time>2024-08-01T14:50:03.575Z</time>
      </trkpt>
      <trkpt lat="42.74287" lon="-0.04501">
        <ele>1871</ele>
        <time>2024-08-01T14:50:12.039Z</time>
      </trkpt>
      <trkpt lat="42.74273" lon="-0.04496">
        <ele>1871</ele>
        <time>2024-08-01T14:50:24.311Z</time>
      </trkpt>
      <trkpt lat="42.74269" lon="-0.04493">
        <ele>1870</ele>
        <time>2024-08-01T14:50:27.834Z</time>
      </trkpt>
      <trkpt lat="42.74254" lon="-0.04487">
        <ele>1869</ele>
        <time>2024-08-01T14:50:40.826Z</time>
      </trkpt>
      <trkpt lat="42.74248" lon="-0.04486">
        <ele>1869</ele>
        <time>2024-08-01T14:50:46.188Z</time>
      </trkpt>
      <trkpt lat="42.74246" lon="-0.04491">
        <ele>1872</ele>
        <time>2024-08-01T14:51:04.777Z</time>
      </trkpt>
      <trkpt lat="42.74243" lon="-0.0449">
        <ele>1872</ele>
        <time>2024-08-01T14:51:07.213Z</time>
      </trkpt>
      <trkpt lat="42.74238" lon="-0.04487">
        <ele>1872</ele>
        <time>2024-08-01T14:51:12.294Z</time>
      </trkpt>
      <trkpt lat="42.74235" lon="-0.04488">
        <ele>1874</ele>
        <time>2024-08-01T14:51:24.996Z</time>
      </trkpt>
      <trkpt lat="42.74233" lon="-0.04486">
        <ele>1874</ele>
        <time>2024-08-01T14:51:27.737Z</time>
      </trkpt>
      <trkpt lat="42.74229" lon="-0.04485">
        <ele>1874</ele>
        <time>2024-08-01T14:51:30.760Z</time>
      </trkpt>
      <trkpt lat="42.74225" lon="-0.04483">
        <ele>1875</ele>
        <time>2024-08-01T14:51:39.620Z</time>
      </trkpt>
      <trkpt lat="42.74223" lon="-0.04482">
        <ele>1875</ele>
        <time>2024-08-01T14:51:42.303Z</time>
      </trkpt>
      <trkpt lat="42.7422" lon="-0.04477">
        <ele>1874</ele>
        <time>2024-08-01T14:51:45.667Z</time>
      </trkpt>
      <trkpt lat="42.74209" lon="-0.04464">
        <ele>1873</ele>
        <time>2024-08-01T14:51:57.433Z</time>
      </trkpt>
      <trkpt lat="42.74207" lon="-0.0444">
        <ele>1865</ele>
        <time>2024-08-01T14:52:11.546Z</time>
      </trkpt>
      <trkpt lat="42.74203" lon="-0.04434">
        <ele>1865</ele>
        <time>2024-08-01T14:52:16.563Z</time>
      </trkpt>
      <trkpt lat="42.74205" lon="-0.04431">
        <ele>1862</ele>
        <time>2024-08-01T14:52:19.132Z</time>
      </trkpt>
      <trkpt lat="42.74206" lon="-0.04426">
        <ele>1860</ele>
        <time>2024-08-01T14:52:21.798Z</time>
      </trkpt>
      <trkpt lat="42.74204" lon="-0.0442">
        <ele>1858</ele>
        <time>2024-08-01T14:52:25.612Z</time>
      </trkpt>
      <trkpt lat="42.74202" lon="-0.04412">
        <ele>1856</ele>
        <time>2024-08-01T14:52:30.735Z</time>
      </trkpt>
      <trkpt lat="42.74202" lon="-0.04407">
        <ele>1855</ele>
        <time>2024-08-01T14:52:33.343Z</time>
      </trkpt>
      <trkpt lat="42.742" lon="-0.04391">
        <ele>1849</ele>
        <time>2024-08-01T14:52:42.788Z</time>
      </trkpt>
      <trkpt lat="42.74194" lon="-0.04384">
        <ele>1850</ele>
        <time>2024-08-01T14:52:54.043Z</time>
      </trkpt>
      <trkpt lat="42.74188" lon="-0.04381">
        <ele>1852</ele>
        <time>2024-08-01T14:53:13.290Z</time>
      </trkpt>
      <trkpt lat="42.74186" lon="-0.04377">
        <ele>1852</ele>
        <time>2024-08-01T14:53:17.082Z</time>
      </trkpt>
      <trkpt lat="42.74183" lon="-0.04376">
        <ele>1853</ele>
        <time>2024-08-01T14:53:26.808Z</time>
      </trkpt>
      <trkpt lat="42.7418" lon="-0.04371">
        <ele>1853</ele>
        <time>2024-08-01T14:53:30.653Z</time>
      </trkpt>
      <trkpt lat="42.74171" lon="-0.04341">
        <ele>1851</ele>
        <time>2024-08-01T14:53:49.845Z</time>
      </trkpt>
      <trkpt lat="42.74169" lon="-0.04338">
        <ele>1852</ele>
        <time>2024-08-01T14:53:58.976Z</time>
      </trkpt>
      <trkpt lat="42.74168" lon="-0.04334">
        <ele>1851</ele>
        <time>2024-08-01T14:54:01.115Z</time>
      </trkpt>
      <trkpt lat="42.7417" lon="-0.04331">
        <ele>1850</ele>
        <time>2024-08-01T14:54:03.685Z</time>
      </trkpt>
      <trkpt lat="42.7417" lon="-0.04325">
        <ele>1848</ele>
        <time>2024-08-01T14:54:07.336Z</time>
      </trkpt>
      <trkpt lat="42.7417" lon="-0.04321">
        <ele>1848</ele>
        <time>2024-08-01T14:54:09.721Z</time>
      </trkpt>
      <trkpt lat="42.74171" lon="-0.04317">
        <ele>1846</ele>
        <time>2024-08-01T14:54:12.012Z</time>
      </trkpt>
      <trkpt lat="42.74171" lon="-0.04315">
        <ele>1846</ele>
        <time>2024-08-01T14:54:13.881Z</time>
      </trkpt>
      <trkpt lat="42.74171" lon="-0.04308">
        <ele>1845</ele>
        <time>2024-08-01T14:54:17.532Z</time>
      </trkpt>
      <trkpt lat="42.74163" lon="-0.04288">
        <ele>1844</ele>
        <time>2024-08-01T14:54:30.840Z</time>
      </trkpt>
      <trkpt lat="42.74164" lon="-0.04284">
        <ele>1843</ele>
        <time>2024-08-01T14:54:32.998Z</time>
      </trkpt>
      <trkpt lat="42.74162" lon="-0.04281">
        <ele>1843</ele>
        <time>2024-08-01T14:54:35.475Z</time>
      </trkpt>
      <trkpt lat="42.74161" lon="-0.04274">
        <ele>1842</ele>
        <time>2024-08-01T14:54:39.627Z</time>
      </trkpt>
      <trkpt lat="42.74159" lon="-0.04272">
        <ele>1843</ele>
        <time>2024-08-01T14:54:49.350Z</time>
      </trkpt>
      <trkpt lat="42.74157" lon="-0.04271">
        <ele>1843</ele>
        <time>2024-08-01T14:54:51.786Z</time>
      </trkpt>
      <trkpt lat="42.74155" lon="-0.04268">
        <ele>1844</ele>
        <time>2024-08-01T14:55:01.324Z</time>
      </trkpt>
      <trkpt lat="42.74155" lon="-0.04263">
        <ele>1843</ele>
        <time>2024-08-01T14:55:03.932Z</time>
      </trkpt>
      <trkpt lat="42.74148" lon="-0.04252">
        <ele>1843</ele>
        <time>2024-08-01T14:55:13.649Z</time>
      </trkpt>
      <trkpt lat="42.74149" lon="-0.04235">
        <ele>1840</ele>
        <time>2024-08-01T14:55:23.513Z</time>
      </trkpt>
      <trkpt lat="42.74147" lon="-0.04231">
        <ele>1840</ele>
        <time>2024-08-01T14:55:26.170Z</time>
      </trkpt>
      <trkpt lat="42.74148" lon="-0.04232">
        <ele>1840</ele>
        <time>2024-08-01T14:55:27.039Z</time>
      </trkpt>
      <trkpt lat="42.74148" lon="-0.0423">
        <ele>1840</ele>
        <time>2024-08-01T14:55:28.297Z</time>
      </trkpt>
      <trkpt lat="42.74149" lon="-0.04227">
        <ele>1839</ele>
        <time>2024-08-01T14:55:30.168Z</time>
      </trkpt>
      <trkpt lat="42.74149" lon="-0.04225">
        <ele>1839</ele>
        <time>2024-08-01T14:55:32.065Z</time>
      </trkpt>
      <trkpt lat="42.74147" lon="-0.04219">
        <ele>1838</ele>
        <time>2024-08-01T14:55:35.518Z</time>
      </trkpt>
      <trkpt lat="42.74146" lon="-0.04213">
        <ele>1837</ele>
        <time>2024-08-01T14:55:39.200Z</time>
      </trkpt>
      <trkpt lat="42.74143" lon="-0.04209">
        <ele>1837</ele>
        <time>2024-08-01T14:55:42.998Z</time>
      </trkpt>
      <trkpt lat="42.7414" lon="-0.04199">
        <ele>1837</ele>
        <time>2024-08-01T14:55:50.497Z</time>
      </trkpt>
      <trkpt lat="42.74138" lon="-0.04195">
        <ele>1837</ele>
        <time>2024-08-01T14:55:53.487Z</time>
      </trkpt>
      <trkpt lat="42.74138" lon="-0.04192">
        <ele>1837</ele>
        <time>2024-08-01T14:55:55.275Z</time>
      </trkpt>
      <trkpt lat="42.74136" lon="-0.0419">
        <ele>1837</ele>
        <time>2024-08-01T14:55:57.815Z</time>
      </trkpt>
      <trkpt lat="42.74135" lon="-0.04187">
        <ele>1837</ele>
        <time>2024-08-01T14:55:59.620Z</time>
      </trkpt>
      <trkpt lat="42.74133" lon="-0.04186">
        <ele>1838</ele>
        <time>2024-08-01T14:56:09.708Z</time>
      </trkpt>
      <trkpt lat="42.7413" lon="-0.04181">
        <ele>1839</ele>
        <time>2024-08-01T14:56:18.681Z</time>
      </trkpt>
      <trkpt lat="42.7413" lon="-0.04174">
        <ele>1838</ele>
        <time>2024-08-01T14:56:22.911Z</time>
      </trkpt>
      <trkpt lat="42.7413" lon="-0.04166">
        <ele>1837</ele>
        <time>2024-08-01T14:56:27.053Z</time>
      </trkpt>
      <trkpt lat="42.74131" lon="-0.04159">
        <ele>1835</ele>
        <time>2024-08-01T14:56:31.350Z</time>
      </trkpt>
      <trkpt lat="42.7413" lon="-0.04149">
        <ele>1834</ele>
        <time>2024-08-01T14:56:37.057Z</time>
      </trkpt>
      <trkpt lat="42.74131" lon="-0.04146">
        <ele>1834</ele>
        <time>2024-08-01T14:56:39.523Z</time>
      </trkpt>
      <trkpt lat="42.74131" lon="-0.04138">
        <ele>1833</ele>
        <time>2024-08-01T14:56:44.276Z</time>
      </trkpt>
      <trkpt lat="42.7413" lon="-0.04131">
        <ele>1833</ele>
        <time>2024-08-01T14:56:49.123Z</time>
      </trkpt>
      <trkpt lat="42.7413" lon="-0.04122">
        <ele>1832</ele>
        <time>2024-08-01T14:56:53.841Z</time>
      </trkpt>
      <trkpt lat="42.74129" lon="-0.04117">
        <ele>1833</ele>
        <time>2024-08-01T14:57:02.706Z</time>
      </trkpt>
      <trkpt lat="42.7413" lon="-0.04113">
        <ele>1832</ele>
        <time>2024-08-01T14:57:05.299Z</time>
      </trkpt>
      <trkpt lat="42.74129" lon="-0.04107">
        <ele>1832</ele>
        <time>2024-08-01T14:57:08.917Z</time>
      </trkpt>
      <trkpt lat="42.74132" lon="-0.04101">
        <ele>1830</ele>
        <time>2024-08-01T14:57:13.401Z</time>
      </trkpt>
      <trkpt lat="42.74133" lon="-0.04095">
        <ele>1829</ele>
        <time>2024-08-01T14:57:17.083Z</time>
      </trkpt>
      <trkpt lat="42.74133" lon="-0.04088">
        <ele>1829</ele>
        <time>2024-08-01T14:57:21.256Z</time>
      </trkpt>
      <trkpt lat="42.74133" lon="-0.04083">
        <ele>1828</ele>
        <time>2024-08-01T14:57:24.328Z</time>
      </trkpt>
      <trkpt lat="42.74134" lon="-0.04078">
        <ele>1827</ele>
        <time>2024-08-01T14:57:27.050Z</time>
      </trkpt>
      <trkpt lat="42.74133" lon="-0.04074">
        <ele>1827</ele>
        <time>2024-08-01T14:57:30.032Z</time>
      </trkpt>
      <trkpt lat="42.74132" lon="-0.0407">
        <ele>1828</ele>
        <time>2024-08-01T14:57:39.844Z</time>
      </trkpt>
      <trkpt lat="42.74131" lon="-0.04067">
        <ele>1828</ele>
        <time>2024-08-01T14:57:42.601Z</time>
      </trkpt>
      <trkpt lat="42.74132" lon="-0.04061">
        <ele>1827</ele>
        <time>2024-08-01T14:57:45.722Z</time>
      </trkpt>
      <trkpt lat="42.74133" lon="-0.0406">
        <ele>1827</ele>
        <time>2024-08-01T14:57:47.069Z</time>
      </trkpt>
      <trkpt lat="42.74134" lon="-0.04058">
        <ele>1826</ele>
        <time>2024-08-01T14:57:48.940Z</time>
      </trkpt>
      <trkpt lat="42.74135" lon="-0.04051">
        <ele>1825</ele>
        <time>2024-08-01T14:57:53.092Z</time>
      </trkpt>
      <trkpt lat="42.74134" lon="-0.04044">
        <ele>1825</ele>
        <time>2024-08-01T14:57:57.312Z</time>
      </trkpt>
      <trkpt lat="42.74134" lon="-0.0403">
        <ele>1825</ele>
        <time>2024-08-01T14:58:06.784Z</time>
      </trkpt>
      <trkpt lat="42.74134" lon="-0.04021">
        <ele>1825</ele>
        <time>2024-08-01T14:58:12.769Z</time>
      </trkpt>
      <trkpt lat="42.74133" lon="-0.04018">
        <ele>1826</ele>
        <time>2024-08-01T14:58:22.726Z</time>
      </trkpt>
      <trkpt lat="42.74133" lon="-0.04016">
        <ele>1826</ele>
        <time>2024-08-01T14:58:24.514Z</time>
      </trkpt>
      <trkpt lat="42.74135" lon="-0.04009">
        <ele>1825</ele>
        <time>2024-08-01T14:58:28.492Z</time>
      </trkpt>
      <trkpt lat="42.74135" lon="-0.04007">
        <ele>1825</ele>
        <time>2024-08-01T14:58:30.280Z</time>
      </trkpt>
      <trkpt lat="42.74137" lon="-0.03996">
        <ele>1823</ele>
        <time>2024-08-01T14:58:36.735Z</time>
      </trkpt>
      <trkpt lat="42.74136" lon="-0.03985">
        <ele>1824</ele>
        <time>2024-08-01T14:58:47.594Z</time>
      </trkpt>
      <trkpt lat="42.74138" lon="-0.03979">
        <ele>1823</ele>
        <time>2024-08-01T14:58:51.387Z</time>
      </trkpt>
      <trkpt lat="42.7414" lon="-0.03967">
        <ele>1822</ele>
        <time>2024-08-01T14:58:58.495Z</time>
      </trkpt>
      <trkpt lat="42.7414" lon="-0.0396">
        <ele>1822</ele>
        <time>2024-08-01T14:59:03.330Z</time>
      </trkpt>
      <trkpt lat="42.7414" lon="-0.03943">
        <ele>1823</ele>
        <time>2024-08-01T14:59:17.923Z</time>
      </trkpt>
      <trkpt lat="42.7414" lon="-0.03935">
        <ele>1824</ele>
        <time>2024-08-01T14:59:27.420Z</time>
      </trkpt>
      <trkpt lat="42.7414" lon="-0.03925">
        <ele>1825</ele>
        <time>2024-08-01T14:59:37.903Z</time>
      </trkpt>
      <trkpt lat="42.7414" lon="-0.03918">
        <ele>1825</ele>
        <time>2024-08-01T14:59:42.713Z</time>
      </trkpt>
      <trkpt lat="42.74142" lon="-0.0391">
        <ele>1824</ele>
        <time>2024-08-01T14:59:46.954Z</time>
      </trkpt>
      <trkpt lat="42.74147" lon="-0.03901">
        <ele>1821</ele>
        <time>2024-08-01T14:59:54.008Z</time>
      </trkpt>
      <trkpt lat="42.74151" lon="-0.03892">
        <ele>1819</ele>
        <time>2024-08-01T14:59:59.665Z</time>
      </trkpt>
      <trkpt lat="42.74151" lon="-0.03889">
        <ele>1819</ele>
        <time>2024-08-01T15:00:02.050Z</time>
      </trkpt>
      <trkpt lat="42.74151" lon="-0.03887">
        <ele>1819</ele>
        <time>2024-08-01T15:00:03.340Z</time>
      </trkpt>
      <trkpt lat="42.74153" lon="-0.03877">
        <ele>1818</ele>
        <time>2024-08-01T15:00:09.347Z</time>
      </trkpt>
      <trkpt lat="42.74154" lon="-0.0387">
        <ele>1818</ele>
        <time>2024-08-01T15:00:14.147Z</time>
      </trkpt>
      <trkpt lat="42.74154" lon="-0.03866">
        <ele>1818</ele>
        <time>2024-08-01T15:00:17.061Z</time>
      </trkpt>
      <trkpt lat="42.74154" lon="-0.03857">
        <ele>1818</ele>
        <time>2024-08-01T15:00:23.022Z</time>
      </trkpt>
      <trkpt lat="42.74153" lon="-0.0385">
        <ele>1818</ele>
        <time>2024-08-01T15:00:27.356Z</time>
      </trkpt>
      <trkpt lat="42.74151" lon="-0.0384">
        <ele>1819</ele>
        <time>2024-08-01T15:00:37.846Z</time>
      </trkpt>
      <trkpt lat="42.74148" lon="-0.03825">
        <ele>1819</ele>
        <time>2024-08-01T15:00:48.408Z</time>
      </trkpt>
      <trkpt lat="42.74146" lon="-0.03822">
        <ele>1820</ele>
        <time>2024-08-01T15:00:57.548Z</time>
      </trkpt>
      <trkpt lat="42.74144" lon="-0.03817">
        <ele>1820</ele>
        <time>2024-08-01T15:01:01.089Z</time>
      </trkpt>
      <trkpt lat="42.74141" lon="-0.03812">
        <ele>1821</ele>
        <time>2024-08-01T15:01:10.196Z</time>
      </trkpt>
      <trkpt lat="42.74137" lon="-0.03805">
        <ele>1822</ele>
        <time>2024-08-01T15:01:19.830Z</time>
      </trkpt>
      <trkpt lat="42.74136" lon="-0.038">
        <ele>1822</ele>
        <time>2024-08-01T15:01:23.560Z</time>
      </trkpt>
      <trkpt lat="42.74132" lon="-0.03787">
        <ele>1823</ele>
        <time>2024-08-01T15:01:35.909Z</time>
      </trkpt>
      <trkpt lat="42.74126" lon="-0.0377">
        <ele>1824</ele>
        <time>2024-08-01T15:01:52.002Z</time>
      </trkpt>
      <trkpt lat="42.74121" lon="-0.03758">
        <ele>1824</ele>
        <time>2024-08-01T15:02:01.282Z</time>
      </trkpt>
      <trkpt lat="42.74124" lon="-0.03742">
        <ele>1822</ele>
        <time>2024-08-01T15:02:10.327Z</time>
      </trkpt>
      <trkpt lat="42.7413" lon="-0.03724">
        <ele>1819</ele>
        <time>2024-08-01T15:02:21.751Z</time>
      </trkpt>
      <trkpt lat="42.74135" lon="-0.03702">
        <ele>1816</ele>
        <time>2024-08-01T15:02:35.390Z</time>
      </trkpt>
      <trkpt lat="42.74137" lon="-0.03697">
        <ele>1815</ele>
        <time>2024-08-01T15:02:38.488Z</time>
      </trkpt>
      <trkpt lat="42.74138" lon="-0.03692">
        <ele>1815</ele>
        <time>2024-08-01T15:02:42.189Z</time>
      </trkpt>
      <trkpt lat="42.74138" lon="-0.03687">
        <ele>1814</ele>
        <time>2024-08-01T15:02:45.367Z</time>
      </trkpt>
      <trkpt lat="42.74138" lon="-0.03682">
        <ele>1814</ele>
        <time>2024-08-01T15:02:48.414Z</time>
      </trkpt>
      <trkpt lat="42.74136" lon="-0.03677">
        <ele>1814</ele>
        <time>2024-08-01T15:02:52.115Z</time>
      </trkpt>
      <trkpt lat="42.74136" lon="-0.03671">
        <ele>1813</ele>
        <time>2024-08-01T15:02:55.245Z</time>
      </trkpt>
      <trkpt lat="42.74135" lon="-0.03663">
        <ele>1812</ele>
        <time>2024-08-01T15:02:59.993Z</time>
      </trkpt>
      <trkpt lat="42.74136" lon="-0.03659">
        <ele>1812</ele>
        <time>2024-08-01T15:03:03.088Z</time>
      </trkpt>
      <trkpt lat="42.74134" lon="-0.03649">
        <ele>1811</ele>
        <time>2024-08-01T15:03:08.859Z</time>
      </trkpt>
      <trkpt lat="42.74134" lon="-0.03635">
        <ele>1808</ele>
        <time>2024-08-01T15:03:17.263Z</time>
      </trkpt>
      <trkpt lat="42.74134" lon="-0.03624">
        <ele>1807</ele>
        <time>2024-08-01T15:03:23.482Z</time>
      </trkpt>
      <trkpt lat="42.7413" lon="-0.03616">
        <ele>1806</ele>
        <time>2024-08-01T15:03:28.839Z</time>
      </trkpt>
      <trkpt lat="42.74126" lon="-0.03609">
        <ele>1806</ele>
        <time>2024-08-01T15:03:34.347Z</time>
      </trkpt>
      <trkpt lat="42.74126" lon="-0.03605">
        <ele>1806</ele>
        <time>2024-08-01T15:03:37.328Z</time>
      </trkpt>
      <trkpt lat="42.74114" lon="-0.03583">
        <ele>1805</ele>
        <time>2024-08-01T15:03:53.680Z</time>
      </trkpt>
      <trkpt lat="42.7411" lon="-0.03579">
        <ele>1806</ele>
        <time>2024-08-01T15:04:02.645Z</time>
      </trkpt>
      <trkpt lat="42.74109" lon="-0.03575">
        <ele>1805</ele>
        <time>2024-08-01T15:04:04.970Z</time>
      </trkpt>
      <trkpt lat="42.74107" lon="-0.03567">
        <ele>1805</ele>
        <time>2024-08-01T15:04:10.461Z</time>
      </trkpt>
      <trkpt lat="42.74105" lon="-0.03562">
        <ele>1805</ele>
        <time>2024-08-01T15:04:14.738Z</time>
      </trkpt>
      <trkpt lat="42.741" lon="-0.03556">
        <ele>1804</ele>
        <time>2024-08-01T15:04:19.943Z</time>
      </trkpt>
      <trkpt lat="42.74097" lon="-0.03544">
        <ele>1803</ele>
        <time>2024-08-01T15:04:27.152Z</time>
      </trkpt>
      <trkpt lat="42.74094" lon="-0.03531">
        <ele>1802</ele>
        <time>2024-08-01T15:04:34.738Z</time>
      </trkpt>
      <trkpt lat="42.74092" lon="-0.03523">
        <ele>1802</ele>
        <time>2024-08-01T15:04:40.398Z</time>
      </trkpt>
      <trkpt lat="42.74089" lon="-0.03492">
        <ele>1798</ele>
        <time>2024-08-01T15:04:58.778Z</time>
      </trkpt>
      <trkpt lat="42.74088" lon="-0.03484">
        <ele>1797</ele>
        <time>2024-08-01T15:05:03.510Z</time>
      </trkpt>
      <trkpt lat="42.74085" lon="-0.03463">
        <ele>1794</ele>
        <time>2024-08-01T15:05:15.695Z</time>
      </trkpt>
      <trkpt lat="42.74081" lon="-0.03456">
        <ele>1793</ele>
        <time>2024-08-01T15:05:20.927Z</time>
      </trkpt>
      <trkpt lat="42.74073" lon="-0.0343">
        <ele>1789</ele>
        <time>2024-08-01T15:05:37.506Z</time>
      </trkpt>
      <trkpt lat="42.7407" lon="-0.03426">
        <ele>1788</ele>
        <time>2024-08-01T15:05:40.432Z</time>
      </trkpt>
      <trkpt lat="42.74066" lon="-0.03421">
        <ele>1787</ele>
        <time>2024-08-01T15:05:45.188Z</time>
      </trkpt>
      <trkpt lat="42.7406" lon="-0.03412">
        <ele>1786</ele>
        <time>2024-08-01T15:05:52.179Z</time>
      </trkpt>
      <trkpt lat="42.74056" lon="-0.03405">
        <ele>1785</ele>
        <time>2024-08-01T15:05:57.366Z</time>
      </trkpt>
      <trkpt lat="42.7405" lon="-0.034">
        <ele>1785</ele>
        <time>2024-08-01T15:06:03.497Z</time>
      </trkpt>
      <trkpt lat="42.74047" lon="-0.03397">
        <ele>1785</ele>
        <time>2024-08-01T15:06:06.446Z</time>
      </trkpt>
      <trkpt lat="42.74044" lon="-0.03394">
        <ele>1785</ele>
        <time>2024-08-01T15:06:10.331Z</time>
      </trkpt>
      <trkpt lat="42.74042" lon="-0.0339">
        <ele>1784</ele>
        <time>2024-08-01T15:06:12.900Z</time>
      </trkpt>
      <trkpt lat="42.74041" lon="-0.03388">
        <ele>1784</ele>
        <time>2024-08-01T15:06:15.089Z</time>
      </trkpt>
      <trkpt lat="42.7404" lon="-0.03387">
        <ele>1784</ele>
        <time>2024-08-01T15:06:15.913Z</time>
      </trkpt>
      <trkpt lat="42.74039" lon="-0.03385">
        <ele>1784</ele>
        <time>2024-08-01T15:06:17.283Z</time>
      </trkpt>
      <trkpt lat="42.74039" lon="-0.03383">
        <ele>1784</ele>
        <time>2024-08-01T15:06:18.409Z</time>
      </trkpt>
      <trkpt lat="42.74041" lon="-0.03381">
        <ele>1783</ele>
        <time>2024-08-01T15:06:19.914Z</time>
      </trkpt>
      <trkpt lat="42.74041" lon="-0.03379">
        <ele>1783</ele>
        <time>2024-08-01T15:06:21.106Z</time>
      </trkpt>
      <trkpt lat="42.7404" lon="-0.03378">
        <ele>1783</ele>
        <time>2024-08-01T15:06:22.397Z</time>
      </trkpt>
      <trkpt lat="42.74036" lon="-0.03374">
        <ele>1784</ele>
        <time>2024-08-01T15:06:31.362Z</time>
      </trkpt>
      <trkpt lat="42.74035" lon="-0.03373">
        <ele>1784</ele>
        <time>2024-08-01T15:06:32.217Z</time>
      </trkpt>
      <trkpt lat="42.74035" lon="-0.03371">
        <ele>1784</ele>
        <time>2024-08-01T15:06:33.939Z</time>
      </trkpt>
      <trkpt lat="42.74036" lon="-0.03368">
        <ele>1783</ele>
        <time>2024-08-01T15:06:35.574Z</time>
      </trkpt>
      <trkpt lat="42.74036" lon="-0.03365">
        <ele>1783</ele>
        <time>2024-08-01T15:06:37.363Z</time>
      </trkpt>
      <trkpt lat="42.74035" lon="-0.03361">
        <ele>1783</ele>
        <time>2024-08-01T15:06:40.457Z</time>
      </trkpt>
      <trkpt lat="42.74034" lon="-0.03353">
        <ele>1783</ele>
        <time>2024-08-01T15:06:45.326Z</time>
      </trkpt>
      <trkpt lat="42.74031" lon="-0.03336">
        <ele>1782</ele>
        <time>2024-08-01T15:06:55.390Z</time>
      </trkpt>
      <trkpt lat="42.74028" lon="-0.03284">
        <ele>1780</ele>
        <time>2024-08-01T15:07:25.756Z</time>
      </trkpt>
      <trkpt lat="42.74015" lon="-0.03248">
        <ele>1780</ele>
        <time>2024-08-01T15:07:52.348Z</time>
      </trkpt>
      <trkpt lat="42.7401" lon="-0.03223">
        <ele>1780</ele>
        <time>2024-08-01T15:08:09.647Z</time>
      </trkpt>
      <trkpt lat="42.73998" lon="-0.03193">
        <ele>1781</ele>
        <time>2024-08-01T15:08:35.326Z</time>
      </trkpt>
      <trkpt lat="42.7399" lon="-0.03176">
        <ele>1781</ele>
        <time>2024-08-01T15:08:48.513Z</time>
      </trkpt>
      <trkpt lat="42.7399" lon="-0.03163">
        <ele>1780</ele>
        <time>2024-08-01T15:08:56.279Z</time>
      </trkpt>
      <trkpt lat="42.73996" lon="-0.0315">
        <ele>1779</ele>
        <time>2024-08-01T15:09:04.940Z</time>
      </trkpt>
      <trkpt lat="42.73998" lon="-0.03141">
        <ele>1779</ele>
        <time>2024-08-01T15:09:11.904Z</time>
      </trkpt>
      <trkpt lat="42.73997" lon="-0.03116">
        <ele>1776</ele>
        <time>2024-08-01T15:09:26.025Z</time>
      </trkpt>
      <trkpt lat="42.73998" lon="-0.03108">
        <ele>1775</ele>
        <time>2024-08-01T15:09:30.830Z</time>
      </trkpt>
      <trkpt lat="42.74" lon="-0.03102">
        <ele>1774</ele>
        <time>2024-08-01T15:09:34.808Z</time>
      </trkpt>
      <trkpt lat="42.74013" lon="-0.03087">
        <ele>1774</ele>
        <time>2024-08-01T15:09:49.922Z</time>
      </trkpt>
      <trkpt lat="42.74035" lon="-0.03037">
        <ele>1771</ele>
        <time>2024-08-01T15:10:23.612Z</time>
      </trkpt>
      <trkpt lat="42.74033" lon="-0.03018">
        <ele>1767</ele>
        <time>2024-08-01T15:10:35.226Z</time>
      </trkpt>
      <trkpt lat="42.74031" lon="-0.02985">
        <ele>1760</ele>
        <time>2024-08-01T15:10:53.974Z</time>
      </trkpt>
      <trkpt lat="42.74031" lon="-0.02978">
        <ele>1759</ele>
        <time>2024-08-01T15:10:58.205Z</time>
      </trkpt>
      <trkpt lat="42.74029" lon="-0.02959">
        <ele>1753</ele>
        <time>2024-08-01T15:11:09.272Z</time>
      </trkpt>
      <trkpt lat="42.74027" lon="-0.02946">
        <ele>1749</ele>
        <time>2024-08-01T15:11:17.305Z</time>
      </trkpt>
      <trkpt lat="42.74021" lon="-0.02938">
        <ele>1750</ele>
        <time>2024-08-01T15:11:28.549Z</time>
      </trkpt>
      <trkpt lat="42.74011" lon="-0.02932">
        <ele>1751</ele>
        <time>2024-08-01T15:11:41.637Z</time>
      </trkpt>
      <trkpt lat="42.7401" lon="-0.02935">
        <ele>1752</ele>
        <time>2024-08-01T15:11:52.202Z</time>
      </trkpt>
      <trkpt lat="42.74008" lon="-0.02938">
        <ele>1754</ele>
        <time>2024-08-01T15:12:08.177Z</time>
      </trkpt>
      <trkpt lat="42.74008" lon="-0.02944">
        <ele>1754</ele>
        <time>2024-08-01T15:12:11.744Z</time>
      </trkpt>
      <trkpt lat="42.74006" lon="-0.02952">
        <ele>1756</ele>
        <time>2024-08-01T15:12:30.197Z</time>
      </trkpt>
      <trkpt lat="42.74005" lon="-0.02956">
        <ele>1756</ele>
        <time>2024-08-01T15:12:33.373Z</time>
      </trkpt>
      <trkpt lat="42.74002" lon="-0.02956">
        <ele>1756</ele>
        <time>2024-08-01T15:12:35.718Z</time>
      </trkpt>
      <trkpt lat="42.74" lon="-0.02955">
        <ele>1756</ele>
        <time>2024-08-01T15:12:38.224Z</time>
      </trkpt>
      <trkpt lat="42.73983" lon="-0.02955">
        <ele>1754</ele>
        <time>2024-08-01T15:12:51.253Z</time>
      </trkpt>
      <trkpt lat="42.73975" lon="-0.02949">
        <ele>1752</ele>
        <time>2024-08-01T15:12:58.727Z</time>
      </trkpt>
      <trkpt lat="42.73952" lon="-0.02923">
        <ele>1742</ele>
        <time>2024-08-01T15:13:22.354Z</time>
      </trkpt>
      <trkpt lat="42.73949" lon="-0.02916">
        <ele>1740</ele>
        <time>2024-08-01T15:13:26.952Z</time>
      </trkpt>
      <trkpt lat="42.73948" lon="-0.02913">
        <ele>1740</ele>
        <time>2024-08-01T15:13:28.849Z</time>
      </trkpt>
      <trkpt lat="42.73945" lon="-0.02902">
        <ele>1737</ele>
        <time>2024-08-01T15:13:36.113Z</time>
      </trkpt>
      <trkpt lat="42.73944" lon="-0.02899">
        <ele>1736</ele>
        <time>2024-08-01T15:13:37.827Z</time>
      </trkpt>
      <trkpt lat="42.73942" lon="-0.02894">
        <ele>1735</ele>
        <time>2024-08-01T15:13:40.826Z</time>
      </trkpt>
      <trkpt lat="42.73941" lon="-0.02888">
        <ele>1734</ele>
        <time>2024-08-01T15:13:44.619Z</time>
      </trkpt>
      <trkpt lat="42.7394" lon="-0.02884">
        <ele>1733</ele>
        <time>2024-08-01T15:13:47.269Z</time>
      </trkpt>
      <trkpt lat="42.73942" lon="-0.02876">
        <ele>1733</ele>
        <time>2024-08-01T15:13:52.337Z</time>
      </trkpt>
      <trkpt lat="42.73941" lon="-0.02871">
        <ele>1732</ele>
        <time>2024-08-01T15:13:55.630Z</time>
      </trkpt>
      <trkpt lat="42.73942" lon="-0.02864">
        <ele>1731</ele>
        <time>2024-08-01T15:13:59.830Z</time>
      </trkpt>
      <trkpt lat="42.73939" lon="-0.02857">
        <ele>1728</ele>
        <time>2024-08-01T15:14:04.428Z</time>
      </trkpt>
      <trkpt lat="42.73938" lon="-0.02853">
        <ele>1728</ele>
        <time>2024-08-01T15:14:06.873Z</time>
      </trkpt>
      <trkpt lat="42.73935" lon="-0.02846">
        <ele>1725</ele>
        <time>2024-08-01T15:14:11.842Z</time>
      </trkpt>
      <trkpt lat="42.73935" lon="-0.02841">
        <ele>1724</ele>
        <time>2024-08-01T15:14:14.392Z</time>
      </trkpt>
      <trkpt lat="42.73936" lon="-0.02827">
        <ele>1722</ele>
        <time>2024-08-01T15:14:22.800Z</time>
      </trkpt>
      <trkpt lat="42.73941" lon="-0.02806">
        <ele>1719</ele>
        <time>2024-08-01T15:14:35.279Z</time>
      </trkpt>
      <trkpt lat="42.73942" lon="-0.02801">
        <ele>1718</ele>
        <time>2024-08-01T15:14:38.628Z</time>
      </trkpt>
      <trkpt lat="42.73942" lon="-0.02794">
        <ele>1716</ele>
        <time>2024-08-01T15:14:42.780Z</time>
      </trkpt>
      <trkpt lat="42.73941" lon="-0.02781">
        <ele>1712</ele>
        <time>2024-08-01T15:14:50.098Z</time>
      </trkpt>
      <trkpt lat="42.73938" lon="-0.02768">
        <ele>1708</ele>
        <time>2024-08-01T15:14:58.289Z</time>
      </trkpt>
      <trkpt lat="42.73934" lon="-0.02762">
        <ele>1707</ele>
        <time>2024-08-01T15:15:02.775Z</time>
      </trkpt>
      <trkpt lat="42.73933" lon="-0.02756">
        <ele>1705</ele>
        <time>2024-08-01T15:15:06.457Z</time>
      </trkpt>
      <trkpt lat="42.73934" lon="-0.02749">
        <ele>1702</ele>
        <time>2024-08-01T15:15:10.599Z</time>
      </trkpt>
      <trkpt lat="42.73938" lon="-0.02739">
        <ele>1695</ele>
        <time>2024-08-01T15:15:17.480Z</time>
      </trkpt>
      <trkpt lat="42.73938" lon="-0.02735">
        <ele>1694</ele>
        <time>2024-08-01T15:15:19.639Z</time>
      </trkpt>
      <trkpt lat="42.73938" lon="-0.0273">
        <ele>1691</ele>
        <time>2024-08-01T15:15:22.760Z</time>
      </trkpt>
      <trkpt lat="42.73936" lon="-0.0272">
        <ele>1685</ele>
        <time>2024-08-01T15:15:28.655Z</time>
      </trkpt>
      <trkpt lat="42.73934" lon="-0.02718">
        <ele>1685</ele>
        <time>2024-08-01T15:15:30.854Z</time>
      </trkpt>
      <trkpt lat="42.73933" lon="-0.02711">
        <ele>1682</ele>
        <time>2024-08-01T15:15:35.095Z</time>
      </trkpt>
      <trkpt lat="42.73934" lon="-0.02706">
        <ele>1678</ele>
        <time>2024-08-01T15:15:38.318Z</time>
      </trkpt>
      <trkpt lat="42.73931" lon="-0.02692">
        <ele>1670</ele>
        <time>2024-08-01T15:15:46.350Z</time>
      </trkpt>
      <trkpt lat="42.73928" lon="-0.02673">
        <ele>1657</ele>
        <time>2024-08-01T15:15:57.495Z</time>
      </trkpt>
      <trkpt lat="42.73926" lon="-0.0267">
        <ele>1657</ele>
        <time>2024-08-01T15:16:00.950Z</time>
      </trkpt>
      <trkpt lat="42.73923" lon="-0.02672">
        <ele>1661</ele>
        <time>2024-08-01T15:16:14.921Z</time>
      </trkpt>
      <trkpt lat="42.7392" lon="-0.02679">
        <ele>1671</ele>
        <time>2024-08-01T15:16:44.140Z</time>
      </trkpt>
      <trkpt lat="42.73917" lon="-0.02699">
        <ele>1690</ele>
        <time>2024-08-01T15:17:55.083Z</time>
      </trkpt>
      <trkpt lat="42.73913" lon="-0.02703">
        <ele>1692</ele>
        <time>2024-08-01T15:18:16.216Z</time>
      </trkpt>
      <trkpt lat="42.73911" lon="-0.02702">
        <ele>1692</ele>
        <time>2024-08-01T15:18:18.620Z</time>
      </trkpt>
      <trkpt lat="42.73909" lon="-0.02695">
        <ele>1688</ele>
        <time>2024-08-01T15:18:23.135Z</time>
      </trkpt>
      <trkpt lat="42.73907" lon="-0.02694">
        <ele>1688</ele>
        <time>2024-08-01T15:18:24.451Z</time>
      </trkpt>
      <trkpt lat="42.73903" lon="-0.027">
        <ele>1692</ele>
        <time>2024-08-01T15:18:53.410Z</time>
      </trkpt>
      <trkpt lat="42.73899" lon="-0.02717">
        <ele>1697</ele>
        <time>2024-08-01T15:19:42.906Z</time>
      </trkpt>
      <trkpt lat="42.73899" lon="-0.02726">
        <ele>1698</ele>
        <time>2024-08-01T15:19:52.488Z</time>
      </trkpt>
      <trkpt lat="42.73896" lon="-0.02736">
        <ele>1699</ele>
        <time>2024-08-01T15:20:03.718Z</time>
      </trkpt>
      <trkpt lat="42.73895" lon="-0.02743">
        <ele>1700</ele>
        <time>2024-08-01T15:20:12.669Z</time>
      </trkpt>
      <trkpt lat="42.73896" lon="-0.02749">
        <ele>1700</ele>
        <time>2024-08-01T15:20:16.877Z</time>
      </trkpt>
      <trkpt lat="42.73895" lon="-0.02753">
        <ele>1700</ele>
        <time>2024-08-01T15:20:19.534Z</time>
      </trkpt>
      <trkpt lat="42.73888" lon="-0.02757">
        <ele>1696</ele>
        <time>2024-08-01T15:20:25.334Z</time>
      </trkpt>
      <trkpt lat="42.73885" lon="-0.02771">
        <ele>1695</ele>
        <time>2024-08-01T15:20:34.076Z</time>
      </trkpt>
      <trkpt lat="42.7388" lon="-0.02778">
        <ele>1692</ele>
        <time>2024-08-01T15:20:39.569Z</time>
      </trkpt>
      <trkpt lat="42.73873" lon="-0.0278">
        <ele>1688</ele>
        <time>2024-08-01T15:20:45.067Z</time>
      </trkpt>
      <trkpt lat="42.73868" lon="-0.02779">
        <ele>1685</ele>
        <time>2024-08-01T15:20:48.726Z</time>
      </trkpt>
      <trkpt lat="42.73867" lon="-0.02778">
        <ele>1684</ele>
        <time>2024-08-01T15:20:50.190Z</time>
      </trkpt>
      <trkpt lat="42.73866" lon="-0.02772">
        <ele>1683</ele>
        <time>2024-08-01T15:20:53.355Z</time>
      </trkpt>
      <trkpt lat="42.73867" lon="-0.02768">
        <ele>1683</ele>
        <time>2024-08-01T15:20:56.319Z</time>
      </trkpt>
      <trkpt lat="42.73868" lon="-0.02764">
        <ele>1683</ele>
        <time>2024-08-01T15:20:58.786Z</time>
      </trkpt>
      <trkpt lat="42.73866" lon="-0.02763">
        <ele>1682</ele>
        <time>2024-08-01T15:21:00.467Z</time>
      </trkpt>
      <trkpt lat="42.73864" lon="-0.02759">
        <ele>1681</ele>
        <time>2024-08-01T15:21:03.216Z</time>
      </trkpt>
      <trkpt lat="42.73862" lon="-0.02753">
        <ele>1679</ele>
        <time>2024-08-01T15:21:07.194Z</time>
      </trkpt>
      <trkpt lat="42.7386" lon="-0.02742">
        <ele>1677</ele>
        <time>2024-08-01T15:21:13.705Z</time>
      </trkpt>
      <trkpt lat="42.73857" lon="-0.02734">
        <ele>1674</ele>
        <time>2024-08-01T15:21:19.271Z</time>
      </trkpt>
      <trkpt lat="42.7385" lon="-0.02704">
        <ele>1667</ele>
        <time>2024-08-01T15:21:37.255Z</time>
      </trkpt>
      <trkpt lat="42.7385" lon="-0.02695">
        <ele>1666</ele>
        <time>2024-08-01T15:21:42.471Z</time>
      </trkpt>
      <trkpt lat="42.73848" lon="-0.02693">
        <ele>1664</ele>
        <time>2024-08-01T15:21:44.332Z</time>
      </trkpt>
      <trkpt lat="42.73845" lon="-0.02694">
        <ele>1662</ele>
        <time>2024-08-01T15:21:46.435Z</time>
      </trkpt>
      <trkpt lat="42.73843" lon="-0.02697">
        <ele>1662</ele>
        <time>2024-08-01T15:21:49.040Z</time>
      </trkpt>
      <trkpt lat="42.73841" lon="-0.02712">
        <ele>1661</ele>
        <time>2024-08-01T15:21:58.142Z</time>
      </trkpt>
      <trkpt lat="42.73836" lon="-0.02726">
        <ele>1660</ele>
        <time>2024-08-01T15:22:07.190Z</time>
      </trkpt>
      <trkpt lat="42.73822" lon="-0.02738">
        <ele>1653</ele>
        <time>2024-08-01T15:22:20.491Z</time>
      </trkpt>
      <trkpt lat="42.73807" lon="-0.02744">
        <ele>1647</ele>
        <time>2024-08-01T15:22:32.369Z</time>
      </trkpt>
      <trkpt lat="42.73801" lon="-0.02744">
        <ele>1644</ele>
        <time>2024-08-01T15:22:37.025Z</time>
      </trkpt>
      <trkpt lat="42.73794" lon="-0.02744">
        <ele>1641</ele>
        <time>2024-08-01T15:22:42.786Z</time>
      </trkpt>
      <trkpt lat="42.73764" lon="-0.02727">
        <ele>1632</ele>
        <time>2024-08-01T15:23:08.034Z</time>
      </trkpt>
      <trkpt lat="42.73761" lon="-0.02723">
        <ele>1631</ele>
        <time>2024-08-01T15:23:11.402Z</time>
      </trkpt>
      <trkpt lat="42.73758" lon="-0.02717">
        <ele>1630</ele>
        <time>2024-08-01T15:23:15.468Z</time>
      </trkpt>
      <trkpt lat="42.73754" lon="-0.02708">
        <ele>1627</ele>
        <time>2024-08-01T15:23:21.916Z</time>
      </trkpt>
      <trkpt lat="42.73745" lon="-0.02675">
        <ele>1619</ele>
        <time>2024-08-01T15:23:42.078Z</time>
      </trkpt>
      <trkpt lat="42.73746" lon="-0.02673">
        <ele>1618</ele>
        <time>2024-08-01T15:23:43.258Z</time>
      </trkpt>
      <trkpt lat="42.73747" lon="-0.02673">
        <ele>1618</ele>
        <time>2024-08-01T15:23:44.628Z</time>
      </trkpt>
      <trkpt lat="42.73749" lon="-0.02672">
        <ele>1618</ele>
        <time>2024-08-01T15:23:46.465Z</time>
      </trkpt>
      <trkpt lat="42.73751" lon="-0.0267">
        <ele>1617</ele>
        <time>2024-08-01T15:23:48.389Z</time>
      </trkpt>
      <trkpt lat="42.73753" lon="-0.02669">
        <ele>1617</ele>
        <time>2024-08-01T15:23:50.269Z</time>
      </trkpt>
      <trkpt lat="42.73755" lon="-0.02669">
        <ele>1617</ele>
        <time>2024-08-01T15:23:52.073Z</time>
      </trkpt>
      <trkpt lat="42.7376" lon="-0.02668">
        <ele>1616</ele>
        <time>2024-08-01T15:23:55.740Z</time>
      </trkpt>
      <trkpt lat="42.73765" lon="-0.02664">
        <ele>1615</ele>
        <time>2024-08-01T15:24:00.344Z</time>
      </trkpt>
      <trkpt lat="42.7377" lon="-0.02653">
        <ele>1612</ele>
        <time>2024-08-01T15:24:08.311Z</time>
      </trkpt>
      <trkpt lat="42.73782" lon="-0.02642">
        <ele>1611</ele>
        <time>2024-08-01T15:24:19.565Z</time>
      </trkpt>
      <trkpt lat="42.73782" lon="-0.0264">
        <ele>1610</ele>
        <time>2024-08-01T15:24:20.666Z</time>
      </trkpt>
      <trkpt lat="42.73778" lon="-0.02639">
        <ele>1609</ele>
        <time>2024-08-01T15:24:23.856Z</time>
      </trkpt>
      <trkpt lat="42.73777" lon="-0.02639">
        <ele>1609</ele>
        <time>2024-08-01T15:24:24.938Z</time>
      </trkpt>
      <trkpt lat="42.73771" lon="-0.02637">
        <ele>1607</ele>
        <time>2024-08-01T15:24:29.263Z</time>
      </trkpt>
      <trkpt lat="42.73769" lon="-0.02636">
        <ele>1606</ele>
        <time>2024-08-01T15:24:31.191Z</time>
      </trkpt>
      <trkpt lat="42.73769" lon="-0.02633">
        <ele>1605</ele>
        <time>2024-08-01T15:24:32.756Z</time>
      </trkpt>
      <trkpt lat="42.73769" lon="-0.02631">
        <ele>1605</ele>
        <time>2024-08-01T15:24:34.126Z</time>
      </trkpt>
      <trkpt lat="42.73769" lon="-0.02628">
        <ele>1604</ele>
        <time>2024-08-01T15:24:36.209Z</time>
      </trkpt>
      <trkpt lat="42.73769" lon="-0.02627">
        <ele>1603</ele>
        <time>2024-08-01T15:24:36.731Z</time>
      </trkpt>
      <trkpt lat="42.73768" lon="-0.02625">
        <ele>1603</ele>
        <time>2024-08-01T15:24:38.341Z</time>
      </trkpt>
      <trkpt lat="42.7377" lon="-0.02622">
        <ele>1602</ele>
        <time>2024-08-01T15:24:40.551Z</time>
      </trkpt>
      <trkpt lat="42.73773" lon="-0.02619">
        <ele>1602</ele>
        <time>2024-08-01T15:24:43.572Z</time>
      </trkpt>
      <trkpt lat="42.73772" lon="-0.02618">
        <ele>1601</ele>
        <time>2024-08-01T15:24:44.701Z</time>
      </trkpt>
      <trkpt lat="42.73773" lon="-0.02616">
        <ele>1601</ele>
        <time>2024-08-01T15:24:45.992Z</time>
      </trkpt>
      <trkpt lat="42.73772" lon="-0.02615">
        <ele>1600</ele>
        <time>2024-08-01T15:24:46.793Z</time>
      </trkpt>
      <trkpt lat="42.73771" lon="-0.02615">
        <ele>1600</ele>
        <time>2024-08-01T15:24:47.965Z</time>
      </trkpt>
      <trkpt lat="42.73769" lon="-0.02612">
        <ele>1599</ele>
        <time>2024-08-01T15:24:49.881Z</time>
      </trkpt>
      <trkpt lat="42.73769" lon="-0.02611">
        <ele>1598</ele>
        <time>2024-08-01T15:24:51.027Z</time>
      </trkpt>
      <trkpt lat="42.73769" lon="-0.02609">
        <ele>1597</ele>
        <time>2024-08-01T15:24:52.070Z</time>
      </trkpt>
      <trkpt lat="42.7377" lon="-0.02605">
        <ele>1597</ele>
        <time>2024-08-01T15:24:54.727Z</time>
      </trkpt>
      <trkpt lat="42.73771" lon="-0.02603">
        <ele>1596</ele>
        <time>2024-08-01T15:24:56.208Z</time>
      </trkpt>
      <trkpt lat="42.73773" lon="-0.02601">
        <ele>1596</ele>
        <time>2024-08-01T15:24:58.346Z</time>
      </trkpt>
      <trkpt lat="42.73773" lon="-0.02598">
        <ele>1595</ele>
        <time>2024-08-01T15:24:59.981Z</time>
      </trkpt>
      <trkpt lat="42.73774" lon="-0.02596">
        <ele>1594</ele>
        <time>2024-08-01T15:25:01.213Z</time>
      </trkpt>
      <trkpt lat="42.73775" lon="-0.02593">
        <ele>1594</ele>
        <time>2024-08-01T15:25:03.352Z</time>
      </trkpt>
      <trkpt lat="42.73777" lon="-0.0259">
        <ele>1593</ele>
        <time>2024-08-01T15:25:05.712Z</time>
      </trkpt>
      <trkpt lat="42.73784" lon="-0.02583">
        <ele>1591</ele>
        <time>2024-08-01T15:25:12.728Z</time>
      </trkpt>
      <trkpt lat="42.73785" lon="-0.02579">
        <ele>1590</ele>
        <time>2024-08-01T15:25:15.053Z</time>
      </trkpt>
      <trkpt lat="42.73785" lon="-0.02574">
        <ele>1588</ele>
        <time>2024-08-01T15:25:18.218Z</time>
      </trkpt>
      <trkpt lat="42.73792" lon="-0.02564">
        <ele>1586</ele>
        <time>2024-08-01T15:25:26.293Z</time>
      </trkpt>
      <trkpt lat="42.73792" lon="-0.02556">
        <ele>1582</ele>
        <time>2024-08-01T15:25:30.988Z</time>
      </trkpt>
      <trkpt lat="42.73799" lon="-0.02544">
        <ele>1578</ele>
        <time>2024-08-01T15:25:39.842Z</time>
      </trkpt>
      <trkpt lat="42.73799" lon="-0.02541">
        <ele>1576</ele>
        <time>2024-08-01T15:25:41.928Z</time>
      </trkpt>
      <trkpt lat="42.73803" lon="-0.02525">
        <ele>1570</ele>
        <time>2024-08-01T15:25:51.315Z</time>
      </trkpt>
      <trkpt lat="42.73808" lon="-0.02522">
        <ele>1569</ele>
        <time>2024-08-01T15:25:56.015Z</time>
      </trkpt>
      <trkpt lat="42.73818" lon="-0.02515">
        <ele>1568</ele>
        <time>2024-08-01T15:26:04.212Z</time>
      </trkpt>
      <trkpt lat="42.73833" lon="-0.02504">
        <ele>1565</ele>
        <time>2024-08-01T15:26:18.378Z</time>
      </trkpt>
      <trkpt lat="42.73841" lon="-0.02488">
        <ele>1561</ele>
        <time>2024-08-01T15:26:29.600Z</time>
      </trkpt>
      <trkpt lat="42.73845" lon="-0.02475">
        <ele>1556</ele>
        <time>2024-08-01T15:26:37.353Z</time>
      </trkpt>
      <trkpt lat="42.73843" lon="-0.02467">
        <ele>1554</ele>
        <time>2024-08-01T15:26:42.306Z</time>
      </trkpt>
      <trkpt lat="42.73842" lon="-0.02462">
        <ele>1553</ele>
        <time>2024-08-01T15:26:44.957Z</time>
      </trkpt>
      <trkpt lat="42.73843" lon="-0.02457">
        <ele>1551</ele>
        <time>2024-08-01T15:26:48.226Z</time>
      </trkpt>
      <trkpt lat="42.73845" lon="-0.02452">
        <ele>1549</ele>
        <time>2024-08-01T15:26:51.768Z</time>
      </trkpt>
      <trkpt lat="42.73849" lon="-0.0245">
        <ele>1547</ele>
        <time>2024-08-01T15:26:55.017Z</time>
      </trkpt>
      <trkpt lat="42.73851" lon="-0.02448">
        <ele>1546</ele>
        <time>2024-08-01T15:26:56.537Z</time>
      </trkpt>
      <trkpt lat="42.73852" lon="-0.02438">
        <ele>1542</ele>
        <time>2024-08-01T15:27:02.352Z</time>
      </trkpt>
      <trkpt lat="42.73851" lon="-0.02432">
        <ele>1541</ele>
        <time>2024-08-01T15:27:06.125Z</time>
      </trkpt>
      <trkpt lat="42.73851" lon="-0.02426">
        <ele>1539</ele>
        <time>2024-08-01T15:27:09.254Z</time>
      </trkpt>
      <trkpt lat="42.7385" lon="-0.02419">
        <ele>1536</ele>
        <time>2024-08-01T15:27:13.406Z</time>
      </trkpt>
      <trkpt lat="42.73847" lon="-0.02417">
        <ele>1537</ele>
        <time>2024-08-01T15:27:22.755Z</time>
      </trkpt>
      <trkpt lat="42.73845" lon="-0.02415">
        <ele>1536</ele>
        <time>2024-08-01T15:27:25.300Z</time>
      </trkpt>
      <trkpt lat="42.73845" lon="-0.02413">
        <ele>1536</ele>
        <time>2024-08-01T15:27:26.493Z</time>
      </trkpt>
      <trkpt lat="42.73845" lon="-0.02412">
        <ele>1535</ele>
        <time>2024-08-01T15:27:27.014Z</time>
      </trkpt>
      <trkpt lat="42.73847" lon="-0.02412">
        <ele>1535</ele>
        <time>2024-08-01T15:27:28.818Z</time>
      </trkpt>
      <trkpt lat="42.73847" lon="-0.0241">
        <ele>1534</ele>
        <time>2024-08-01T15:27:29.964Z</time>
      </trkpt>
      <trkpt lat="42.73846" lon="-0.02407">
        <ele>1533</ele>
        <time>2024-08-01T15:27:32.289Z</time>
      </trkpt>
      <trkpt lat="42.73844" lon="-0.02405">
        <ele>1533</ele>
        <time>2024-08-01T15:27:34.488Z</time>
      </trkpt>
      <trkpt lat="42.73843" lon="-0.02403">
        <ele>1532</ele>
        <time>2024-08-01T15:27:35.618Z</time>
      </trkpt>
      <trkpt lat="42.73845" lon="-0.02402">
        <ele>1531</ele>
        <time>2024-08-01T15:27:37.355Z</time>
      </trkpt>
      <trkpt lat="42.73849" lon="-0.02402">
        <ele>1530</ele>
        <time>2024-08-01T15:27:40.433Z</time>
      </trkpt>
      <trkpt lat="42.73851" lon="-0.024">
        <ele>1530</ele>
        <time>2024-08-01T15:27:42.169Z</time>
      </trkpt>
      <trkpt lat="42.73848" lon="-0.02388">
        <ele>1526</ele>
        <time>2024-08-01T15:27:49.776Z</time>
      </trkpt>
      <trkpt lat="42.73851" lon="-0.02383">
        <ele>1524</ele>
        <time>2024-08-01T15:27:53.100Z</time>
      </trkpt>
      <trkpt lat="42.73855" lon="-0.02381">
        <ele>1523</ele>
        <time>2024-08-01T15:27:56.552Z</time>
      </trkpt>
      <trkpt lat="42.73859" lon="-0.02382">
        <ele>1522</ele>
        <time>2024-08-01T15:27:59.859Z</time>
      </trkpt>
      <trkpt lat="42.73862" lon="-0.02385">
        <ele>1522</ele>
        <time>2024-08-01T15:28:03.805Z</time>
      </trkpt>
      <trkpt lat="42.73864" lon="-0.02386">
        <ele>1522</ele>
        <time>2024-08-01T15:28:05.151Z</time>
      </trkpt>
      <trkpt lat="42.73864" lon="-0.02384">
        <ele>1522</ele>
        <time>2024-08-01T15:28:06.559Z</time>
      </trkpt>
      <trkpt lat="42.73865" lon="-0.02383">
        <ele>1521</ele>
        <time>2024-08-01T15:28:07.222Z</time>
      </trkpt>
      <trkpt lat="42.73867" lon="-0.02384">
        <ele>1521</ele>
        <time>2024-08-01T15:28:09.102Z</time>
      </trkpt>
      <trkpt lat="42.73868" lon="-0.02388">
        <ele>1522</ele>
        <time>2024-08-01T15:28:18.562Z</time>
      </trkpt>
      <trkpt lat="42.7387" lon="-0.02388">
        <ele>1522</ele>
        <time>2024-08-01T15:28:20.366Z</time>
      </trkpt>
      <trkpt lat="42.73872" lon="-0.02389">
        <ele>1521</ele>
        <time>2024-08-01T15:28:22.028Z</time>
      </trkpt>
      <trkpt lat="42.73872" lon="-0.02379">
        <ele>1519</ele>
        <time>2024-08-01T15:28:27.793Z</time>
      </trkpt>
      <trkpt lat="42.7387" lon="-0.02366">
        <ele>1517</ele>
        <time>2024-08-01T15:28:35.167Z</time>
      </trkpt>
      <trkpt lat="42.73871" lon="-0.02359">
        <ele>1515</ele>
        <time>2024-08-01T15:28:39.319Z</time>
      </trkpt>
      <trkpt lat="42.73873" lon="-0.02357">
        <ele>1514</ele>
        <time>2024-08-01T15:28:41.180Z</time>
      </trkpt>
      <trkpt lat="42.73876" lon="-0.02357">
        <ele>1514</ele>
        <time>2024-08-01T15:28:43.615Z</time>
      </trkpt>
      <trkpt lat="42.73876" lon="-0.02353">
        <ele>1513</ele>
        <time>2024-08-01T15:28:46.208Z</time>
      </trkpt>
      <trkpt lat="42.73876" lon="-0.02351">
        <ele>1512</ele>
        <time>2024-08-01T15:28:47.301Z</time>
      </trkpt>
      <trkpt lat="42.73881" lon="-0.02348">
        <ele>1511</ele>
        <time>2024-08-01T15:28:51.809Z</time>
      </trkpt>
      <trkpt lat="42.73884" lon="-0.02345">
        <ele>1510</ele>
        <time>2024-08-01T15:28:54.654Z</time>
      </trkpt>
      <trkpt lat="42.73886" lon="-0.02345">
        <ele>1510</ele>
        <time>2024-08-01T15:28:56.457Z</time>
      </trkpt>
      <trkpt lat="42.73887" lon="-0.02342">
        <ele>1509</ele>
        <time>2024-08-01T15:28:58.329Z</time>
      </trkpt>
      <trkpt lat="42.73889" lon="-0.02341">
        <ele>1509</ele>
        <time>2024-08-01T15:29:00.765Z</time>
      </trkpt>
      <trkpt lat="42.73895" lon="-0.02341">
        <ele>1507</ele>
        <time>2024-08-01T15:29:04.948Z</time>
      </trkpt>
      <trkpt lat="42.73901" lon="-0.02346">
        <ele>1507</ele>
        <time>2024-08-01T15:29:11.892Z</time>
      </trkpt>
      <trkpt lat="42.73907" lon="-0.02352">
        <ele>1506</ele>
        <time>2024-08-01T15:29:17.568Z</time>
      </trkpt>
      <trkpt lat="42.73911" lon="-0.02354">
        <ele>1505</ele>
        <time>2024-08-01T15:29:20.994Z</time>
      </trkpt>
      <trkpt lat="42.73917" lon="-0.02354">
        <ele>1504</ele>
        <time>2024-08-01T15:29:25.650Z</time>
      </trkpt>
      <trkpt lat="42.73921" lon="-0.02357">
        <ele>1503</ele>
        <time>2024-08-01T15:29:29.173Z</time>
      </trkpt>
      <trkpt lat="42.73924" lon="-0.02358">
        <ele>1503</ele>
        <time>2024-08-01T15:29:31.697Z</time>
      </trkpt>
      <trkpt lat="42.73925" lon="-0.02358">
        <ele>1502</ele>
        <time>2024-08-01T15:29:32.723Z</time>
      </trkpt>
      <trkpt lat="42.73926" lon="-0.02354">
        <ele>1502</ele>
        <time>2024-08-01T15:29:35.233Z</time>
      </trkpt>
      <trkpt lat="42.73924" lon="-0.02351">
        <ele>1502</ele>
        <time>2024-08-01T15:29:38.062Z</time>
      </trkpt>
      <trkpt lat="42.73921" lon="-0.02338">
        <ele>1501</ele>
        <time>2024-08-01T15:29:45.870Z</time>
      </trkpt>
      <trkpt lat="42.73919" lon="-0.0232">
        <ele>1498</ele>
        <time>2024-08-01T15:29:56.295Z</time>
      </trkpt>
      <trkpt lat="42.73917" lon="-0.02313">
        <ele>1498</ele>
        <time>2024-08-01T15:30:01.709Z</time>
      </trkpt>
      <trkpt lat="42.73917" lon="-0.02303">
        <ele>1497</ele>
        <time>2024-08-01T15:30:07.389Z</time>
      </trkpt>
      <trkpt lat="42.73914" lon="-0.02289">
        <ele>1496</ele>
        <time>2024-08-01T15:30:15.983Z</time>
      </trkpt>
      <trkpt lat="42.73913" lon="-0.02279">
        <ele>1495</ele>
        <time>2024-08-01T15:30:21.690Z</time>
      </trkpt>
      <trkpt lat="42.73914" lon="-0.02274">
        <ele>1494</ele>
        <time>2024-08-01T15:30:24.925Z</time>
      </trkpt>
      <trkpt lat="42.73917" lon="-0.02272">
        <ele>1494</ele>
        <time>2024-08-01T15:30:27.556Z</time>
      </trkpt>
      <trkpt lat="42.73922" lon="-0.02264">
        <ele>1493</ele>
        <time>2024-08-01T15:30:34.127Z</time>
      </trkpt>
      <trkpt lat="42.73926" lon="-0.02253">
        <ele>1492</ele>
        <time>2024-08-01T15:30:41.189Z</time>
      </trkpt>
      <trkpt lat="42.73929" lon="-0.02245">
        <ele>1491</ele>
        <time>2024-08-01T15:30:46.259Z</time>
      </trkpt>
      <trkpt lat="42.73929" lon="-0.0224">
        <ele>1491</ele>
        <time>2024-08-01T15:30:49.836Z</time>
      </trkpt>
      <trkpt lat="42.7393" lon="-0.02232">
        <ele>1490</ele>
        <time>2024-08-01T15:30:54.584Z</time>
      </trkpt>
      <trkpt lat="42.73928" lon="-0.02226">
        <ele>1490</ele>
        <time>2024-08-01T15:30:58.610Z</time>
      </trkpt>
      <trkpt lat="42.73927" lon="-0.02218">
        <ele>1489</ele>
        <time>2024-08-01T15:31:03.416Z</time>
      </trkpt>
      <trkpt lat="42.73926" lon="-0.02208">
        <ele>1488</ele>
        <time>2024-08-01T15:31:09.180Z</time>
      </trkpt>
      <trkpt lat="42.73928" lon="-0.02192">
        <ele>1486</ele>
        <time>2024-08-01T15:31:18.644Z</time>
      </trkpt>
      <trkpt lat="42.7393" lon="-0.02174">
        <ele>1485</ele>
        <time>2024-08-01T15:31:29.183Z</time>
      </trkpt>
      <trkpt lat="42.73935" lon="-0.02157">
        <ele>1484</ele>
        <time>2024-08-01T15:31:39.711Z</time>
      </trkpt>
      <trkpt lat="42.73936" lon="-0.02153">
        <ele>1484</ele>
        <time>2024-08-01T15:31:42.368Z</time>
      </trkpt>
      <trkpt lat="42.73939" lon="-0.02147">
        <ele>1484</ele>
        <time>2024-08-01T15:31:47.155Z</time>
      </trkpt>
      <trkpt lat="42.73942" lon="-0.02129">
        <ele>1484</ele>
        <time>2024-08-01T15:31:59.306Z</time>
      </trkpt>
      <trkpt lat="42.73938" lon="-0.02107">
        <ele>1483</ele>
        <time>2024-08-01T15:32:12.648Z</time>
      </trkpt>
      <trkpt lat="42.73932" lon="-0.02089">
        <ele>1482</ele>
        <time>2024-08-01T15:32:23.859Z</time>
      </trkpt>
      <trkpt lat="42.73927" lon="-0.02081">
        <ele>1481</ele>
        <time>2024-08-01T15:32:30.146Z</time>
      </trkpt>
      <trkpt lat="42.7393" lon="-0.02075">
        <ele>1481</ele>
        <time>2024-08-01T15:32:34.742Z</time>
      </trkpt>
      <trkpt lat="42.73934" lon="-0.02071">
        <ele>1482</ele>
        <time>2024-08-01T15:32:43.866Z</time>
      </trkpt>
      <trkpt lat="42.73936" lon="-0.02065">
        <ele>1482</ele>
        <time>2024-08-01T15:32:47.931Z</time>
      </trkpt>
      <trkpt lat="42.73936" lon="-0.0206">
        <ele>1482</ele>
        <time>2024-08-01T15:32:51.563Z</time>
      </trkpt>
      <trkpt lat="42.7393" lon="-0.02035">
        <ele>1482</ele>
        <time>2024-08-01T15:33:08.862Z</time>
      </trkpt>
      <trkpt lat="42.73925" lon="-0.02017">
        <ele>1481</ele>
        <time>2024-08-01T15:33:20.019Z</time>
      </trkpt>
      <trkpt lat="42.73924" lon="-0.02008">
        <ele>1481</ele>
        <time>2024-08-01T15:33:26.014Z</time>
      </trkpt>
      <trkpt lat="42.73926" lon="-0.02002">
        <ele>1481</ele>
        <time>2024-08-01T15:33:30.348Z</time>
      </trkpt>
      <trkpt lat="42.73925" lon="-0.01998">
        <ele>1481</ele>
        <time>2024-08-01T15:33:32.858Z</time>
      </trkpt>
      <trkpt lat="42.73918" lon="-0.01987">
        <ele>1479</ele>
        <time>2024-08-01T15:33:41.322Z</time>
      </trkpt>
      <trkpt lat="42.73918" lon="-0.01982">
        <ele>1479</ele>
        <time>2024-08-01T15:33:44.833Z</time>
      </trkpt>
      <trkpt lat="42.73906" lon="-0.01956">
        <ele>1479</ele>
        <time>2024-08-01T15:34:05.237Z</time>
      </trkpt>
      <trkpt lat="42.7389" lon="-0.01928">
        <ele>1478</ele>
        <time>2024-08-01T15:34:25.962Z</time>
      </trkpt>
      <trkpt lat="42.7388" lon="-0.01903">
        <ele>1477</ele>
        <time>2024-08-01T15:34:42.754Z</time>
      </trkpt>
      <trkpt lat="42.73872" lon="-0.01892">
        <ele>1476</ele>
        <time>2024-08-01T15:34:51.218Z</time>
      </trkpt>
      <trkpt lat="42.73866" lon="-0.01862">
        <ele>1475</ele>
        <time>2024-08-01T15:35:09.177Z</time>
      </trkpt>
      <trkpt lat="42.7386" lon="-0.01852">
        <ele>1474</ele>
        <time>2024-08-01T15:35:16.324Z</time>
      </trkpt>
      <trkpt lat="42.73859" lon="-0.0184">
        <ele>1474</ele>
        <time>2024-08-01T15:35:24.844Z</time>
      </trkpt>
      <trkpt lat="42.73852" lon="-0.01825">
        <ele>1472</ele>
        <time>2024-08-01T15:35:34.675Z</time>
      </trkpt>
      <trkpt lat="42.73837" lon="-0.01808">
        <ele>1468</ele>
        <time>2024-08-01T15:35:49.813Z</time>
      </trkpt>
      <trkpt lat="42.73826" lon="-0.01803">
        <ele>1465</ele>
        <time>2024-08-01T15:35:59.170Z</time>
      </trkpt>
      <trkpt lat="42.73822" lon="-0.018">
        <ele>1464</ele>
        <time>2024-08-01T15:36:03.146Z</time>
      </trkpt>
      <trkpt lat="42.73818" lon="-0.01797">
        <ele>1463</ele>
        <time>2024-08-01T15:36:06.447Z</time>
      </trkpt>
      <trkpt lat="42.73812" lon="-0.01794">
        <ele>1461</ele>
        <time>2024-08-01T15:36:11.885Z</time>
      </trkpt>
      <trkpt lat="42.73801" lon="-0.01789">
        <ele>1459</ele>
        <time>2024-08-01T15:36:20.763Z</time>
      </trkpt>
      <trkpt lat="42.73794" lon="-0.01781">
        <ele>1457</ele>
        <time>2024-08-01T15:36:27.463Z</time>
      </trkpt>
      <trkpt lat="42.73793" lon="-0.01773">
        <ele>1456</ele>
        <time>2024-08-01T15:36:32.447Z</time>
      </trkpt>
      <trkpt lat="42.73788" lon="-0.01758">
        <ele>1454</ele>
        <time>2024-08-01T15:36:41.922Z</time>
      </trkpt>
      <trkpt lat="42.73785" lon="-0.01732">
        <ele>1451</ele>
        <time>2024-08-01T15:36:57.256Z</time>
      </trkpt>
      <trkpt lat="42.73791" lon="-0.01703">
        <ele>1448</ele>
        <time>2024-08-01T15:37:14.529Z</time>
      </trkpt>
      <trkpt lat="42.73794" lon="-0.01692">
        <ele>1447</ele>
        <time>2024-08-01T15:37:21.793Z</time>
      </trkpt>
      <trkpt lat="42.73797" lon="-0.01684">
        <ele>1446</ele>
        <time>2024-08-01T15:37:26.896Z</time>
      </trkpt>
      <trkpt lat="42.73799" lon="-0.01675">
        <ele>1445</ele>
        <time>2024-08-01T15:37:31.904Z</time>
      </trkpt>
      <trkpt lat="42.73806" lon="-0.01665">
        <ele>1443</ele>
        <time>2024-08-01T15:37:40.315Z</time>
      </trkpt>
      <trkpt lat="42.73809" lon="-0.01646">
        <ele>1439</ele>
        <time>2024-08-01T15:37:51.474Z</time>
      </trkpt>
      <trkpt lat="42.73815" lon="-0.01612">
        <ele>1430</ele>
        <time>2024-08-01T15:38:11.779Z</time>
      </trkpt>
      <trkpt lat="42.73819" lon="-0.01603">
        <ele>1427</ele>
        <time>2024-08-01T15:38:17.836Z</time>
      </trkpt>
      <trkpt lat="42.73819" lon="-0.01594">
        <ele>1423</ele>
        <time>2024-08-01T15:38:23.052Z</time>
      </trkpt>
      <trkpt lat="42.73818" lon="-0.01577">
        <ele>1418</ele>
        <time>2024-08-01T15:38:32.950Z</time>
      </trkpt>
      <trkpt lat="42.73819" lon="-0.01576">
        <ele>1417</ele>
        <time>2024-08-01T15:38:34.031Z</time>
      </trkpt>
      <trkpt lat="42.73828" lon="-0.01577">
        <ele>1417</ele>
        <time>2024-08-01T15:38:42.440Z</time>
      </trkpt>
      <trkpt lat="42.73835" lon="-0.01576">
        <ele>1416</ele>
        <time>2024-08-01T15:38:47.674Z</time>
      </trkpt>
      <trkpt lat="42.73829" lon="-0.01564">
        <ele>1413</ele>
        <time>2024-08-01T15:38:55.641Z</time>
      </trkpt>
      <trkpt lat="42.73822" lon="-0.01555">
        <ele>1410</ele>
        <time>2024-08-01T15:39:03.413Z</time>
      </trkpt>
      <trkpt lat="42.73826" lon="-0.0155">
        <ele>1409</ele>
        <time>2024-08-01T15:39:07.535Z</time>
      </trkpt>
      <trkpt lat="42.73831" lon="-0.01547">
        <ele>1407</ele>
        <time>2024-08-01T15:39:11.907Z</time>
      </trkpt>
      <trkpt lat="42.73847" lon="-0.01541">
        <ele>1404</ele>
        <time>2024-08-01T15:39:24.974Z</time>
      </trkpt>
      <trkpt lat="42.7386" lon="-0.01531">
        <ele>1401</ele>
        <time>2024-08-01T15:39:36.826Z</time>
      </trkpt>
      <trkpt lat="42.73862" lon="-0.01529">
        <ele>1400</ele>
        <time>2024-08-01T15:39:39.173Z</time>
      </trkpt>
      <trkpt lat="42.73864" lon="-0.01522">
        <ele>1397</ele>
        <time>2024-08-01T15:39:43.635Z</time>
      </trkpt>
      <trkpt lat="42.73857" lon="-0.01524">
        <ele>1399</ele>
        <time>2024-08-01T15:40:01.417Z</time>
      </trkpt>
      <trkpt lat="42.73845" lon="-0.01527">
        <ele>1400</ele>
        <time>2024-08-01T15:40:15.570Z</time>
      </trkpt>
      <trkpt lat="42.73818" lon="-0.0152">
        <ele>1400</ele>
        <time>2024-08-01T15:40:40.458Z</time>
      </trkpt>
      <trkpt lat="42.73802" lon="-0.01515">
        <ele>1402</ele>
        <time>2024-08-01T15:41:02.649Z</time>
      </trkpt>
      <trkpt lat="42.73772" lon="-0.01502">
        <ele>1406</ele>
        <time>2024-08-01T15:41:46.161Z</time>
      </trkpt>
      <trkpt lat="42.73754" lon="-0.01494">
        <ele>1408</ele>
        <time>2024-08-01T15:42:10.737Z</time>
      </trkpt>
      <trkpt lat="42.7375" lon="-0.01485">
        <ele>1407</ele>
        <time>2024-08-01T15:42:16.567Z</time>
      </trkpt>
      <trkpt lat="42.73744" lon="-0.01478">
        <ele>1406</ele>
        <time>2024-08-01T15:42:23.143Z</time>
      </trkpt>
      <trkpt lat="42.73738" lon="-0.0147">
        <ele>1406</ele>
        <time>2024-08-01T15:42:30.379Z</time>
      </trkpt>
      <trkpt lat="42.73734" lon="-0.01459">
        <ele>1404</ele>
        <time>2024-08-01T15:42:37.337Z</time>
      </trkpt>
      <trkpt lat="42.73731" lon="-0.0144">
        <ele>1401</ele>
        <time>2024-08-01T15:42:48.653Z</time>
      </trkpt>
      <trkpt lat="42.73728" lon="-0.01413">
        <ele>1396</ele>
        <time>2024-08-01T15:43:04.461Z</time>
      </trkpt>
      <trkpt lat="42.73726" lon="-0.01394">
        <ele>1392</ele>
        <time>2024-08-01T15:43:15.471Z</time>
      </trkpt>
      <trkpt lat="42.73722" lon="-0.0138">
        <ele>1390</ele>
        <time>2024-08-01T15:43:24.312Z</time>
      </trkpt>
      <trkpt lat="42.73699" lon="-0.01357">
        <ele>1387</ele>
        <time>2024-08-01T15:43:46.376Z</time>
      </trkpt>
      <trkpt lat="42.73688" lon="-0.01347">
        <ele>1386</ele>
        <time>2024-08-01T15:43:56.914Z</time>
      </trkpt>
      <trkpt lat="42.73682" lon="-0.01338">
        <ele>1383</ele>
        <time>2024-08-01T15:44:04.258Z</time>
      </trkpt>
      <trkpt lat="42.73675" lon="-0.01322">
        <ele>1379</ele>
        <time>2024-08-01T15:44:14.833Z</time>
      </trkpt>
      <trkpt lat="42.73663" lon="-0.01313">
        <ele>1377</ele>
        <time>2024-08-01T15:44:25.991Z</time>
      </trkpt>
      <trkpt lat="42.73634" lon="-0.01301">
        <ele>1375</ele>
        <time>2024-08-01T15:44:49.563Z</time>
      </trkpt>
      <trkpt lat="42.73617" lon="-0.01297">
        <ele>1376</ele>
        <time>2024-08-01T15:45:08.416Z</time>
      </trkpt>
      <trkpt lat="42.73599" lon="-0.01284">
        <ele>1375</ele>
        <time>2024-08-01T15:45:24.398Z</time>
      </trkpt>
      <trkpt lat="42.73592" lon="-0.01265">
        <ele>1372</ele>
        <time>2024-08-01T15:45:36.775Z</time>
      </trkpt>
      <trkpt lat="42.73581" lon="-0.01244">
        <ele>1370</ele>
        <time>2024-08-01T15:45:51.676Z</time>
      </trkpt>
      <trkpt lat="42.73581" lon="-0.01234">
        <ele>1368</ele>
        <time>2024-08-01T15:45:57.434Z</time>
      </trkpt>
      <trkpt lat="42.73561" lon="-0.01208">
        <ele>1367</ele>
        <time>2024-08-01T15:46:20.061Z</time>
      </trkpt>
      <trkpt lat="42.73552" lon="-0.01193">
        <ele>1367</ele>
        <time>2024-08-01T15:46:33.216Z</time>
      </trkpt>
      <trkpt lat="42.73548" lon="-0.01183">
        <ele>1367</ele>
        <time>2024-08-01T15:46:40.358Z</time>
      </trkpt>
      <trkpt lat="42.73545" lon="-0.01169">
        <ele>1366</ele>
        <time>2024-08-01T15:46:49.046Z</time>
      </trkpt>
      <trkpt lat="42.73529" lon="-0.01109">
        <ele>1364</ele>
        <time>2024-08-01T15:47:26.007Z</time>
      </trkpt>
      <trkpt lat="42.73537" lon="-0.0111">
        <ele>1362</ele>
        <time>2024-08-01T15:47:32.263Z</time>
      </trkpt>
      <trkpt lat="42.73529" lon="-0.01085">
        <ele>1362</ele>
        <time>2024-08-01T15:47:50.351Z</time>
      </trkpt>
      <trkpt lat="42.73525" lon="-0.01073">
        <ele>1362</ele>
        <time>2024-08-01T15:47:58.715Z</time>
      </trkpt>
      <trkpt lat="42.73525" lon="-0.01065">
        <ele>1362</ele>
        <time>2024-08-01T15:48:04.579Z</time>
      </trkpt>
      <trkpt lat="42.73525" lon="-0.01056">
        <ele>1362</ele>
        <time>2024-08-01T15:48:10.047Z</time>
      </trkpt>
      <trkpt lat="42.73533" lon="-0.01041">
        <ele>1361</ele>
        <time>2024-08-01T15:48:20.579Z</time>
      </trkpt>
      <trkpt lat="42.73542" lon="-0.01048">
        <ele>1360</ele>
        <time>2024-08-01T15:48:29.436Z</time>
      </trkpt>
      <trkpt lat="42.73563" lon="-0.0106">
        <ele>1356</ele>
        <time>2024-08-01T15:48:46.977Z</time>
      </trkpt>
      <trkpt lat="42.73577" lon="-0.0107">
        <ele>1354</ele>
        <time>2024-08-01T15:48:59.778Z</time>
      </trkpt>
      <trkpt lat="42.73591" lon="-0.01073">
        <ele>1353</ele>
        <time>2024-08-01T15:49:10.390Z</time>
      </trkpt>
    </trkseg>
  </trk>
</gpx>